# Wetter Temperatur Luftdruck Luftfeuchtigkeit Sichtweite Windgeschwindigkeit Windrichtung Zeit
1 Clouds -7 981 62 10000 10.3 150 20:22 02.04.2020
2 Clouds -7 981 67 10000 8.2 130 19:45 02.04.2020
3 Clouds -7 981 62 10000 8.2 140 19:21 02.04.2020
4 Clouds -6 981 62 10000 9.3 150 19:00 02.04.2020
5 Clouds -6 981 62 10000 9.3 150 18:41 02.04.2020
6 Clouds -6 981 62 10000 7.7 160 18:21 02.04.2020
7 Clouds -6 981 62 10000 7.7 160 18:21 02.04.2020
8 Clear -6 982 62 10000 8.2 160 17:57 02.04.2020
9 Clear -5 982 62 10000 8.2 160 17:39 02.04.2020
10 Clear -4 982 57 10000 9.3 150 17:20 02.04.2020
11 Clear -4 982 62 10000 9.8 160 16:56 02.04.2020
12 Clear -4 982 62 10000 9.8 160 16:38 02.04.2020
13 Clear -4 983 57 10000 8.7 150 16:20 02.04.2020
14 Clear -4 983 62 10000 7.7 150 15:54 02.04.2020
15 Clear -4 983 62 10000 7.7 150 15:36 02.04.2020
16 Clear -3 983 53 10000 6.7 170 15:18 02.04.2020
17 Clear -3 983 58 10000 6.2 190 14:40 02.04.2020
18 Clear -3 983 58 10000 6.2 190 14:40 02.04.2020
19 Clear -2 983 54 10000 6.2 190 14:20 02.04.2020
20 Clear -3 983 58 10000 8.7 180 13:58 02.04.2020
21 Clear -3 983 58 10000 8.7 180 13:39 02.04.2020
22 Clouds -3 984 58 10000 9.8 180 13:21 02.04.2020
23 Clouds -3 984 58 10000 9.8 180 12:56 02.04.2020
24 Clouds -3 984 58 10000 9.8 180 12:56 02.04.2020
25 Clouds -3 984 58 10000 9.8 180 12:56 02.04.2020
26 Clouds -3 984 58 10000 9.8 180 12:37 02.04.2020
27 Clouds -3 984 58 10000 9.3 180 12:19 02.04.2020
28 Clouds -3 985 58 10000 9.3 180 11:57 02.04.2020
29 Clouds -3 985 58 10000 9.3 180 11:38 02.04.2020
30 Clouds -4 985 62 10000 8.7 180 11:19 02.04.2020
31 Clouds -4 985 62 10000 8.7 180 11:19 02.04.2020
32 Clouds -4 985 62 10000 8.7 180 10:55 02.04.2020
33 Clouds -4 985 62 10000 8.7 180 10:55 02.04.2020
34 Clouds -4 985 62 10000 8.7 180 10:37 02.04.2020
35 Clear -3 986 58 10000 8.7 180 10:18 02.04.2020
36 Clear -4 986 62 10000 8.2 190 09:43 02.04.2020
37 Clear -4 986 62 10000 8.7 190 09:25 02.04.2020
38 Clouds -4 986 62 10000 7.7 180 08:58 02.04.2020
39 Clouds -4 986 62 10000 7.7 180 08:40 02.04.2020
40 Clouds -4 986 62 10000 5.7 180 08:22 02.04.2020
41 Clouds -4 987 67 10000 5.7 190 07:44 02.04.2020
42 Clouds -5 987 67 10000 8.2 190 07:20 02.04.2020
43 Clouds -5 987 67 10000 8.2 190 06:58 02.04.2020
44 Clouds -5 988 67 10000 8.2 190 06:21 02.04.2020
45 Clouds -5 988 67 10000 8.2 190 05:45 02.04.2020
46 Clouds -5 989 67 10000 5.1 170 04:33 02.04.2020
47 Clouds -5 992 73 10000 6.2 170 01:35 02.04.2020
48 Clouds -6 992 79 10000 4.6 160 00:48 02.04.2020
49 Clouds -6 993 73 10000 5.1 160 00:26 02.04.2020
50 Clouds -6 993 79 10000 9.8 150 23:54 01.04.2020
51 Clouds -6 993 79 10000 9.8 150 23:36 01.04.2020
52 Clouds -5 993 79 10000 6.2 160 23:18 01.04.2020
53 Clouds -5 993 79 10000 5.1 170 22:40 01.04.2020
54 Clouds -4 994 73 10000 4.6 180 22:21 01.04.2020
55 Clouds -5 994 79 10000 4.6 170 21:55 01.04.2020
56 Clouds -5 994 79 10000 4.6 170 21:36 01.04.2020
57 Snow -5 994 79 10000 3.6 180 21:18 01.04.2020
58 Clouds -5 994 79 10000 3.1 160 20:54 01.04.2020
59 Clouds -5 994 79 10000 3.1 160 20:36 01.04.2020
60 Clouds -5 995 85 10000 5.1 130 20:18 01.04.2020
61 Clouds -6 995 85 10000 4.1 130 19:41 01.04.2020
62 Clouds -6 995 79 10000 3.1 140 19:21 01.04.2020
63 Clouds -5 995 79 10000 3.1 140 18:46 01.04.2020
64 Clouds -4 995 79 10000 1.5 150 18:27 01.04.2020
65 Clouds -2 995 68 10000 1 150 17:59 01.04.2020
66 Clouds -2 995 68 10000 1 150 17:59 01.04.2020
67 Clouds -2 995 68 10000 1 150 17:39 01.04.2020
68 Clouds -3 995 68 10000 1.5 80 17:21 01.04.2020
69 Clouds -3 995 68 10000 1.5 80 16:59 01.04.2020
70 Clouds -3 996 73 10000 1 0 16:41 01.04.2020
71 Clouds -2 996 74 10000 1 280 16:22 01.04.2020
72 Clouds -3 996 85 10000 3.78 104 15:58 01.04.2020
73 Clouds -3 996 85 10000 3.78 104 15:38 01.04.2020
74 Clouds -3 996 85 10000 3.78 104 15:38 01.04.2020
75 Clouds -2 996 74 10000 1 0 15:20 01.04.2020
76 Clouds 0 996 86 10000 2.76 37 14:57 01.04.2020
77 Clouds 0 996 86 10000 2.76 37 14:38 01.04.2020
78 Clouds -1 996 68 10000 1 0 14:19 01.04.2020
79 Clouds -1 996 68 10000 1 0 13:57 01.04.2020
80 Clouds -1 996 80 10000 1 0 13:37 01.04.2020
81 Rain 0 997 88 10000 1 0 13:18 01.04.2020
82 Rain 0 996 88 10000 2.1 80 12:54 01.04.2020
83 Clouds -1 996 74 10000 1 0 12:36 01.04.2020
84 Clouds -1 996 74 10000 1 0 12:18 01.04.2020
85 Rain 0 996 87 10000 3.6 320 11:40 01.04.2020
86 Rain -1 997 74 10000 4.6 310 11:21 01.04.2020
87 Rain -1 997 74 10000 4.6 310 10:57 01.04.2020
88 Snow -2 997 86 10000 7.7 340 10:37 01.04.2020
89 Rain -2 997 73 10000 5.7 30 10:18 01.04.2020
90 Rain -2 997 73 10000 5.7 30 10:18 01.04.2020
91 Rain -2 997 73 10000 6.7 30 09:55 01.04.2020
92 Rain -2 997 73 10000 6.7 30 09:37 01.04.2020
93 Rain -3 997 85 10000 7.7 20 09:18 01.04.2020
94 Rain -3 997 79 10000 8.7 30 08:40 01.04.2020
95 Rain -2 996 86 10000 5.7 60 08:18 01.04.2020
96 Snow -3 996 100 1500 6.2 50 07:42 01.04.2020
97 Snow -4 996 92 1800 7.2 60 07:20 01.04.2020
98 Rain -4 996 92 10000 9.3 50 06:47 01.04.2020
99 Rain -3 996 79 10000 10.8 40 06:23 01.04.2020
100 Clouds -5 996 85 10000 6.2 70 05:56 01.04.2020
101 Snow -4 995 92 3400 9.3 60 04:30 01.04.2020
102 Rain -4 995 92 10000 8.7 70 03:28 01.04.2020
103 Snow -4 995 85 10000 8.7 60 02:49 01.04.2020
104 Snow -4 994 92 10000 6.7 70 01:57 01.04.2020
105 Snow -4 994 85 6000 8.2 60 01:38 01.04.2020
106 Clouds -4 994 85 10000 8.2 60 01:18 01.04.2020
107 Clouds -4 994 73 10000 8.7 60 00:45 01.04.2020
108 Clouds -5 993 73 10000 8.7 70 00:20 01.04.2020
109 Clouds -4 993 68 10000 10.8 60 23:42 31.03.2020
110 Clouds -4 992 73 10000 11.8 70 23:23 31.03.2020
111 Clouds -4 992 73 10000 11.8 70 22:58 31.03.2020
112 Clouds -4 992 73 10000 11.8 70 22:37 31.03.2020
113 Clouds -4 992 73 10000 9.8 80 22:19 31.03.2020
114 Rain -4 991 73 10000 10.8 80 21:56 31.03.2020
115 Rain -4 991 73 10000 10.8 80 21:38 31.03.2020
116 Rain -4 991 79 10000 11.3 80 21:19 31.03.2020
117 Rain -4 991 79 10000 11.3 80 20:55 31.03.2020
118 Rain -4 990 79 10000 12.9 80 20:36 31.03.2020
119 Rain -4 990 79 10000 12.9 80 20:18 31.03.2020
120 Rain -4 990 79 10000 13.4 90 19:42 31.03.2020
121 Rain -4 989 79 10000 14.4 90 19:23 31.03.2020
122 Rain -4 988 79 10000 13.9 100 18:58 31.03.2020
123 Rain -4 988 79 10000 13.9 100 18:39 31.03.2020
124 Rain -4 988 85 10000 15.4 100 18:18 31.03.2020
125 Snow -4 988 85 10000 14.4 100 17:55 31.03.2020
126 Snow -4 988 85 10000 14.4 100 17:37 31.03.2020
127 Snow -4 987 85 10000 13.9 100 17:18 31.03.2020
128 Snow -4 987 85 5000 12.9 100 16:40 31.03.2020
129 Snow -4 987 85 3500 13.9 100 16:19 31.03.2020
130 Snow -4 987 85 3500 13.9 100 15:57 31.03.2020
131 Snow -4 986 85 5000 11.3 110 15:39 31.03.2020
132 Snow -4 986 85 5000 10.8 110 15:21 31.03.2020
133 Snow -4 986 85 5000 10.8 110 14:57 31.03.2020
134 Snow -4 986 85 7000 11.3 120 14:39 31.03.2020
135 Snow -4 986 85 5000 10.8 120 14:20 31.03.2020
136 Snow -4 986 79 6000 12.9 140 13:43 31.03.2020
137 Snow -4 986 79 6000 14.4 150 13:20 31.03.2020
138 Rain -4 986 79 10000 14.4 160 12:59 31.03.2020
139 Rain -4 986 79 10000 14.4 160 12:40 31.03.2020
140 Rain -4 986 73 10000 16.5 160 12:19 31.03.2020
141 Snow -4 986 73 10000 14.4 170 11:40 31.03.2020
142 Clouds -4 986 73 10000 14.4 170 11:20 31.03.2020
143 Clouds -4 986 73 10000 14.4 170 10:59 31.03.2020
144 Clouds -4 986 73 10000 14.9 180 10:40 31.03.2020
145 Clouds -4 986 73 10000 16.5 170 10:22 31.03.2020
146 Clouds -4 986 73 10000 16.5 170 09:59 31.03.2020
147 Clouds -4 987 73 10000 16.5 170 09:40 31.03.2020
148 Snow -5 987 85 8000 18.5 170 09:22 31.03.2020
149 Snow -5 987 85 8000 18.5 170 08:57 31.03.2020
150 Snow -5 988 85 8000 20.6 170 08:38 31.03.2020
151 Snow -5 989 85 7000 22.1 170 08:19 31.03.2020
152 Snow -5 989 85 7000 22.1 170 08:19 31.03.2020
153 Clouds -5 990 85 9000 19.5 170 07:56 31.03.2020
154 Clouds -5 990 85 9000 19.5 170 07:37 31.03.2020
155 Clouds -5 991 79 9000 19 160 07:19 31.03.2020
156 Clouds -5 992 85 5000 18 170 06:46 31.03.2020
157 Clouds -5 993 79 8000 20.6 180 06:20 31.03.2020
158 Snow -5 996 79 5000 19 180 05:39 31.03.2020
159 Clouds -5 1002 73 9000 15.9 170 03:34 31.03.2020
160 Clouds -5 1005 79 10000 10.8 160 02:18 31.03.2020
161 Clouds -5 1005 79 10000 10.8 160 01:45 31.03.2020
162 Clouds -4 1008 85 10000 5.1 180 00:47 31.03.2020
163 Clouds -4 1009 85 10000 9.3 190 00:25 31.03.2020
164 Clouds -4 1010 85 10000 6.7 180 23:56 30.03.2020
165 Clouds -3 1010 85 10000 6.7 180 23:37 30.03.2020
166 Clouds -3 1010 79 10000 5.1 180 23:18 30.03.2020
167 Clouds -4 1011 85 10000 3.6 190 22:55 30.03.2020
168 Clouds -4 1011 85 10000 3.6 190 22:36 30.03.2020
169 Rain -4 1012 85 10000 3.6 190 22:18 30.03.2020
170 Clouds -4 1012 85 10000 2.6 190 21:54 30.03.2020
171 Clouds -4 1012 85 10000 2.6 190 21:36 30.03.2020
172 Rain -4 1013 92 10000 1.5 0 21:18 30.03.2020
173 Clouds -5 1013 79 10000 2.1 300 20:40 30.03.2020
174 Rain -5 1014 92 10000 3.1 280 20:22 30.03.2020
175 Rain -5 1014 85 10000 6.2 290 19:59 30.03.2020
176 Rain -5 1014 85 10000 6.2 290 19:39 30.03.2020
177 Rain -4 1014 85 10000 6.7 300 19:21 30.03.2020
178 Rain -5 1015 92 10000 5.7 320 18:56 30.03.2020
179 Rain -5 1015 92 10000 5.7 320 18:37 30.03.2020
180 Snow -3 1015 86 5000 9.3 330 18:19 30.03.2020
181 Rain -4 1015 92 10000 4.6 290 17:55 30.03.2020
182 Rain -3 1015 92 10000 4.6 290 17:36 30.03.2020
183 Snow -3 1015 86 3000 7.2 290 17:18 30.03.2020
184 Rain -3 1016 85 10000 4.1 320 16:54 30.03.2020
185 Rain -3 1016 85 10000 4.1 320 16:36 30.03.2020
186 Snow -3 1016 79 2500 6.2 320 16:18 30.03.2020
187 Snow -2 1016 86 10000 5.1 330 15:41 30.03.2020
188 Snow -3 1016 79 2000 7.2 330 15:22 30.03.2020
189 Rain -3 1016 86 7000 7.2 350 14:59 30.03.2020
190 Rain -3 1016 86 7000 7.2 350 14:38 30.03.2020
191 Rain -3 1016 85 9000 7.2 330 14:19 30.03.2020
192 Rain -4 1015 85 9000 10.3 340 13:58 30.03.2020
193 Rain -3 1016 85 9000 7.2 330 13:58 30.03.2020
194 Rain -4 1015 85 9000 10.3 340 13:39 30.03.2020
195 Snow -4 1015 85 10000 7.2 360 13:20 30.03.2020
196 Snow -4 1015 85 2500 9.3 350 12:45 30.03.2020
197 Rain -3 1015 86 10000 11.3 340 12:22 30.03.2020
198 Rain -4 1015 85 10000 10.3 340 11:59 30.03.2020
199 Rain -4 1015 85 10000 10.3 340 11:41 30.03.2020
200 Clouds -4 1015 85 1000 13.9 330 11:22 30.03.2020
201 Clouds -4 1015 85 1000 13.9 330 11:22 30.03.2020
202 Clouds -4 1015 85 1000 13.9 330 10:57 30.03.2020
203 Snow -4 1014 85 8000 14.9 320 10:38 30.03.2020
204 -273 0 0 0 0 0 10:20 30.03.2020
205 Clouds -3 1014 73 10000 19.5 340 09:41 30.03.2020
206 Rain -2 1014 73 10000 13.9 330 09:20 30.03.2020
207 Rain -4 1014 92 10000 16.5 320 08:58 30.03.2020
208 Rain -4 1014 92 10000 16.5 320 08:38 30.03.2020
209 Snow -4 1014 79 10000 13.4 310 08:20 30.03.2020
210 Snow -4 1014 79 5000 13.4 320 07:44 30.03.2020
211 Snow -5 1014 85 1000 19.5 320 07:23 30.03.2020
212 Rain -5 1014 85 5000 13.9 330 06:47 30.03.2020
213 Rain -5 1014 85 8000 14.4 330 06:25 30.03.2020
214 Rain -4 1013 73 9000 15.9 330 05:44 30.03.2020
215 Snow -5 1014 85 1800 14.4 320 04:37 30.03.2020
216 Rain -4 1013 79 6000 17 340 04:18 30.03.2020
217 Snow -5 1013 85 3500 13.9 320 02:45 30.03.2020
218 Snow -4 1013 79 5000 15.9 340 01:58 30.03.2020
219 Snow -4 1013 79 1500 13.9 330 01:18 30.03.2020
220 Clouds -6 1013 92 1400 17 340 00:29 30.03.2020
221 Rain -5 1013 79 9000 13.4 320 23:57 29.03.2020
222 Rain -5 1013 79 9000 13.4 320 23:57 29.03.2020
223 Rain -4 1013 79 9000 13.4 320 23:39 29.03.2020
224 Snow -4 1013 68 7000 16.5 330 23:20 29.03.2020
225 Rain -4 1012 73 10000 17.5 350 22:55 29.03.2020
226 Rain -4 1012 73 10000 17.5 350 22:55 29.03.2020
227 Rain -4 1012 73 10000 17.5 350 22:37 29.03.2020
228 Rain -5 1013 79 10000 18 340 22:18 29.03.2020
229 Snow -5 1013 85 10000 16.5 340 21:39 29.03.2020
230 Snow -4 1012 79 5000 18 350 21:20 29.03.2020
231 Rain -5 1012 92 10000 15.9 340 20:56 29.03.2020
232 Rain -5 1012 92 10000 15.9 340 20:37 29.03.2020
233 Snow -5 1012 85 10000 14.4 350 20:19 29.03.2020
234 Clouds -4 1012 79 800 17.5 350 19:58 29.03.2020
235 Clouds -4 1012 79 800 17.5 350 19:40 29.03.2020
236 Clouds -5 1012 85 10000 17.5 340 19:22 29.03.2020
237 Rain -4 1011 68 10000 17 330 18:57 29.03.2020
238 Rain -4 1011 68 10000 17 330 18:38 29.03.2020
239 Rain -4 1011 73 10000 19 340 18:19 29.03.2020
240 Clouds -5 1011 85 10000 15.9 330 17:56 29.03.2020
241 Clouds -5 1011 85 10000 15.9 330 17:38 29.03.2020
242 Rain -5 1010 85 10000 13.9 320 17:19 29.03.2020
243 Rain -5 1010 85 10000 13.9 320 16:56 29.03.2020
244 Rain -5 1010 85 10000 13.9 320 16:38 29.03.2020
245 Rain -5 1010 85 10000 13.9 320 16:38 29.03.2020
246 Rain -4 1010 85 10000 17 330 16:19 29.03.2020
247 Clouds -4 1010 92 7000 14.4 310 15:42 29.03.2020
248 Clouds -4 1010 92 7000 14.4 310 15:42 29.03.2020
249 Clouds -3 1010 79 2500 18 310 15:24 29.03.2020
250 Rain -4 1010 79 6000 17 330 14:59 29.03.2020
251 Rain -4 1010 79 6000 17 330 14:40 29.03.2020
252 Rain -4 1010 73 7000 18 330 14:20 29.03.2020
253 Snow -5 1010 85 3500 18 330 13:58 29.03.2020
254 Snow -5 1010 85 3500 18 330 13:40 29.03.2020
255 Rain -4 1010 73 7000 17 320 13:20 29.03.2020
256 Rain -3 1009 73 10000 14.4 340 12:56 29.03.2020
257 Clouds -3 1009 73 5000 19.5 340 12:37 29.03.2020
258 Clouds -3 1009 73 5000 19.5 340 12:37 29.03.2020
259 Clouds -3 1009 73 5000 19.5 340 12:19 29.03.2020
260 Clouds -3 1009 73 5000 19.5 340 12:19 29.03.2020
261 Rain -5 1009 85 9000 17.5 340 11:55 29.03.2020
262 Rain -5 1009 85 9000 17.5 340 11:37 29.03.2020
263 Snow -4 1009 79 5000 18 340 11:18 29.03.2020
264 Snow -4 1009 79 5000 18 340 11:18 29.03.2020
265 Snow -4 1009 79 4600 20.1 340 10:38 29.03.2020
266 Snow -4 1008 68 2500 18 320 10:19 29.03.2020
267 Snow -4 1008 73 2400 22.1 330 09:41 29.03.2020
268 Snow -4 1008 73 5000 18.5 340 09:22 29.03.2020
269 Snow -4 1008 62 10000 18 320 08:57 29.03.2020
270 Snow -4 1008 62 10000 18 320 08:39 29.03.2020
271 Snow -4 1008 73 1000 20.6 330 08:20 29.03.2020
272 Snow -4 1008 73 3500 18.5 330 07:44 29.03.2020
273 Snow -4 1007 73 5000 20.6 330 07:21 29.03.2020
274 Snow -4 1007 73 4400 23.1 320 05:59 29.03.2020
275 Snow -5 1007 73 250 24.2 320 04:56 29.03.2020
276 Snow -6 1007 92 400 23.1 320 03:37 29.03.2020
277 Snow -6 1007 92 500 21.6 330 01:57 29.03.2020
278 Snow -6 1007 92 500 21.6 330 01:37 29.03.2020
279 Snow -6 1007 92 200 20.1 330 01:19 29.03.2020
280 Snow -5 1007 67 3600 22.6 340 00:39 29.03.2020
281 Snow -5 1006 73 2200 23.1 340 23:59 28.03.2020
282 Snow -5 1006 73 2200 23.1 340 23:40 28.03.2020
283 Snow -5 1006 67 1900 24.2 340 23:22 28.03.2020
284 Snow -5 1006 67 1000 24.7 330 22:42 28.03.2020
285 Snow -5 1005 73 1400 23.7 330 22:22 28.03.2020
286 Snow -5 1005 79 900 19.5 330 21:57 28.03.2020
287 Snow -5 1005 79 900 19.5 330 21:39 28.03.2020
288 Snow -5 1005 85 4000 20.1 330 21:19 28.03.2020
289 Clouds -4 1005 85 2000 18.5 320 20:56 28.03.2020
290 Clouds -4 1005 85 2000 18.5 320 20:37 28.03.2020
291 Snow -4 1004 73 7000 20.6 320 20:18 28.03.2020
292 Snow -4 1004 79 4100 24.2 320 19:55 28.03.2020
293 Snow -4 1004 79 4100 24.2 320 19:36 28.03.2020
294 Snow -5 1004 85 2300 20.6 320 19:18 28.03.2020
295 Snow -4 1003 85 1000 22.1 320 18:39 28.03.2020
296 Snow -4 1003 85 1000 22.1 320 18:39 28.03.2020
297 Snow -4 1003 85 1600 18 320 18:20 28.03.2020
298 Snow -4 1002 79 1900 18.5 290 17:42 28.03.2020
299 Snow -3 1002 73 1800 19 300 17:22 28.03.2020
300 Snow -4 1002 79 2800 19.5 320 16:59 28.03.2020
301 Snow -4 1002 79 2800 19.5 320 16:38 28.03.2020
302 Snow -4 1002 85 900 19.5 320 16:18 28.03.2020
303 Rain -4 1002 85 5000 18 310 15:40 28.03.2020
304 Rain -3 1002 79 8000 19 310 15:20 28.03.2020
305 Rain -3 1002 79 8000 19 310 14:59 28.03.2020
306 Snow -5 1002 85 7000 20.6 300 14:40 28.03.2020
307 Rain -4 1002 85 9000 15.4 310 14:21 28.03.2020
308 Rain -3 1001 73 8000 19.5 310 13:43 28.03.2020
309 Rain -4 1001 79 7000 18 330 13:23 28.03.2020
310 Snow -4 1001 85 1500 19 320 12:41 28.03.2020
311 Rain -4 1001 85 7000 16.5 320 12:23 28.03.2020
312 Rain -3 1001 79 5000 18 300 11:55 28.03.2020
313 Rain -3 1001 73 10000 15.4 300 11:37 28.03.2020
314 Rain -3 1001 73 10000 15.4 300 11:18 28.03.2020
315 Clouds -4 1001 73 2000 18.5 300 10:39 28.03.2020
316 Rain -3 1001 73 9000 14.9 300 10:20 28.03.2020
317 Snow -3 1000 73 8000 19.5 310 09:43 28.03.2020
318 Rain -4 1000 85 6000 17 310 09:24 28.03.2020
319 Rain -3 1000 79 10000 5.7 0 08:59 28.03.2020
320 Rain -3 1000 79 10000 5.7 0 08:41 28.03.2020
321 Rain -4 1000 85 10000 4.6 0 08:22 28.03.2020
322 Snow -3 998 92 1800 9.8 350 07:46 28.03.2020
323 Snow -3 998 92 1800 9.8 350 07:28 28.03.2020
324 Snow -2 996 92 800 12.3 360 06:37 28.03.2020
325 Snow -2 996 92 800 12.3 360 06:18 28.03.2020
326 Snow -2 996 100 800 2.6 40 05:21 28.03.2020
327 Snow -1 995 92 2300 1 190 04:42 28.03.2020
328 Snow -1 996 92 4000 2.1 280 03:55 28.03.2020
329 Rain -1 997 80 10000 4.1 220 02:26 28.03.2020
330 Clouds -1 997 80 10000 5.1 190 01:45 28.03.2020
331 Clouds -1 998 86 10000 8.7 190 01:20 28.03.2020
332 Rain -1 999 92 10000 8.2 190 00:46 28.03.2020
333 Snow -1 999 92 10000 6.7 210 00:20 28.03.2020
334 Snow 0 1000 100 10000 8.2 250 23:42 27.03.2020
335 Rain 0 1000 100 10000 4.6 210 23:23 27.03.2020
336 Rain 0 1001 100 10000 9.3 260 22:56 27.03.2020
337 Rain 0 1001 100 10000 9.3 260 22:38 27.03.2020
338 Snow -1 1002 100 7000 11.8 260 22:20 27.03.2020
339 Snow -1 1002 100 400 17.5 270 21:55 27.03.2020
340 Snow -1 1002 100 400 17.5 270 21:37 27.03.2020
341 Clouds 0 1002 87 10000 12.3 260 21:19 27.03.2020
342 Rain 0 1002 86 7000 12.3 260 20:42 27.03.2020
343 Snow 0 1003 86 1500 14.9 270 20:21 27.03.2020
344 Snow 0 1003 84 1500 14.9 270 19:59 27.03.2020
345 Rain 0 1003 84 10000 14.4 260 19:41 27.03.2020
346 Snow 0 1003 84 1500 18.5 270 19:22 27.03.2020
347 Snow -1 1003 92 8000 15.9 270 18:56 27.03.2020
348 Snow -1 1003 92 8000 15.9 270 18:38 27.03.2020
349 Snow 0 1004 84 1200 22.1 270 18:19 27.03.2020
350 Rain 1 1003 80 10000 14.9 250 17:40 27.03.2020
351 Clouds 1 1003 74 10000 15.4 260 17:20 27.03.2020
352 Rain 1 1004 74 10000 17 260 16:54 27.03.2020
353 Rain 1 1004 74 10000 17 260 16:36 27.03.2020
354 Rain 1 1004 74 10000 17 260 16:36 27.03.2020
355 Clouds 1 1004 79 1400 14.4 250 16:18 27.03.2020
356 Snow 0 1004 79 2500 14.9 240 15:41 27.03.2020
357 Snow 0 1005 79 1500 18 260 15:23 27.03.2020
358 Rain 2 1004 80 10000 12.3 240 14:46 27.03.2020
359 Rain 2 1005 80 10000 11.3 240 14:25 27.03.2020
360 Rain 2 1005 80 10000 11.3 240 14:25 27.03.2020
361 Rain 1 1005 77 10000 10.8 230 13:56 27.03.2020
362 -273 0 0 0 0 0 13:37 27.03.2020
363 Rain 1 1005 77 10000 10.8 230 13:37 27.03.2020
364 Rain 1 1005 86 10000 13.9 240 13:19 27.03.2020
365 Rain 2 1005 80 10000 13.9 250 12:51 27.03.2020
366 Rain 3 1005 69 10000 12.9 260 12:21 27.03.2020
367 Rain 1 1006 76 10000 10.3 260 11:59 27.03.2020
368 Rain 1 1006 76 10000 10.3 260 11:41 27.03.2020
369 Clouds 1 1006 76 4000 11.8 270 11:22 27.03.2020
370 Rain 1 1006 76 10000 10.8 260 10:54 27.03.2020
371 Rain 1 1006 76 10000 10.8 260 10:36 27.03.2020
372 Clouds 2 1006 80 3000 14.4 250 10:18 27.03.2020
373 Rain 2 1006 80 10000 13.9 260 09:56 27.03.2020
374 Rain 2 1006 80 10000 13.9 260 09:37 27.03.2020
375 Snow 2 1006 74 10000 15.4 260 09:18 27.03.2020
376 Rain 2 1006 76 10000 14.4 260 08:55 27.03.2020
377 Rain 2 1006 76 10000 14.4 260 08:36 27.03.2020
378 Rain 2 1006 80 10000 12.9 270 08:18 27.03.2020
379 Rain 1 1006 77 10000 12.3 260 07:49 27.03.2020
380 Rain 2 1006 80 10000 15.9 270 07:22 27.03.2020
381 Rain 2 1006 74 10000 16.5 260 06:45 27.03.2020
382 Rain 1 1006 86 10000 17.5 270 06:26 27.03.2020
383 Rain 1 1005 83 10000 22.6 270 04:21 27.03.2020
384 Clouds 2 1002 80 10000 19 260 02:25 27.03.2020
385 Snow 1 1002 80 10000 18 250 01:22 27.03.2020
386 Snow 3 1002 74 10000 19.5 260 00:48 27.03.2020
387 Snow 2 1002 80 10000 17.5 260 00:23 27.03.2020
388 Clouds 2 1002 80 10000 17 250 23:42 26.03.2020
389 Rain 4 1002 69 10000 16.5 240 23:21 26.03.2020
390 Rain 4 1002 64 10000 14.9 260 22:58 26.03.2020
391 Rain 4 1002 64 10000 14.9 260 22:37 26.03.2020
392 Clouds 5 1002 60 10000 12.3 260 22:19 26.03.2020
393 Clouds 3 1002 69 10000 9.3 220 21:55 26.03.2020
394 Clouds 3 1002 69 10000 9.3 220 21:55 26.03.2020
395 Clouds 3 1002 69 10000 9.3 220 21:36 26.03.2020
396 Clouds 3 1002 69 10000 12.3 200 21:18 26.03.2020
397 Clouds 3 1002 69 10000 12.3 210 20:41 26.03.2020
398 Clouds 3 1002 69 10000 12.3 210 20:41 26.03.2020
399 Clouds 3 1003 69 10000 12.3 200 20:23 26.03.2020
400 Clouds 3 1003 69 10000 12.3 200 19:58 26.03.2020
401 Clouds 3 1003 69 10000 12.3 200 19:40 26.03.2020
402 Clouds 3 1004 69 10000 11.8 200 19:22 26.03.2020
403 Clouds 4 1004 60 10000 10.3 200 18:59 26.03.2020
404 Clouds 4 1004 60 10000 10.3 200 18:41 26.03.2020
405 Clouds 4 1005 64 10000 11.8 240 18:23 26.03.2020
406 Clouds 4 1005 69 10000 13.9 240 17:45 26.03.2020
407 Clouds 4 1005 69 10000 13.9 240 17:21 26.03.2020
408 Clouds 4 1006 64 10000 15.9 250 16:59 26.03.2020
409 Clouds 4 1006 64 10000 15.9 250 16:39 26.03.2020
410 Clouds 4 1006 64 10000 14.9 250 16:21 26.03.2020
411 Clouds 5 1006 60 10000 15.4 250 15:57 26.03.2020
412 Clouds 5 1006 60 10000 15.4 250 15:38 26.03.2020
413 Clouds 5 1006 60 10000 15.4 250 15:38 26.03.2020
414 Clouds 5 1006 60 10000 17 260 15:20 26.03.2020
415 Clouds 5 1006 60 10000 14.9 260 14:55 26.03.2020
416 Clouds 5 1006 60 10000 14.9 260 14:36 26.03.2020
417 Clouds 5 1006 60 10000 13.9 260 14:18 26.03.2020
418 Clouds 4 1006 69 10000 14.4 260 13:41 26.03.2020
419 Rain 3 1007 74 10000 18 250 13:22 26.03.2020
420 Rain 3 1007 74 10000 17 250 12:55 26.03.2020
421 Rain 3 1007 74 10000 17 250 12:37 26.03.2020
422 Clouds 2 1007 80 10000 13.9 250 12:18 26.03.2020
423 Rain 2 1007 80 10000 11.8 230 11:44 26.03.2020
424 Clouds 1 1007 86 10000 10.3 210 11:20 26.03.2020
425 Snow 1 1008 86 8000 11.8 200 10:42 26.03.2020
426 Rain 1 1008 86 10000 8.2 200 10:20 26.03.2020
427 Rain 1 1008 86 10000 8.2 200 09:59 26.03.2020
428 Snow 1 1008 86 10000 11.8 230 09:41 26.03.2020
429 Snow 0 1008 86 9000 9.3 240 09:19 26.03.2020
430 Snow 1 1008 80 6000 9.3 250 08:44 26.03.2020
431 Rain 1 1008 80 10000 9.3 280 08:26 26.03.2020
432 Rain 1 1008 80 10000 9.3 280 08:26 26.03.2020
433 Rain 1 1008 74 10000 11.3 280 07:57 26.03.2020
434 Rain 1 1008 80 10000 9.3 280 07:57 26.03.2020
435 Rain 1 1008 74 10000 11.3 280 07:38 26.03.2020
436 Rain 1 1008 69 10000 16.5 290 07:19 26.03.2020
437 Rain 0 1008 88 10000 18.5 290 06:38 26.03.2020
438 Snow -1 1007 92 10000 22.6 300 05:51 26.03.2020
439 Clouds -1 1006 92 10000 17.5 290 03:48 26.03.2020
440 Snow -1 1006 86 1500 23.7 290 03:26 26.03.2020
441 Clouds 1 1005 59 10000 23.1 290 02:52 26.03.2020
442 Clouds 0 1004 89 10000 21.6 300 01:19 26.03.2020
443 Clouds 0 1003 89 10000 19 300 00:33 26.03.2020
444 Snow 0 1003 89 10000 25.2 300 23:44 25.03.2020
445 Clouds -1 1002 86 3000 24.7 300 23:26 25.03.2020
446 Clouds 1 1001 64 10000 20.6 300 22:56 25.03.2020
447 Clouds 1 1001 64 10000 20.6 300 22:38 25.03.2020
448 Clouds 1 1001 69 10000 23.1 290 22:19 25.03.2020
449 Rain 1 1000 69 10000 25.7 300 21:54 25.03.2020
450 Rain 1 1000 69 10000 25.7 300 21:36 25.03.2020
451 Rain 1 1000 69 10000 21.1 300 21:18 25.03.2020
452 Rain 1 999 64 10000 21.6 290 20:39 25.03.2020
453 Snow 0 999 92 6000 19.5 300 20:20 25.03.2020
454 Snow 1 998 69 10000 22.6 300 19:57 25.03.2020
455 Snow 1 998 69 10000 22.6 300 19:38 25.03.2020
456 Rain 1 997 64 10000 20.6 290 19:20 25.03.2020
457 Rain 1 997 69 10000 20.6 300 18:54 25.03.2020
458 Clouds 1 996 64 10000 22.1 290 18:36 25.03.2020
459 Clouds 1 996 64 10000 22.1 290 18:18 25.03.2020
460 Rain 1 996 69 10000 23.7 290 17:41 25.03.2020
461 Clouds 1 995 69 10000 24.7 300 17:22 25.03.2020
462 Clouds 1 995 74 10000 22.1 290 16:59 25.03.2020
463 Clouds 1 995 74 10000 22.1 290 16:39 25.03.2020
464 Clouds 2 994 69 10000 21.1 300 16:21 25.03.2020
465 Rain 2 993 74 10000 21.1 300 15:44 25.03.2020
466 Rain 2 992 80 10000 18.5 300 15:21 25.03.2020
467 Rain 2 992 87 10000 22.1 300 14:59 25.03.2020
468 Rain 2 992 85 10000 22.1 300 14:40 25.03.2020
469 Rain 1 991 87 6000 16.5 290 14:20 25.03.2020
470 Snow 1 990 86 4000 19.5 280 13:46 25.03.2020
471 Clouds 1 989 78 5000 17.5 270 13:25 25.03.2020
472 Rain 1 989 86 6000 18.5 260 12:55 25.03.2020
473 Rain 1 989 80 10000 19 270 12:37 25.03.2020
474 Rain 1 989 80 10000 19 270 12:18 25.03.2020
475 Clouds 1 988 80 4000 15.9 260 11:41 25.03.2020
476 Clouds 1 988 77 8000 14.4 250 11:21 25.03.2020
477 Rain 2 988 80 10000 12.9 250 10:59 25.03.2020
478 Rain 2 988 80 10000 12.9 250 10:40 25.03.2020
479 Clouds 2 988 74 10000 20.1 260 10:19 25.03.2020
480 Clouds 2 988 74 10000 20.1 260 10:19 25.03.2020
481 Rain 3 987 64 10000 13.4 250 09:59 25.03.2020
482 Rain 3 987 64 10000 13.4 250 09:40 25.03.2020
483 Clouds 2 987 80 10000 11.3 240 09:21 25.03.2020
484 Rain 3 987 69 10000 13.4 250 08:43 25.03.2020
485 Clouds 3 987 69 10000 11.3 260 08:25 25.03.2020
486 Clouds 3 987 69 10000 11.3 260 07:59 25.03.2020
487 Clouds 4 987 64 10000 13.4 250 07:39 25.03.2020
488 Clouds 3 987 69 10000 10.8 260 07:19 25.03.2020
489 Clouds 3 987 69 10000 12.3 250 06:45 25.03.2020
490 Clouds 3 987 74 10000 10.8 240 06:25 25.03.2020
491 Clouds 2 988 74 10000 8.2 220 05:48 25.03.2020
492 Snow 0 989 89 0 7.81 220 04:46 25.03.2020
493 Snow 0 989 89 0 7.81 220 03:58 25.03.2020
494 Snow 0 989 89 0 7.81 220 03:34 25.03.2020
495 Clouds 3 991 74 10000 14.4 250 01:41 25.03.2020
496 Clouds 3 991 74 10000 14.4 250 01:41 25.03.2020
497 Clouds 3 991 74 10000 14.9 250 00:58 25.03.2020
498 Clouds 3 991 74 10000 14.9 250 00:40 25.03.2020
499 Clouds 3 991 74 10000 14.9 250 00:18 25.03.2020
500 Clouds 3 991 74 10000 17 240 23:40 24.03.2020
501 Clouds 3 991 69 10000 15.9 250 23:22 24.03.2020
502 Clouds 3 992 74 10000 12.3 250 22:55 24.03.2020
503 Clouds 3 992 74 10000 12.3 250 22:37 24.03.2020
504 Clouds 3 992 74 10000 12.9 250 22:19 24.03.2020
505 Clouds 3 992 74 10000 11.8 250 21:54 24.03.2020
506 Clouds 3 992 69 10000 15.4 250 21:36 24.03.2020
507 Clouds 3 992 74 10000 11.8 250 21:36 24.03.2020
508 Clouds 3 992 69 10000 15.4 250 21:18 24.03.2020
509 Clouds 3 993 74 10000 15.4 250 20:41 24.03.2020
510 Rain 3 993 74 10000 13.9 250 20:23 24.03.2020
511 Rain 2 993 79 10000 14.4 240 19:56 24.03.2020
512 Rain 2 993 79 10000 14.4 240 19:56 24.03.2020
513 Rain 2 993 79 10000 14.4 240 19:38 24.03.2020
514 Rain 3 993 74 10000 21.6 250 19:18 24.03.2020
515 Rain 3 993 74 10000 13.9 250 18:55 24.03.2020
516 Rain 3 993 74 10000 13.9 250 18:36 24.03.2020
517 Snow 3 994 74 10000 18.5 250 18:18 24.03.2020
518 Rain 3 993 74 10000 17 250 17:41 24.03.2020
519 Rain 3 993 69 10000 16.5 240 17:22 24.03.2020
520 Rain 3 993 69 10000 16.5 240 17:22 24.03.2020
521 Rain 4 993 74 10000 14.9 240 16:58 24.03.2020
522 Rain 4 993 74 10000 14.9 240 16:39 24.03.2020
523 Rain 4 993 74 10000 15.9 240 16:20 24.03.2020
524 Rain 4 993 74 10000 15.9 240 16:20 24.03.2020
525 Rain 3 993 74 10000 15.4 240 15:57 24.03.2020
526 Rain 3 993 74 10000 15.4 240 15:37 24.03.2020
527 Rain 4 993 69 10000 15.9 240 15:19 24.03.2020
528 Rain 4 993 95 10000 14.4 240 14:42 24.03.2020
529 Clouds 3 993 87 10000 14.4 250 14:19 24.03.2020
530 Rain 5 993 65 10000 23.1 260 13:42 24.03.2020
531 Clouds 4 992 88 10000 8.7 220 13:24 24.03.2020
532 Clouds 4 992 88 10000 12.9 240 12:55 24.03.2020
533 Clouds 4 992 88 10000 12.9 240 12:37 24.03.2020
534 Rain 4 992 69 10000 9.3 200 12:18 24.03.2020
535 Rain 5 991 60 10000 10.3 200 11:39 24.03.2020
536 Clouds 5 991 60 10000 10.8 200 11:20 24.03.2020
537 Clouds 5 991 60 10000 11.8 200 10:43 24.03.2020
538 Clouds 5 992 60 10000 12.9 200 10:20 24.03.2020
539 Clouds 5 992 60 10000 12.9 200 09:59 24.03.2020
540 Clouds 5 992 60 10000 11.3 200 09:40 24.03.2020
541 Clouds 6 992 65 10000 11.8 200 09:22 24.03.2020
542 Clouds 5 992 65 10000 11.3 190 08:39 24.03.2020
543 Clouds 5 992 65 10000 11.3 190 08:20 24.03.2020
544 Clouds 5 992 69 10000 12.9 190 07:48 24.03.2020
545 Clouds 4 993 64 10000 14.9 190 07:25 24.03.2020
546 Clouds 4 993 64 10000 14.9 200 06:58 24.03.2020
547 Clouds 4 994 64 10000 15.9 190 06:31 24.03.2020
548 Clouds 4 995 64 10000 13.4 200 05:22 24.03.2020
549 Clouds 3 995 69 10000 12.3 200 04:31 24.03.2020
550 Clouds 4 996 64 10000 13.9 200 03:18 24.03.2020
551 Clouds 3 997 69 10000 17 200 01:49 24.03.2020
552 Clouds 3 998 69 10000 14.4 200 00:49 24.03.2020
553 Clouds 3 998 69 10000 14.9 200 00:26 24.03.2020
554 Clouds 3 999 69 10000 14.9 190 23:46 23.03.2020
555 Clouds 3 999 74 10000 14.9 200 23:26 23.03.2020
556 Clouds 3 1000 74 10000 13.9 190 22:56 23.03.2020
557 Clouds 3 1000 74 10000 13.9 190 22:37 23.03.2020
558 Clouds 4 1000 69 10000 12.3 190 22:19 23.03.2020
559 Clouds 4 1001 69 10000 12.3 190 21:44 23.03.2020
560 Clouds 4 1001 69 10000 12.9 190 21:21 23.03.2020
561 Clouds 4 1002 69 10000 14.9 190 20:58 23.03.2020
562 Clouds 4 1002 69 10000 14.9 190 20:40 23.03.2020
563 Clouds 4 1002 64 10000 13.9 190 20:22 23.03.2020
564 Clouds 4 1003 64 10000 12.9 190 19:54 23.03.2020
565 Clouds 4 1003 64 10000 12.3 190 19:36 23.03.2020
566 Clouds 4 1003 64 10000 12.3 190 19:18 23.03.2020
567 Clouds 4 1004 64 10000 14.9 190 18:42 23.03.2020
568 Clouds 4 1004 64 10000 12.9 190 18:23 23.03.2020
569 Clouds 4 1005 64 10000 12.9 190 17:56 23.03.2020
570 Clouds 4 1005 64 10000 12.9 190 17:56 23.03.2020
571 Clouds 4 1005 64 10000 12.3 190 17:38 23.03.2020
572 Clouds 4 1005 64 10000 12.3 190 17:18 23.03.2020
573 Clouds 4 1006 64 10000 12.3 190 16:43 23.03.2020
574 Clouds 4 1006 64 10000 11.3 190 16:25 23.03.2020
575 Clouds 5 1007 64 10000 11.3 200 15:43 23.03.2020
576 Clouds 5 1007 64 10000 10.3 200 15:21 23.03.2020
577 Clouds 4 1007 69 10000 11.3 200 14:57 23.03.2020
578 Clouds 4 1007 69 10000 11.3 200 14:37 23.03.2020
579 Snow 4 1007 64 10000 9.3 200 14:18 23.03.2020
580 Snow 4 1007 64 10000 9.3 200 14:18 23.03.2020
581 Clouds 3 1008 69 10000 8.2 210 13:41 23.03.2020
582 Clouds 3 1008 69 10000 8.2 210 13:41 23.03.2020
583 Rain 3 1008 69 10000 11.3 200 13:22 23.03.2020
584 Clouds 3 1008 69 10000 11.8 200 12:58 23.03.2020
585 Clouds 3 1008 69 10000 11.8 200 12:40 23.03.2020
586 Clouds 3 1009 69 10000 11.8 200 12:22 23.03.2020
587 Clouds 3 1009 74 10000 9.3 220 11:42 23.03.2020
588 Clouds 3 1010 74 10000 8.7 220 11:22 23.03.2020
589 Clouds 3 1010 97 10000 10.3 240 10:58 23.03.2020
590 Clouds 3 1010 97 10000 10.3 240 10:40 23.03.2020
591 Clouds 3 1010 97 10000 10.3 240 10:40 23.03.2020
592 Rain 3 1010 97 10000 11.3 220 10:22 23.03.2020
593 Rain 3 1010 97 10000 14.4 240 09:58 23.03.2020
594 Rain 3 1010 97 10000 14.4 240 09:40 23.03.2020
595 Rain 3 1010 97 10000 14.9 250 09:19 23.03.2020
596 Rain 3 1010 97 10000 12.9 260 08:38 23.03.2020
597 Rain 2 1010 84 10000 15.4 260 08:19 23.03.2020
598 Rain 3 1010 84 10000 19 260 07:51 23.03.2020
599 Rain 3 1010 84 10000 19 260 07:32 23.03.2020
600 Snow 2 1009 80 2500 17.5 280 06:55 23.03.2020
601 Snow 2 1009 80 2500 17.5 280 06:32 23.03.2020
602 Rain 2 1008 84 10000 18.5 260 05:43 23.03.2020
603 Clouds 3 1008 69 10000 21.1 260 03:54 23.03.2020
604 Clouds 3 1007 59 10000 17.5 270 02:44 23.03.2020
605 Rain 2 1007 69 10000 21.1 260 01:42 23.03.2020
606 Rain 1 1007 86 10000 21.6 270 00:46 23.03.2020
607 Rain 1 1007 86 10000 21.6 270 00:26 23.03.2020
608 Clouds 1 1007 86 10000 20.1 270 23:42 22.03.2020
609 Clouds 1 1007 71 1500 15.4 260 23:24 22.03.2020
610 Clouds 1 1006 86 6000 16.5 240 22:41 22.03.2020
611 Clouds 1 1005 83 10000 16.5 240 22:20 22.03.2020
612 Clouds 1 1006 86 10000 19 250 21:41 22.03.2020
613 Clouds 1 1006 86 1000 24.2 270 21:23 22.03.2020
614 Clouds 1 1006 86 1000 24.2 270 20:58 22.03.2020
615 Clouds 3 1005 64 10000 17.5 260 20:40 22.03.2020
616 Clouds 2 1005 96 10000 14.9 270 20:22 22.03.2020
617 Clouds 3 1005 74 10000 19 260 19:56 22.03.2020
618 Clouds 3 1005 74 10000 19 260 19:38 22.03.2020
619 Snow 1 1005 96 6000 19 270 19:19 22.03.2020
620 Rain 2 1003 69 10000 15.4 200 18:57 22.03.2020
621 Rain 2 1003 69 10000 15.4 200 18:39 22.03.2020
622 Clouds 2 1003 64 10000 14.9 200 18:20 22.03.2020
623 Clouds 1 1003 69 10000 17 200 17:57 22.03.2020
624 Clouds 2 1003 69 10000 17 200 17:38 22.03.2020
625 Clouds 2 1004 64 10000 17 200 17:20 22.03.2020
626 Clouds 3 1004 59 10000 17.5 200 16:57 22.03.2020
627 Clouds 3 1004 59 10000 17.5 200 16:57 22.03.2020
628 Clouds 3 1004 59 10000 17.5 200 16:39 22.03.2020
629 Clouds 3 1005 59 10000 15.4 200 16:20 22.03.2020
630 Clouds 3 1006 59 10000 15.9 200 15:40 22.03.2020
631 Clouds 3 1007 59 10000 14.9 190 15:19 22.03.2020
632 Clouds 3 1008 59 10000 13.4 200 14:46 22.03.2020
633 Clouds 2 1008 64 10000 12.9 200 14:18 22.03.2020
634 Clouds 2 1009 64 10000 11.8 200 13:43 22.03.2020
635 Clouds 2 1010 64 10000 10.3 200 13:20 22.03.2020
636 Clouds 2 1011 64 10000 10.8 200 12:58 22.03.2020
637 Clouds 2 1011 64 10000 10.8 200 12:39 22.03.2020
638 Clouds 2 1011 69 10000 9.3 190 12:19 22.03.2020
639 Clouds 2 1012 69 10000 8.7 200 11:43 22.03.2020
640 Clouds 2 1013 69 10000 9.8 200 11:25 22.03.2020
641 Clouds 2 1013 69 10000 11.3 200 10:58 22.03.2020
642 Clouds 2 1013 69 10000 11.3 200 10:39 22.03.2020
643 Clouds 2 1014 69 10000 11.8 200 10:21 22.03.2020
644 Clouds 2 1014 69 10000 12.9 190 09:45 22.03.2020
645 Clouds 3 1015 69 10000 10.3 200 09:27 22.03.2020
646 Clouds 3 1015 69 10000 11.8 200 08:48 22.03.2020
647 Clouds 3 1015 69 10000 11.8 200 08:30 22.03.2020
648 Snow 3 1016 69 10000 13.9 240 07:54 22.03.2020
649 Snow 3 1016 69 10000 13.9 240 07:36 22.03.2020
650 Snow 3 1016 74 10000 12.9 250 06:41 22.03.2020
651 Snow 4 1017 64 10000 17 270 05:47 22.03.2020
652 Drizzle 2 1018 96 10000 12.9 260 04:39 22.03.2020
653 Snow 3 1018 96 10000 21.1 270 01:47 22.03.2020
654 Drizzle 3 1018 97 10000 23.1 270 00:50 22.03.2020
655 Drizzle 3 1018 97 10000 23.1 270 00:31 22.03.2020
656 Drizzle 3 1018 97 10000 16.5 240 23:46 21.03.2020
657 Rain 2 1018 93 10000 11.3 260 23:22 21.03.2020
658 Drizzle 2 1019 97 10000 14.9 270 22:59 21.03.2020
659 Drizzle 2 1019 97 10000 14.9 270 22:38 21.03.2020
660 Drizzle 2 1019 97 10000 14.9 270 22:20 21.03.2020
661 Rain 2 1019 97 10000 13.4 260 21:58 21.03.2020
662 Rain 2 1019 97 10000 13.4 260 21:38 21.03.2020
663 Snow 2 1019 97 10000 14.9 270 21:19 21.03.2020
664 Drizzle 2 1019 97 10000 12.3 270 20:42 21.03.2020
665 Rain 2 1019 97 10000 13.4 270 20:22 21.03.2020
666 Snow 2 1019 97 10000 15.4 270 19:55 21.03.2020
667 Snow 2 1019 97 10000 15.4 270 19:37 21.03.2020
668 Snow 1 1019 97 10000 12.3 270 19:18 21.03.2020
669 Snow 1 1019 86 10000 14.9 270 18:41 21.03.2020
670 Snow 1 1019 86 9000 15.4 270 18:21 21.03.2020
671 Rain 1 1020 86 8000 13.4 270 17:59 21.03.2020
672 Rain 1 1020 86 8000 13.4 270 17:41 21.03.2020
673 Clouds 1 1020 86 3500 13.9 260 17:22 21.03.2020
674 Rain 0 1020 90 2400 14.4 260 16:43 21.03.2020
675 Snow 0 1020 90 1600 12.9 260 16:24 21.03.2020
676 Snow 0 1020 90 1600 12.9 260 16:24 21.03.2020
677 Snow 0 1020 90 1600 12.9 260 15:59 21.03.2020
678 Snow 0 1021 90 1700 12.3 260 15:40 21.03.2020
679 Snow 0 1021 90 1800 13.9 260 15:22 21.03.2020
680 Snow 0 1021 90 3500 13.4 250 14:57 21.03.2020
681 Snow 0 1021 90 3500 13.4 250 14:38 21.03.2020
682 Snow 0 1021 90 3500 13.4 250 14:38 21.03.2020
683 Snow 0 1021 93 3500 13.9 270 14:20 21.03.2020
684 Snow 0 1021 93 3500 13.9 270 13:58 21.03.2020
685 Snow -1 1022 100 3000 11.8 270 13:39 21.03.2020
686 Snow -1 1022 92 1500 8.7 280 13:21 21.03.2020
687 Snow -1 1022 92 2500 9.8 280 12:57 21.03.2020
688 Snow -1 1022 92 2500 9.8 280 12:37 21.03.2020
689 Snow -1 1022 86 4000 12.9 290 12:19 21.03.2020
690 Snow -1 1022 80 6000 13.4 300 11:55 21.03.2020
691 Snow -1 1022 80 6000 13.4 300 11:37 21.03.2020
692 Rain -1 1022 74 10000 15.9 300 11:18 21.03.2020
693 Rain -1 1022 68 10000 19 300 10:56 21.03.2020
694 Rain -1 1022 68 10000 19 300 10:38 21.03.2020
695 Rain -2 1022 86 10000 15.9 290 10:18 21.03.2020
696 Snow -3 1022 92 3500 16.5 290 09:40 21.03.2020
697 Snow -3 1022 92 450 18.5 290 09:22 21.03.2020
698 Snow -3 1022 92 450 18.5 290 08:59 21.03.2020
699 Rain -3 1021 86 10000 10.3 270 08:41 21.03.2020
700 Rain -3 1021 86 10000 10.3 290 08:22 21.03.2020
701 Rain -3 1021 79 10000 8.2 270 07:42 21.03.2020
702 Rain -4 1022 92 10000 12.9 290 07:23 21.03.2020
703 Rain -3 1021 68 10000 13.4 300 06:46 21.03.2020
704 Clouds -4 1021 85 10000 9.8 290 06:27 21.03.2020
705 Rain -4 1021 92 10000 11.3 300 05:46 21.03.2020
706 Rain -4 1021 85 10000 12.3 290 04:42 21.03.2020
707 Clouds -5 1020 85 10000 7.2 260 02:40 21.03.2020
708 Clouds -5 1020 85 10000 7.2 260 02:18 21.03.2020
709 Clouds -5 1020 79 10000 7.2 250 01:31 21.03.2020
710 Clouds -5 1020 73 10000 5.1 250 00:47 21.03.2020
711 Clouds -5 1020 73 10000 5.1 240 00:25 21.03.2020
712 Clouds -6 1020 79 10000 4.1 240 23:49 20.03.2020
713 Clouds -6 1020 85 10000 3.6 230 23:26 20.03.2020
714 Clouds -5 1019 79 10000 4.1 250 22:56 20.03.2020
715 Clouds -5 1019 79 10000 4.1 250 22:37 20.03.2020
716 Rain -5 1019 85 10000 4.1 260 22:19 20.03.2020
717 Rain -5 1019 85 10000 3.6 250 21:54 20.03.2020
718 Rain -5 1019 85 10000 3.6 250 21:36 20.03.2020
719 Rain -4 1019 79 10000 4.6 260 21:18 20.03.2020
720 Rain -5 1018 85 10000 3.6 320 20:42 20.03.2020
721 Rain -5 1018 85 10000 4.1 250 20:21 20.03.2020
722 Rain -5 1018 85 10000 4.1 250 19:59 20.03.2020
723 Rain -5 1018 85 10000 4.6 270 19:40 20.03.2020
724 Snow -5 1018 92 10000 4.6 290 19:18 20.03.2020
725 Rain -4 1018 85 10000 4.6 290 18:54 20.03.2020
726 Rain -4 1018 85 10000 4.6 290 18:36 20.03.2020
727 Clouds -4 1017 85 8000 7.2 280 18:18 20.03.2020
728 Snow -6 1017 85 8000 3.6 260 17:39 20.03.2020
729 Snow -6 1017 85 10000 3.1 290 17:21 20.03.2020
730 Rain -5 1017 92 10000 2.1 320 16:57 20.03.2020
731 Rain -5 1017 92 10000 2.1 320 16:39 20.03.2020
732 Snow -5 1016 85 1500 5.7 300 16:18 20.03.2020
733 Snow -4 1016 85 4500 5.7 300 15:42 20.03.2020
734 Snow -5 1016 92 9000 4.1 260 15:21 20.03.2020
735 Rain -5 1016 85 10000 3.1 320 14:54 20.03.2020
736 Rain -5 1016 85 10000 3.1 320 14:36 20.03.2020
737 Snow -5 1016 79 9000 3.1 340 14:18 20.03.2020
738 Rain -4 1016 79 10000 2.6 320 13:40 20.03.2020
739 Clouds -5 1015 85 10000 5.1 350 13:19 20.03.2020
740 Snow -5 1015 85 5000 5.7 320 12:39 20.03.2020
741 Clouds -4 1015 73 10000 3.1 290 12:20 20.03.2020
742 Clouds -4 1015 73 10000 3.1 290 12:20 20.03.2020
743 Clouds -4 1015 73 10000 3.1 290 11:57 20.03.2020
744 Clouds -4 1015 73 10000 3.1 290 11:38 20.03.2020
745 Rain -4 1015 73 10000 2.6 310 11:18 20.03.2020
746 Rain -4 1015 79 10000 4.6 320 10:41 20.03.2020
747 Snow -5 1015 85 4000 7.2 330 10:21 20.03.2020
748 Snow -5 1014 85 4000 5.7 350 09:56 20.03.2020
749 Snow -5 1014 85 4000 5.7 350 09:56 20.03.2020
750 Snow -5 1014 85 4000 5.7 350 09:37 20.03.2020
751 Snow -4 1014 79 1000 9.3 350 09:18 20.03.2020
752 Rain -4 1014 79 10000 10.3 350 08:42 20.03.2020
753 Rain -5 1013 85 10000 7.7 350 08:22 20.03.2020
754 Snow -4 1013 79 10000 11.3 360 07:54 20.03.2020
755 Snow -4 1013 79 10000 11.3 360 07:36 20.03.2020
756 Snow -6 1013 85 3000 12.9 350 07:18 20.03.2020
757 Rain -5 1013 67 10000 9.3 330 06:41 20.03.2020
758 Rain -5 1013 67 10000 9.3 330 06:41 20.03.2020
759 Snow -5 1012 85 3500 17.5 340 04:52 20.03.2020
760 Snow -5 1012 85 10000 17 310 03:40 20.03.2020
761 Snow -5 1012 85 6000 17.5 320 02:20 20.03.2020
762 Snow -6 1012 92 10000 12.3 320 00:59 20.03.2020
763 Snow -6 1012 92 10000 12.3 320 00:31 20.03.2020
764 Snow -5 1012 79 10000 15.4 330 23:49 19.03.2020
765 Rain -4 1012 85 10000 13.4 320 23:30 19.03.2020
766 Clouds -4 1012 85 1000 17 300 22:57 19.03.2020
767 Clouds -4 1012 85 1000 17 300 22:38 19.03.2020
768 Snow -5 1012 85 8000 8.2 290 22:20 19.03.2020
769 Snow -5 1011 92 5000 6.2 280 21:55 19.03.2020
770 Snow -5 1011 92 5000 6.2 280 21:37 19.03.2020
771 Snow -5 1012 85 9000 4.6 250 21:18 19.03.2020
772 Snow -5 1012 79 3200 5.1 280 20:42 19.03.2020
773 Snow -6 1012 73 5000 7.7 320 20:23 19.03.2020
774 Rain -6 1012 67 10000 9.3 320 19:56 19.03.2020
775 Rain -6 1012 67 10000 9.3 320 19:38 19.03.2020
776 Snow -6 1013 62 10000 10.3 330 19:19 19.03.2020
777 Rain -6 1013 62 10000 12.9 330 18:56 19.03.2020
778 Rain -6 1013 62 10000 12.9 330 18:38 19.03.2020
779 Rain -6 1013 79 10000 13.9 340 18:19 19.03.2020
780 Snow -7 1013 85 1500 13.4 340 17:41 19.03.2020
781 Rain -6 1013 73 8000 13.4 340 17:19 19.03.2020
782 Snow -6 1012 67 9000 14.4 340 16:45 19.03.2020
783 Snow -6 1012 73 8000 13.4 320 16:25 19.03.2020
784 Rain -6 1012 73 10000 14.4 330 15:55 19.03.2020
785 Rain -6 1012 73 10000 14.4 330 15:36 19.03.2020
786 Snow -7 1011 79 2000 12.3 320 15:18 19.03.2020
787 Rain -7 1011 73 10000 15.4 340 14:43 19.03.2020
788 Rain -7 1011 85 10000 15.4 330 14:21 19.03.2020
789 Rain -6 1010 73 10000 15.9 340 13:41 19.03.2020
790 Snow -7 1009 85 10000 12.9 320 13:20 19.03.2020
791 Snow -6 1009 79 2500 13.4 330 12:58 19.03.2020
792 Snow -6 1009 79 2500 13.4 330 12:40 19.03.2020
793 Rain -6 1008 79 10000 12.3 320 12:21 19.03.2020
794 Rain -6 1008 79 10000 14.4 330 11:43 19.03.2020
795 Rain -6 1008 85 10000 15.4 330 11:24 19.03.2020
796 Snow -6 1007 79 1500 13.4 320 10:57 19.03.2020
797 Snow -6 1007 79 1500 13.4 320 10:38 19.03.2020
798 Rain -6 1007 67 10000 12.9 330 10:19 19.03.2020
799 Clouds -6 1006 79 10000 13.4 330 09:55 19.03.2020
800 Clouds -6 1006 79 10000 13.4 330 09:37 19.03.2020
801 Rain -6 1005 79 10000 14.4 340 09:18 19.03.2020
802 Rain -6 1005 85 10000 12.9 330 08:41 19.03.2020
803 Snow -5 1004 85 2500 15.9 340 08:20 19.03.2020
804 Snow -5 1003 85 7000 15.4 350 07:44 19.03.2020
805 Snow -5 1003 92 1500 16.5 340 07:25 19.03.2020
806 Snow -5 1002 92 450 11.8 340 06:35 19.03.2020
807 Snow -5 1001 92 1300 11.3 340 05:48 19.03.2020
808 Snow -5 1001 92 1600 14.9 350 04:57 19.03.2020
809 Snow -5 1001 92 1600 14.9 350 04:39 19.03.2020
810 Snow -5 999 92 1400 9.8 30 02:49 19.03.2020
811 Snow -4 998 92 500 8.7 50 01:21 19.03.2020
812 Snow -4 997 100 1700 10.3 60 00:28 19.03.2020
813 Snow -3 996 92 3000 10.3 70 23:51 18.03.2020
814 Snow -3 996 92 2500 10.8 70 23:30 18.03.2020
815 Snow -3 995 92 1500 10.3 80 22:56 18.03.2020
816 Snow -3 995 92 1500 10.3 80 22:38 18.03.2020
817 Snow -3 995 92 1900 8.7 70 22:20 18.03.2020
818 Snow -2 995 92 1500 7.2 90 21:42 18.03.2020
819 Rain -3 995 92 10000 1.5 250 21:21 18.03.2020
820 Rain -3 994 85 10000 1.5 270 20:59 18.03.2020
821 Rain -3 994 85 10000 1.5 270 20:40 18.03.2020
822 Rain -3 994 85 10000 1.5 270 20:40 18.03.2020
823 Rain -3 994 85 10000 2.6 270 20:20 18.03.2020
824 Clouds -3 994 92 10000 3.1 280 19:58 18.03.2020
825 Clouds -3 994 92 10000 3.1 280 19:39 18.03.2020
826 Clouds -3 993 92 10000 2.1 250 19:20 18.03.2020
827 Clouds -3 993 85 10000 1 0 18:42 18.03.2020
828 Rain -3 993 85 10000 2.6 30 18:21 18.03.2020
829 Rain -3 993 85 10000 2.6 30 18:21 18.03.2020
830 Rain -2 993 86 10000 3.1 40 17:59 18.03.2020
831 Rain -2 993 86 10000 3.1 40 17:41 18.03.2020
832 Snow -2 993 86 10000 4.6 60 17:22 18.03.2020
833 Snow -2 993 86 10000 4.6 60 17:22 18.03.2020
834 Snow -2 993 79 10000 4.6 70 16:58 18.03.2020
835 Snow -2 993 79 10000 4.6 70 16:40 18.03.2020
836 Rain -2 992 86 10000 6.2 80 16:20 18.03.2020
837 Rain -2 992 86 10000 6.2 80 15:45 18.03.2020
838 Rain -2 992 86 10000 7.7 70 15:23 18.03.2020
839 Clouds -1 992 86 10000 9.3 70 14:57 18.03.2020
840 Clouds -1 992 86 10000 9.3 70 14:39 18.03.2020
841 Snow -2 991 86 10000 10.3 60 14:20 18.03.2020
842 Snow -1 991 92 9000 10.8 60 13:39 18.03.2020
843 Snow -1 991 92 10000 7.7 70 13:19 18.03.2020
844 Snow -1 991 92 10000 7.7 70 13:19 18.03.2020
845 Clouds -1 991 86 10000 8.7 60 12:42 18.03.2020
846 Clouds -1 991 80 10000 7.2 60 12:20 18.03.2020
847 Clouds -1 990 80 10000 3.1 90 11:57 18.03.2020
848 Clouds -2 990 86 10000 3.1 120 11:37 18.03.2020
849 Clouds -2 990 86 10000 3.1 120 11:18 18.03.2020
850 Clouds -2 989 86 10000 5.1 100 10:54 18.03.2020
851 Clouds -2 989 86 10000 5.1 100 10:36 18.03.2020
852 Clouds -2 989 86 10000 5.1 100 10:36 18.03.2020
853 Clouds -2 989 86 10000 3.1 90 10:18 18.03.2020
854 Clouds -2 989 79 10000 2.6 80 09:41 18.03.2020
855 Clouds -3 989 86 10000 3.6 100 09:22 18.03.2020
856 Clouds -3 988 92 10000 4.6 90 08:40 18.03.2020
857 Clouds -4 988 85 10000 5.7 90 08:21 18.03.2020
858 Clouds -4 988 92 10000 5.1 90 07:49 18.03.2020
859 Clouds -4 988 92 10000 4.6 90 07:31 18.03.2020
860 Clouds -4 987 92 10000 6.7 90 06:55 18.03.2020
861 Clouds -4 987 92 10000 6.7 90 06:37 18.03.2020
862 Snow -3 987 92 10000 6.7 90 05:37 18.03.2020
863 Snow -3 987 92 4000 6.7 90 04:38 18.03.2020
864 Snow -3 986 92 5000 7.7 100 03:21 18.03.2020
865 Snow -3 986 92 3000 7.2 100 02:36 18.03.2020
866 Snow -3 986 92 5000 4.6 90 01:42 18.03.2020
867 Snow -4 986 92 5000 4.1 100 00:43 18.03.2020
868 Snow -4 986 92 7000 4.6 100 00:21 18.03.2020
869 Snow -3 986 85 3000 4.6 90 23:42 17.03.2020
870 -273 0 0 0 0 0 23:21 17.03.2020
871 Clouds -3 986 85 10000 5.1 90 22:45 17.03.2020
872 Clouds -3 986 79 10000 4.6 70 22:26 17.03.2020
873 Clouds -4 986 85 10000 1.5 30 21:44 17.03.2020
874 Clouds -3 986 79 10000 2.1 110 21:25 17.03.2020
875 Clouds -2 986 73 10000 3.1 130 20:58 17.03.2020
876 Clouds -2 986 73 10000 3.1 130 20:38 17.03.2020
877 Clouds -3 987 79 10000 4.1 130 20:19 17.03.2020
878 Clouds -3 986 79 10000 5.7 140 19:42 17.03.2020
879 Clouds -3 987 73 10000 6.2 150 19:20 17.03.2020
880 Clouds -3 987 79 10000 8.2 160 18:58 17.03.2020
881 Clouds -3 987 79 10000 10.8 140 18:40 17.03.2020
882 Clouds -3 987 79 10000 10.8 140 18:21 17.03.2020
883 Clouds -3 987 79 10000 12.9 150 17:56 17.03.2020
884 Clouds -3 987 79 10000 12.9 150 17:38 17.03.2020
885 Clouds -2 988 73 10000 11.8 130 17:19 17.03.2020
886 Clouds -2 988 79 10000 14.9 150 16:42 17.03.2020
887 Clouds -2 989 79 10000 13.4 150 16:19 17.03.2020
888 Clouds -3 989 73 10000 9.3 140 15:47 17.03.2020
889 Clouds -2 989 73 10000 6.7 140 15:23 17.03.2020
890 Clouds -2 989 73 10000 5.1 130 14:49 17.03.2020
891 Clouds -2 990 73 10000 6.7 130 14:30 17.03.2020
892 Clouds -3 990 73 10000 5.7 110 13:58 17.03.2020
893 Clouds -3 990 73 10000 5.7 110 13:40 17.03.2020
894 Clouds -2 991 79 10000 6.7 110 13:22 17.03.2020
895 Clouds -2 991 86 10000 7.7 110 12:47 17.03.2020
896 Clouds -3 992 85 10000 5.7 110 12:25 17.03.2020
897 Clouds -3 992 85 10000 5.7 90 11:57 17.03.2020
898 Clouds -3 992 85 10000 5.7 90 11:39 17.03.2020
899 Clouds -2 992 86 10000 4.1 80 11:20 17.03.2020
900 Clouds -2 993 86 10000 2.6 110 10:54 17.03.2020
901 Clouds -2 993 86 10000 2.6 110 10:36 17.03.2020
902 Clouds -2 994 86 10000 2.1 110 10:18 17.03.2020
903 Clouds -3 994 86 10000 1 100 09:45 17.03.2020
904 Clouds -3 994 86 10000 1 100 09:45 17.03.2020
905 Snow -3 994 86 10000 1 320 09:20 17.03.2020
906 Snow -3 994 86 10000 2.6 310 08:58 17.03.2020
907 Snow -3 994 86 10000 2.6 310 08:40 17.03.2020
908 Snow -3 994 86 10000 3.6 310 08:18 17.03.2020
909 Snow -3 995 86 9000 4.6 310 07:49 17.03.2020
910 Snow -3 995 92 5000 8.7 300 07:20 17.03.2020
911 Snow -3 995 86 5000 9.8 300 06:45 17.03.2020
912 Snow -3 995 86 6000 11.8 290 06:25 17.03.2020
913 Snow -3 996 86 7000 14.4 290 05:20 17.03.2020
914 Snow -3 996 86 6000 21.1 300 03:31 17.03.2020
915 Clouds -4 996 79 8000 23.7 300 01:50 17.03.2020
916 Clouds -4 996 79 8000 23.7 300 01:31 17.03.2020
917 Clouds -4 996 68 10000 25.2 290 00:52 17.03.2020
918 Snow -5 996 92 5000 23.1 290 00:18 17.03.2020
919 Clouds -5 995 79 10000 25.7 300 23:34 16.03.2020
920 Clouds -5 995 79 10000 25.7 290 22:58 16.03.2020
921 Clouds -5 995 79 10000 25.7 290 22:38 16.03.2020
922 Clouds -4 995 79 10000 23.7 290 22:19 16.03.2020
923 Clouds -5 995 85 6000 27.8 290 21:44 16.03.2020
924 Snow -4 995 92 5000 25.2 300 21:26 16.03.2020
925 Snow -5 994 92 4000 26.2 300 20:59 16.03.2020
926 Snow -5 994 92 4000 26.2 300 20:39 16.03.2020
927 Snow -5 994 85 2000 25.2 290 20:20 16.03.2020
928 Clouds -5 993 85 4000 30.9 300 19:46 16.03.2020
929 Clouds -5 993 92 2000 27.8 300 19:24 16.03.2020
930 Snow -4 991 92 1000 29.8 290 18:59 16.03.2020
931 Snow -4 991 92 1000 29.8 290 18:39 16.03.2020
932 Snow -4 990 92 2000 27.8 300 18:20 16.03.2020
933 Snow -4 989 92 700 34 290 17:46 16.03.2020
934 Snow -3 988 92 1000 30.3 300 17:25 16.03.2020
935 Snow -2 985 92 500 29.8 290 16:57 16.03.2020
936 Snow -2 985 92 500 29.8 290 16:39 16.03.2020
937 Snow -2 983 92 1500 15.9 220 16:20 16.03.2020
938 Snow -4 983 92 1000 20.6 200 15:43 16.03.2020
939 Rain -3 984 79 4000 20.6 200 15:23 16.03.2020
940 Rain -3 984 73 6000 19.5 200 14:47 16.03.2020
941 Rain -2 985 63 10000 14.4 190 14:20 16.03.2020
942 Clouds -2 987 63 10000 13.9 180 13:48 16.03.2020
943 Clouds -3 987 63 10000 12.3 180 13:28 16.03.2020
944 Clouds -3 988 68 10000 13.4 190 12:58 16.03.2020
945 Clouds -3 988 68 10000 13.4 190 12:39 16.03.2020
946 Clouds -3 989 58 10000 10.3 190 12:20 16.03.2020
947 Clouds -3 990 58 10000 7.7 220 11:43 16.03.2020
948 Clouds -3 991 58 10000 9.8 250 11:25 16.03.2020
949 Clouds -3 991 63 10000 8.7 250 10:45 16.03.2020
950 Clouds -3 992 73 10000 10.3 290 10:24 16.03.2020
951 Snow -3 991 68 10000 12.9 290 09:56 16.03.2020
952 Snow -3 991 68 10000 12.9 290 09:37 16.03.2020
953 Rain -3 991 62 10000 12.3 300 09:19 16.03.2020
954 Rain -4 991 73 10000 12.3 300 08:43 16.03.2020
955 Rain -4 991 68 10000 14.9 310 08:23 16.03.2020
956 Rain -4 990 73 10000 12.9 310 07:43 16.03.2020
957 Rain -4 990 73 10000 19 320 07:21 16.03.2020
958 Snow -4 989 85 5000 21.6 320 06:41 16.03.2020
959 Snow -4 988 92 800 20.6 320 06:22 16.03.2020
960 Snow -5 985 73 10000 4.1 220 04:26 16.03.2020
961 Clouds -6 985 73 10000 5.1 170 01:47 16.03.2020
962 Clouds -6 985 67 10000 6.2 160 00:45 16.03.2020
963 Clouds -6 985 73 10000 7.7 160 00:27 16.03.2020
964 Clouds -4 986 58 10000 7.2 170 23:40 15.03.2020
965 Clouds -4 986 57 10000 8.2 160 23:19 15.03.2020
966 Clouds -4 986 53 10000 9.3 150 22:42 15.03.2020
967 Clouds -4 986 53 10000 10.3 140 22:21 15.03.2020
968 Clouds -4 986 57 10000 8.7 150 21:39 15.03.2020
969 Clouds -4 987 57 10000 8.2 150 21:21 15.03.2020
970 Clouds -4 987 57 10000 8.2 150 20:58 15.03.2020
971 Clouds -4 987 57 10000 5.1 150 20:40 15.03.2020
972 Clouds -4 987 53 10000 5.1 160 20:19 15.03.2020
973 Clouds -5 988 57 10000 4.1 170 19:55 15.03.2020
974 Clouds -5 988 57 10000 4.1 170 19:37 15.03.2020
975 Clouds -5 988 62 10000 3.6 170 19:18 15.03.2020
976 Clouds -5 988 62 10000 5.7 190 18:42 15.03.2020
977 Clouds -4 988 58 10000 3.6 190 18:24 15.03.2020
978 Clouds -6 988 67 10000 2.6 190 17:59 15.03.2020
979 Clouds -6 988 67 10000 2.6 190 17:39 15.03.2020
980 Clouds -5 989 57 10000 1.5 190 17:20 15.03.2020
981 Clouds -4 989 57 10000 1 0 16:55 15.03.2020
982 Clouds -4 989 57 10000 1 0 16:37 15.03.2020
983 Clouds -4 989 53 10000 1.5 0 16:18 15.03.2020
984 Clouds -3 989 53 10000 3.6 310 15:42 15.03.2020
985 Clouds -3 989 53 10000 6.2 320 15:22 15.03.2020
986 Clouds -2 989 54 10000 8.2 320 14:47 15.03.2020
987 Clouds -2 989 54 10000 8.2 320 14:28 15.03.2020
988 Clouds -3 989 58 10000 10.3 300 13:59 15.03.2020
989 Clouds -3 989 58 10000 10.3 300 13:39 15.03.2020
990 Clouds -2 988 54 10000 10.3 300 13:21 15.03.2020
991 Clouds -2 988 54 10000 12.9 310 12:57 15.03.2020
992 Clouds -2 988 54 10000 12.9 310 12:38 15.03.2020
993 Clouds -2 987 50 10000 14.4 320 12:20 15.03.2020
994 Clouds -2 987 50 10000 14.9 320 11:40 15.03.2020
995 Snow -2 987 50 9000 15.9 320 11:22 15.03.2020
996 Mist -2 985 54 9000 13.9 330 10:56 15.03.2020
997 Mist -2 985 54 9000 13.9 330 10:38 15.03.2020
998 Snow -2 984 50 10000 13.4 330 10:20 15.03.2020
999 Snow -2 984 58 10000 16.5 340 09:41 15.03.2020
1000 Snow -3 983 73 9000 17.5 340 09:22 15.03.2020
1001 Snow -4 982 85 2000 22.1 340 08:54 15.03.2020
1002 Snow -4 982 85 2000 22.1 340 08:36 15.03.2020
1003 Clouds -4 981 79 7000 19.5 350 08:18 15.03.2020
1004 Snow -4 980 92 1200 18 350 07:44 15.03.2020
1005 Snow -4 978 85 1800 9.3 340 06:54 15.03.2020
1006 Snow -4 978 85 1800 9.3 340 06:34 15.03.2020
1007 Snow -4 977 92 5000 8.7 350 05:43 15.03.2020
1008 Snow -4 978 85 0 4.1 200 04:47 15.03.2020
1009 Snow -4 978 85 0 4.1 200 04:28 15.03.2020
1010 Snow -5 979 92 0 8.7 190 03:55 15.03.2020
1011 Clouds -5 980 79 0 12.3 190 02:48 15.03.2020
1012 Snow -5 982 79 0 18 190 01:50 15.03.2020
1013 Snow -7 984 92 0 23.7 190 00:51 15.03.2020
1014 Snow -7 984 92 0 23.7 190 00:51 15.03.2020
1015 Clouds -7 985 92 0 23.7 190 00:28 15.03.2020
1016 Snow -7 986 92 0 19 180 23:58 14.03.2020
1017 Snow -7 986 92 0 19 180 23:37 14.03.2020
1018 Snow -7 988 85 1100 15.4 170 23:19 14.03.2020
1019 Snow -7 991 85 1600 17 180 22:44 14.03.2020
1020 Snow -7 992 79 2600 14.9 170 22:26 14.03.2020
1021 Snow -7 994 73 10000 14.9 190 21:57 14.03.2020
1022 Snow -7 994 73 10000 14.9 190 21:37 14.03.2020
1023 Snow -7 995 67 10000 15.4 180 21:19 14.03.2020
1024 Snow -7 995 67 10000 15.4 180 21:19 14.03.2020
1025 Snow -7 995 67 10000 15.4 180 20:59 14.03.2020
1026 Snow -7 996 67 10000 9.8 180 20:41 14.03.2020
1027 Clouds -7 997 67 10000 6.7 170 20:20 14.03.2020
1028 Snow -7 998 62 10000 7.2 180 19:59 14.03.2020
1029 Snow -7 998 62 10000 7.2 180 19:40 14.03.2020
1030 Snow -7 998 62 10000 9.3 190 19:20 14.03.2020
1031 Snow -6 1000 62 10000 9.3 190 18:39 14.03.2020
1032 Snow -6 1001 62 10000 9.3 190 18:20 14.03.2020
1033 Snow -6 1001 62 10000 9.3 190 17:41 14.03.2020
1034 Snow -6 1001 67 10000 8.2 200 17:21 14.03.2020
1035 Snow -5 1002 57 10000 9.3 210 16:58 14.03.2020
1036 Snow -5 1002 57 10000 9.3 210 16:38 14.03.2020
1037 Snow -5 1002 67 10000 9.8 230 16:18 14.03.2020
1038 Rain -5 1003 73 10000 12.3 240 15:28 14.03.2020
1039 Rain -5 1003 73 10000 10.8 230 14:59 14.03.2020
1040 Rain -5 1003 73 10000 10.8 230 14:59 14.03.2020
1041 Rain -5 1003 73 10000 10.8 230 14:39 14.03.2020
1042 Rain -5 1003 73 10000 8.7 240 14:20 14.03.2020
1043 Rain -5 1003 73 10000 6.2 240 13:56 14.03.2020
1044 Rain -5 1003 73 10000 6.2 240 13:38 14.03.2020
1045 Rain -5 1003 73 10000 4.6 260 13:19 14.03.2020
1046 Snow -6 1004 79 10000 6.7 260 12:44 14.03.2020
1047 Rain -5 1003 67 10000 4.6 240 12:25 14.03.2020
1048 Rain -5 1003 62 10000 5.1 270 11:45 14.03.2020
1049 Clouds -6 1003 67 10000 4.1 300 11:26 14.03.2020
1050 Clouds -6 1003 67 10000 4.1 300 11:26 14.03.2020
1051 Clouds -7 1003 79 10000 4.1 320 10:57 14.03.2020
1052 Clouds -7 1003 79 10000 4.1 320 10:38 14.03.2020
1053 Snow -6 1003 67 10000 5.1 340 10:20 14.03.2020
1054 Snow -7 1003 73 10000 5.7 320 09:41 14.03.2020
1055 Snow -7 1003 79 10000 7.2 320 09:22 14.03.2020
1056 Snow -7 1003 73 8000 9.8 340 08:47 14.03.2020
1057 Snow -7 1002 57 10000 7.7 340 08:27 14.03.2020
1058 Snow -7 1002 57 10000 10.8 330 07:48 14.03.2020
1059 Snow -8 1002 67 10000 10.3 340 07:23 14.03.2020
1060 Snow -8 1001 72 7000 11.3 330 06:59 14.03.2020
1061 Snow -8 1001 72 7000 11.3 330 06:39 14.03.2020
1062 Snow -9 1000 85 8000 11.8 360 04:58 14.03.2020
1063 Snow -9 999 78 10000 14.4 340 03:42 14.03.2020
1064 Snow -8 999 67 2300 15.9 350 03:23 14.03.2020
1065 Snow -8 998 61 2800 15.4 350 02:19 14.03.2020
1066 Snow -9 996 85 10000 15.9 340 00:42 14.03.2020
1067 Snow -8 995 67 5000 16.5 340 23:45 13.03.2020
1068 Rain -8 994 78 10000 18.5 340 23:26 13.03.2020
1069 Snow -8 994 85 2500 14.9 330 22:47 13.03.2020
1070 Snow -7 993 72 4000 16.5 320 22:25 13.03.2020
1071 Snow -8 993 72 5000 16.5 330 21:43 13.03.2020
1072 Rain -7 992 79 10000 19.5 330 21:21 13.03.2020
1073 Rain -7 991 73 10000 18 330 20:57 13.03.2020
1074 Rain -7 991 73 10000 18 330 20:38 13.03.2020
1075 Snow -6 991 73 4000 19.5 330 20:19 13.03.2020
1076 Rain -6 990 79 10000 19 340 19:45 13.03.2020
1077 Rain -6 990 85 5000 20.1 340 19:27 13.03.2020
1078 Clouds -6 989 92 3000 12.9 360 18:47 13.03.2020
1079 Snow -7 989 92 600 9.8 260 18:29 13.03.2020
1080 Snow -7 989 85 800 10.3 250 17:57 13.03.2020
1081 Snow -6 989 85 800 10.3 250 17:38 13.03.2020
1082 Snow -6 989 85 3000 10.8 260 17:19 13.03.2020
1083 Rain -6 989 79 10000 10.3 250 16:42 13.03.2020
1084 Rain -8 989 72 10000 8.2 210 16:24 13.03.2020
1085 Clouds -8 989 72 10000 8.7 210 15:56 13.03.2020
1086 Clouds -8 989 72 10000 8.7 210 15:37 13.03.2020
1087 Clouds -7 989 67 10000 9.3 200 15:19 13.03.2020
1088 Clouds -7 989 73 10000 8.7 210 14:41 13.03.2020
1089 Clouds -8 989 78 10000 7.2 200 14:22 13.03.2020
1090 Clouds -8 989 78 10000 7.2 200 14:22 13.03.2020
1091 Clouds -8 989 78 10000 6.7 200 13:56 13.03.2020
1092 Clouds -7 989 78 10000 6.7 200 13:38 13.03.2020
1093 Rain -7 989 78 10000 6.2 200 13:19 13.03.2020
1094 Rain -7 989 72 10000 3.1 180 12:40 13.03.2020
1095 Rain -7 988 67 10000 3.1 190 12:22 13.03.2020
1096 Rain -8 988 67 10000 4.1 190 11:59 13.03.2020
1097 Rain -8 988 67 10000 4.1 190 11:41 13.03.2020
1098 Rain -8 988 72 10000 4.16 243 11:22 13.03.2020
1099 Rain -8 988 72 10000 1.5 30 10:48 13.03.2020
1100 Rain -8 988 67 10000 2.6 40 10:28 13.03.2020
1101 Rain -8 987 57 10000 4.6 30 09:58 13.03.2020
1102 Rain -8 987 57 10000 4.6 30 09:39 13.03.2020
1103 Rain -8 987 57 10000 6.2 50 09:20 13.03.2020
1104 Rain -8 987 61 10000 7.2 60 08:45 13.03.2020
1105 Clouds -9 987 61 10000 7.7 60 08:23 13.03.2020
1106 Clouds -9 987 61 10000 6.7 50 07:50 13.03.2020
1107 Clouds -10 987 61 10000 7.7 40 07:28 13.03.2020
1108 Clouds -9 987 61 10000 8.7 40 06:53 13.03.2020
1109 Clouds -9 987 61 10000 8.7 30 06:32 13.03.2020
1110 Clouds -10 987 66 10000 8.7 30 05:54 13.03.2020
1111 Clouds -9 987 66 10000 9.3 20 05:24 13.03.2020
1112 Snow -11 989 85 0 6.84 5 04:38 13.03.2020
1113 Clouds -8 986 72 10000 12.3 20 03:42 13.03.2020
1114 Snow -8 985 78 3000 17 10 01:47 13.03.2020
1115 Snow -8 984 85 2500 18.5 10 01:19 13.03.2020
1116 Snow -8 984 85 1600 19.5 20 00:53 13.03.2020
1117 Snow -7 983 85 800 19.5 20 00:27 13.03.2020
1118 Snow -7 982 85 4000 17.5 30 23:59 12.03.2020
1119 Snow -7 981 92 900 18 30 23:28 12.03.2020
1120 Snow -7 981 92 900 18 30 22:57 12.03.2020
1121 Snow -7 981 92 900 18 30 22:39 12.03.2020
1122 Snow -6 981 92 800 17.5 30 22:21 12.03.2020
1123 Snow -6 980 85 800 17.5 50 21:45 12.03.2020
1124 Snow -6 980 85 4000 17 60 21:27 12.03.2020
1125 Snow -6 980 85 9000 16.5 60 20:57 12.03.2020
1126 Snow -6 980 85 9000 16.5 60 20:38 12.03.2020
1127 Snow -6 980 85 9000 16.5 70 20:19 12.03.2020
1128 Snow -5 979 85 9000 17 80 19:41 12.03.2020
1129 Snow -5 979 85 9000 17 70 19:20 12.03.2020
1130 Clouds -5 979 85 9000 17 70 18:44 12.03.2020
1131 Clouds -5 979 85 9000 17 70 18:44 12.03.2020
1132 Rain -5 978 92 9000 16.5 70 18:24 12.03.2020
1133 Rain -5 978 92 9000 15.9 80 17:57 12.03.2020
1134 Snow -5 978 92 9000 16.5 80 17:39 12.03.2020
1135 Snow -5 978 92 9000 16.5 80 17:20 12.03.2020
1136 Snow -4 977 92 9000 17 80 16:56 12.03.2020
1137 Snow -4 977 92 9000 17 80 16:38 12.03.2020
1138 Snow -4 977 92 9000 18 80 16:19 12.03.2020
1139 Snow -4 977 92 9000 17.5 80 15:45 12.03.2020
1140 Snow -3 977 92 1000 17.5 70 15:27 12.03.2020
1141 Snow -4 976 92 1000 17 60 14:41 12.03.2020
1142 Snow -3 976 92 1000 14.9 80 14:23 12.03.2020
1143 Snow -4 977 92 1000 12.9 70 13:57 12.03.2020
1144 Snow -4 977 92 1000 12.9 70 13:36 12.03.2020
1145 Rain -3 976 86 10000 3.1 80 13:18 12.03.2020
1146 Rain -3 976 86 10000 1.5 60 12:41 12.03.2020
1147 Rain -3 976 92 5000 2.1 10 12:22 12.03.2020
1148 Snow -4 976 92 2500 2.1 70 11:57 12.03.2020
1149 Snow -4 976 92 2500 2.1 70 11:57 12.03.2020
1150 Snow -4 976 92 2500 2.1 70 11:38 12.03.2020
1151 Snow -4 976 92 6000 1 60 11:20 12.03.2020
1152 Snow -3 977 92 10000 2.19 357 10:58 12.03.2020
1153 Snow -3 977 92 10000 2.19 357 10:58 12.03.2020
1154 Snow -3 977 92 10000 2.19 357 10:40 12.03.2020
1155 Snow -3 977 86 7000 1 190 10:22 12.03.2020
1156 Snow -4 977 92 7000 2.1 180 09:46 12.03.2020
1157 Rain -4 977 92 10000 1.5 180 09:27 12.03.2020
1158 Snow -3 977 100 8000 2.1 170 08:45 12.03.2020
1159 Snow -3 977 92 2500 1 0 08:20 12.03.2020
1160 Snow -3 977 92 7000 1.5 360 07:59 12.03.2020
1161 Snow -3 977 92 7000 1.5 360 07:40 12.03.2020
1162 Snow -4 977 92 10000 1 110 07:21 12.03.2020
1163 Snow -4 978 100 10000 3.6 50 05:51 12.03.2020
1164 Snow -4 978 92 9000 1.5 360 05:25 12.03.2020
1165 Snow -4 979 92 8000 4.6 210 02:43 12.03.2020
1166 Snow -4 980 92 9000 2.6 230 01:36 12.03.2020
1167 Snow -4 980 92 9000 2.6 230 01:18 12.03.2020
1168 Snow -4 980 92 9000 3.6 230 00:40 12.03.2020
1169 Snow -4 980 85 10000 4.1 230 23:51 11.03.2020
1170 Clouds -3 981 85 10000 4.1 220 23:26 11.03.2020
1171 Snow -3 981 79 10000 4.1 220 22:55 11.03.2020
1172 Snow -3 981 79 10000 4.1 220 22:37 11.03.2020
1173 Clouds -3 981 79 10000 3.6 250 22:18 11.03.2020
1174 Clouds -3 981 79 10000 4.1 220 21:54 11.03.2020
1175 Clouds -4 981 79 10000 4.1 220 21:36 11.03.2020
1176 Clouds -4 981 79 10000 4.1 220 21:18 11.03.2020
1177 Clouds -3 981 79 10000 3.6 220 20:55 11.03.2020
1178 Clouds -3 981 79 10000 3.6 220 20:36 11.03.2020
1179 Clouds -3 982 79 10000 4.1 220 20:18 11.03.2020
1180 Clouds -3 982 79 10000 6.2 200 19:41 11.03.2020
1181 Clouds -3 982 73 10000 7.2 210 19:22 11.03.2020
1182 Clouds -4 982 79 10000 7.7 200 18:56 11.03.2020
1183 Clouds -4 982 79 10000 7.7 200 18:36 11.03.2020
1184 Clouds -4 982 79 10000 9.3 190 18:18 11.03.2020
1185 Clouds -4 983 79 10000 8.7 200 17:40 11.03.2020
1186 Clouds -4 983 79 10000 8.2 190 17:21 11.03.2020
1187 Clouds -4 983 79 10000 8.7 190 16:55 11.03.2020
1188 Clouds -4 983 79 10000 8.7 190 16:37 11.03.2020
1189 Clouds -4 984 73 10000 10.3 200 16:19 11.03.2020
1190 Clouds -4 984 73 10000 10.8 190 15:42 11.03.2020
1191 Clouds -4 984 73 10000 9.8 190 15:22 11.03.2020
1192 Clouds -4 985 73 10000 13.9 190 14:44 11.03.2020
1193 Clouds -4 985 67 10000 12.9 180 14:23 11.03.2020
1194 Clouds -4 985 67 10000 12.9 180 13:58 11.03.2020
1195 Clouds -4 985 67 10000 10.8 180 13:39 11.03.2020
1196 Clouds -4 986 67 10000 11.3 180 13:21 11.03.2020
1197 Clouds -4 987 67 10000 12.9 170 12:41 11.03.2020
1198 Snow -5 988 79 10000 13.4 160 12:21 11.03.2020
1199 Snow -5 988 73 8000 14.9 160 11:57 11.03.2020
1200 Snow -5 988 73 8000 14.9 160 11:57 11.03.2020
1201 Snow -5 988 73 8000 14.9 160 11:38 11.03.2020
1202 Snow -6 989 79 9000 15.4 160 11:19 11.03.2020
1203 Snow -6 990 79 10000 17 150 10:43 11.03.2020
1204 Rain -6 990 73 10000 14.4 150 10:19 11.03.2020
1205 Snow -7 991 78 10000 16.5 140 09:54 11.03.2020
1206 Snow -7 991 78 10000 16.5 140 09:36 11.03.2020
1207 Rain -7 991 78 10000 15.4 140 09:18 11.03.2020
1208 Rain -7 992 78 10000 20.1 140 08:40 11.03.2020
1209 Rain -7 993 72 10000 17.5 140 08:22 11.03.2020
1210 Rain -7 993 72 10000 18 140 07:45 11.03.2020
1211 Rain -8 994 72 10000 18.5 140 07:19 11.03.2020
1212 Rain -8 994 67 10000 17 140 06:48 11.03.2020
1213 Clouds -8 995 67 10000 15.9 150 05:42 11.03.2020
1214 Clouds -7 996 62 10000 11.3 160 04:52 11.03.2020
1215 Clouds -7 997 62 10000 7.7 130 02:30 11.03.2020
1216 Clouds -7 998 62 10000 9.3 140 01:43 11.03.2020
1217 Clouds -7 999 67 10000 8.2 140 00:53 11.03.2020
1218 Clouds -7 999 67 10000 7.2 120 00:21 11.03.2020
1219 Clouds -7 999 79 10000 5.7 100 23:45 10.03.2020
1220 Clouds -6 999 85 10000 3.1 130 23:22 10.03.2020
1221 Snow -6 999 85 10000 4.1 80 22:55 10.03.2020
1222 Snow -6 999 85 10000 4.1 80 22:36 10.03.2020
1223 Snow -6 999 73 10000 3.6 60 22:18 10.03.2020
1224 Snow -6 999 62 10000 2.1 60 21:55 10.03.2020
1225 Snow -6 999 62 10000 2.1 60 21:37 10.03.2020
1226 Snow -6 999 62 10000 2.6 60 21:18 10.03.2020
1227 Rain -6 999 67 10000 3.1 70 20:41 10.03.2020
1228 Snow -6 999 73 10000 4.1 30 20:19 10.03.2020
1229 Snow -6 999 62 10000 5.7 10 19:58 10.03.2020
1230 Snow -6 999 62 10000 5.7 10 19:40 10.03.2020
1231 Snow -6 999 62 10000 7.2 350 19:21 10.03.2020
1232 Snow -6 999 79 10000 6.7 350 18:54 10.03.2020
1233 Snow -6 999 79 10000 6.7 350 18:36 10.03.2020
1234 Snow -6 999 67 10000 8.7 360 18:18 10.03.2020
1235 Clouds -6 999 62 10000 8.2 350 17:41 10.03.2020
1236 Snow -6 999 62 10000 9.3 350 17:22 10.03.2020
1237 Clouds -6 998 62 10000 11.3 350 16:40 10.03.2020
1238 Clouds -6 998 57 10000 11.8 340 16:20 10.03.2020
1239 Clouds -6 998 57 10000 11.8 340 15:58 10.03.2020
1240 Rain -6 998 62 10000 8.7 340 15:58 10.03.2020
1241 Rain -6 998 62 10000 8.7 340 15:40 10.03.2020
1242 Rain -6 998 67 10000 9.8 340 15:19 10.03.2020
1243 Rain -6 997 57 10000 8.7 320 14:57 10.03.2020
1244 Rain -6 997 57 10000 8.7 320 14:39 10.03.2020
1245 Rain -5 997 67 10000 4.6 340 14:18 10.03.2020
1246 Rain -5 997 73 10000 3.6 0 13:43 10.03.2020
1247 Rain -5 996 67 10000 5.1 340 13:25 10.03.2020
1248 Clouds -5 996 67 10000 4.6 0 12:55 10.03.2020
1249 Clouds -5 996 67 10000 4.6 0 12:36 10.03.2020
1250 Clouds -5 995 73 10000 6.2 0 12:18 10.03.2020
1251 -273 0 0 0 0 0 12:18 10.03.2020
1252 Clouds -4 994 73 10000 7.2 330 11:42 10.03.2020
1253 Snow -4 993 85 5000 8.7 340 11:24 10.03.2020
1254 Snow -4 993 92 1000 7.7 330 10:54 10.03.2020
1255 Snow -4 993 92 1000 7.7 330 10:36 10.03.2020
1256 Snow -4 992 92 1500 6.7 340 10:18 10.03.2020
1257 Snow -4 991 85 2300 7.2 340 09:44 10.03.2020
1258 Snow -3 990 86 4000 7.2 350 09:20 10.03.2020
1259 Snow -3 989 86 8000 6.7 350 08:54 10.03.2020
1260 Snow -3 989 86 8000 6.7 350 08:35 10.03.2020
1261 Snow -1 987 86 9000 11.8 330 07:58 10.03.2020
1262 Snow -1 987 86 9000 11.8 330 07:40 10.03.2020
1263 Snow -1 986 86 9000 10.8 340 07:19 10.03.2020
1264 Clouds 0 985 96 5000 11.8 340 06:37 10.03.2020
1265 Clouds 1 982 96 9000 1 0 05:42 10.03.2020
1266 Rain 2 981 96 10000 21.1 320 05:18 10.03.2020
1267 Clouds 2 978 93 10000 11.8 230 04:29 10.03.2020
1268 Rain 3 978 96 10000 5.1 220 02:58 10.03.2020
1269 Clouds 3 978 81 10000 4.6 220 01:32 10.03.2020
1270 Clouds 3 978 74 10000 4.6 210 00:50 10.03.2020
1271 Rain 3 978 74 10000 5.7 210 00:28 10.03.2020
1272 Rain 4 979 69 10000 6.2 200 23:42 09.03.2020
1273 Clouds 4 979 69 10000 4.1 200 23:22 09.03.2020
1274 Clouds 3 979 92 10000 6.2 190 22:57 09.03.2020
1275 Clouds 3 979 92 10000 6.2 190 22:38 09.03.2020
1276 Clouds 3 979 92 10000 2.6 160 22:19 09.03.2020
1277 Rain 3 980 92 10000 6.7 210 21:44 09.03.2020
1278 Clouds 4 980 69 10000 8.7 200 21:22 09.03.2020
1279 Clouds 4 980 69 10000 7.7 200 20:58 09.03.2020
1280 Clouds 4 980 69 10000 7.7 200 20:40 09.03.2020
1281 Clouds 4 980 69 10000 7.7 200 20:40 09.03.2020
1282 Clouds 4 980 65 10000 9.3 200 20:21 09.03.2020
1283 Clouds 4 980 69 10000 8.7 200 19:56 09.03.2020
1284 Clouds 4 980 69 10000 8.7 200 19:38 09.03.2020
1285 Clouds 4 981 69 10000 8.2 200 19:18 09.03.2020
1286 Clouds 4 981 69 10000 8.2 200 18:55 09.03.2020
1287 Clouds 4 981 69 10000 8.2 200 18:37 09.03.2020
1288 Clouds 3 981 82 10000 8.2 200 18:18 09.03.2020
1289 Clouds 3 982 82 10000 7.2 200 17:55 09.03.2020
1290 Clouds 3 982 82 10000 7.2 200 17:37 09.03.2020
1291 Clouds 3 982 88 10000 4.6 200 17:19 09.03.2020
1292 Clouds 3 982 93 10000 5.1 200 16:55 09.03.2020
1293 Clouds 2 982 93 10000 5.1 230 16:36 09.03.2020
1294 Clouds 2 982 93 10000 5.1 230 16:18 09.03.2020
1295 Clouds 2 982 93 10000 5.1 230 15:55 09.03.2020
1296 Clouds 2 982 93 10000 5.1 230 15:55 09.03.2020
1297 Clouds 2 982 93 10000 5.7 240 15:36 09.03.2020
1298 Clouds 2 982 93 10000 5.7 240 15:18 09.03.2020
1299 Clouds 2 982 93 10000 8.2 260 14:39 09.03.2020
1300 Clouds 2 982 93 10000 6.7 250 14:20 09.03.2020
1301 Clouds 2 982 100 10000 7.7 260 13:58 09.03.2020
1302 Clouds 2 982 100 10000 8.2 270 13:39 09.03.2020
1303 Clouds 2 982 100 10000 8.2 270 13:20 09.03.2020
1304 Clouds 1 982 100 10000 9.8 270 12:58 09.03.2020
1305 Rain 1 982 98 10000 11.3 270 12:39 09.03.2020
1306 Rain 1 982 98 10000 11.3 270 12:18 09.03.2020
1307 Rain 1 981 98 10000 8.2 270 11:40 09.03.2020
1308 Rain 1 981 95 10000 8.2 270 11:20 09.03.2020
1309 Rain 1 981 86 10000 9.8 270 10:57 09.03.2020
1310 Rain 1 981 86 10000 9.8 270 10:39 09.03.2020
1311 Clouds 1 981 95 10000 8.2 270 10:18 09.03.2020
1312 Clouds 1 981 95 10000 6.7 260 09:42 09.03.2020
1313 Clouds 1 981 95 10000 6.2 260 09:24 09.03.2020
1314 Clouds 1 981 86 10000 7.2 270 08:46 09.03.2020
1315 Clouds 0 981 95 10000 6.7 240 08:28 09.03.2020
1316 Clouds 0 981 92 10000 5.7 240 07:57 09.03.2020
1317 Clouds 0 981 92 10000 3.6 250 07:37 09.03.2020
1318 Clouds 0 981 92 10000 3.6 250 07:18 09.03.2020
1319 Clouds 0 981 92 10000 4.1 260 06:39 09.03.2020
1320 Clouds 0 981 92 10000 4.1 240 06:21 09.03.2020
1321 Clouds 0 982 92 10000 4.1 220 05:42 09.03.2020
1322 Clouds -2 983 89 0 2.04 190 04:57 09.03.2020
1323 Clouds -2 983 89 0 2.04 190 04:39 09.03.2020
1324 Clouds 1 983 80 10000 5.7 200 04:19 09.03.2020
1325 Clouds 1 983 80 10000 5.7 200 02:53 09.03.2020
1326 Clouds 1 984 80 10000 8.7 190 00:44 09.03.2020
1327 Clouds 1 984 74 10000 10.3 190 00:25 09.03.2020
1328 Clouds 0 984 91 10000 9.8 180 23:58 08.03.2020
1329 Clouds 1 985 91 10000 11.8 180 23:38 08.03.2020
1330 Clouds 1 985 89 10000 11.8 180 23:18 08.03.2020
1331 Clouds 1 985 74 10000 9.3 180 22:41 08.03.2020
1332 Clouds 1 985 89 10000 10.8 190 22:22 08.03.2020
1333 Clouds 1 985 89 10000 11.3 190 21:59 08.03.2020
1334 Clouds 1 985 89 10000 11.3 190 21:40 08.03.2020
1335 Clouds 1 986 89 10000 11.3 190 21:20 08.03.2020
1336 Clouds 1 987 89 10000 13.4 190 20:57 08.03.2020
1337 Clouds 0 987 89 10000 12.9 190 20:37 08.03.2020
1338 Clouds 0 987 86 10000 12.9 190 20:19 08.03.2020
1339 Clouds 0 987 86 10000 12.9 190 20:19 08.03.2020
1340 Clouds 0 987 86 10000 10.8 190 19:40 08.03.2020
1341 Clouds -1 988 80 10000 11.8 180 19:19 08.03.2020
1342 Clouds -1 988 80 10000 11.8 180 18:55 08.03.2020
1343 Clouds -1 988 80 10000 12.3 180 18:37 08.03.2020
1344 Clouds -1 988 74 10000 13.4 190 18:19 08.03.2020
1345 Clouds -1 989 68 10000 13.9 190 17:40 08.03.2020
1346 Clouds -1 989 68 10000 13.9 190 17:22 08.03.2020
1347 Clear -1 989 68 10000 13.9 190 16:58 08.03.2020
1348 Clear -1 989 68 10000 13.9 190 16:40 08.03.2020
1349 Clear -1 990 63 10000 12.3 190 16:22 08.03.2020
1350 Clear -1 990 63 10000 13.9 190 15:41 08.03.2020
1351 Clear -1 990 63 10000 13.9 190 15:22 08.03.2020
1352 Clear -1 990 63 10000 12.9 190 14:59 08.03.2020
1353 Clear -1 991 63 10000 10.3 190 14:38 08.03.2020
1354 Clear -1 991 58 10000 9.8 190 14:19 08.03.2020
1355 Clear -1 991 58 10000 11.3 190 13:42 08.03.2020
1356 Clear -1 992 58 10000 9.8 190 13:21 08.03.2020
1357 Clear -1 992 63 10000 10.8 190 12:57 08.03.2020
1358 Clear -1 992 63 10000 10.8 190 12:37 08.03.2020
1359 Clear 0 992 82 10000 4.6 190 12:18 08.03.2020
1360 Clear 0 992 82 10000 2.6 180 11:41 08.03.2020
1361 Clear -1 992 54 10000 4.6 190 11:23 08.03.2020
1362 Clear -1 992 54 10000 4.6 190 10:57 08.03.2020
1363 Clear -1 992 54 10000 4.6 190 10:39 08.03.2020
1364 Clear -1 992 54 10000 4.6 190 10:21 08.03.2020
1365 Clear -1 993 54 10000 2.1 170 09:39 08.03.2020
1366 Clear -4 993 68 10000 2.6 140 09:21 08.03.2020
1367 Clear -3 993 68 10000 2.1 150 08:46 08.03.2020
1368 Clear -4 994 73 10000 2.6 110 08:21 08.03.2020
1369 Clear -5 994 73 10000 2.6 110 07:49 08.03.2020
1370 Clear -5 994 73 10000 2.6 110 07:28 08.03.2020
1371 Clear -4 994 79 10000 1 0 06:46 08.03.2020
1372 Clear -2 994 74 10000 0.5 0 06:27 08.03.2020
1373 Clear -2 995 74 10000 1.5 120 05:47 08.03.2020
1374 Clouds 1 996 69 10000 4.6 230 03:52 08.03.2020
1375 Clouds 1 996 69 10000 6.2 210 02:59 08.03.2020
1376 Clouds 1 997 64 10000 5.1 220 01:38 08.03.2020
1377 Clouds 0 997 76 10000 6.2 210 01:19 08.03.2020
1378 Clouds 1 997 69 10000 5.1 210 00:41 08.03.2020
1379 Clouds 1 997 64 10000 5.7 200 23:59 07.03.2020
1380 Clouds 1 997 64 10000 5.7 200 23:41 07.03.2020
1381 Clouds 1 998 69 10000 3.1 200 23:20 07.03.2020
1382 Clouds 2 998 69 10000 7.7 200 22:38 07.03.2020
1383 Clouds 2 998 69 10000 7.7 200 22:20 07.03.2020
1384 Clouds 1 999 74 10000 6.2 200 21:45 07.03.2020
1385 Clouds 1 999 74 10000 6.7 200 21:24 07.03.2020
1386 Clouds 1 999 80 10000 7.7 200 20:42 07.03.2020
1387 Clouds 1 999 86 10000 6.2 200 20:23 07.03.2020
1388 Snow 1 999 80 10000 4.6 220 19:57 07.03.2020
1389 Snow 1 999 86 10000 4.1 220 19:38 07.03.2020
1390 Snow 1 999 86 10000 4.1 220 19:19 07.03.2020
1391 Snow 1 999 85 10000 8.7 330 18:41 07.03.2020
1392 Snow 1 999 85 10000 8.7 330 18:22 07.03.2020
1393 Snow 1 999 85 10000 4.6 310 17:43 07.03.2020
1394 Snow 1 999 85 10000 4.6 250 17:22 07.03.2020
1395 Snow 1 999 91 10000 4.1 270 16:59 07.03.2020
1396 Snow 1 999 91 10000 5.7 230 16:41 07.03.2020
1397 Snow 1 999 91 10000 5.7 230 16:22 07.03.2020
1398 Snow 1 999 91 10000 7.2 230 15:57 07.03.2020
1399 Snow 1 999 91 10000 7.2 230 15:39 07.03.2020
1400 Rain 1 998 91 10000 12.3 280 15:20 07.03.2020
1401 Snow 0 998 91 8000 3.6 250 14:54 07.03.2020
1402 Snow 0 998 91 1000 5.7 240 14:36 07.03.2020
1403 Snow 0 998 88 1000 5.7 240 14:18 07.03.2020
1404 Snow 0 998 88 10000 12.9 270 13:39 07.03.2020
1405 Snow 0 998 88 8000 6.7 310 13:19 07.03.2020
1406 Rain 1 997 89 10000 4.6 270 12:42 07.03.2020
1407 Rain 1 997 89 10000 7.7 280 12:20 07.03.2020
1408 Snow 0 997 89 1500 6.7 210 11:58 07.03.2020
1409 Snow 0 997 89 1500 6.7 210 11:39 07.03.2020
1410 Snow 0 997 89 4000 6.2 270 11:21 07.03.2020
1411 Rain 0 996 94 10000 3.1 250 10:41 07.03.2020
1412 Rain 0 996 94 10000 3.1 250 10:21 07.03.2020
1413 Snow 1 996 94 10000 2.6 0 09:57 07.03.2020
1414 Clouds 0 995 94 10000 1 0 09:38 07.03.2020
1415 Clouds 0 995 94 10000 1 0 09:18 07.03.2020
1416 Clouds 0 995 94 10000 1 0 09:18 07.03.2020
1417 Rain 0 995 94 10000 2.1 200 08:44 07.03.2020
1418 Rain 0 995 96 10000 1.5 0 08:21 07.03.2020
1419 Rain 0 994 98 10000 1.5 0 07:51 07.03.2020
1420 Rain 0 994 98 10000 1.5 0 07:23 07.03.2020
1421 Snow -1 996 98 0 1.43 304 06:59 07.03.2020
1422 Snow -1 996 98 0 1.43 304 06:33 07.03.2020
1423 Snow -1 996 98 0 1.43 304 05:53 07.03.2020
1424 Snow 1 993 97 10000 1.5 0 04:56 07.03.2020
1425 Rain 1 991 97 10000 2.1 0 02:58 07.03.2020
1426 Rain 1 991 97 10000 2.1 0 02:34 07.03.2020
1427 Snow 0 991 98 3000 3.72 289 01:45 07.03.2020
1428 Rain 2 990 86 10000 4.1 280 00:40 07.03.2020
1429 Clouds 2 990 86 10000 4.1 250 00:21 07.03.2020
1430 Clouds 2 990 86 10000 5.1 270 23:49 06.03.2020
1431 Clouds 1 990 93 10000 4.1 270 23:26 06.03.2020
1432 Clouds 1 990 98 10000 3.6 270 22:58 06.03.2020
1433 Clouds 1 989 98 10000 4.1 270 22:40 06.03.2020
1434 Clouds 1 989 98 10000 4.1 270 22:18 06.03.2020
1435 Snow 1 989 98 2000 3.1 280 21:43 06.03.2020
1436 Snow 1 988 98 10000 3.6 270 21:19 06.03.2020
1437 Snow 1 988 98 4000 4.1 270 20:39 06.03.2020
1438 Snow 0 988 95 4000 3.1 280 20:21 06.03.2020
1439 Snow 0 988 97 4000 4.1 280 19:52 06.03.2020
1440 Snow 0 987 97 4000 4.6 290 19:33 06.03.2020
1441 Snow 0 987 97 4000 4.6 290 18:59 06.03.2020
1442 Snow 0 987 97 4000 4.6 270 18:41 06.03.2020
1443 Snow 0 987 97 3000 6.7 260 18:19 06.03.2020
1444 Snow 0 987 97 3000 6.7 260 18:19 06.03.2020
1445 Snow 0 987 97 3000 6.7 260 18:19 06.03.2020
1446 Snow 0 987 97 3000 5.1 360 17:55 06.03.2020
1447 Snow 1 986 97 2500 9.3 300 17:36 06.03.2020
1448 Snow 1 986 96 2500 9.3 300 17:18 06.03.2020
1449 Snow 1 986 96 2500 15.4 290 16:42 06.03.2020
1450 Snow 1 986 96 2500 15.4 290 16:20 06.03.2020
1451 Snow 0 986 96 2000 11.3 290 15:45 06.03.2020
1452 Snow 0 986 100 4000 7.2 290 15:25 06.03.2020
1453 Snow 0 986 100 2000 7.2 290 14:59 06.03.2020
1454 Snow 0 986 100 2000 7.2 290 14:39 06.03.2020
1455 Snow -1 986 92 8000 5.7 290 14:19 06.03.2020
1456 Snow -1 986 86 10000 7.2 300 13:43 06.03.2020
1457 Snow -2 986 92 10000 5.7 300 13:22 06.03.2020
1458 Rain -2 986 86 10000 6.2 310 12:57 06.03.2020
1459 Rain -3 986 92 10000 5.1 290 12:38 06.03.2020
1460 Rain -3 986 92 10000 5.1 290 12:19 06.03.2020
1461 Snow -3 986 92 9000 3.1 260 11:57 06.03.2020
1462 Snow -3 986 92 9000 3.1 260 11:57 06.03.2020
1463 Snow -3 986 92 3500 3.6 240 11:38 06.03.2020
1464 Snow -2 986 92 3500 3.6 240 11:19 06.03.2020
1465 Snow -1 986 86 10000 4.6 220 10:39 06.03.2020
1466 Snow -1 986 86 10000 4.6 220 10:21 06.03.2020
1467 Snow -2 986 92 10000 4.6 230 09:55 06.03.2020
1468 Snow -2 986 92 10000 4.1 230 09:37 06.03.2020
1469 Snow -2 986 92 10000 4.1 230 09:19 06.03.2020
1470 Snow -3 986 92 10000 4.6 230 08:45 06.03.2020
1471 Snow -3 986 85 10000 4.1 250 08:27 06.03.2020
1472 Snow -4 986 92 10000 4.1 230 07:57 06.03.2020
1473 Snow -5 986 92 10000 3.6 230 07:38 06.03.2020
1474 Snow -5 987 85 10000 4.1 220 06:59 06.03.2020
1475 Snow -5 987 85 10000 4.1 220 06:40 06.03.2020
1476 Clouds -5 987 85 10000 3.1 200 05:47 06.03.2020
1477 Clouds -5 987 85 10000 3.1 200 05:28 06.03.2020
1478 Clouds -5 988 79 10000 3.6 210 04:58 06.03.2020
1479 Snow -5 989 79 10000 4.6 210 02:55 06.03.2020
1480 Clouds -5 990 73 10000 3.1 200 01:41 06.03.2020
1481 Clouds -5 990 73 10000 3.1 200 01:23 06.03.2020
1482 Clouds -4 991 68 10000 3.1 200 00:37 06.03.2020
1483 Clouds -4 991 68 10000 3.1 200 00:18 06.03.2020
1484 Clouds -4 991 73 10000 3.6 200 23:42 05.03.2020
1485 Clouds -4 991 73 10000 5.7 200 23:19 05.03.2020
1486 Snow -4 992 73 10000 8.7 200 22:40 05.03.2020
1487 Snow -4 992 73 10000 8.7 200 22:22 05.03.2020
1488 Snow -4 992 73 10000 8.7 200 22:22 05.03.2020
1489 Clouds -4 992 73 10000 9.3 200 21:58 05.03.2020
1490 Clouds -4 992 73 10000 9.3 200 21:39 05.03.2020
1491 Clouds -4 992 73 10000 11.3 200 21:21 05.03.2020
1492 Clouds -4 993 73 10000 11.3 200 20:59 05.03.2020
1493 Clouds -4 993 73 10000 11.3 200 20:40 05.03.2020
1494 Clouds -5 993 73 10000 10.8 180 20:20 05.03.2020
1495 Clouds -5 993 67 10000 11.8 180 19:58 05.03.2020
1496 Clouds -5 993 67 10000 11.8 180 19:39 05.03.2020
1497 Clouds -5 993 67 10000 11.8 180 19:39 05.03.2020
1498 Clouds -5 994 67 10000 9.8 180 19:19 05.03.2020
1499 Clouds -5 994 73 10000 13.9 190 18:57 05.03.2020
1500 Clouds -5 994 67 10000 12.9 180 18:37 05.03.2020
1501 Clouds -5 994 67 10000 12.9 180 18:18 05.03.2020
1502 Rain -5 995 79 10000 12.9 170 17:42 05.03.2020
1503 Rain -5 995 79 10000 11.8 180 17:24 05.03.2020
1504 Snow -5 996 79 7000 11.3 170 16:59 05.03.2020
1505 Snow -5 996 79 7000 11.3 170 16:41 05.03.2020
1506 Snow -5 997 73 10000 12.9 160 16:21 05.03.2020
1507 Clouds -4 997 73 10000 12.9 150 15:45 05.03.2020
1508 Clouds -4 998 67 10000 15.9 170 15:24 05.03.2020
1509 Clouds -4 999 67 10000 11.3 170 14:59 05.03.2020
1510 Clouds -4 999 67 10000 11.3 170 14:41 05.03.2020
1511 Clouds -5 999 67 10000 15.9 170 14:22 05.03.2020
1512 Clouds -5 999 67 10000 11.3 160 13:57 05.03.2020
1513 Clouds -5 999 67 10000 11.3 160 13:38 05.03.2020
1514 Clouds -5 1000 67 10000 17.5 160 13:20 05.03.2020
1515 Clouds -4 1001 62 10000 13.4 180 12:42 05.03.2020
1516 Clouds -5 1001 67 10000 11.3 150 12:21 05.03.2020
1517 Clouds -5 1002 67 10000 14.4 180 11:58 05.03.2020
1518 Clouds -5 1002 67 10000 13.4 180 11:38 05.03.2020
1519 Clouds -4 1002 67 10000 13.4 180 11:19 05.03.2020
1520 Clouds -4 1003 62 10000 12.3 200 10:58 05.03.2020
1521 Clouds -4 1003 62 10000 12.3 200 10:58 05.03.2020
1522 Clouds -4 1003 62 10000 12.3 200 10:40 05.03.2020
1523 Clouds -4 1003 62 10000 11.3 190 10:21 05.03.2020
1524 Clouds -4 1003 57 10000 9.8 180 09:59 05.03.2020
1525 Clouds -4 1003 57 10000 9.8 180 09:40 05.03.2020
1526 Clouds -4 1004 62 10000 6.2 160 09:19 05.03.2020
1527 Clouds -4 1005 62 10000 12.9 190 08:42 05.03.2020
1528 Clouds -4 1005 62 10000 12.9 190 08:22 05.03.2020
1529 Clouds -4 1006 57 10000 13.4 180 07:44 05.03.2020
1530 Clouds -6 1005 57 10000 12.3 190 07:21 05.03.2020
1531 Clouds -6 1006 57 10000 14.9 190 06:45 05.03.2020
1532 Clouds -6 1006 57 10000 14.9 190 06:45 05.03.2020
1533 Clouds -5 1007 53 10000 15.4 190 06:20 05.03.2020
1534 Clouds -4 1007 49 10000 15.4 190 05:36 05.03.2020
1535 Clouds -4 1008 53 10000 14.4 190 04:25 05.03.2020
1536 Clouds -5 1009 62 10000 11.8 190 03:58 05.03.2020
1537 Clouds -5 1009 62 10000 11.8 190 03:18 05.03.2020
1538 Clouds -6 1011 62 10000 15.9 190 01:28 05.03.2020
1539 Clouds -7 1011 67 10000 17.5 190 00:56 05.03.2020
1540 Clouds -7 1012 67 10000 15.9 190 23:58 04.03.2020
1541 Clouds -7 1012 67 10000 15.9 190 23:40 04.03.2020
1542 Clouds -7 1012 67 10000 15.9 190 23:22 04.03.2020
1543 Clear -5 1013 67 10000 11.8 190 22:56 04.03.2020
1544 Clear -5 1013 73 10000 10.8 180 22:37 04.03.2020
1545 Clear -5 1013 73 10000 10.8 180 22:19 04.03.2020
1546 Clear -5 1013 67 10000 11.8 180 21:56 04.03.2020
1547 Clear -5 1013 67 10000 13.9 190 21:37 04.03.2020
1548 Clear -5 1013 67 10000 13.9 190 21:18 04.03.2020
1549 Clear -4 1014 67 10000 14.4 190 20:40 04.03.2020
1550 Clouds -5 1014 62 10000 13.9 180 20:22 04.03.2020
1551 Clouds -4 1014 62 10000 20.1 190 19:58 04.03.2020
1552 Clouds -4 1014 62 10000 20.1 190 19:39 04.03.2020
1553 Clouds -6 1014 62 10000 21.1 190 19:21 04.03.2020
1554 Clouds -4 1015 57 10000 17 190 18:42 04.03.2020
1555 Clouds -4 1015 57 10000 17 190 18:42 04.03.2020
1556 Clouds -4 1016 53 10000 14.9 190 18:24 04.03.2020
1557 Clouds -3 1015 58 10000 12.3 190 17:59 04.03.2020
1558 Clouds -3 1016 58 10000 14.4 190 17:39 04.03.2020
1559 Clouds -3 1016 58 10000 14.4 190 17:20 04.03.2020
1560 Clouds -3 1016 62 10000 18.5 200 16:56 04.03.2020
1561 Clouds -2 1016 63 10000 17.5 190 16:37 04.03.2020
1562 Clouds -2 1016 63 10000 17.5 190 16:19 04.03.2020
1563 Clouds -3 1016 68 10000 19.5 200 15:45 04.03.2020
1564 Clouds -3 1016 68 10000 16.5 200 15:26 04.03.2020
1565 Clouds -3 1016 68 10000 16.5 200 15:26 04.03.2020
1566 Clouds -3 1018 68 10000 14.9 190 14:59 04.03.2020
1567 Clouds -3 1018 68 10000 14.9 190 14:40 04.03.2020
1568 Clear -2 1017 68 10000 13.4 190 14:20 04.03.2020
1569 Clear -4 1018 62 10000 14.4 190 13:58 04.03.2020
1570 Clear -2 1018 63 10000 14.9 190 13:39 04.03.2020
1571 Clouds -2 1018 63 10000 14.9 190 13:20 04.03.2020
1572 Clouds -2 1018 68 10000 13.4 190 12:56 04.03.2020
1573 Clouds -3 1018 68 10000 15.9 190 12:37 04.03.2020
1574 Clouds -3 1018 68 10000 15.9 190 12:19 04.03.2020
1575 Clouds -3 1019 68 10000 13.4 190 11:42 04.03.2020
1576 Clouds -3 1019 68 10000 13.4 190 11:42 04.03.2020
1577 Clouds -3 1019 67 10000 14.4 190 11:23 04.03.2020
1578 Clear -4 1019 62 10000 14.4 190 10:59 04.03.2020
1579 Clear -4 1019 62 10000 14.4 190 10:59 04.03.2020
1580 Clear -4 1019 62 10000 14.4 190 10:41 04.03.2020
1581 Clear -4 1019 62 10000 15.4 190 10:22 04.03.2020
1582 Clear -3 1019 58 10000 12.3 180 09:44 04.03.2020
1583 Clear -3 1019 58 10000 12.3 180 09:22 04.03.2020
1584 Clear -4 1020 62 10000 13.9 190 08:58 04.03.2020
1585 Clear -4 1020 62 10000 13.9 190 08:40 04.03.2020
1586 Clear -4 1019 62 10000 14.9 190 08:21 04.03.2020
1587 Clear -3 1020 62 10000 13.4 190 07:41 04.03.2020
1588 Clear -4 1020 53 10000 12.9 190 07:23 04.03.2020
1589 Clear -4 1020 53 10000 10.8 190 06:49 04.03.2020
1590 Clear -4 1020 53 10000 12.9 190 06:25 04.03.2020
1591 Clear -4 1021 53 10000 10.3 180 05:54 04.03.2020
1592 -273 0 0 0 0 0 04:55 04.03.2020
1593 Clear -5 1022 49 10000 7.2 190 03:49 04.03.2020
1594 Clear -5 1022 57 10000 5.1 190 03:30 04.03.2020
1595 Clear -5 1022 62 10000 5.7 190 02:58 04.03.2020
1596 Clear -4 1022 62 10000 5.1 200 02:23 04.03.2020
1597 Clouds -6 1022 62 10000 5.1 210 01:56 04.03.2020
1598 Clouds -3 1022 68 10000 5.7 220 01:22 04.03.2020
1599 Clouds -3 1022 73 10000 5.7 220 00:36 04.03.2020
1600 Clouds -3 1022 73 10000 5.7 220 00:18 04.03.2020
1601 Clouds -2 1021 73 10000 5.7 220 23:40 03.03.2020
1602 Clouds -2 1021 74 10000 5.1 240 23:22 03.03.2020
1603 Clouds -1 1021 74 10000 6.7 270 22:42 03.03.2020
1604 Clouds -1 1021 74 10000 7.2 260 22:20 03.03.2020
1605 Rain -1 1021 74 10000 8.7 260 21:59 03.03.2020
1606 Rain -1 1020 74 10000 10.3 260 21:40 03.03.2020
1607 Rain -1 1020 74 10000 10.3 260 21:21 03.03.2020
1608 Rain -1 1020 80 10000 8.7 250 20:57 03.03.2020
1609 Rain -1 1020 80 10000 8.7 250 20:38 03.03.2020
1610 Clouds -1 1020 74 10000 8.7 250 20:18 03.03.2020
1611 Clouds -1 1020 74 10000 8.7 250 20:18 03.03.2020
1612 Clouds -1 1020 74 10000 9.8 260 19:56 03.03.2020
1613 Clouds -1 1020 74 10000 9.8 260 19:56 03.03.2020
1614 Clouds -1 1020 80 10000 9.8 270 19:37 03.03.2020
1615 Clouds -1 1020 80 10000 9.8 270 19:37 03.03.2020
1616 Clouds -1 1020 80 10000 9.8 270 19:18 03.03.2020
1617 Clouds -1 1020 80 10000 9.8 270 18:56 03.03.2020
1618 Snow -1 1020 74 10000 8.7 270 18:38 03.03.2020
1619 Snow -1 1020 74 10000 8.7 270 18:18 03.03.2020
1620 Clouds -1 1019 68 10000 4.6 270 17:41 03.03.2020
1621 Clouds -1 1019 68 10000 4.6 270 17:22 03.03.2020
1622 Clouds -1 1019 68 10000 5.1 280 16:59 03.03.2020
1623 Clouds -1 1019 68 10000 5.1 280 16:39 03.03.2020
1624 Clouds -1 1019 68 10000 5.7 290 16:21 03.03.2020
1625 Clouds -1 1019 63 10000 5.1 300 15:59 03.03.2020
1626 Clouds -1 1019 63 10000 5.1 300 15:59 03.03.2020
1627 Clouds -1 1019 63 10000 5.1 300 15:41 03.03.2020
1628 Clouds -1 1018 68 10000 6.2 310 15:20 03.03.2020
1629 Clouds -1 1018 68 10000 6.7 320 14:43 03.03.2020
1630 Rain -1 1018 80 10000 8.2 300 14:21 03.03.2020
1631 Snow -1 1017 74 10000 6.2 310 13:59 03.03.2020
1632 Snow -1 1017 74 10000 6.2 310 13:41 03.03.2020
1633 Clouds -1 1017 74 10000 6.7 320 13:23 03.03.2020
1634 Clouds -2 1017 86 10000 6.2 320 12:55 03.03.2020
1635 Rain -3 1017 92 10000 5.7 330 12:36 03.03.2020
1636 Rain -3 1017 92 10000 5.7 330 12:18 03.03.2020
1637 Rain -1 1016 80 10000 8.2 320 11:38 03.03.2020
1638 Rain -2 1016 86 10000 10.3 310 11:19 03.03.2020
1639 Rain -2 1016 86 10000 10.3 310 11:19 03.03.2020
1640 Snow -2 1015 79 10000 9.8 300 10:57 03.03.2020
1641 Snow -2 1015 79 10000 9.8 300 10:39 03.03.2020
1642 Rain -2 1015 86 10000 7.7 300 10:19 03.03.2020
1643 Clouds -2 1014 86 10000 8.7 270 09:45 03.03.2020
1644 Clouds -3 1014 92 10000 9.3 270 09:23 03.03.2020
1645 Rain -4 1013 92 10000 5.1 280 08:59 03.03.2020
1646 Rain -4 1013 92 10000 5.1 280 08:39 03.03.2020
1647 Rain -3 1013 92 10000 4.1 300 08:21 03.03.2020
1648 Snow -4 1013 92 6000 7.2 290 07:44 03.03.2020
1649 Snow -4 1013 85 1800 7.7 300 07:24 03.03.2020
1650 Snow -4 1012 79 1700 8.7 330 06:54 03.03.2020
1651 Rain -4 1012 68 10000 8.2 320 06:27 03.03.2020
1652 Clouds -4 1011 62 10000 9.8 350 05:48 03.03.2020
1653 Clouds -4 1011 62 10000 9.8 350 05:30 03.03.2020
1654 Clouds -4 1011 68 10000 10.3 340 04:44 03.03.2020
1655 Snow -4 1009 79 4000 15.9 350 02:24 03.03.2020
1656 Snow -3 1007 79 3000 15.9 360 01:20 03.03.2020
1657 Snow -3 1005 86 6000 15.9 20 00:38 03.03.2020
1658 Snow -3 1005 86 6000 15.9 20 00:19 03.03.2020
1659 Snow -2 1004 92 1000 14.4 30 23:42 02.03.2020
1660 Snow -1 1003 86 700 8.7 20 23:23 02.03.2020
1661 Rain -1 1002 86 10000 4.1 330 22:56 02.03.2020
1662 Snow -2 1001 86 1200 4.1 300 22:37 02.03.2020
1663 Snow -2 1001 86 1200 4.1 300 22:19 02.03.2020
1664 Snow -2 1001 92 10000 3.1 310 21:42 02.03.2020
1665 Snow -1 1001 79 4500 4.6 310 21:24 02.03.2020
1666 Rain -1 1000 92 10000 9.3 10 20:59 02.03.2020
1667 Rain -1 1000 92 10000 9.3 10 20:41 02.03.2020
1668 Snow -2 1000 92 10000 6.2 270 20:22 02.03.2020
1669 Snow -2 999 92 10000 5.7 250 19:58 02.03.2020
1670 Snow -2 999 92 10000 5.1 250 19:39 02.03.2020
1671 Snow -2 999 92 10000 5.1 250 19:20 02.03.2020
1672 Snow -2 999 86 4000 4.6 270 18:56 02.03.2020
1673 Snow -2 999 79 3500 7.7 300 18:38 02.03.2020
1674 Snow -2 999 79 3500 7.7 300 18:18 02.03.2020
1675 Rain -1 999 63 10000 6.2 330 17:56 02.03.2020
1676 Clouds -1 999 63 10000 8.7 350 17:38 02.03.2020
1677 Clouds -1 999 63 10000 8.7 350 17:19 02.03.2020
1678 Clouds -1 999 74 10000 10.8 360 16:42 02.03.2020
1679 Clouds -1 999 68 10000 12.3 360 16:23 02.03.2020
1680 Clouds -1 998 63 10000 15.4 350 15:56 02.03.2020
1681 Clouds -1 998 63 10000 15.4 350 15:56 02.03.2020
1682 Clouds -1 998 68 10000 16.5 350 15:38 02.03.2020
1683 Clouds -1 998 68 10000 16.5 350 15:18 02.03.2020
1684 Rain -2 997 74 10000 18.5 350 14:37 02.03.2020
1685 Rain -2 997 74 10000 18.5 350 14:19 02.03.2020
1686 Rain -2 997 74 10000 18.5 350 14:19 02.03.2020
1687 Clouds -2 996 74 10000 17 350 13:45 02.03.2020
1688 Clouds -2 996 74 10000 16.5 350 13:20 02.03.2020
1689 Clouds -2 996 74 10000 18 350 12:59 02.03.2020
1690 Clouds -2 996 74 10000 18 350 12:41 02.03.2020
1691 Clouds -2 995 74 10000 19.5 340 12:19 02.03.2020
1692 Rain -2 994 79 10000 23.1 350 11:39 02.03.2020
1693 Rain -2 994 79 10000 23.1 350 11:20 02.03.2020
1694 Rain -2 994 86 10000 21.1 350 10:57 02.03.2020
1695 Rain -2 994 86 10000 21.1 350 10:38 02.03.2020
1696 Snow -2 994 86 6000 20.1 340 10:19 02.03.2020
1697 Snow -3 993 86 3000 18 340 09:51 02.03.2020
1698 Snow -2 993 86 10000 17 330 09:31 02.03.2020
1699 Snow -4 993 92 800 5.7 290 08:49 02.03.2020
1700 Snow -4 993 92 1000 10.8 330 08:24 02.03.2020
1701 Rain -4 993 85 10000 9.3 310 07:52 02.03.2020
1702 Rain -4 992 85 10000 8.7 310 07:33 02.03.2020
1703 Clouds -5 992 92 10000 6.2 290 06:53 02.03.2020
1704 Snow -5 992 92 10000 6.2 260 06:26 02.03.2020
1705 Snow -5 992 100 10000 4.6 260 05:26 02.03.2020
1706 Snow -4 992 79 10000 6.2 280 03:57 02.03.2020
1707 Clouds -6 992 92 10000 5.1 250 02:57 02.03.2020
1708 Clouds -6 992 85 10000 5.7 230 02:30 02.03.2020
1709 Clouds -6 991 92 10000 5.1 260 01:37 02.03.2020
1710 Clouds -6 991 92 10000 5.1 260 01:19 02.03.2020
1711 Snow -5 991 92 1100 5.7 290 00:22 02.03.2020
1712 Snow -5 991 92 10000 5.1 300 23:43 01.03.2020
1713 Rain -5 991 92 10000 4.1 270 23:24 01.03.2020
1714 Clouds -4 991 79 10000 5.1 280 22:55 01.03.2020
1715 Rain -4 991 92 10000 7.2 260 22:36 01.03.2020
1716 Rain -4 991 92 10000 7.2 260 22:18 01.03.2020
1717 Clouds -4 991 79 10000 3.1 220 21:41 01.03.2020
1718 Clouds -4 991 85 10000 4.6 210 21:23 01.03.2020
1719 Snow -4 991 92 10000 5.7 240 20:56 01.03.2020
1720 Snow -5 991 85 10000 5.1 220 20:37 01.03.2020
1721 Snow -5 991 85 10000 5.1 220 20:19 01.03.2020
1722 Snow -4 991 85 10000 5.7 270 19:42 01.03.2020
1723 Rain -4 991 73 10000 9.3 260 19:22 01.03.2020
1724 Rain -5 991 85 10000 9.3 250 18:58 01.03.2020
1725 Rain -5 991 85 10000 9.3 250 18:39 01.03.2020
1726 Clouds -5 991 92 10000 8.2 240 18:19 01.03.2020
1727 Rain -5 991 85 10000 9.8 250 17:57 01.03.2020
1728 Rain -4 991 85 10000 9.8 250 17:38 01.03.2020
1729 Rain -4 991 79 10000 8.2 250 17:19 01.03.2020
1730 Rain -4 991 85 10000 7.2 250 16:55 01.03.2020
1731 Rain -4 991 85 10000 4.6 200 16:36 01.03.2020
1732 Rain -4 991 85 10000 4.6 200 16:36 01.03.2020
1733 Rain -4 991 85 10000 4.6 200 16:18 01.03.2020
1734 Rain -4 992 92 10000 6.7 240 15:55 01.03.2020
1735 Rain -4 992 92 10000 7.7 250 15:37 01.03.2020
1736 Rain -4 992 92 10000 7.7 250 15:18 01.03.2020
1737 Snow -5 992 85 10000 9.3 270 14:55 01.03.2020
1738 Rain -4 992 68 10000 7.7 260 14:36 01.03.2020
1739 Rain -4 992 68 10000 7.7 260 14:18 01.03.2020
1740 Rain -3 992 68 10000 7.7 230 13:43 01.03.2020
1741 Clouds -4 992 68 10000 7.2 230 13:21 01.03.2020
1742 Clouds -4 992 68 10000 6.7 230 12:59 01.03.2020
1743 Clouds -4 992 68 10000 6.7 230 12:40 01.03.2020
1744 Clouds -4 992 68 10000 5.1 240 12:20 01.03.2020
1745 Clouds -4 992 68 10000 5.1 240 12:20 01.03.2020
1746 Clouds -4 992 68 10000 6.7 280 11:41 01.03.2020
1747 Snow -3 992 63 10000 7.7 270 11:22 01.03.2020
1748 Snow -4 992 68 10000 3.6 260 10:57 01.03.2020
1749 Snow -5 992 79 10000 4.1 310 10:38 01.03.2020
1750 Snow -5 992 79 10000 4.1 310 10:19 01.03.2020
1751 Snow -5 992 79 10000 4.1 310 10:19 01.03.2020
1752 Snow -5 992 79 10000 9.8 290 09:55 01.03.2020
1753 Snow -4 992 53 10000 6.2 290 09:36 01.03.2020
1754 Snow -4 992 53 10000 6.2 290 09:18 01.03.2020
1755 Snow -4 992 53 10000 6.2 310 08:39 01.03.2020
1756 Snow -4 992 58 10000 7.2 320 08:19 01.03.2020
1757 Snow -4 992 58 10000 5.1 320 07:42 01.03.2020
1758 Snow -4 992 62 10000 7.2 320 07:23 01.03.2020
1759 Snow -5 992 79 10000 8.2 320 06:53 01.03.2020
1760 Snow -5 992 79 10000 8.2 320 06:53 01.03.2020
1761 Snow -5 992 79 10000 6.2 320 06:33 01.03.2020
1762 Snow -4 992 62 10000 7.2 320 04:24 01.03.2020
1763 Snow -4 992 79 10000 9.3 330 02:29 01.03.2020
1764 Snow -4 992 85 2900 8.2 330 01:53 01.03.2020
1765 Snow -4 992 73 10000 7.2 330 01:22 01.03.2020
1766 Snow -3 992 63 10000 8.7 340 00:43 01.03.2020
1767 Snow -3 992 63 10000 7.7 330 00:21 01.03.2020
1768 Snow -3 992 68 10000 8.2 340 23:49 29.02.2020
1769 Snow -3 992 68 10000 8.2 340 23:49 29.02.2020
1770 Snow -3 992 68 10000 7.2 330 23:31 29.02.2020
1771 Snow -3 992 63 10000 6.7 330 22:44 29.02.2020
1772 Snow -3 992 63 10000 6.7 330 22:44 29.02.2020
1773 Snow -3 992 58 10000 7.2 320 22:24 29.02.2020
1774 Snow -3 992 58 10000 8.2 320 21:43 29.02.2020
1775 Snow -3 992 63 10000 8.7 330 21:25 29.02.2020
1776 Snow -3 992 73 10000 8.7 340 20:44 29.02.2020
1777 Snow -3 992 73 10000 9.3 320 20:22 29.02.2020
1778 Snow -2 992 63 10000 9.3 340 19:58 29.02.2020
1779 Snow -2 992 63 10000 9.3 340 19:39 29.02.2020
1780 Snow -3 992 68 10000 9.3 330 19:21 29.02.2020
1781 Snow -3 992 79 4900 9.8 340 18:44 29.02.2020
1782 Snow -3 992 86 2900 10.3 350 18:25 29.02.2020
1783 Snow -3 992 86 4300 11.3 350 17:59 29.02.2020
1784 Snow -3 992 86 4300 11.3 350 17:40 29.02.2020
1785 Snow -3 991 86 5000 10.8 350 17:21 29.02.2020
1786 Snow -3 991 86 1800 11.8 350 16:57 29.02.2020
1787 Snow -3 991 86 1800 11.8 350 16:39 29.02.2020
1788 Snow -2 991 79 5000 12.3 350 16:18 29.02.2020
1789 Snow -2 991 79 5000 12.3 350 15:42 29.02.2020
1790 Snow -3 991 100 2500 11.8 350 15:23 29.02.2020
1791 Snow -3 991 92 2500 6.7 320 14:56 29.02.2020
1792 Snow -4 991 92 2500 4.1 280 14:38 29.02.2020
1793 Snow -4 991 92 2500 4.1 280 14:20 29.02.2020
1794 Snow -4 991 92 1800 4.6 250 13:42 29.02.2020
1795 Snow -4 991 92 1000 5.1 230 13:23 29.02.2020
1796 Snow -4 991 92 800 5.7 230 12:43 29.02.2020
1797 Snow -4 990 85 10000 5.1 230 12:23 29.02.2020
1798 Snow -4 990 85 10000 6.2 230 11:59 29.02.2020
1799 Snow -4 990 85 10000 6.2 230 11:40 29.02.2020
1800 Clouds -4 990 85 10000 5.7 230 11:22 29.02.2020
1801 Clouds -3 990 79 10000 5.7 220 10:49 29.02.2020
1802 Clouds -4 990 85 10000 5.1 230 10:29 29.02.2020
1803 Clouds -4 990 85 10000 5.7 230 09:51 29.02.2020
1804 Snow -4 990 85 10000 5.1 230 09:27 29.02.2020
1805 Snow -4 990 85 5000 4.1 230 08:58 29.02.2020
1806 Rain -4 990 79 10000 5.1 240 08:38 29.02.2020
1807 Rain -4 990 79 10000 5.1 240 08:19 29.02.2020
1808 Snow -4 990 79 10000 5.7 240 07:45 29.02.2020
1809 Rain -4 990 79 10000 7.2 230 07:19 29.02.2020
1810 Clouds -4 990 73 10000 6.7 240 06:51 29.02.2020
1811 Clouds -4 990 73 10000 6.2 210 06:26 29.02.2020
1812 Clouds -4 990 68 10000 7.2 220 05:48 29.02.2020
1813 Clouds -4 990 68 10000 7.2 210 05:18 29.02.2020
1814 Clouds -5 990 67 10000 5.1 220 03:44 29.02.2020
1815 Clouds -5 990 67 10000 1.5 140 03:23 29.02.2020
1816 Clouds -5 990 67 10000 1 0 02:42 29.02.2020
1817 Clouds -5 991 67 10000 5.1 210 01:31 29.02.2020
1818 Clouds -5 991 67 10000 3.1 190 00:38 29.02.2020
1819 Clouds -5 991 67 10000 3.6 190 23:58 28.02.2020
1820 Clouds -7 991 67 10000 2.6 180 23:38 28.02.2020
1821 Clouds -6 991 67 10000 2.6 180 23:20 28.02.2020
1822 Clouds -4 991 62 10000 4.1 200 22:41 28.02.2020
1823 Clouds -3 991 67 10000 7.2 210 22:19 28.02.2020
1824 Clouds -3 991 62 10000 7.7 210 21:42 28.02.2020
1825 Clouds -3 991 62 10000 4.6 200 21:21 28.02.2020
1826 Clouds -3 991 58 10000 7.2 210 20:56 28.02.2020
1827 Clouds -4 991 62 10000 8.2 220 20:38 28.02.2020
1828 Clouds -4 991 62 10000 8.2 220 20:38 28.02.2020
1829 Clouds -4 991 62 10000 8.2 220 20:19 28.02.2020
1830 Clouds -5 991 67 10000 8.2 210 19:56 28.02.2020
1831 Clouds -7 991 67 10000 8.2 210 19:37 28.02.2020
1832 Clouds -7 991 67 10000 8.2 210 19:19 28.02.2020
1833 Clouds -5 991 62 10000 7.2 210 18:46 28.02.2020
1834 Clouds -5 991 62 10000 6.7 200 18:23 28.02.2020
1835 Clouds -4 991 57 10000 5.7 200 17:41 28.02.2020
1836 Clouds -4 991 62 10000 4.6 200 17:23 28.02.2020
1837 Clouds -4 991 62 10000 4.6 200 17:23 28.02.2020
1838 Clouds -5 991 62 10000 5.1 200 16:56 28.02.2020
1839 Clouds -4 991 57 10000 5.7 200 16:37 28.02.2020
1840 Clouds -4 991 57 10000 5.7 200 16:19 28.02.2020
1841 Clouds -5 991 57 10000 3.6 200 15:55 28.02.2020
1842 Clouds -5 991 57 10000 1.5 150 15:37 28.02.2020
1843 Clouds -5 991 57 10000 1.5 150 15:18 28.02.2020
1844 Clouds -4 991 57 10000 2.1 150 14:42 28.02.2020
1845 Clouds -6 991 57 10000 1.5 0 14:19 28.02.2020
1846 Clouds -5 991 57 10000 6.2 177 13:58 28.02.2020
1847 Clouds -5 991 57 10000 6.2 177 13:40 28.02.2020
1848 Clouds -6 991 62 10000 6.3 170 13:19 28.02.2020
1849 Clouds -5 991 62 10000 1.5 0 12:44 28.02.2020
1850 Clouds -6 991 67 10000 1.5 110 12:26 28.02.2020
1851 Clouds -6 991 67 10000 2.6 90 11:56 28.02.2020
1852 Clouds -7 991 67 10000 1.5 80 11:37 28.02.2020
1853 Clouds -6 991 67 10000 1.5 80 11:18 28.02.2020
1854 Clouds -5 991 67 10000 3.1 120 10:43 28.02.2020
1855 Clouds -5 991 67 10000 2.6 100 10:23 28.02.2020
1856 Clouds -4 991 62 10000 2.1 110 09:49 28.02.2020
1857 Clouds -4 991 62 10000 2.1 110 09:49 28.02.2020
1858 Clouds -4 991 62 10000 2.1 110 09:49 28.02.2020
1859 Clouds -4 991 62 10000 2.1 110 09:49 28.02.2020
1860 Clouds -4 991 62 10000 2.1 110 09:49 28.02.2020
1861 Clouds -5 991 67 10000 1 0 09:22 28.02.2020
1862 Clouds -5 991 62 10000 3.1 220 08:59 28.02.2020
1863 Clouds -5 991 62 10000 3.1 220 08:41 28.02.2020
1864 Clouds -5 991 67 10000 2.1 110 08:20 28.02.2020
1865 Clouds -5 990 73 10000 3.6 100 07:45 28.02.2020
1866 Clouds -6 990 62 10000 2.1 70 07:25 28.02.2020
1867 Clouds -7 990 67 10000 2.1 40 06:48 28.02.2020
1868 Clouds -11 993 76 0 5.32 177 06:28 28.02.2020
1869 Clouds -7 990 85 10000 3.1 110 05:22 28.02.2020
1870 Clouds -10 993 55 0 5.15 185 04:31 28.02.2020
1871 Clouds -10 993 55 0 5.15 185 02:47 28.02.2020
1872 Clouds -10 993 55 0 5.15 185 02:28 28.02.2020
1873 Clouds -7 992 53 0 4.3 192 01:38 28.02.2020
1874 Snow -2 991 100 9000 4.1 80 00:31 28.02.2020
1875 Rain -1 991 92 10000 3.1 30 23:45 27.02.2020
1876 Snow 0 990 86 10000 4.6 360 23:22 27.02.2020
1877 Snow 0 990 55 9000 5.1 350 22:56 27.02.2020
1878 Snow 0 989 92 10000 5.1 330 22:37 27.02.2020
1879 Snow 0 989 92 10000 5.1 330 22:19 27.02.2020
1880 Snow 1 989 55 10000 6.7 330 21:41 27.02.2020
1881 Snow 2 989 80 10000 8.7 290 21:22 27.02.2020
1882 Snow 2 989 74 10000 8.7 290 20:58 27.02.2020
1883 Snow 2 989 74 10000 8.7 290 20:40 27.02.2020
1884 Clouds 0 988 56 10000 9.8 270 20:21 27.02.2020
1885 Clouds 0 988 56 10000 9.8 270 20:21 27.02.2020
1886 Clouds -1 988 54 10000 7.7 240 19:56 27.02.2020
1887 Clouds -1 988 54 10000 7.7 220 19:38 27.02.2020
1888 Clouds -1 988 54 10000 7.7 220 19:19 27.02.2020
1889 Clouds -1 988 54 10000 7.7 230 18:43 27.02.2020
1890 Clouds -1 987 54 10000 7.7 220 18:24 27.02.2020
1891 Clouds 0 987 51 10000 11.8 240 17:59 27.02.2020
1892 Clouds 1 987 51 10000 11.8 240 17:40 27.02.2020
1893 Clouds 0 988 50 10000 7.2 210 17:20 27.02.2020
1894 Clouds 1 988 46 10000 7.2 210 16:59 27.02.2020
1895 Clouds 1 988 46 10000 7.2 210 16:39 27.02.2020
1896 Clouds 0 987 54 10000 6.7 210 16:19 27.02.2020
1897 Clouds 0 988 50 10000 7.2 210 15:58 27.02.2020
1898 Clouds 0 988 50 10000 7.2 210 15:58 27.02.2020
1899 Clouds -1 987 58 10000 6.7 200 15:37 27.02.2020
1900 Clouds -1 987 58 10000 6.7 200 15:19 27.02.2020
1901 Clouds -1 987 63 10000 5.7 190 14:56 27.02.2020
1902 Clouds -1 987 63 10000 2.6 180 14:37 27.02.2020
1903 Clouds -1 987 63 10000 2.6 180 14:19 27.02.2020
1904 Clouds -2 988 68 10000 5.7 200 13:42 27.02.2020
1905 Clouds -2 988 68 10000 5.1 210 13:21 27.02.2020
1906 Clouds -2 988 68 10000 5.1 210 13:21 27.02.2020
1907 Clouds -2 988 74 10000 5.1 210 12:55 27.02.2020
1908 Clouds -1 988 68 10000 5.7 220 12:37 27.02.2020
1909 Clouds -1 988 68 10000 5.7 220 12:18 27.02.2020
1910 Clouds -2 988 74 10000 5.1 220 11:41 27.02.2020
1911 Clouds -2 988 74 10000 5.1 220 11:21 27.02.2020
1912 Clouds -2 988 74 10000 5.1 220 11:21 27.02.2020
1913 Clouds -2 988 79 10000 5.7 210 10:44 27.02.2020
1914 Rain -1 988 74 10000 5.1 200 10:23 27.02.2020
1915 Rain -1 988 74 10000 5.1 200 09:49 27.02.2020
1916 Snow -2 988 73 10000 5.7 160 09:29 27.02.2020
1917 Snow -2 988 74 10000 4.1 160 08:58 27.02.2020
1918 Snow -2 988 74 10000 4.1 160 08:40 27.02.2020
1919 Snow -2 989 73 10000 5.7 180 08:22 27.02.2020
1920 Snow -1 989 74 10000 7.7 190 07:44 27.02.2020
1921 Snow -2 989 74 10000 6.7 200 07:25 27.02.2020
1922 Snow -2 989 74 10000 5.7 190 06:46 27.02.2020
1923 Snow -3 990 79 10000 6.2 200 05:43 27.02.2020
1924 Clouds -4 990 92 10000 5.1 210 03:42 27.02.2020
1925 Clouds -4 990 85 10000 2.6 260 02:22 27.02.2020
1926 Snow -2 990 86 10000 6.7 290 00:46 27.02.2020
1927 Snow -3 990 92 10000 6.7 280 00:26 27.02.2020
1928 Snow -4 990 92 10000 6.7 290 23:40 26.02.2020
1929 Snow -5 990 100 10000 8.2 280 23:19 26.02.2020
1930 Clouds -6 990 100 10000 5.1 260 22:58 26.02.2020
1931 Clouds -6 990 100 10000 5.1 260 22:39 26.02.2020
1932 Clouds -5 989 100 10000 4.6 260 22:20 26.02.2020
1933 Clouds -5 989 92 10000 5.1 280 21:56 26.02.2020
1934 Snow -5 988 92 10000 4.1 280 21:37 26.02.2020
1935 Snow -5 988 92 10000 4.1 280 21:18 26.02.2020
1936 Snow -5 988 92 9000 3.6 290 20:55 26.02.2020
1937 Snow -6 987 92 4000 3.1 300 20:37 26.02.2020
1938 Snow -6 987 92 4000 3.1 300 20:37 26.02.2020
1939 Snow -6 987 92 4000 3.1 300 20:18 26.02.2020
1940 Snow -6 987 92 4000 3.1 300 20:18 26.02.2020
1941 Snow -6 987 92 5000 2.1 330 19:46 26.02.2020
1942 Snow -5 986 85 5000 2.6 340 19:21 26.02.2020
1943 Snow -5 986 85 5000 2.6 340 19:21 26.02.2020
1944 Snow -5 986 85 4000 3.6 220 18:58 26.02.2020
1945 Snow -5 986 85 4000 3.6 220 18:40 26.02.2020
1946 Snow -5 986 85 5000 3.1 30 18:22 26.02.2020
1947 Snow -5 986 79 9000 0.5 0 17:56 26.02.2020
1948 Snow -4 986 79 10000 5.1 190 17:37 26.02.2020
1949 Snow -4 986 79 10000 5.1 190 17:18 26.02.2020
1950 Rain -4 986 73 10000 4.1 180 16:43 26.02.2020
1951 Rain -4 987 67 10000 7.7 200 16:22 26.02.2020
1952 Rain -5 987 67 10000 5.7 180 15:56 26.02.2020
1953 Rain -5 987 62 10000 7.2 180 15:37 26.02.2020
1954 Rain -5 987 62 10000 7.2 180 15:18 26.02.2020
1955 Clouds -5 988 62 10000 4.6 180 14:42 26.02.2020
1956 Clouds -4 988 53 10000 5.1 190 14:22 26.02.2020
1957 Snow -4 988 53 10000 5.1 190 14:22 26.02.2020
1958 Clouds -3 989 58 10000 6.7 200 13:43 26.02.2020
1959 Clouds -4 989 53 10000 6.7 190 13:22 26.02.2020
1960 Clouds -5 990 62 10000 7.7 190 12:42 26.02.2020
1961 Clouds -5 990 62 10000 7.7 190 12:23 26.02.2020
1962 Clouds -4 990 58 10000 8.2 190 11:59 26.02.2020
1963 Clouds -4 990 58 10000 8.2 190 11:41 26.02.2020
1964 Clouds -4 991 58 10000 7.7 190 11:22 26.02.2020
1965 Clouds -4 991 62 10000 6.7 190 10:58 26.02.2020
1966 Clouds -4 991 68 10000 7.2 190 10:39 26.02.2020
1967 Clouds -4 991 68 10000 7.2 190 10:20 26.02.2020
1968 Clouds -4 991 68 10000 6.2 190 09:43 26.02.2020
1969 Clouds -4 991 73 10000 5.7 190 09:22 26.02.2020
1970 Clouds -4 992 73 10000 7.2 190 08:55 26.02.2020
1971 Clouds -5 992 85 10000 6.7 190 08:36 26.02.2020
1972 Clouds -5 992 85 10000 6.7 190 08:18 26.02.2020
1973 Snow -5 992 92 10000 7.7 200 07:41 26.02.2020
1974 Snow -4 992 92 10000 6.7 190 07:23 26.02.2020
1975 Snow -5 992 92 10000 4.6 190 06:49 26.02.2020
1976 Snow -6 992 92 10000 3.6 180 06:31 26.02.2020
1977 Clouds -6 992 92 10000 4.6 200 05:48 26.02.2020
1978 Clouds -7 993 92 10000 3.1 200 05:19 26.02.2020
1979 Clouds -5 993 92 10000 2.1 200 03:45 26.02.2020
1980 Clouds -5 993 92 10000 2.1 90 02:18 26.02.2020
1981 Clouds -5 993 85 10000 1.5 290 01:34 26.02.2020
1982 Snow -4 993 85 6000 4.1 320 00:47 26.02.2020
1983 Snow -4 993 79 10000 5.7 320 00:21 26.02.2020
1984 Snow -4 993 79 10000 5.7 320 00:21 26.02.2020
1985 Clouds -4 993 79 10000 8.2 280 23:43 25.02.2020
1986 Clouds -4 993 73 10000 8.7 300 23:25 25.02.2020
1987 Clouds -4 992 73 10000 8.7 270 22:58 25.02.2020
1988 Rain -4 992 85 10000 6.2 260 22:40 25.02.2020
1989 Rain -4 992 85 10000 6.2 260 22:19 25.02.2020
1990 Snow -4 993 79 3000 8.7 260 21:38 25.02.2020
1991 Snow -4 993 79 3000 8.7 260 21:20 25.02.2020
1992 Clouds -3 992 79 10000 8.7 240 20:57 25.02.2020
1993 Clouds -3 992 85 10000 6.2 230 20:39 25.02.2020
1994 Clouds -3 992 85 10000 6.2 230 20:20 25.02.2020
1995 Snow -5 992 92 10000 6.2 250 19:58 25.02.2020
1996 Snow -5 992 92 10000 6.2 250 19:40 25.02.2020
1997 Snow -4 993 85 2000 4.6 250 19:19 25.02.2020
1998 Clouds -5 992 92 10000 7.2 290 18:41 25.02.2020
1999 Rain -5 992 85 10000 7.2 300 18:21 25.02.2020
2000 Rain -5 992 85 10000 7.2 300 18:21 25.02.2020
2001 Snow -5 992 92 400 14.4 290 17:57 25.02.2020
2002 Snow -3 992 79 10000 8.2 320 17:37 25.02.2020
2003 Snow -3 992 79 10000 8.2 320 17:19 25.02.2020
2004 Rain -4 992 85 10000 7.2 290 16:58 25.02.2020
2005 Snow -4 992 85 2500 9.8 300 16:39 25.02.2020
2006 Snow -4 992 85 2500 9.8 300 16:20 25.02.2020
2007 Rain -3 991 79 10000 12.3 300 15:56 25.02.2020
2008 Rain -3 991 73 10000 8.2 260 15:37 25.02.2020
2009 Rain -3 991 73 10000 8.2 260 15:18 25.02.2020
2010 Rain -2 991 79 10000 10.3 260 14:54 25.02.2020
2011 Snow -3 991 73 10000 7.7 260 14:36 25.02.2020
2012 Snow -3 991 73 10000 7.7 260 14:18 25.02.2020
2013 Rain -3 991 73 10000 8.7 250 13:54 25.02.2020
2014 Rain -3 991 73 10000 8.7 250 13:54 25.02.2020
2015 Clouds -3 991 79 10000 12.3 280 13:36 25.02.2020
2016 Clouds -3 991 79 10000 12.3 280 13:18 25.02.2020
2017 Rain -3 990 73 10000 12.3 280 12:40 25.02.2020
2018 Clouds -2 990 68 10000 9.3 250 12:20 25.02.2020
2019 Clouds -3 990 73 10000 8.7 260 11:56 25.02.2020
2020 Clouds -3 990 73 10000 9.3 260 11:38 25.02.2020
2021 Clouds -3 990 73 10000 9.3 260 11:19 25.02.2020
2022 Clouds -3 990 73 10000 9.3 260 11:19 25.02.2020
2023 Clouds -3 990 73 10000 9.3 260 11:19 25.02.2020
2024 Rain -2 990 63 10000 5.7 270 10:57 25.02.2020
2025 Rain -3 989 79 10000 6.2 280 10:39 25.02.2020
2026 Rain -3 989 79 10000 6.2 280 10:20 25.02.2020
2027 Rain -3 989 79 10000 7.7 290 09:41 25.02.2020
2028 Rain -2 989 86 10000 11.8 300 09:20 25.02.2020
2029 Snow -3 989 86 10000 16.5 280 08:45 25.02.2020
2030 Rain -2 988 86 10000 12.3 230 08:26 25.02.2020
2031 Rain -2 988 86 10000 13.9 240 07:56 25.02.2020
2032 Clouds -3 988 86 10000 11.8 240 07:36 25.02.2020
2033 Clouds -3 988 86 10000 11.8 240 07:18 25.02.2020
2034 Rain -4 988 85 10000 10.3 230 06:27 25.02.2020
2035 Snow -3 989 92 3900 9.8 250 05:24 25.02.2020
2036 Clouds -5 988 85 10000 4.6 210 02:54 25.02.2020
2037 Snow -4 989 79 10000 5.7 200 01:30 25.02.2020
2038 Clouds -5 988 67 10000 1.5 180 00:34 25.02.2020
2039 Clouds -4 988 68 10000 1.5 180 23:59 24.02.2020
2040 Clouds -4 988 68 10000 1.5 180 23:40 24.02.2020
2041 Snow -4 988 68 10000 0.5 0 23:20 24.02.2020
2042 Clouds -4 988 73 10000 1.5 350 22:39 24.02.2020
2043 Clouds -4 988 68 10000 3.6 360 22:19 24.02.2020
2044 Clouds -3 988 63 10000 5.1 350 21:57 24.02.2020
2045 Clouds -3 988 63 10000 5.1 350 21:39 24.02.2020
2046 Clouds -3 988 58 10000 6.7 350 21:19 24.02.2020
2047 Clouds -3 988 58 10000 7.2 340 20:58 24.02.2020
2048 Clouds -3 988 58 10000 7.2 340 20:39 24.02.2020
2049 Clouds -3 987 58 10000 8.7 340 20:19 24.02.2020
2050 Clouds -3 987 63 10000 10.3 340 19:56 24.02.2020
2051 Snow -3 987 63 10000 8.2 320 19:38 24.02.2020
2052 Snow -3 987 63 10000 8.2 320 19:19 24.02.2020
2053 Clouds -2 987 63 10000 9.8 330 18:42 24.02.2020
2054 Clouds -2 987 63 10000 9.8 330 18:24 24.02.2020
2055 Clouds -3 987 63 10000 9.8 330 17:58 24.02.2020
2056 Clouds -3 987 63 10000 9.8 330 17:39 24.02.2020
2057 Clouds -2 987 63 10000 10.8 330 17:20 24.02.2020
2058 Clouds -2 986 68 10000 9.8 320 16:57 24.02.2020
2059 Clouds -2 986 74 10000 4.6 360 16:38 24.02.2020
2060 Clouds -2 986 74 10000 4.6 360 16:20 24.02.2020
2061 Clouds -2 986 68 10000 6.2 330 15:57 24.02.2020
2062 Clouds -2 985 79 10000 8.2 330 15:38 24.02.2020
2063 Clouds -2 985 79 10000 8.2 330 15:20 24.02.2020
2064 Clouds -2 985 74 10000 4.6 0 14:55 24.02.2020
2065 Clouds -2 985 79 10000 4.6 0 14:36 24.02.2020
2066 Clouds -2 985 79 10000 4.6 0 14:18 24.02.2020
2067 Rain -2 985 79 10000 7.2 340 13:55 24.02.2020
2068 Rain -2 984 74 8000 4.1 0 13:36 24.02.2020
2069 Rain -2 984 74 8000 4.1 0 13:18 24.02.2020
2070 Rain -2 983 68 10000 7.2 350 12:41 24.02.2020
2071 Rain -2 983 68 10000 7.2 350 12:41 24.02.2020
2072 Rain -2 983 68 10000 7.2 350 12:23 24.02.2020
2073 Rain -2 983 68 10000 7.2 350 12:23 24.02.2020
2074 Clouds -2 983 79 10000 5.7 350 11:50 24.02.2020
2075 Snow -2 982 79 10000 6.7 350 11:32 24.02.2020
2076 Rain -2 982 86 10000 7.2 350 10:58 24.02.2020
2077 Rain -2 982 86 10000 7.2 350 10:40 24.02.2020
2078 Snow -2 981 86 10000 7.2 350 10:22 24.02.2020
2079 Snow -2 980 92 10000 8.7 340 09:40 24.02.2020
2080 Snow -2 980 92 5000 10.3 340 09:19 24.02.2020
2081 Snow -2 980 92 5000 10.3 340 09:19 24.02.2020
2082 Snow -1 979 86 1500 8.2 350 08:51 24.02.2020
2083 Snow -1 978 92 1600 8.7 350 08:29 24.02.2020
2084 Snow -1 978 92 1200 9.3 350 07:55 24.02.2020
2085 Snow -1 977 92 1200 11.8 350 07:33 24.02.2020
2086 Clouds -1 977 92 3800 9.8 350 06:52 24.02.2020
2087 Snow -1 976 92 1700 8.7 350 06:24 24.02.2020
2088 Snow 0 975 98 2800 8.2 350 05:45 24.02.2020
2089 Clouds 0 975 98 8000 6.2 360 05:25 24.02.2020
2090 Clouds 1 971 80 10000 6.2 10 02:58 24.02.2020
2091 Clouds 1 971 80 10000 6.2 10 02:31 24.02.2020
2092 Clouds 0 970 98 2400 8.2 350 01:31 24.02.2020
2093 Clouds 0 970 98 2400 8.2 350 01:31 24.02.2020
2094 Clouds 0 969 99 10000 13.4 30 00:47 24.02.2020
2095 Rain 1 969 86 10000 6.7 10 00:21 24.02.2020
2096 Rain 1 968 86 10000 12.9 30 23:55 23.02.2020
2097 Snow 1 967 86 10000 11.3 20 23:36 23.02.2020
2098 Snow 1 967 86 10000 11.3 20 23:18 23.02.2020
2099 Snow 1 967 98 10000 5.7 10 22:42 23.02.2020
2100 Clouds 1 966 98 7000 5.1 340 22:22 23.02.2020
2101 Snow 1 966 98 3600 5.1 340 21:55 23.02.2020
2102 Snow 1 965 98 9000 4.1 350 21:36 23.02.2020
2103 Snow 1 965 98 9000 4.1 350 21:18 23.02.2020
2104 Snow 0 965 98 10000 4.6 320 20:55 23.02.2020
2105 Clouds -1 965 100 10000 3.1 320 20:36 23.02.2020
2106 Clouds -1 965 100 10000 3.1 320 20:18 23.02.2020
2107 Snow -1 964 100 2500 4.1 340 19:41 23.02.2020
2108 Snow 0 964 97 1000 3.6 340 19:20 23.02.2020
2109 Fog -1 964 100 650 1.5 330 18:59 23.02.2020
2110 Fog -1 964 100 650 1.5 330 18:41 23.02.2020
2111 Snow -1 964 100 1800 2.1 330 18:21 23.02.2020
2112 Rain -1 963 100 10000 2.1 330 17:58 23.02.2020
2113 Rain -1 963 100 10000 2.1 330 17:58 23.02.2020
2114 Rain -1 963 100 10000 2.1 330 17:40 23.02.2020
2115 Snow -1 963 100 2000 3.1 320 17:21 23.02.2020
2116 Snow 0 963 100 5000 5.7 300 16:56 23.02.2020
2117 Snow 0 962 88 1400 1.28 182 16:38 23.02.2020
2118 Snow 0 962 88 1400 1.28 182 16:19 23.02.2020
2119 Snow 1 962 88 10000 4.1 330 15:54 23.02.2020
2120 Clouds 0 962 88 10000 3.1 310 15:36 23.02.2020
2121 Clouds 0 962 88 10000 3.1 310 15:18 23.02.2020
2122 Clouds 1 961 88 10000 2.1 290 14:55 23.02.2020
2123 Clouds 0 961 88 10000 1.5 0 14:37 23.02.2020
2124 Clouds 0 961 88 10000 1.5 0 14:37 23.02.2020
2125 Clouds 0 961 87 10000 1.5 0 14:18 23.02.2020
2126 Clouds 2 961 69 10000 2.1 320 13:54 23.02.2020
2127 Clouds 1 961 74 10000 1.5 290 13:36 23.02.2020
2128 Clouds 1 961 74 10000 1.5 290 13:18 23.02.2020
2129 Clouds 0 961 90 10000 2.6 290 12:40 23.02.2020
2130 Clouds 0 961 90 10000 2.6 260 12:20 23.02.2020
2131 Clouds -1 961 74 10000 3.1 250 11:39 23.02.2020
2132 Snow 0 961 88 0 2.6 250 11:20 23.02.2020
2133 Snow 0 961 88 0 1 0 10:58 23.02.2020
2134 Snow 0 961 88 0 1 0 10:40 23.02.2020
2135 Snow 0 960 88 0 2.1 210 10:22 23.02.2020
2136 Snow -2 960 86 0 2.1 220 09:56 23.02.2020
2137 Snow -1 960 80 0 3.1 300 09:38 23.02.2020
2138 Snow -1 960 80 0 3.1 300 09:18 23.02.2020
2139 Snow -2 960 79 0 4.6 290 08:45 23.02.2020
2140 Snow 0 960 88 10000 5.1 300 08:25 23.02.2020
2141 Snow 0 959 96 10000 4.6 300 07:45 23.02.2020
2142 Snow 0 959 96 10000 5.1 310 07:27 23.02.2020
2143 Snow 0 959 96 0 5.1 310 06:24 23.02.2020
2144 Snow 0 959 96 10000 4.6 290 05:22 23.02.2020
2145 Clouds 0 958 75 10000 4.6 280 04:23 23.02.2020
2146 Clouds -2 958 79 10000 3.1 280 02:49 23.02.2020
2147 Clouds -2 958 74 10000 4.6 260 01:42 23.02.2020
2148 Clouds -2 958 68 10000 5.1 260 01:20 23.02.2020
2149 Clouds 0 958 79 10000 5.1 230 00:44 23.02.2020
2150 Clouds -1 957 68 10000 5.7 220 00:22 23.02.2020
2151 Clouds 0 957 79 10000 5.1 230 23:43 22.02.2020
2152 Clouds 0 957 79 10000 6.2 210 23:24 22.02.2020
2153 Clear 1 957 64 10000 6.7 190 22:45 22.02.2020
2154 Clear 0 957 82 10000 6.2 190 22:20 22.02.2020
2155 Clear 1 957 64 10000 9.3 190 21:55 22.02.2020
2156 Clear 2 957 59 10000 8.7 200 21:37 22.02.2020
2157 Clear 2 957 59 10000 8.7 200 21:18 22.02.2020
2158 Clear 3 957 55 10000 6.7 190 20:41 22.02.2020
2159 Clear 3 957 55 10000 5.1 180 20:22 22.02.2020
2160 Clouds 2 957 59 10000 7.2 180 19:43 22.02.2020
2161 Clouds 2 957 59 10000 6.7 190 19:24 22.02.2020
2162 Clouds 2 957 59 10000 8.2 190 18:58 22.02.2020
2163 Clouds 2 957 59 10000 8.7 190 18:38 22.02.2020
2164 Clouds 2 957 59 10000 8.7 190 18:20 22.02.2020
2165 Clouds 2 957 59 10000 9.8 190 17:55 22.02.2020
2166 Clouds 2 957 64 10000 9.8 190 17:37 22.02.2020
2167 Clouds 2 957 64 10000 9.8 190 17:37 22.02.2020
2168 Clouds 2 957 64 10000 9.8 190 17:19 22.02.2020
2169 Clouds 2 957 64 10000 11.3 190 16:54 22.02.2020
2170 Clouds 2 957 64 10000 11.8 190 16:36 22.02.2020
2171 Clouds 2 957 64 10000 11.8 190 16:18 22.02.2020
2172 Clouds 3 957 59 10000 12.9 190 15:42 22.02.2020
2173 Clouds 3 957 64 10000 10.8 190 15:22 22.02.2020
2174 Clouds 3 957 64 10000 10.8 190 14:43 22.02.2020
2175 Clouds 3 957 59 10000 10.8 190 14:22 22.02.2020
2176 Clouds 3 957 64 10000 10.8 190 13:55 22.02.2020
2177 Clouds 3 958 64 10000 10.3 190 13:36 22.02.2020
2178 Clouds 3 958 64 10000 10.3 190 13:18 22.02.2020
2179 Clouds 3 958 64 10000 10.8 190 12:41 22.02.2020
2180 Clouds 3 958 64 10000 10.8 190 12:22 22.02.2020
2181 Rain 3 958 64 10000 11.3 180 11:44 22.02.2020
2182 Clouds 2 958 69 10000 9.3 180 11:26 22.02.2020
2183 Clouds 2 958 69 10000 8.2 180 10:56 22.02.2020
2184 Clouds 2 958 69 10000 11.3 190 10:38 22.02.2020
2185 Clouds 2 958 69 10000 11.3 190 10:19 22.02.2020
2186 Clouds 3 958 64 10000 8.7 190 09:56 22.02.2020
2187 Clouds 2 958 64 10000 13.9 190 09:38 22.02.2020
2188 Clouds 2 958 64 10000 13.9 190 09:19 22.02.2020
2189 Clouds 2 958 64 10000 13.9 190 08:44 22.02.2020
2190 Clouds 2 958 64 10000 8.7 180 08:26 22.02.2020
2191 Clouds 2 958 64 10000 6.7 180 07:43 22.02.2020
2192 Clouds 2 959 64 10000 10.3 190 07:19 22.02.2020
2193 Clouds 2 959 64 10000 6.2 170 06:46 22.02.2020
2194 Clouds 2 960 69 10000 11.8 190 05:54 22.02.2020
2195 Clouds 2 961 69 10000 11.3 190 04:29 22.02.2020
2196 Clouds 2 962 69 10000 15.9 200 02:46 22.02.2020
2197 Clouds 2 962 69 10000 15.9 200 02:21 22.02.2020
2198 Clouds 1 963 74 10000 14.4 190 01:41 22.02.2020
2199 Clouds 1 964 80 10000 13.9 190 01:22 22.02.2020
2200 Clouds 1 965 74 10000 19 190 00:40 22.02.2020
2201 Clouds 1 965 69 10000 15.9 190 00:20 22.02.2020
2202 Clouds 2 966 69 10000 13.9 190 23:42 21.02.2020
2203 Clouds 2 967 64 10000 12.3 190 23:21 21.02.2020
2204 Clouds 2 967 64 10000 7.7 180 22:45 21.02.2020
2205 Clouds 2 968 64 10000 8.2 180 22:27 21.02.2020
2206 Clouds 2 968 64 10000 9.8 190 21:58 21.02.2020
2207 Clouds 2 968 64 10000 9.8 190 21:40 21.02.2020
2208 Clouds 2 968 64 10000 11.8 200 21:21 21.02.2020
2209 Clouds 2 968 59 10000 9.3 190 20:48 21.02.2020
2210 Clouds 1 969 59 10000 8.7 190 20:27 21.02.2020
2211 Clouds 1 970 59 10000 6.7 190 19:41 21.02.2020
2212 Clouds 1 970 59 10000 7.2 180 19:23 21.02.2020
2213 Clouds 1 971 59 10000 7.2 180 18:55 21.02.2020
2214 Clouds 1 971 59 10000 7.2 180 18:55 21.02.2020
2215 Clouds 1 971 64 10000 9.8 190 18:36 21.02.2020
2216 Clouds 1 971 64 10000 9.8 190 18:18 21.02.2020
2217 Clouds 2 971 64 10000 9.8 200 17:39 21.02.2020
2218 Clouds 2 972 64 10000 11.3 200 17:21 21.02.2020
2219 Clouds 2 972 59 10000 10.8 200 16:57 21.02.2020
2220 Clouds 2 972 59 10000 10.8 200 16:39 21.02.2020
2221 Clouds 2 973 64 10000 9.8 190 16:20 21.02.2020
2222 Clouds 2 973 59 10000 11.3 200 15:44 21.02.2020
2223 Clouds 2 973 64 10000 11.8 200 15:19 21.02.2020
2224 Clouds 2 973 64 10000 9.3 200 14:56 21.02.2020
2225 Clouds 1 973 69 10000 8.7 200 14:38 21.02.2020
2226 Clouds 1 973 69 10000 8.7 200 14:19 21.02.2020
2227 Clouds 1 973 69 10000 9.3 200 13:42 21.02.2020
2228 Clouds 1 974 69 10000 7.7 200 13:23 21.02.2020
2229 Clouds 1 974 69 10000 9.8 200 12:50 21.02.2020
2230 Clouds 1 974 69 10000 9.8 200 12:28 21.02.2020
2231 Clouds 1 974 74 10000 8.7 210 11:59 21.02.2020
2232 Clouds 1 974 74 10000 8.7 210 11:40 21.02.2020
2233 Clouds 1 974 84 10000 9.3 220 11:21 21.02.2020
2234 Clouds 1 973 84 10000 7.7 210 10:56 21.02.2020
2235 Clouds 1 974 84 10000 9.8 210 10:38 21.02.2020
2236 Clouds 1 974 84 10000 9.8 210 10:38 21.02.2020
2237 Clouds 1 974 84 10000 9.8 210 10:19 21.02.2020
2238 Clouds 0 974 84 10000 9.3 210 09:43 21.02.2020
2239 Clouds 0 973 84 10000 9.8 210 09:25 21.02.2020
2240 Clouds -1 973 80 10000 8.2 200 08:58 21.02.2020
2241 Clouds -1 973 80 10000 8.2 200 08:40 21.02.2020
2242 Clouds -1 974 74 10000 8.7 200 08:21 21.02.2020
2243 Clouds -1 974 74 10000 10.8 200 07:58 21.02.2020
2244 Clouds -1 974 74 10000 10.8 200 07:40 21.02.2020
2245 Clouds -1 974 74 10000 8.2 190 07:18 21.02.2020
2246 Clouds -2 975 79 10000 10.8 200 06:47 21.02.2020
2247 Clouds -2 975 79 10000 13.4 200 06:28 21.02.2020
2248 Snow -3 976 86 4000 14.9 200 05:42 21.02.2020
2249 Clouds -3 979 85 0 9.68 182 04:33 21.02.2020
2250 Clouds -3 977 79 8000 18 190 03:58 21.02.2020
2251 Clouds -3 977 79 8000 18 190 03:24 21.02.2020
2252 Clouds -3 981 73 10000 12.9 190 01:51 21.02.2020
2253 Clouds -3 981 73 10000 12.9 190 01:24 21.02.2020
2254 Clouds -3 981 73 10000 12.9 190 00:45 21.02.2020
2255 Clouds -3 982 73 10000 17.5 190 00:23 21.02.2020
2256 Clouds -3 982 73 10000 17.5 190 00:23 21.02.2020
2257 Clouds -2 983 68 10000 12.3 180 23:46 20.02.2020
2258 Clouds -2 984 68 10000 12.3 180 23:25 20.02.2020
2259 Clouds -2 984 63 10000 5.7 180 22:57 20.02.2020
2260 Clouds -2 985 62 10000 6.2 190 22:38 20.02.2020
2261 Clouds -2 985 62 10000 6.2 190 22:20 20.02.2020
2262 Clouds -3 986 67 10000 10.3 190 21:56 20.02.2020
2263 Clouds -3 986 67 10000 10.3 190 21:37 20.02.2020
2264 Clouds -3 986 67 10000 10.3 190 21:37 20.02.2020
2265 Clouds -3 986 67 10000 10.3 190 21:37 20.02.2020
2266 Clouds -3 986 67 10000 10.3 190 21:19 20.02.2020
2267 Clouds -3 986 62 10000 9.8 190 20:54 20.02.2020
2268 Clouds -4 986 57 10000 7.2 190 20:36 20.02.2020
2269 Clouds -4 986 57 10000 7.2 190 20:18 20.02.2020
2270 Clouds -5 987 62 10000 8.2 200 19:56 20.02.2020
2271 Clouds -6 987 67 10000 9.3 200 19:38 20.02.2020
2272 Clouds -6 987 67 10000 9.3 200 19:20 20.02.2020
2273 Clouds -6 988 73 10000 10.8 190 18:39 20.02.2020
2274 Clouds -6 988 73 10000 10.8 190 18:19 20.02.2020
2275 Clouds -5 988 73 10000 9.3 190 17:41 20.02.2020
2276 Clouds -5 988 73 10000 9.3 190 17:23 20.02.2020
2277 Clouds -5 988 73 10000 9.3 190 17:22 20.02.2020
2278 Clouds -5 988 73 10000 9.3 190 17:22 20.02.2020
2279 Clouds -5 988 73 10000 9.3 190 17:22 20.02.2020
2280 Clouds -4 988 73 10000 8.2 190 16:58 20.02.2020
2281 Clouds -5 989 73 10000 12.9 190 16:40 20.02.2020
2282 Clouds -5 989 73 10000 12.9 190 16:21 20.02.2020
2283 Clouds -4 989 73 10000 14.9 200 15:59 20.02.2020
2284 Clouds -4 989 73 10000 14.9 200 15:41 20.02.2020
2285 Clouds -5 989 73 10000 17.5 190 15:20 20.02.2020
2286 Clouds -4 990 73 10000 17.5 190 14:55 20.02.2020
2287 Clouds -4 991 62 10000 17.5 190 14:36 20.02.2020
2288 Clouds -4 991 62 10000 17.5 190 14:18 20.02.2020
2289 Clouds -4 991 62 10000 17.5 190 14:18 20.02.2020
2290 Clouds -4 991 62 10000 17.5 190 14:18 20.02.2020
2291 Clouds -5 992 62 10000 15.4 190 13:44 20.02.2020
2292 Clouds -4 993 41 10000 10.3 150 13:20 20.02.2020
2293 Clouds -3 994 49 10000 8.7 180 12:57 20.02.2020
2294 Clouds -2 995 63 10000 8.2 180 12:37 20.02.2020
2295 Clouds -2 995 63 10000 8.2 180 12:19 20.02.2020
2296 Clouds -2 995 58 10000 8.2 180 11:43 20.02.2020
2297 Clouds -1 996 58 10000 7.2 190 11:23 20.02.2020
2298 Clouds -1 996 58 10000 7.7 190 10:57 20.02.2020
2299 Clouds -1 997 63 10000 7.2 190 10:39 20.02.2020
2300 Clouds -1 997 63 10000 7.2 190 10:21 20.02.2020
2301 Clouds -1 997 63 10000 7.2 190 10:21 20.02.2020
2302 Clouds -2 997 68 10000 9.3 190 09:46 20.02.2020
2303 Clouds -2 997 74 10000 9.3 200 09:25 20.02.2020
2304 Clouds -2 997 79 10000 8.2 200 08:59 20.02.2020
2305 Clouds -2 997 79 10000 8.2 200 08:39 20.02.2020
2306 Clouds -1 997 79 10000 9.3 200 08:21 20.02.2020
2307 Snow -2 997 86 10000 6.7 200 07:45 20.02.2020
2308 Snow -3 997 100 10000 6.7 200 07:26 20.02.2020
2309 Snow -2 997 92 1800 6.7 240 06:55 20.02.2020
2310 Snow -2 998 92 10000 7.7 260 06:27 20.02.2020
2311 Snow -2 998 86 4200 8.7 260 05:47 20.02.2020
2312 Snow -2 998 86 4200 8.7 260 04:56 20.02.2020
2313 Snow -2 998 92 10000 8.7 240 04:23 20.02.2020
2314 Snow -2 998 86 10000 7.2 290 03:35 20.02.2020
2315 Clouds -2 998 86 6000 12.9 280 02:28 20.02.2020
2316 Snow -3 997 92 2600 9.3 270 01:18 20.02.2020
2317 Snow -1 997 58 10000 13.9 300 00:34 20.02.2020
2318 Clouds -1 997 58 10000 14.9 310 23:54 19.02.2020
2319 Clouds -2 997 68 10000 14.4 300 23:23 19.02.2020
2320 Rain -2 997 63 10000 11.8 290 22:56 19.02.2020
2321 Rain -3 997 86 10000 13.9 290 22:38 19.02.2020
2322 Rain -3 997 86 10000 13.9 290 22:20 19.02.2020
2323 Clouds -2 996 63 10000 15.4 300 21:55 19.02.2020
2324 Clouds -3 996 73 10000 12.9 300 21:37 19.02.2020
2325 Clouds -3 996 73 10000 12.9 300 21:18 19.02.2020
2326 Rain -3 996 73 10000 12.9 300 20:55 19.02.2020
2327 Clouds -3 996 79 10000 10.3 290 20:36 19.02.2020
2328 Clouds -3 996 79 10000 10.3 290 20:18 19.02.2020
2329 Clouds -4 996 85 10000 10.3 290 19:55 19.02.2020
2330 Snow -4 996 92 6000 14.4 290 19:36 19.02.2020
2331 Snow -4 996 92 6000 14.4 290 19:18 19.02.2020
2332 Rain -5 996 92 7000 8.7 300 18:55 19.02.2020
2333 Rain -4 996 85 10000 9.8 300 18:37 19.02.2020
2334 Rain -4 996 85 10000 9.8 300 18:19 19.02.2020
2335 Rain -3 995 85 10000 12.3 290 17:42 19.02.2020
2336 Rain -3 995 85 10000 10.3 290 17:19 19.02.2020
2337 Rain -3 995 85 10000 6.7 300 16:44 19.02.2020
2338 Rain -3 995 85 10000 8.2 300 16:20 19.02.2020
2339 Rain -4 995 79 10000 7.2 320 15:58 19.02.2020
2340 Rain -4 995 79 10000 7.2 320 15:39 19.02.2020
2341 Snow -3 994 85 6000 9.8 300 15:20 19.02.2020
2342 Snow -3 994 85 6000 5.7 260 14:55 19.02.2020
2343 Rain -4 994 85 10000 6.7 280 14:36 19.02.2020
2344 Rain -4 994 85 10000 6.7 280 14:18 19.02.2020
2345 Snow -4 994 85 500 12.3 290 13:41 19.02.2020
2346 Rain -4 993 73 10000 8.7 240 13:20 19.02.2020
2347 Rain -4 993 73 10000 9.3 260 12:42 19.02.2020
2348 Rain -4 993 68 10000 11.3 260 12:19 19.02.2020
2349 Rain -4 993 58 10000 9.8 260 11:59 19.02.2020
2350 Clouds -4 993 58 10000 8.7 260 11:37 19.02.2020
2351 Clouds -4 993 58 10000 8.7 260 11:19 19.02.2020
2352 Clouds -4 993 62 10000 7.2 260 10:57 19.02.2020
2353 Clouds -4 992 62 10000 6.2 270 10:38 19.02.2020
2354 Clouds -4 992 62 10000 6.2 270 10:19 19.02.2020
2355 Clouds -5 992 67 10000 6.7 270 09:57 19.02.2020
2356 Clouds -7 992 78 10000 5.1 250 09:37 19.02.2020
2357 Clouds -7 992 78 10000 5.1 250 09:18 19.02.2020
2358 Clouds -8 991 85 10000 5.1 270 08:44 19.02.2020
2359 Clouds -7 991 79 10000 4.1 300 08:24 19.02.2020
2360 Rain -6 991 85 10000 3.6 320 07:41 19.02.2020
2361 Snow -7 991 92 10000 5.1 320 07:21 19.02.2020
2362 Snow -6 991 85 800 12.9 340 06:53 19.02.2020
2363 Snow -5 990 57 3500 8.2 360 06:23 19.02.2020
2364 Rain -6 989 67 10000 7.7 360 04:21 19.02.2020
2365 Rain -5 987 67 10000 8.7 350 02:56 19.02.2020
2366 Rain -5 987 67 10000 8.7 350 02:30 19.02.2020
2367 Snow -5 986 62 10000 12.3 350 01:24 19.02.2020
2368 Rain -5 986 73 10000 12.3 360 00:50 19.02.2020
2369 Snow -5 985 73 5000 13.9 350 00:30 19.02.2020
2370 Rain -4 985 68 10000 13.9 340 23:44 18.02.2020
2371 Snow -4 984 85 10000 12.3 350 23:21 18.02.2020
2372 Rain -4 984 73 10000 14.4 340 22:59 18.02.2020
2373 Rain -4 984 73 10000 14.4 340 22:41 18.02.2020
2374 Snow -3 984 68 10000 12.9 340 22:19 18.02.2020
2375 Snow -3 983 63 10000 13.4 340 21:56 18.02.2020
2376 Rain -4 982 73 10000 13.9 350 21:37 18.02.2020
2377 Rain -4 982 73 10000 13.9 350 21:19 18.02.2020
2378 Rain -3 982 68 10000 12.9 340 20:57 18.02.2020
2379 Clouds -3 981 68 10000 12.3 340 20:38 18.02.2020
2380 Clouds -3 981 68 10000 12.3 340 20:38 18.02.2020
2381 Clouds -3 981 68 10000 12.3 340 20:20 18.02.2020
2382 Snow -3 981 79 10000 13.4 340 19:43 18.02.2020
2383 Snow -3 981 79 10000 13.4 340 19:43 18.02.2020
2384 Rain -3 981 68 10000 12.9 340 19:20 18.02.2020
2385 Snow -3 980 73 10000 13.9 340 18:59 18.02.2020
2386 Snow -3 980 73 10000 13.9 340 18:41 18.02.2020
2387 Rain -2 980 74 10000 11.8 340 18:20 18.02.2020
2388 Rain -2 979 63 10000 10.3 340 17:56 18.02.2020
2389 Snow -2 979 68 9000 10.8 340 17:37 18.02.2020
2390 Snow -2 979 68 9000 10.8 340 17:18 18.02.2020
2391 Rain -2 978 68 10000 11.3 350 16:39 18.02.2020
2392 Rain -2 978 74 9000 10.3 350 16:20 18.02.2020
2393 Rain -2 978 68 10000 9.3 350 15:41 18.02.2020
2394 Rain -2 977 68 10000 11.3 340 15:20 18.02.2020
2395 Rain -2 977 74 10000 12.9 350 14:58 18.02.2020
2396 Rain -2 977 74 10000 12.9 350 14:39 18.02.2020
2397 Rain -2 976 86 10000 11.8 360 14:20 18.02.2020
2398 Rain -2 976 86 10000 11.8 360 13:56 18.02.2020
2399 Rain -2 975 86 10000 12.9 360 13:37 18.02.2020
2400 Rain -2 975 86 10000 12.9 360 13:37 18.02.2020
2401 Rain -2 975 86 10000 12.9 360 13:19 18.02.2020
2402 Snow -1 975 74 10000 10.8 350 12:42 18.02.2020
2403 Snow -2 975 86 10000 10.8 360 12:23 18.02.2020
2404 Clouds -1 975 86 10000 10.8 360 11:56 18.02.2020
2405 Rain -1 974 86 10000 11.3 340 11:37 18.02.2020
2406 Rain -1 974 86 10000 11.3 340 11:18 18.02.2020
2407 Rain -1 974 68 10000 13.9 340 10:42 18.02.2020
2408 Rain -1 973 74 10000 13.4 340 10:22 18.02.2020
2409 Rain -1 973 74 10000 13.4 340 09:56 18.02.2020
2410 Rain 0 972 68 10000 13.4 340 09:38 18.02.2020
2411 Rain 0 972 68 10000 13.4 340 09:19 18.02.2020
2412 Rain 0 972 80 10000 14.4 340 08:54 18.02.2020
2413 Clouds 0 971 80 10000 17 350 08:36 18.02.2020
2414 Clouds 0 971 80 10000 17 350 08:18 18.02.2020
2415 Clouds 0 971 80 10000 16.5 350 07:42 18.02.2020
2416 Clouds -1 971 80 10000 15.4 340 07:23 18.02.2020
2417 Clouds 0 970 93 10000 14.9 350 06:48 18.02.2020
2418 Clouds 0 970 93 10000 16.5 350 06:27 18.02.2020
2419 Snow 0 970 93 10000 21.1 350 05:47 18.02.2020
2420 Rain 0 969 92 10000 8.7 20 05:18 18.02.2020
2421 Snow 0 968 92 3500 4.1 350 03:41 18.02.2020
2422 Snow 0 967 92 2100 10.8 320 02:58 18.02.2020
2423 Clouds 1 966 86 10000 11.8 320 01:25 18.02.2020
2424 Snow 1 966 86 10000 12.3 320 00:23 18.02.2020
2425 Clouds 1 965 86 3500 10.8 350 23:59 17.02.2020
2426 Rain 1 965 86 10000 11.8 310 23:39 17.02.2020
2427 Rain 1 965 86 10000 11.8 310 23:19 17.02.2020
2428 Clouds 1 964 86 10000 11.3 320 22:58 17.02.2020
2429 Clouds 1 964 86 10000 11.3 320 22:39 17.02.2020
2430 Clouds 2 964 74 10000 12.9 330 22:18 17.02.2020
2431 Clouds 2 964 74 10000 13.4 330 21:39 17.02.2020
2432 Clouds 2 964 80 10000 12.9 340 21:19 17.02.2020
2433 Rain 1 963 86 10000 13.4 340 20:55 17.02.2020
2434 Clouds 2 963 80 10000 12.3 350 20:37 17.02.2020
2435 Clouds 2 963 80 10000 12.3 350 20:18 17.02.2020
2436 Rain 2 962 80 10000 12.9 360 19:43 17.02.2020
2437 Rain 2 962 80 10000 12.9 360 19:21 17.02.2020
2438 Snow 2 962 98 10000 13.4 350 18:56 17.02.2020
2439 Clouds 2 961 80 10000 12.9 350 18:36 17.02.2020
2440 Clouds 2 961 80 10000 12.9 350 18:36 17.02.2020
2441 Clouds 2 961 80 10000 12.9 350 18:36 17.02.2020
2442 Clouds 2 961 80 10000 12.9 350 18:36 17.02.2020
2443 Clouds 2 961 80 10000 12.9 350 18:18 17.02.2020
2444 Rain 1 960 98 10000 5.1 10 17:38 17.02.2020
2445 Rain 1 960 98 10000 5.1 10 17:38 17.02.2020
2446 Rain 1 960 98 10000 5.1 10 17:20 17.02.2020
2447 Rain 1 960 98 10000 11.8 360 16:59 17.02.2020
2448 Rain 1 960 98 10000 11.8 360 16:59 17.02.2020
2449 Clouds 2 960 98 10000 14.4 360 16:40 17.02.2020
2450 Clouds 2 960 98 10000 14.4 360 16:22 17.02.2020
2451 Rain 1 959 98 10000 10.8 360 15:46 17.02.2020
2452 Rain 1 959 98 10000 9.8 330 15:28 17.02.2020
2453 Clouds 1 959 98 4000 8.7 330 14:59 17.02.2020
2454 Clouds 1 959 98 4000 8.7 330 14:40 17.02.2020
2455 Snow 1 958 98 4000 9.8 330 14:22 17.02.2020
2456 Snow 1 958 98 4000 9.8 330 14:22 17.02.2020
2457 Snow 1 958 98 10000 10.3 320 13:57 17.02.2020
2458 Snow 1 958 98 5000 11.3 320 13:38 17.02.2020
2459 Snow 1 958 98 5000 11.3 320 13:18 17.02.2020
2460 Snow 1 958 98 10000 11.3 310 12:43 17.02.2020
2461 Snow 0 958 98 5000 9.8 300 12:24 17.02.2020
2462 Snow 1 958 98 1500 9.8 310 11:58 17.02.2020
2463 Snow 1 958 98 1500 9.8 310 11:39 17.02.2020
2464 Snow 1 958 97 3500 8.7 300 11:20 17.02.2020
2465 Snow 1 958 97 2500 9.8 310 10:54 17.02.2020
2466 Snow 0 958 97 10000 7.2 300 10:36 17.02.2020
2467 Snow 0 958 97 10000 7.2 300 10:18 17.02.2020
2468 Snow 0 958 92 6000 5.1 300 09:41 17.02.2020
2469 Snow 0 958 92 7000 4.1 300 09:21 17.02.2020
2470 Snow -1 958 100 9000 3.1 320 08:57 17.02.2020
2471 Snow -1 958 100 9000 3.1 320 08:39 17.02.2020
2472 Snow 0 958 100 9000 2.6 320 08:19 17.02.2020
2473 Snow -1 958 100 5000 1.5 310 07:43 17.02.2020
2474 Snow -2 959 100 2100 2.1 340 07:23 17.02.2020
2475 Snow -2 959 100 2800 3.1 70 06:51 17.02.2020
2476 Snow -2 959 100 2800 3.1 70 06:32 17.02.2020
2477 Snow -1 959 92 2700 2.6 70 05:56 17.02.2020
2478 Snow -1 959 92 2700 2.6 70 05:37 17.02.2020
2479 Snow -1 961 86 10000 5.1 80 03:21 17.02.2020
2480 Snow -1 963 86 10000 8.7 110 01:49 17.02.2020
2481 Clouds 0 965 80 10000 11.8 100 00:44 17.02.2020
2482 Clouds 0 965 80 10000 10.8 70 00:21 17.02.2020
2483 Clouds 0 965 80 10000 10.8 70 00:21 17.02.2020
2484 Clouds -1 966 80 10000 10.3 80 23:53 16.02.2020
2485 Clouds -1 966 80 10000 10.8 90 23:32 16.02.2020
2486 Clouds -2 967 79 10000 12.9 110 22:58 16.02.2020
2487 Clouds -2 967 79 10000 12.9 110 22:39 16.02.2020
2488 Snow -2 969 86 8000 13.4 120 22:21 16.02.2020
2489 Snow -2 970 86 8000 14.4 120 21:58 16.02.2020
2490 Snow -2 970 86 8000 14.4 120 21:40 16.02.2020
2491 Snow -2 970 86 6000 14.4 120 21:21 16.02.2020
2492 Snow -2 971 79 5000 15.9 120 20:57 16.02.2020
2493 Snow -2 971 79 5000 15.9 120 20:39 16.02.2020
2494 Snow -4 973 85 6000 18.5 130 20:21 16.02.2020
2495 Clouds -4 973 85 5000 19.5 130 19:58 16.02.2020
2496 Snow -5 975 85 6000 17 140 19:38 16.02.2020
2497 Snow -5 975 85 6000 17 140 19:38 16.02.2020
2498 Snow -5 975 85 6000 17 140 19:19 16.02.2020
2499 Clouds -5 976 79 10000 18 130 18:45 16.02.2020
2500 Clouds -6 976 85 10000 11.8 150 18:26 16.02.2020
2501 Clouds -5 977 79 10000 15.4 140 17:57 16.02.2020
2502 Clouds -4 977 79 10000 15.4 140 17:39 16.02.2020
2503 Clouds -3 978 73 10000 10.8 140 17:19 16.02.2020
2504 Clouds -4 979 79 10000 13.9 160 16:56 16.02.2020
2505 Clouds -3 980 79 10000 14.4 170 16:37 16.02.2020
2506 Clouds -3 980 79 10000 14.4 170 16:19 16.02.2020
2507 Clouds -4 981 79 10000 11.3 170 15:41 16.02.2020
2508 Clouds -4 981 79 10000 12.9 170 15:22 16.02.2020
2509 Clouds -5 982 79 10000 12.3 190 14:55 16.02.2020
2510 Clouds -6 983 73 10000 14.4 170 14:36 16.02.2020
2511 Clouds -6 983 73 10000 14.4 170 14:18 16.02.2020
2512 Clouds -6 984 73 10000 12.3 160 13:41 16.02.2020
2513 Clouds -5 984 67 10000 13.4 140 13:23 16.02.2020
2514 Clouds -5 984 67 10000 13.4 140 13:23 16.02.2020
2515 Clouds -6 985 73 10000 10.3 140 12:40 16.02.2020
2516 Clouds -6 985 67 10000 12.9 160 12:20 16.02.2020
2517 Clouds -7 986 73 10000 10.8 150 11:56 16.02.2020
2518 Clouds -7 986 73 10000 11.3 150 11:37 16.02.2020
2519 Clouds -7 986 73 10000 11.3 150 11:18 16.02.2020
2520 Clouds -7 987 79 10000 10.3 160 10:56 16.02.2020
2521 Clouds -6 987 73 10000 9.8 170 10:37 16.02.2020
2522 Clouds -6 987 73 10000 9.8 170 10:18 16.02.2020
2523 Clouds -7 988 79 10000 7.7 140 09:39 16.02.2020
2524 Clouds -7 988 79 10000 7.7 140 09:39 16.02.2020
2525 Clouds -5 988 73 10000 8.2 140 09:21 16.02.2020
2526 Clouds -6 989 79 10000 6.7 150 08:58 16.02.2020
2527 Clouds -6 989 79 10000 6.7 150 08:40 16.02.2020
2528 Clouds -7 990 79 10000 7.7 150 08:19 16.02.2020
2529 Clouds -7 990 79 10000 7.7 150 08:19 16.02.2020
2530 Clouds -6 990 79 10000 7.2 150 07:44 16.02.2020
2531 Clouds -7 990 79 10000 7.7 150 07:25 16.02.2020
2532 Clouds -6 991 79 10000 7.2 160 06:32 16.02.2020
2533 Clouds -6 991 79 10000 7.2 160 06:32 16.02.2020
2534 Clouds -7 992 73 10000 3.6 190 04:37 16.02.2020
2535 Clouds -7 993 79 10000 3.1 210 03:23 16.02.2020
2536 Clouds -5 994 73 10000 5.7 210 02:24 16.02.2020
2537 Clouds -5 994 73 10000 5.7 210 01:40 16.02.2020
2538 Clouds -5 994 73 10000 5.7 210 01:21 16.02.2020
2539 Clouds -5 994 73 10000 6.2 210 00:51 16.02.2020
2540 Clouds -5 994 73 10000 6.7 210 00:28 16.02.2020
2541 Clouds -5 994 79 10000 7.2 220 23:44 15.02.2020
2542 Clouds -5 994 79 10000 7.2 210 23:26 15.02.2020
2543 Clouds -5 994 73 10000 7.7 210 22:59 15.02.2020
2544 Clouds -5 994 73 10000 7.7 210 22:41 15.02.2020
2545 Clouds -5 994 73 10000 8.2 200 22:21 15.02.2020
2546 Clouds -5 994 79 10000 8.7 200 21:58 15.02.2020
2547 Clouds -5 994 79 10000 8.7 200 21:39 15.02.2020
2548 Clouds -5 994 73 10000 10.8 200 21:20 15.02.2020
2549 Clouds -4 994 73 10000 9.3 190 20:39 15.02.2020
2550 Clouds -5 994 73 10000 10.3 190 20:21 15.02.2020
2551 Clouds -5 994 73 10000 9.8 190 19:44 15.02.2020
2552 Clouds -5 995 73 10000 11.8 190 19:22 15.02.2020
2553 Clouds -5 995 67 10000 8.7 190 18:45 15.02.2020
2554 Clouds -4 995 62 10000 8.7 200 18:25 15.02.2020
2555 Clouds -5 995 67 10000 5.7 190 17:59 15.02.2020
2556 Clouds -5 995 67 10000 5.7 190 17:41 15.02.2020
2557 Clouds -5 995 73 10000 6.2 200 17:22 15.02.2020
2558 Clouds -5 996 73 10000 5.7 200 16:55 15.02.2020
2559 Clouds -5 996 73 10000 7.2 200 16:36 15.02.2020
2560 Clouds -5 996 73 10000 7.2 200 16:18 15.02.2020
2561 Clouds -6 997 67 10000 3.6 160 15:41 15.02.2020
2562 Clouds -6 997 67 10000 3.6 160 15:23 15.02.2020
2563 Clouds -5 997 79 10000 7.2 190 14:45 15.02.2020
2564 Clouds -6 997 79 10000 6.2 180 14:21 15.02.2020
2565 Clouds -5 997 73 10000 6.7 180 13:56 15.02.2020
2566 Clouds -6 998 73 10000 4.1 160 13:38 15.02.2020
2567 Clouds -6 998 73 10000 4.1 160 13:20 15.02.2020
2568 Clouds -5 998 79 10000 5.1 180 12:43 15.02.2020
2569 Clouds -6 999 79 10000 3.1 160 12:25 15.02.2020
2570 Clouds -6 999 79 10000 3.1 150 11:54 15.02.2020
2571 Clouds -5 999 79 10000 3.6 200 11:36 15.02.2020
2572 Clouds -5 999 79 10000 3.6 200 11:18 15.02.2020
2573 Clouds -6 1000 85 10000 4.6 190 10:39 15.02.2020
2574 Clouds -6 1000 79 10000 4.6 190 10:20 15.02.2020
2575 Clouds -6 1000 79 10000 3.6 200 09:44 15.02.2020
2576 Clouds -5 1000 67 10000 3.6 280 09:25 15.02.2020
2577 Clear -5 1000 73 10000 4.6 290 08:46 15.02.2020
2578 Clear -3 1000 68 10000 6.7 260 08:26 15.02.2020
2579 Clouds -3 1001 58 10000 8.7 250 07:59 15.02.2020
2580 Clouds -3 1001 58 10000 8.7 250 07:40 15.02.2020
2581 Clouds -3 1001 58 0 8.7 250 07:22 15.02.2020
2582 Clouds -3 1001 63 10000 10.3 260 06:38 15.02.2020
2583 Clouds -3 1001 63 10000 10.3 260 06:18 15.02.2020
2584 Snow -2 1002 68 10000 7.7 270 04:51 15.02.2020
2585 Snow -2 1002 68 10000 7.7 270 04:24 15.02.2020
2586 Snow -2 1002 68 10000 7.7 270 04:24 15.02.2020
2587 Rain -3 1002 79 10000 6.7 300 02:58 15.02.2020
2588 Rain -3 1002 79 10000 6.7 300 02:26 15.02.2020
2589 Snow -3 1002 86 10000 6.7 290 01:58 15.02.2020
2590 Snow -3 1002 73 5000 7.7 300 01:36 15.02.2020
2591 Snow -3 1002 86 5000 12.3 310 00:30 15.02.2020
2592 Snow -3 1002 92 10000 11.8 310 23:48 14.02.2020
2593 Snow -2 1002 92 800 12.9 310 23:21 14.02.2020
2594 Rain -2 1002 79 10000 9.8 300 22:58 14.02.2020
2595 Snow -2 1002 79 10000 12.9 310 22:40 14.02.2020
2596 Snow -2 1002 79 10000 12.9 310 22:21 14.02.2020
2597 Snow -2 1001 92 4500 12.3 310 21:49 14.02.2020
2598 Clouds -2 1001 79 10000 11.3 300 21:31 14.02.2020
2599 Snow -2 1001 92 3000 13.9 310 20:48 14.02.2020
2600 Snow -1 1001 86 10000 12.9 320 20:21 14.02.2020
2601 Clouds -1 1000 86 10000 10.3 320 19:59 14.02.2020
2602 Clouds -1 1000 86 10000 10.3 320 19:41 14.02.2020
2603 Clouds -1 1000 86 10000 10.3 320 19:41 14.02.2020
2604 Clouds -1 1000 86 10000 10.3 320 19:41 14.02.2020
2605 Rain -1 1000 86 10000 11.3 310 19:23 14.02.2020
2606 Clouds -1 999 86 10000 11.3 320 18:57 14.02.2020
2607 Clouds -1 999 86 10000 11.3 320 18:39 14.02.2020
2608 Snow -1 999 92 10000 5.7 300 18:20 14.02.2020
2609 Snow -2 999 100 500 8.7 240 17:44 14.02.2020
2610 Snow -2 999 100 500 11.3 260 17:22 14.02.2020
2611 Snow -2 999 86 900 9.3 250 16:59 14.02.2020
2612 Rain -2 998 74 10000 10.3 240 16:40 14.02.2020
2613 Rain -2 998 74 10000 10.3 240 16:22 14.02.2020
2614 Clouds -1 998 68 10000 8.2 230 15:56 14.02.2020
2615 Clouds -2 998 68 10000 9.3 230 15:37 14.02.2020
2616 Clouds -2 998 68 10000 9.3 230 15:37 14.02.2020
2617 Clouds -2 998 68 10000 9.3 230 15:19 14.02.2020
2618 Clouds -1 998 68 10000 7.7 220 14:58 14.02.2020
2619 Clouds -1 998 68 10000 7.7 220 14:40 14.02.2020
2620 Clouds -1 998 68 10000 7.7 220 14:21 14.02.2020
2621 Clear 0 998 58 10000 7.2 220 13:54 14.02.2020
2622 Clear 0 997 58 10000 7.7 230 13:36 14.02.2020
2623 Clouds 0 997 58 10000 7.7 230 13:18 14.02.2020
2624 Clouds -1 997 58 10000 6.2 220 12:56 14.02.2020
2625 Clouds -1 997 58 10000 6.2 220 12:56 14.02.2020
2626 Clouds -3 997 63 10000 5.7 220 12:37 14.02.2020
2627 Clouds -3 997 63 10000 5.7 220 12:37 14.02.2020
2628 Clouds -2 997 63 10000 5.7 220 12:18 14.02.2020
2629 Clouds -1 997 58 10000 9.3 220 11:54 14.02.2020
2630 Clouds -1 997 63 10000 5.7 220 11:36 14.02.2020
2631 Clouds -1 997 63 10000 5.7 220 11:18 14.02.2020
2632 Clouds -2 997 67 10000 4.1 210 10:40 14.02.2020
2633 Clouds -2 996 62 10000 4.1 210 10:21 14.02.2020
2634 Clouds -3 996 62 10000 3.1 190 09:44 14.02.2020
2635 Clouds -3 996 57 10000 5.1 210 09:22 14.02.2020
2636 Clouds -3 996 62 10000 3.6 200 08:57 14.02.2020
2637 Clouds -2 996 58 10000 2.6 180 08:38 14.02.2020
2638 Clouds -2 996 58 10000 2.6 180 08:20 14.02.2020
2639 Clouds -2 996 58 10000 4.6 200 07:49 14.02.2020
2640 Clouds -2 996 58 10000 4.6 200 07:49 14.02.2020
2641 Clouds -4 996 62 10000 4.6 200 07:29 14.02.2020
2642 Clouds -6 995 67 10000 5.1 210 06:38 14.02.2020
2643 Clouds -6 995 67 10000 5.1 210 06:18 14.02.2020
2644 Clouds -4 995 58 10000 6.7 220 05:28 14.02.2020
2645 Clouds -2 994 50 10000 5.7 200 03:46 14.02.2020
2646 Clouds -2 993 50 10000 6.2 210 02:56 14.02.2020
2647 Clouds -2 993 50 10000 6.2 210 02:56 14.02.2020
2648 Clouds -2 993 50 10000 7.2 200 01:56 14.02.2020
2649 Clouds -1 993 50 10000 6.2 200 00:45 14.02.2020
2650 Clouds -1 993 54 10000 7.7 200 00:27 14.02.2020
2651 Clouds -1 993 58 10000 3.6 190 23:57 13.02.2020
2652 Clouds -1 992 68 10000 5.1 200 23:38 13.02.2020
2653 Clouds -1 992 68 10000 5.1 200 23:18 13.02.2020
2654 Clouds 0 992 74 10000 4.6 190 22:40 13.02.2020
2655 Clouds 0 992 74 10000 6.2 200 22:19 13.02.2020
2656 Clouds 0 992 74 10000 6.2 210 21:57 13.02.2020
2657 Clouds 0 991 80 10000 6.2 210 21:37 13.02.2020
2658 Clouds 0 991 80 10000 6.2 210 21:19 13.02.2020
2659 Clouds 0 991 80 10000 6.2 210 20:42 13.02.2020
2660 Clouds -1 991 86 10000 7.2 240 20:22 13.02.2020
2661 Clouds -1 991 92 10000 7.2 250 19:57 13.02.2020
2662 Clouds 0 990 80 10000 9.3 260 19:38 13.02.2020
2663 Clouds 0 990 80 10000 9.3 260 19:38 13.02.2020
2664 Clouds 0 990 80 10000 9.3 260 19:20 13.02.2020
2665 Clouds 0 990 80 10000 9.3 260 18:57 13.02.2020
2666 Clouds 0 990 80 10000 9.3 260 18:39 13.02.2020
2667 Clouds 1 990 69 10000 12.3 280 18:20 13.02.2020
2668 Clouds 0 989 80 10000 11.3 260 17:57 13.02.2020
2669 Clouds 0 989 80 10000 11.8 280 17:37 13.02.2020
2670 Clouds 0 989 77 10000 11.8 280 17:18 13.02.2020
2671 Rain 0 988 77 10000 12.3 260 16:42 13.02.2020
2672 Clouds 0 988 77 10000 12.9 280 16:21 13.02.2020
2673 Rain 0 988 86 10000 10.8 260 15:58 13.02.2020
2674 Rain 0 988 86 10000 10.8 260 15:39 13.02.2020
2675 Rain -1 987 92 8000 9.3 290 15:20 13.02.2020
2676 Rain 0 987 86 10000 8.2 270 14:59 13.02.2020
2677 Rain 0 987 86 10000 8.2 270 14:40 13.02.2020
2678 Rain 0 986 86 8000 8.2 250 14:21 13.02.2020
2679 -273 0 0 0 0 0 13:54 13.02.2020
2680 Snow -1 985 92 2500 17 270 13:36 13.02.2020
2681 Snow -1 985 92 2500 17 270 13:18 13.02.2020
2682 Snow -1 984 100 2000 13.9 260 12:48 13.02.2020
2683 Snow -1 984 100 3000 14.4 250 12:30 13.02.2020
2684 Snow -1 983 100 3000 13.4 250 11:57 13.02.2020
2685 Snow -1 983 100 1500 10.8 240 11:39 13.02.2020
2686 Snow -1 983 100 1500 10.8 240 11:18 13.02.2020
2687 Snow -1 983 100 1000 14.9 250 10:43 13.02.2020
2688 Snow 0 982 83 10000 12.3 250 10:23 13.02.2020
2689 Rain 0 982 83 10000 12.9 250 09:46 13.02.2020
2690 Rain 0 981 83 10000 10.8 250 09:24 13.02.2020
2691 Snow 0 981 83 1500 13.4 250 08:48 13.02.2020
2692 Rain 0 980 86 10000 12.9 250 08:20 13.02.2020
2693 Snow 0 980 85 3000 12.3 250 07:45 13.02.2020
2694 Snow 0 980 85 10000 11.3 250 07:24 13.02.2020
2695 Rain 0 980 85 10000 12.3 260 06:56 13.02.2020
2696 Rain 1 979 86 10000 11.8 250 06:38 13.02.2020
2697 Snow 0 978 85 5000 13.4 240 05:57 13.02.2020
2698 Snow 0 978 91 5000 13.4 240 05:20 13.02.2020
2699 Snow 0 978 91 10000 11.8 240 04:24 13.02.2020
2700 Clouds 1 977 80 10000 11.3 240 03:45 13.02.2020
2701 Snow 1 976 80 10000 10.8 240 02:59 13.02.2020
2702 Snow 1 976 80 10000 10.8 240 02:59 13.02.2020
2703 Snow 1 976 80 10000 10.8 240 02:41 13.02.2020
2704 Snow 1 976 80 10000 10.8 240 02:18 13.02.2020
2705 Clouds 2 975 69 10000 13.9 240 01:27 13.02.2020
2706 Clouds 1 975 69 10000 14.4 230 00:32 13.02.2020
2707 Clouds 1 975 69 10000 14.4 230 00:32 13.02.2020
2708 Clouds 1 974 64 10000 12.3 220 23:58 12.02.2020
2709 Clouds 2 974 64 10000 11.3 220 23:37 12.02.2020
2710 Clouds 2 974 64 10000 11.3 220 23:18 12.02.2020
2711 Clouds 2 973 64 10000 9.8 210 22:44 12.02.2020
2712 Clouds 2 973 64 10000 9.8 210 22:24 12.02.2020
2713 Clouds 1 973 64 10000 9.8 200 21:57 12.02.2020
2714 Clouds 1 973 64 10000 9.8 200 21:39 12.02.2020
2715 Clouds 1 973 80 10000 9.8 200 21:19 12.02.2020
2716 Clouds 1 973 80 10000 11.3 200 20:55 12.02.2020
2717 Clouds 0 972 82 10000 7.2 200 20:37 12.02.2020
2718 Clouds 0 972 84 10000 7.2 200 20:18 12.02.2020
2719 Clouds 0 972 84 10000 8.7 210 19:44 12.02.2020
2720 Clouds 0 972 94 10000 8.2 200 19:23 12.02.2020
2721 Clouds 0 972 84 10000 8.7 210 18:54 12.02.2020
2722 Clouds 1 972 69 10000 9.3 240 18:36 12.02.2020
2723 Clouds 1 972 69 10000 9.3 240 18:18 12.02.2020
2724 Clouds 2 971 59 10000 11.8 250 17:42 12.02.2020
2725 Clouds 2 971 64 10000 10.3 250 17:20 12.02.2020
2726 Clouds 2 971 64 10000 11.3 250 16:58 12.02.2020
2727 Clouds 2 970 64 10000 11.8 250 16:37 12.02.2020
2728 Clouds 2 970 64 10000 11.8 250 16:18 12.02.2020
2729 Clouds 2 970 64 10000 11.3 250 15:40 12.02.2020
2730 Clouds 2 970 64 10000 9.8 250 15:20 12.02.2020
2731 Clouds 2 969 69 10000 10.3 240 14:56 12.02.2020
2732 Clouds 2 969 64 10000 13.4 260 14:38 12.02.2020
2733 Clouds 2 969 64 10000 13.4 260 14:19 12.02.2020
2734 Clouds 2 968 64 10000 12.3 260 13:56 12.02.2020
2735 Clouds 2 968 74 10000 11.3 260 13:37 12.02.2020
2736 Clouds 2 968 74 10000 11.3 260 13:18 12.02.2020
2737 Clouds 2 968 74 10000 11.3 260 13:18 12.02.2020
2738 Clouds 1 968 80 10000 11.3 260 12:55 12.02.2020
2739 Clouds 2 967 74 10000 12.9 260 12:36 12.02.2020
2740 Clouds 2 967 74 10000 12.9 260 12:18 12.02.2020
2741 Clouds 2 967 74 10000 12.9 260 12:18 12.02.2020
2742 Rain 2 967 74 10000 14.4 260 11:54 12.02.2020
2743 Clouds 1 966 86 10000 13.4 260 11:36 12.02.2020
2744 Clouds 1 966 86 10000 13.4 260 11:18 12.02.2020
2745 Rain 0 966 84 10000 15.4 250 10:42 12.02.2020
2746 Snow 1 966 86 4000 12.9 250 10:21 12.02.2020
2747 Snow 0 965 84 6000 13.4 250 09:58 12.02.2020
2748 Rain 1 965 80 10000 15.9 270 09:40 12.02.2020
2749 Rain 1 965 80 10000 15.9 270 09:19 12.02.2020
2750 Clouds 1 964 74 10000 14.9 260 08:57 12.02.2020
2751 Rain 1 964 80 10000 14.4 260 08:37 12.02.2020
2752 Rain 1 964 80 10000 14.4 260 08:19 12.02.2020
2753 Rain 1 964 80 10000 14.4 260 08:19 12.02.2020
2754 Clouds 1 963 88 8000 15.9 270 07:43 12.02.2020
2755 Clouds 1 963 80 10000 15.4 270 07:23 12.02.2020
2756 Clouds 1 963 80 10000 13.9 270 06:53 12.02.2020
2757 Snow 1 962 74 1500 15.4 280 06:20 12.02.2020
2758 Snow 0 961 88 6000 18 270 05:36 12.02.2020
2759 Clouds 0 961 89 10000 14.4 270 04:57 12.02.2020
2760 Clouds 0 961 89 10000 14.4 270 04:39 12.02.2020
2761 Clouds 1 960 74 10000 14.4 270 03:33 12.02.2020
2762 Clouds 1 959 80 10000 14.9 270 02:58 12.02.2020
2763 Clouds 1 959 80 10000 13.4 280 02:29 12.02.2020
2764 Clouds 1 959 86 10000 14.9 270 01:50 12.02.2020
2765 Clouds 0 958 89 10000 12.3 270 00:45 12.02.2020
2766 Clouds 1 958 74 10000 10.8 290 00:26 12.02.2020
2767 Snow 1 957 80 10000 12.9 260 23:56 11.02.2020
2768 Clouds 2 957 80 10000 12.9 290 23:38 11.02.2020
2769 Clouds 2 957 80 10000 12.9 290 23:20 11.02.2020
2770 Rain 2 956 80 10000 15.4 290 22:55 11.02.2020
2771 Rain 2 956 74 10000 17.5 280 22:37 11.02.2020
2772 Rain 2 956 74 10000 17.5 280 22:37 11.02.2020
2773 Rain 2 956 74 10000 17.5 280 22:18 11.02.2020
2774 Rain 2 955 80 10000 13.4 290 21:55 11.02.2020
2775 Rain 2 955 84 10000 12.9 290 21:37 11.02.2020
2776 Rain 2 955 84 10000 12.9 290 21:18 11.02.2020
2777 Rain 2 955 84 10000 12.9 290 21:18 11.02.2020
2778 Rain 2 955 84 10000 12.9 290 21:18 11.02.2020
2779 Clouds 2 955 86 9000 15.4 290 20:54 11.02.2020
2780 Rain 2 954 83 10000 12.9 290 20:36 11.02.2020
2781 Rain 2 954 90 10000 12.9 290 20:18 11.02.2020
2782 Clouds 1 954 86 3000 14.4 290 19:42 11.02.2020
2783 Rain 2 953 90 10000 14.9 290 19:23 11.02.2020
2784 Clouds 2 953 90 5000 11.3 290 18:56 11.02.2020
2785 Rain 2 952 90 10000 11.8 290 18:37 11.02.2020
2786 Rain 2 952 90 10000 11.8 290 18:19 11.02.2020
2787 Clouds 2 952 90 5000 11.3 290 17:55 11.02.2020
2788 Rain 2 951 90 10000 11.8 290 17:36 11.02.2020
2789 Rain 2 951 90 10000 11.8 290 17:18 11.02.2020
2790 Clouds 2 951 93 10000 10.8 290 16:55 11.02.2020
2791 Clouds 2 950 90 10000 12.3 280 16:37 11.02.2020
2792 Clouds 2 950 90 10000 12.3 280 16:19 11.02.2020
2793 Rain 2 949 93 10000 13.4 290 15:43 11.02.2020
2794 Rain 2 949 93 10000 13.4 290 15:24 11.02.2020
2795 Rain 2 949 93 10000 12.3 290 14:54 11.02.2020
2796 Rain 2 948 93 10000 7.7 280 14:36 11.02.2020
2797 Rain 2 948 93 10000 7.7 280 14:18 11.02.2020
2798 Rain 2 948 93 10000 10.3 300 13:41 11.02.2020
2799 Drizzle 2 948 93 10000 10.8 270 13:21 11.02.2020
2800 Clouds 2 947 93 10000 10.3 270 12:58 11.02.2020
2801 Clouds 2 947 93 10000 10.3 270 12:40 11.02.2020
2802 Rain 2 947 93 10000 8.2 270 12:20 11.02.2020
2803 Rain 2 947 93 10000 7.7 280 11:42 11.02.2020
2804 Rain 2 946 93 10000 9.3 270 11:21 11.02.2020
2805 Clouds 2 946 93 10000 7.7 250 10:58 11.02.2020
2806 Clouds 2 946 93 10000 7.7 250 10:39 11.02.2020
2807 Clouds 2 946 100 10000 6.2 240 10:20 11.02.2020
2808 Rain 2 946 98 10000 7.2 250 09:56 11.02.2020
2809 Drizzle 2 945 100 10000 4.6 210 09:38 11.02.2020
2810 Drizzle 2 945 100 10000 4.6 210 09:19 11.02.2020
2811 Snow 1 945 98 10000 7.2 230 08:46 11.02.2020
2812 Snow 1 945 97 3000 5.7 210 08:24 11.02.2020
2813 Snow 1 944 93 5000 6.7 230 07:48 11.02.2020
2814 Snow 0 944 93 10000 6.2 230 07:26 11.02.2020
2815 Clouds 0 944 93 9000 6.2 240 06:44 11.02.2020
2816 Snow 0 944 93 10000 8.2 250 06:22 11.02.2020
2817 Snow 0 944 93 5000 9.3 250 05:58 11.02.2020
2818 Snow 0 944 93 5000 9.3 250 05:25 11.02.2020
2819 Snow 0 944 93 10000 8.7 260 04:42 11.02.2020
2820 Snow 0 944 93 3500 5.7 230 03:26 11.02.2020
2821 Snow 1 943 93 10000 4.6 260 02:33 11.02.2020
2822 Snow 0 943 97 10000 3.1 260 01:38 11.02.2020
2823 Snow 0 943 96 6000 4.6 260 00:42 11.02.2020
2824 Snow 0 943 96 10000 4.6 230 00:20 11.02.2020
2825 Snow 0 943 96 10000 4.1 230 23:39 10.02.2020
2826 Clouds 0 943 92 10000 4.1 220 23:20 10.02.2020
2827 Clouds 0 943 92 10000 4.1 220 22:42 10.02.2020
2828 Clouds 0 943 92 10000 3.1 200 22:21 10.02.2020
2829 Rain 1 943 95 10000 2.1 180 21:57 10.02.2020
2830 Rain 1 943 95 10000 2.1 180 21:39 10.02.2020
2831 Rain 1 943 95 10000 2.1 180 21:39 10.02.2020
2832 Rain 0 943 92 10000 2.1 160 21:20 10.02.2020
2833 Rain 1 943 95 10000 2.1 140 20:54 10.02.2020
2834 Rain 0 943 92 10000 3.1 140 20:36 10.02.2020
2835 Rain 0 943 92 10000 3.1 140 20:18 10.02.2020
2836 Snow 0 943 92 10000 3.1 130 19:54 10.02.2020
2837 Snow 0 943 100 9000 3.1 120 19:36 10.02.2020
2838 Snow 0 943 100 9000 3.1 120 19:36 10.02.2020
2839 Snow 0 943 100 9000 3.1 120 19:18 10.02.2020
2840 Snow 1 944 92 6000 4.1 110 18:41 10.02.2020
2841 Snow 0 944 92 8000 4.6 100 18:22 10.02.2020
2842 Snow 0 944 92 7000 5.1 100 17:59 10.02.2020
2843 Snow 0 944 92 4000 4.6 110 17:39 10.02.2020
2844 Snow 0 944 93 4000 4.6 110 17:21 10.02.2020
2845 Snow 0 945 93 4000 5.7 110 16:59 10.02.2020
2846 Snow 0 945 93 4000 5.7 110 16:40 10.02.2020
2847 Snow 1 945 80 10000 7.7 110 16:20 10.02.2020
2848 Snow 0 945 93 10000 6.7 110 15:58 10.02.2020
2849 Snow 0 945 93 10000 6.7 110 15:39 10.02.2020
2850 Snow 1 945 80 10000 9.3 140 15:20 10.02.2020
2851 Rain 0 946 93 10000 12.3 140 14:56 10.02.2020
2852 Rain 0 946 93 10000 11.3 130 14:38 10.02.2020
2853 Rain 0 946 92 10000 11.3 130 14:19 10.02.2020
2854 Rain 1 947 80 10000 9.3 120 13:43 10.02.2020
2855 Rain 0 947 92 10000 9.3 120 13:24 10.02.2020
2856 Rain 0 947 92 10000 9.8 130 12:56 10.02.2020
2857 Rain 0 948 92 10000 10.3 160 12:38 10.02.2020
2858 Rain 0 948 92 10000 10.3 160 12:19 10.02.2020
2859 Clouds 1 949 92 10000 10.8 140 11:45 10.02.2020
2860 Clouds 1 949 89 10000 14.9 150 11:21 10.02.2020
2861 Clouds 1 950 74 10000 14.4 160 10:48 10.02.2020
2862 Clouds 1 951 74 10000 12.3 150 10:48 10.02.2020
2863 Clouds 1 951 74 10000 12.3 150 10:30 10.02.2020
2864 Clouds 1 951 89 10000 8.2 140 09:56 10.02.2020
2865 Clouds 2 951 74 10000 12.3 150 09:36 10.02.2020
2866 Clouds 2 951 74 10000 12.3 150 09:18 10.02.2020
2867 Clouds 1 952 89 10000 12.3 150 08:40 10.02.2020
2868 Clouds 1 952 74 10000 11.3 150 08:21 10.02.2020
2869 Clouds 1 953 74 10000 11.3 170 07:55 10.02.2020
2870 Clouds 1 953 74 10000 11.3 170 07:55 10.02.2020
2871 Clouds 1 954 80 10000 11.3 160 07:32 10.02.2020
2872 Snow 0 954 91 10000 11.3 160 06:50 10.02.2020
2873 Clouds 1 956 80 10000 12.3 160 05:35 10.02.2020
2874 Clouds 0 957 90 10000 13.4 170 03:55 10.02.2020
2875 Clouds 0 958 90 10000 13.4 180 03:18 10.02.2020
2876 Clouds 0 959 90 10000 16.5 180 02:42 10.02.2020
2877 Clouds -1 961 74 10000 12.9 170 01:24 10.02.2020
2878 Clouds -2 964 74 10000 11.8 170 00:40 10.02.2020
2879 Clouds -2 964 74 10000 11.8 170 00:21 10.02.2020
2880 Clouds -1 964 68 10000 9.8 160 23:41 09.02.2020
2881 Clouds -3 966 79 10000 14.4 180 23:23 09.02.2020
2882 Clouds -1 966 79 10000 11.3 180 22:44 09.02.2020
2883 Snow 0 967 80 10000 9.8 180 22:23 09.02.2020
2884 Clouds 0 968 89 10000 12.3 190 21:57 09.02.2020
2885 Clouds 1 968 80 10000 6.2 180 21:38 09.02.2020
2886 Clouds 1 968 80 10000 6.2 180 21:19 09.02.2020
2887 Clouds 1 969 89 10000 6.7 170 20:45 09.02.2020
2888 Clouds 0 970 86 10000 9.3 160 20:22 09.02.2020
2889 Clouds 0 970 88 10000 6.2 150 19:55 09.02.2020
2890 Clouds -1 972 100 10000 5.1 170 19:37 09.02.2020
2891 Clouds -1 972 100 10000 5.1 170 19:18 09.02.2020
2892 Fog 0 972 88 10000 4.6 150 18:42 09.02.2020
2893 Fog -1 973 100 10000 4.6 140 18:23 09.02.2020
2894 Fog 0 973 88 10000 3.1 120 17:58 09.02.2020
2895 Fog 0 973 88 10000 3.1 120 17:39 09.02.2020
2896 Fog 0 974 95 10000 3.1 180 17:20 09.02.2020
2897 Fog 0 975 95 250 3.1 190 16:41 09.02.2020
2898 Fog 1 976 95 600 3.1 210 16:22 09.02.2020
2899 Fog 1 976 95 500 2.1 190 15:58 09.02.2020
2900 Fog 1 976 95 500 2.1 190 15:40 09.02.2020
2901 Clouds 1 977 95 10000 2.1 180 15:21 09.02.2020
2902 Rain 1 978 95 10000 3.6 190 14:56 09.02.2020
2903 Clouds 0 978 95 3000 3.6 200 14:37 09.02.2020
2904 Clouds 0 978 96 3000 3.6 200 14:19 09.02.2020
2905 Rain 1 978 96 9000 3.6 190 13:43 09.02.2020
2906 Clouds 0 979 98 8000 5.1 190 13:25 09.02.2020
2907 Rain 1 980 100 10000 4.6 190 12:55 09.02.2020
2908 Rain 1 980 100 10000 4.6 190 12:37 09.02.2020
2909 Rain 1 980 100 10000 4.6 190 12:18 09.02.2020
2910 Rain 1 980 100 10000 4.6 190 12:18 09.02.2020
2911 Rain 1 981 98 10000 7.7 200 11:40 09.02.2020
2912 Rain 1 981 97 10000 6.2 190 11:19 09.02.2020
2913 Rain 1 982 97 10000 6.2 200 10:56 09.02.2020
2914 Rain 1 982 97 10000 5.7 200 10:38 09.02.2020
2915 Rain 1 982 97 10000 5.7 200 10:19 09.02.2020
2916 Rain 1 983 97 10000 5.7 200 09:39 09.02.2020
2917 Drizzle 1 984 97 10000 6.2 200 09:20 09.02.2020
2918 Rain 1 984 97 10000 6.2 210 08:44 09.02.2020
2919 Clouds 2 984 80 10000 5.7 210 08:25 09.02.2020
2920 Clouds 2 985 80 10000 4.6 200 07:54 09.02.2020
2921 Clouds 2 986 80 10000 6.2 210 07:34 09.02.2020
2922 Clouds 2 986 80 10000 6.7 210 06:44 09.02.2020
2923 Clouds 2 987 80 10000 5.1 210 05:56 09.02.2020
2924 Clouds 2 987 80 10000 4.6 210 05:35 09.02.2020
2925 Clouds 2 988 82 10000 4.6 210 04:52 09.02.2020
2926 Clouds 2 988 82 10000 5.1 230 03:51 09.02.2020
2927 Clouds 3 989 82 10000 5.1 250 02:44 09.02.2020
2928 Clouds 3 990 83 10000 5.1 240 01:55 09.02.2020
2929 Clouds 3 990 83 10000 4.6 230 01:34 09.02.2020
2930 Clouds 3 991 83 10000 5.7 250 00:41 09.02.2020
2931 Clouds 3 991 83 10000 7.2 260 00:21 09.02.2020
2932 Clouds 3 991 83 10000 7.7 260 23:42 08.02.2020
2933 Clouds 3 991 85 10000 7.7 260 23:20 08.02.2020
2934 Clouds 3 992 86 10000 8.2 260 22:42 08.02.2020
2935 Clouds 3 992 86 10000 9.3 260 22:21 08.02.2020
2936 Clouds 4 992 86 10000 9.3 260 21:58 08.02.2020
2937 Clouds 3 993 86 10000 6.7 250 21:40 08.02.2020
2938 Clouds 3 993 86 10000 6.7 250 21:19 08.02.2020
2939 Clouds 4 993 80 10000 8.2 260 20:55 08.02.2020
2940 Clouds 3 993 86 10000 7.2 270 20:37 08.02.2020
2941 Clouds 3 993 86 10000 7.2 270 20:18 08.02.2020
2942 Clouds 4 993 80 10000 7.7 260 19:54 08.02.2020
2943 Clouds 3 994 86 10000 6.2 260 19:36 08.02.2020
2944 Clouds 3 994 86 10000 6.2 260 19:18 08.02.2020
2945 Clouds 5 994 80 10000 6.2 270 18:42 08.02.2020
2946 Clouds 4 994 86 10000 8.2 270 18:22 08.02.2020
2947 Clouds 4 994 80 10000 12.3 270 17:43 08.02.2020
2948 Clouds 4 995 86 10000 14.4 270 17:21 08.02.2020
2949 Clouds 4 995 86 10000 14.4 270 16:58 08.02.2020
2950 Clouds 4 996 86 10000 12.3 270 16:38 08.02.2020
2951 Clouds 4 996 86 10000 12.3 270 16:20 08.02.2020
2952 Clouds 4 996 86 10000 12.3 270 15:42 08.02.2020
2953 Clouds 4 996 86 10000 11.8 270 15:19 08.02.2020
2954 Rain 4 996 86 10000 12.3 270 14:58 08.02.2020
2955 Rain 4 996 86 10000 12.9 270 14:39 08.02.2020
2956 Rain 4 996 86 10000 12.9 270 14:18 08.02.2020
2957 Rain 4 997 93 10000 12.3 270 13:43 08.02.2020
2958 Clouds 4 997 93 10000 12.3 270 13:23 08.02.2020
2959 Rain 4 997 93 10000 12.3 270 12:55 08.02.2020
2960 Rain 4 997 93 10000 12.9 270 12:36 08.02.2020
2961 Rain 4 997 93 10000 12.9 270 12:18 08.02.2020
2962 Rain 4 997 93 10000 12.3 270 11:41 08.02.2020
2963 Rain 4 997 93 10000 15.4 280 11:21 08.02.2020
2964 Drizzle 4 997 93 9000 16.5 280 10:43 08.02.2020
2965 Drizzle 4 997 93 10000 17.5 280 10:25 08.02.2020
2966 Rain 4 998 93 10000 15.9 270 09:55 08.02.2020
2967 Rain 4 998 93 10000 15.9 270 09:36 08.02.2020
2968 Rain 4 998 93 10000 15.9 270 09:18 08.02.2020
2969 Rain 4 997 86 10000 13.9 270 08:40 08.02.2020
2970 Drizzle 4 997 86 10000 14.9 260 08:22 08.02.2020
2971 Drizzle 4 997 86 10000 13.4 270 07:51 08.02.2020
2972 Drizzle 4 998 86 10000 15.4 270 07:33 08.02.2020
2973 Drizzle 4 998 86 10000 14.4 270 06:49 08.02.2020
2974 Drizzle 4 998 86 10000 14.4 270 06:21 08.02.2020
2975 Drizzle 4 999 86 10000 15.9 270 05:33 08.02.2020
2976 Drizzle 3 999 86 10000 11.8 240 04:53 08.02.2020
2977 Drizzle 3 999 86 10000 11.8 240 04:24 08.02.2020
2978 Drizzle 2 1000 95 10000 12.3 200 03:37 08.02.2020
2979 Drizzle 3 1001 95 10000 8.2 210 02:29 08.02.2020
2980 Drizzle 3 1001 95 10000 8.2 210 02:29 08.02.2020
2981 Rain 3 1002 97 10000 9.3 240 01:31 08.02.2020
2982 Clouds 4 1002 95 10000 8.7 220 00:47 08.02.2020
2983 Clouds 4 1002 80 10000 6.2 240 00:25 08.02.2020
2984 Clouds 3 1003 86 10000 9.3 260 23:58 07.02.2020
2985 Clouds 4 1003 80 10000 9.3 270 23:39 07.02.2020
2986 Clouds 4 1003 80 10000 9.3 270 23:20 07.02.2020
2987 Clouds 4 1003 80 10000 11.3 260 22:42 07.02.2020
2988 Clouds 4 1003 80 10000 12.9 270 22:42 07.02.2020
2989 Clouds 4 1003 80 10000 12.9 270 22:20 07.02.2020
2990 Clouds 4 1003 80 10000 14.9 280 21:58 07.02.2020
2991 Clouds 4 1003 80 10000 14.9 280 21:40 07.02.2020
2992 Clouds 4 1003 95 10000 18 290 21:19 07.02.2020
2993 Clouds 4 1003 69 10000 16.5 280 20:39 07.02.2020
2994 Clouds 4 1003 87 10000 15.9 280 20:20 07.02.2020
2995 Clouds 4 1003 86 10000 15.9 290 19:55 07.02.2020
2996 Clouds 4 1003 86 10000 17 290 19:37 07.02.2020
2997 Clouds 4 1003 86 10000 17 290 19:18 07.02.2020
2998 Clouds 4 1003 86 10000 16.5 290 18:44 07.02.2020
2999 Clouds 4 1003 86 10000 16.5 290 18:44 07.02.2020
3000 Clouds 4 1003 86 10000 17.5 290 18:25 07.02.2020
3001 Clouds 4 1002 86 10000 17.5 290 17:55 07.02.2020
3002 Clouds 4 1002 86 10000 19 300 17:37 07.02.2020
3003 Clouds 4 1002 82 10000 19 300 17:19 07.02.2020
3004 Rain 4 1001 69 10000 21.1 290 16:43 07.02.2020
3005 Rain 4 1001 69 10000 21.1 290 16:23 07.02.2020
3006 Rain 4 1000 82 10000 17.5 290 15:54 07.02.2020
3007 Rain 4 1000 80 10000 19 300 15:28 07.02.2020
3008 Rain 5 1000 82 10000 21.6 300 14:56 07.02.2020
3009 Clouds 4 1000 82 10000 19.5 300 14:38 07.02.2020
3010 Clouds 4 1000 82 10000 19.5 300 14:38 07.02.2020
3011 Clouds 4 1000 85 10000 19.5 300 14:19 07.02.2020
3012 Rain 4 999 80 10000 19.5 300 13:56 07.02.2020
3013 Rain 4 999 80 10000 21.1 290 13:38 07.02.2020
3014 Rain 4 999 80 10000 21.1 290 13:19 07.02.2020
3015 Rain 3 998 100 10000 13.4 270 12:42 07.02.2020
3016 Snow 1 999 100 2000 11.8 250 12:23 07.02.2020
3017 Snow 1 998 86 10000 11.3 230 11:45 07.02.2020
3018 Snow -1 998 86 10000 12.9 210 11:24 07.02.2020
3019 Snow -2 999 86 10000 13.4 190 10:58 07.02.2020
3020 Snow -2 999 86 10000 13.4 190 10:39 07.02.2020
3021 Snow -2 999 86 7000 10.8 190 10:19 07.02.2020
3022 Snow -3 1000 79 10000 11.8 190 09:45 07.02.2020
3023 Snow -3 1001 85 8000 11.3 190 09:25 07.02.2020
3024 Snow -3 1001 85 3000 12.9 190 08:50 07.02.2020
3025 Snow -3 1002 85 4300 10.3 180 08:24 07.02.2020
3026 Snow -3 1002 85 4300 10.3 180 08:24 07.02.2020
3027 Snow -3 1003 73 8000 10.8 190 07:55 07.02.2020
3028 Clouds -3 1004 68 10000 8.7 190 07:37 07.02.2020
3029 Clouds -3 1004 68 10000 8.7 190 07:18 07.02.2020
3030 Clouds -3 1005 73 10000 8.7 180 06:42 07.02.2020
3031 Clouds -3 1006 79 10000 8.7 190 06:21 07.02.2020
3032 Snow -3 1006 79 10000 8.2 190 05:43 07.02.2020
3033 Snow -3 1009 79 10000 7.7 190 03:55 07.02.2020
3034 Clouds -3 1011 86 10000 4.1 240 02:24 07.02.2020
3035 Rain -3 1012 79 10000 5.1 290 01:22 07.02.2020
3036 Clouds -4 1012 85 10000 4.6 300 00:37 07.02.2020
3037 Snow -3 1013 73 10000 5.7 280 23:39 06.02.2020
3038 Rain -4 1013 85 10000 5.7 280 23:39 06.02.2020
3039 Snow -3 1013 73 10000 5.7 280 23:20 06.02.2020
3040 Rain -3 1013 73 10000 4.1 280 22:58 06.02.2020
3041 Rain -3 1013 73 10000 4.1 280 22:40 06.02.2020
3042 Snow -3 1013 79 9000 4.1 320 22:21 06.02.2020
3043 Rain -4 1013 85 10000 6.7 300 21:37 06.02.2020
3044 Rain -4 1013 85 10000 6.7 300 21:19 06.02.2020
3045 Clouds -3 1013 79 10000 3.6 330 20:56 06.02.2020
3046 Rain -3 1013 79 10000 5.1 310 20:37 06.02.2020
3047 Rain -3 1013 79 10000 5.1 310 20:18 06.02.2020
3048 Snow -3 1013 85 10000 6.2 280 19:57 06.02.2020
3049 Clouds -3 1012 85 10000 5.7 290 19:39 06.02.2020
3050 Clouds -3 1012 85 10000 5.7 290 19:20 06.02.2020
3051 Rain -4 1012 85 10000 5.7 320 18:57 06.02.2020
3052 Rain -4 1012 85 10000 5.1 320 18:38 06.02.2020
3053 Clouds -4 1012 85 10000 6.2 340 18:19 06.02.2020
3054 Clouds -4 1012 85 10000 6.2 340 17:42 06.02.2020
3055 Snow -3 1011 79 10000 7.7 320 17:20 06.02.2020
3056 Rain -4 1011 73 10000 7.7 350 16:54 06.02.2020
3057 Snow -3 1011 63 10000 8.7 320 16:36 06.02.2020
3058 Snow -3 1011 63 10000 8.7 320 16:18 06.02.2020
3059 Rain -3 1011 58 10000 9.3 320 15:41 06.02.2020
3060 Rain -3 1011 58 10000 12.3 330 15:21 06.02.2020
3061 Rain -3 1010 68 10000 12.9 340 14:46 06.02.2020
3062 Snow -3 1010 62 10000 13.9 340 14:26 06.02.2020
3063 Rain -3 1009 58 10000 17 340 13:54 06.02.2020
3064 Rain -3 1009 53 10000 17 350 13:36 06.02.2020
3065 Rain -3 1009 53 10000 17 350 13:18 06.02.2020
3066 Rain -3 1008 58 10000 17.5 340 12:43 06.02.2020
3067 Rain -3 1007 63 10000 17.5 330 12:18 06.02.2020
3068 Rain -3 1006 73 10000 19.5 340 11:56 06.02.2020
3069 Rain -3 1006 73 10000 19.5 340 11:56 06.02.2020
3070 Rain -3 1005 79 10000 21.1 340 11:37 06.02.2020
3071 Rain -3 1005 79 10000 21.1 340 11:18 06.02.2020
3072 Snow -3 1004 86 3000 23.7 340 10:54 06.02.2020
3073 Snow -3 1003 86 10000 24.7 340 10:36 06.02.2020
3074 Snow -3 1003 86 10000 24.7 340 10:18 06.02.2020
3075 Snow -3 1003 86 10000 24.7 340 09:42 06.02.2020
3076 Clouds -3 1002 92 700 24.2 340 09:20 06.02.2020
3077 Snow -3 1001 92 400 20.1 340 08:47 06.02.2020
3078 Clouds -3 1000 85 10000 11.8 360 08:24 06.02.2020
3079 Snow -2 998 74 10000 17.5 360 07:57 06.02.2020
3080 Snow -3 998 79 10000 15.4 340 07:33 06.02.2020
3081 Snow -3 997 86 7000 18 330 06:54 06.02.2020
3082 Snow -3 996 86 2000 18.5 340 06:19 06.02.2020
3083 Clouds -4 995 92 1500 23.7 330 05:41 06.02.2020
3084 Snow -4 994 79 10000 24.7 330 04:18 06.02.2020
3085 Snow -5 993 85 2500 24.2 320 03:18 06.02.2020
3086 Snow -5 993 85 2500 24.2 320 03:18 06.02.2020
3087 Snow -6 993 67 10000 21.1 320 02:20 06.02.2020
3088 Snow -6 992 62 8000 22.1 320 01:24 06.02.2020
3089 Snow -6 991 73 9000 22.6 330 00:41 06.02.2020
3090 Snow -6 991 67 9000 22.1 330 00:19 06.02.2020
3091 Snow -5 991 67 10000 20.6 330 23:42 05.02.2020
3092 Clouds -4 990 62 10000 21.1 330 23:23 05.02.2020
3093 Rain -5 990 62 10000 20.6 330 22:54 05.02.2020
3094 Rain -5 990 62 6000 23.1 330 22:36 05.02.2020
3095 Rain -5 990 62 6000 23.1 330 22:36 05.02.2020
3096 Rain -5 990 62 6000 23.1 330 22:18 05.02.2020
3097 Rain -5 989 73 10000 19 320 21:40 05.02.2020
3098 Snow -5 989 79 5000 22.1 330 21:22 05.02.2020
3099 Snow -5 988 79 10000 20.1 330 20:55 05.02.2020
3100 Rain -6 988 85 10000 17.5 320 20:36 05.02.2020
3101 Rain -6 988 85 10000 17.5 320 20:18 05.02.2020
3102 Snow -5 988 85 400 15.4 330 19:55 05.02.2020
3103 Snow -6 988 92 3500 17.5 300 19:36 05.02.2020
3104 Snow -6 988 92 3500 17.5 300 19:18 05.02.2020
3105 Snow -6 988 92 3500 18.5 290 18:43 05.02.2020
3106 Snow -5 988 79 10000 17.5 300 18:20 05.02.2020
3107 Snow -5 988 73 1500 21.6 310 17:55 05.02.2020
3108 Rain -5 988 62 10000 21.1 320 17:36 05.02.2020
3109 Rain -5 988 62 10000 21.1 320 17:18 05.02.2020
3110 Rain -6 987 73 5000 26.7 330 16:42 05.02.2020
3111 Rain -6 987 73 5000 26.7 330 16:24 05.02.2020
3112 Snow -7 986 92 4000 21.1 330 15:57 05.02.2020
3113 Snow -7 986 92 400 19.5 320 15:38 05.02.2020
3114 Snow -7 986 92 400 19.5 320 15:18 05.02.2020
3115 Snow -6 985 79 700 19.5 300 14:42 05.02.2020
3116 Rain -5 985 53 10000 13.9 300 14:23 05.02.2020
3117 Rain -6 985 62 10000 17 290 13:57 05.02.2020
3118 Rain -6 985 62 10000 18 300 13:38 05.02.2020
3119 Rain -6 985 62 10000 18 300 13:19 05.02.2020
3120 Snow -7 985 85 4000 11.3 290 12:40 05.02.2020
3121 Snow -7 985 85 4000 11.3 290 12:22 05.02.2020
3122 Rain -7 985 73 10000 11.8 300 11:42 05.02.2020
3123 Rain -7 985 67 10000 13.9 290 11:24 05.02.2020
3124 Snow -7 985 85 7000 14.9 300 10:59 05.02.2020
3125 Rain -7 985 79 9000 13.9 290 10:39 05.02.2020
3126 Rain -7 985 79 9000 13.9 290 10:19 05.02.2020
3127 Rain -7 985 79 9000 13.9 290 10:19 05.02.2020
3128 Clouds -6 985 67 1500 14.9 290 09:44 05.02.2020
3129 Rain -7 985 79 10000 16.5 300 09:22 05.02.2020
3130 Snow -6 985 73 1000 18 310 08:58 05.02.2020
3131 Rain -6 984 79 9000 18 300 08:39 05.02.2020
3132 Rain -6 984 79 9000 18 300 08:21 05.02.2020
3133 Snow -6 985 85 2000 20.6 300 07:43 05.02.2020
3134 Clouds -6 984 73 8000 18 260 07:20 05.02.2020
3135 Snow -5 985 79 8000 14.9 280 06:42 05.02.2020
3136 Clouds -6 985 92 2000 17.5 290 06:21 05.02.2020
3137 Snow -6 985 92 1500 13.4 220 05:48 05.02.2020
3138 Snow -6 985 92 1500 13.4 220 05:18 05.02.2020
3139 Snow -6 985 85 5000 14.4 220 04:41 05.02.2020
3140 Clouds -6 987 73 10000 12.3 190 03:18 05.02.2020
3141 Snow -6 989 85 10000 9.8 220 02:23 05.02.2020
3142 Clouds -6 990 73 10000 8.2 250 01:35 05.02.2020
3143 Clouds -6 991 62 10000 7.7 290 00:33 05.02.2020
3144 Clouds -5 991 57 10000 8.7 310 23:42 04.02.2020
3145 Clouds -5 991 67 10000 9.3 320 23:23 04.02.2020
3146 Clouds -5 991 79 10000 12.3 310 22:58 04.02.2020
3147 Clouds -5 991 79 10000 12.3 330 22:40 04.02.2020
3148 Clouds -5 991 79 10000 12.3 330 22:21 04.02.2020
3149 Snow -6 991 85 5000 14.9 330 21:57 04.02.2020
3150 Snow -5 990 73 6000 13.9 330 21:39 04.02.2020
3151 Snow -5 990 73 6000 13.9 330 21:19 04.02.2020
3152 Rain -5 990 85 10000 15.9 340 20:57 04.02.2020
3153 Snow -6 989 85 5000 15.4 350 20:37 04.02.2020
3154 Snow -6 989 85 4000 18 350 20:19 04.02.2020
3155 Snow -6 989 85 4000 18 350 19:55 04.02.2020
3156 Snow -6 988 92 500 21.6 350 19:36 04.02.2020
3157 Snow -6 988 92 500 21.6 350 19:18 04.02.2020
3158 Snow -6 987 85 500 7.7 230 18:41 04.02.2020
3159 Clouds -6 987 79 10000 8.7 200 18:22 04.02.2020
3160 Clouds -6 987 79 10000 8.7 200 18:22 04.02.2020
3161 Clouds -5 988 73 10000 10.8 200 17:58 04.02.2020
3162 Snow -5 989 73 8000 9.3 200 17:40 04.02.2020
3163 Snow -5 989 73 8000 9.3 200 17:20 04.02.2020
3164 Rain -5 989 62 10000 6.7 180 16:39 04.02.2020
3165 Rain -5 989 62 10000 6.7 180 16:21 04.02.2020
3166 Rain -4 990 67 10000 8.2 190 15:58 04.02.2020
3167 Rain -4 990 67 10000 8.2 190 15:58 04.02.2020
3168 Rain -4 990 67 10000 8.2 190 15:39 04.02.2020
3169 Rain -4 991 73 10000 8.7 200 15:20 04.02.2020
3170 Rain -4 991 67 10000 7.7 190 14:57 04.02.2020
3171 Rain -4 992 67 10000 8.2 200 14:39 04.02.2020
3172 Rain -4 992 67 10000 8.2 200 14:20 04.02.2020
3173 Rain -4 992 85 10000 7.7 190 13:41 04.02.2020
3174 Snow -5 993 92 3500 10.8 210 13:23 04.02.2020
3175 Rain -4 993 62 10000 7.2 250 12:59 04.02.2020
3176 Rain -4 993 62 10000 7.2 250 12:59 04.02.2020
3177 Rain -5 993 73 10000 6.2 260 12:41 04.02.2020
3178 Rain -4 993 62 10000 7.2 250 12:41 04.02.2020
3179 Rain -5 993 73 10000 6.2 260 12:22 04.02.2020
3180 Rain -4 993 68 10000 9.8 260 11:56 04.02.2020
3181 Rain -4 993 62 10000 9.8 280 11:37 04.02.2020
3182 Rain -4 993 62 10000 9.8 280 11:19 04.02.2020
3183 Rain -4 993 73 10000 12.3 300 10:46 04.02.2020
3184 Rain -4 994 73 10000 14.4 300 10:26 04.02.2020
3185 Rain -4 993 68 10000 13.4 290 09:57 04.02.2020
3186 Rain -5 993 79 10000 14.9 300 09:39 04.02.2020
3187 Rain -5 993 79 10000 14.9 300 09:20 04.02.2020
3188 Snow -4 993 68 500 17.5 290 08:45 04.02.2020
3189 Snow -4 993 85 7000 12.3 300 08:27 04.02.2020
3190 Snow -4 992 79 1500 15.9 310 07:52 04.02.2020
3191 Rain -5 992 73 10000 15.9 300 07:25 04.02.2020
3192 Rain -5 992 85 10000 11.8 300 06:54 04.02.2020
3193 Snow -4 992 73 1500 13.9 300 06:36 04.02.2020
3194 Rain -6 992 85 10000 10.8 300 05:34 04.02.2020
3195 Snow -5 992 79 6000 10.3 320 04:27 04.02.2020
3196 Rain -6 992 92 10000 7.7 290 03:47 04.02.2020
3197 Rain -6 992 92 10000 7.7 290 03:29 04.02.2020
3198 Rain -6 992 85 10000 6.2 300 02:38 04.02.2020
3199 Rain -6 992 85 10000 6.2 300 02:18 04.02.2020
3200 Clouds -5 992 67 10000 7.2 300 01:44 04.02.2020
3201 Rain -5 992 79 10000 10.3 330 00:55 04.02.2020
3202 Rain -6 992 92 10000 5.7 300 00:23 04.02.2020
3203 Snow -6 992 92 6000 8.2 300 23:48 03.02.2020
3204 Clouds -4 992 62 10000 9.8 310 23:28 03.02.2020
3205 Rain -5 992 73 10000 9.8 330 22:58 03.02.2020
3206 Clouds -4 992 68 10000 8.2 320 22:38 03.02.2020
3207 Clouds -4 992 68 10000 8.2 320 22:19 03.02.2020
3208 Clouds -5 992 79 10000 11.3 330 21:41 03.02.2020
3209 Clouds -4 992 79 10000 9.3 330 21:20 03.02.2020
3210 Snow -5 992 79 10000 11.3 320 20:55 03.02.2020
3211 Clouds -4 992 68 10000 10.8 330 20:37 03.02.2020
3212 Clouds -4 992 68 10000 10.8 330 20:18 03.02.2020
3213 Rain -4 992 62 10000 12.3 310 19:41 03.02.2020
3214 Clouds -4 992 73 10000 11.3 320 19:22 03.02.2020
3215 Clouds -4 992 79 10000 12.3 310 18:57 03.02.2020
3216 Snow -4 991 73 2000 11.3 310 18:38 03.02.2020
3217 Snow -4 991 73 2000 11.3 310 18:20 03.02.2020
3218 Snow -4 992 85 10000 13.9 330 17:56 03.02.2020
3219 Clouds -4 991 85 10000 9.8 330 17:38 03.02.2020
3220 Clouds -4 991 85 10000 9.8 330 17:19 03.02.2020
3221 Snow -4 991 85 10000 12.3 320 16:40 03.02.2020
3222 Rain -4 991 85 10000 11.3 330 16:21 03.02.2020
3223 Snow -4 991 92 2000 13.4 320 15:56 03.02.2020
3224 Snow -4 990 92 9000 9.8 310 15:38 03.02.2020
3225 Snow -4 990 92 9000 9.8 310 15:19 03.02.2020
3226 Snow -4 991 92 10000 10.8 330 14:56 03.02.2020
3227 Rain -3 990 79 10000 12.3 330 14:37 03.02.2020
3228 Rain -3 990 79 10000 12.3 330 14:19 03.02.2020
3229 Rain -4 990 92 10000 7.7 320 13:42 03.02.2020
3230 Rain -3 990 85 10000 14.9 320 13:21 03.02.2020
3231 Rain -3 989 85 10000 9.8 320 12:58 03.02.2020
3232 Rain -3 989 85 10000 9.8 320 12:39 03.02.2020
3233 Rain -3 989 85 10000 6.2 330 12:21 03.02.2020
3234 Snow -3 989 79 1500 11.3 330 11:55 03.02.2020
3235 Snow -3 988 73 8000 13.9 330 11:36 03.02.2020
3236 Snow -3 988 73 8000 13.9 330 11:36 03.02.2020
3237 Snow -3 988 73 8000 13.9 330 11:18 03.02.2020
3238 Rain -2 988 63 10000 11.3 330 10:40 03.02.2020
3239 Rain -3 988 68 10000 13.9 330 10:21 03.02.2020
3240 Rain -2 987 58 10000 15.4 350 09:46 03.02.2020
3241 Rain -2 987 58 10000 15.4 340 09:23 03.02.2020
3242 Rain -2 986 63 10000 13.4 340 08:55 03.02.2020
3243 Snow -2 986 68 10000 12.3 340 08:37 03.02.2020
3244 Snow -2 986 68 10000 12.3 340 08:18 03.02.2020
3245 Rain -1 985 58 10000 13.4 330 07:40 03.02.2020
3246 Snow -1 985 63 3500 11.3 340 07:21 03.02.2020
3247 Rain -1 984 63 10000 10.8 340 06:50 03.02.2020
3248 Snow -1 984 63 10000 11.3 320 06:28 03.02.2020
3249 Snow -2 984 92 9000 10.3 350 05:37 03.02.2020
3250 Snow -2 984 92 9000 10.3 350 05:18 03.02.2020
3251 Snow -1 983 68 10000 12.3 320 03:42 03.02.2020
3252 Snow -1 982 86 4500 13.4 320 02:35 03.02.2020
3253 Rain -1 982 92 10000 14.9 320 01:42 03.02.2020
3254 Snow -1 981 92 1200 14.4 320 00:47 03.02.2020
3255 Snow 0 980 83 1800 12.3 320 00:24 03.02.2020
3256 Rain 1 980 74 10000 12.3 310 23:39 02.02.2020
3257 Rain 1 979 80 10000 13.9 340 23:21 02.02.2020
3258 Snow 1 979 86 7000 12.9 330 22:58 02.02.2020
3259 Clouds 0 978 83 5000 11.3 330 22:38 02.02.2020
3260 Clouds 0 978 83 5000 11.3 330 22:19 02.02.2020
3261 Snow 1 978 86 4500 14.4 330 21:55 02.02.2020
3262 Snow 1 978 80 6000 12.3 330 21:37 02.02.2020
3263 Snow 1 978 80 6000 12.3 330 21:19 02.02.2020
3264 Snow 1 977 83 4000 11.8 330 20:55 02.02.2020
3265 Snow 0 977 83 1500 10.3 330 20:37 02.02.2020
3266 Snow 0 977 86 1500 10.3 330 20:19 02.02.2020
3267 Clouds 2 976 74 10000 9.8 330 19:55 02.02.2020
3268 Clouds 1 975 86 10000 8.7 330 19:37 02.02.2020
3269 Clouds 1 975 86 10000 8.7 330 19:18 02.02.2020
3270 Clouds 2 975 86 10000 8.7 330 18:39 02.02.2020
3271 Clouds 2 975 86 10000 9.8 300 18:21 02.02.2020
3272 Snow 2 975 86 5000 11.3 280 17:58 02.02.2020
3273 Snow 1 975 86 4000 9.8 260 17:38 02.02.2020
3274 Snow 1 975 96 4000 9.8 260 17:19 02.02.2020
3275 Snow 0 974 100 2000 9.3 250 16:58 02.02.2020
3276 Snow 0 974 100 2000 9.3 250 16:39 02.02.2020
3277 Snow 0 974 100 2000 9.3 250 16:19 02.02.2020
3278 Snow 0 974 92 5000 9.3 220 15:59 02.02.2020
3279 Snow 0 974 92 5000 9.3 220 15:39 02.02.2020
3280 Snow 0 974 92 5000 9.3 220 15:20 02.02.2020
3281 Rain -2 974 79 10000 9.8 220 14:57 02.02.2020
3282 Rain -3 973 79 10000 9.3 210 14:39 02.02.2020
3283 Rain -3 973 79 10000 9.3 210 14:18 02.02.2020
3284 Rain -3 973 79 10000 8.2 210 13:55 02.02.2020
3285 Clouds -3 973 73 10000 7.7 210 13:36 02.02.2020
3286 Clouds -3 973 73 10000 7.7 210 13:18 02.02.2020
3287 Clouds -4 973 79 10000 8.7 210 12:42 02.02.2020
3288 Clouds -4 973 73 10000 9.3 210 12:22 02.02.2020
3289 Clouds -5 973 73 10000 9.3 210 11:58 02.02.2020
3290 Clouds -5 973 73 10000 9.3 210 11:39 02.02.2020
3291 Clouds -5 973 73 10000 9.3 210 11:18 02.02.2020
3292 Clouds -5 973 73 10000 10.3 210 10:55 02.02.2020
3293 Clouds -5 973 73 10000 10.3 210 10:55 02.02.2020
3294 Clouds -5 973 73 10000 8.7 200 10:36 02.02.2020
3295 Clouds -5 973 73 10000 8.7 200 10:18 02.02.2020
3296 Clouds -6 973 73 10000 9.8 200 09:41 02.02.2020
3297 Clouds -6 972 73 10000 9.3 200 09:21 02.02.2020
3298 Clouds -6 972 73 10000 6.2 200 08:58 02.02.2020
3299 Clouds -6 972 73 10000 6.2 200 08:40 02.02.2020
3300 Snow -6 972 73 10000 8.7 200 08:21 02.02.2020
3301 Snow -6 972 73 10000 8.7 200 07:45 02.02.2020
3302 Snow -6 972 73 10000 7.7 200 07:27 02.02.2020
3303 Snow -6 972 67 10000 8.2 200 06:41 02.02.2020
3304 Snow -6 972 67 10000 8.7 190 06:23 02.02.2020
3305 Snow -6 973 67 10000 10.3 190 05:47 02.02.2020
3306 Clouds -6 972 67 10000 13.4 190 04:38 02.02.2020
3307 Clouds -7 972 73 10000 18.5 190 03:25 02.02.2020
3308 Clouds -7 973 73 10000 17 180 02:27 02.02.2020
3309 Clouds -7 973 67 10000 17.5 180 01:52 02.02.2020
3310 Clouds -7 973 67 10000 17.5 180 01:52 02.02.2020
3311 Clouds -7 974 67 10000 17.5 190 01:19 02.02.2020
3312 Clouds -7 974 67 10000 13.9 180 00:43 02.02.2020
3313 Clouds -7 974 67 10000 14.4 170 00:20 02.02.2020
3314 Clouds -7 975 73 10000 14.4 180 23:45 01.02.2020
3315 Snow -6 974 67 10000 11.3 160 23:21 01.02.2020
3316 Snow -7 975 67 10000 11.8 180 22:50 01.02.2020
3317 Snow -7 975 67 10000 14.4 180 22:19 01.02.2020
3318 Snow -7 975 67 10000 14.4 180 22:19 01.02.2020
3319 Snow -7 976 67 10000 13.4 180 21:45 01.02.2020
3320 Snow -7 977 67 10000 11.8 170 21:20 01.02.2020
3321 Snow -7 977 67 10000 11.8 170 21:20 01.02.2020
3322 Snow -7 977 67 10000 13.9 180 20:58 01.02.2020
3323 Snow -7 977 67 10000 13.9 180 20:40 01.02.2020
3324 Clouds -7 976 73 10000 18.5 190 20:20 01.02.2020
3325 Clouds -7 977 73 10000 16.5 180 19:57 01.02.2020
3326 Clouds -7 977 73 10000 18 180 19:38 01.02.2020
3327 Clouds -7 977 73 10000 18 180 19:19 01.02.2020
3328 Clouds -7 977 73 10000 13.9 180 18:57 01.02.2020
3329 Clouds -7 978 67 10000 20.1 180 18:38 01.02.2020
3330 Clouds -7 978 67 10000 20.1 180 18:20 01.02.2020
3331 Clouds -7 978 67 10000 20.1 190 17:56 01.02.2020
3332 Clouds -7 978 67 10000 21.6 190 17:38 01.02.2020
3333 Clouds -7 978 67 10000 21.6 190 17:19 01.02.2020
3334 Clouds -7 979 67 10000 23.1 190 16:42 01.02.2020
3335 Clouds -7 979 73 10000 22.1 190 16:23 01.02.2020
3336 Clouds -6 979 67 10000 19.5 190 15:58 01.02.2020
3337 Clouds -7 979 67 10000 20.6 190 15:38 01.02.2020
3338 Clouds -7 979 67 10000 20.6 190 15:18 01.02.2020
3339 Clouds -7 979 73 10000 22.1 190 14:41 01.02.2020
3340 Clouds -6 978 67 10000 17.5 180 14:21 01.02.2020
3341 Clouds -6 978 67 10000 23.7 190 13:45 01.02.2020
3342 Clouds -6 980 67 10000 20.6 190 13:24 01.02.2020
3343 Clouds -7 981 73 10000 22.1 190 12:59 01.02.2020
3344 Clouds -7 981 73 10000 22.1 190 12:41 01.02.2020
3345 Clouds -7 980 73 10000 25.2 190 12:22 01.02.2020
3346 Clouds -7 980 73 10000 25.2 190 12:22 01.02.2020
3347 Clouds -7 980 73 10000 26.7 190 11:44 01.02.2020
3348 Clouds -7 981 73 10000 25.2 190 11:24 01.02.2020
3349 Clouds -7 981 73 10000 23.1 190 10:59 01.02.2020
3350 Clouds -7 981 73 10000 23.1 190 10:41 01.02.2020
3351 Clouds -7 982 73 10000 25.2 190 10:22 01.02.2020
3352 Clouds -8 982 72 10000 26.2 190 09:59 01.02.2020
3353 Clouds -8 982 78 10000 27.8 190 09:40 01.02.2020
3354 Clouds -8 982 78 10000 27.8 190 09:21 01.02.2020
3355 Clouds -7 982 73 10000 27.3 190 08:54 01.02.2020
3356 Clouds -7 983 73 10000 25.2 170 07:59 01.02.2020
3357 Clouds -8 984 72 10000 22.1 180 07:40 01.02.2020
3358 Clouds -8 984 72 10000 22.1 180 07:22 01.02.2020
3359 Clouds -7 986 73 10000 20.6 180 06:43 01.02.2020
3360 Clouds -7 986 73 10000 15.9 170 05:54 01.02.2020
3361 Clouds -7 986 73 10000 15.9 170 05:54 01.02.2020
3362 Clouds -7 987 79 10000 21.6 180 04:22 01.02.2020
3363 Clouds -12 989 88 0 12.3 167 04:22 01.02.2020
3364 Clouds -7 987 79 10000 21.6 180 03:25 01.02.2020
3365 Clouds -7 989 73 10000 22.6 190 02:53 01.02.2020
3366 Clouds -7 989 73 10000 22.6 190 02:31 01.02.2020
3367 Clouds -8 990 72 10000 17 190 01:59 01.02.2020
3368 Clouds -8 990 72 10000 17 190 01:38 01.02.2020
3369 Clouds -8 991 72 10000 20.6 190 00:46 01.02.2020
3370 Clouds -8 991 72 10000 20.6 180 00:23 01.02.2020
3371 Clouds -7 991 67 10000 24.2 180 23:39 31.01.2020
3372 Clouds -7 991 67 10000 24.2 180 23:18 31.01.2020
3373 Clouds -6 991 72 10000 22.6 190 22:56 31.01.2020
3374 Clouds -6 992 72 10000 20.6 180 22:37 31.01.2020
3375 Clouds -6 992 72 10000 20.6 180 22:19 31.01.2020
3376 Clouds -6 992 72 10000 21.1 180 21:40 31.01.2020
3377 Clouds -6 992 72 10000 21.1 180 21:40 31.01.2020
3378 Clouds -6 994 72 10000 18.5 190 21:21 31.01.2020
3379 Clouds -6 993 72 10000 20.6 190 20:57 31.01.2020
3380 Clouds -6 993 72 10000 20.6 190 20:39 31.01.2020
3381 Clouds -6 993 72 10000 21.1 190 20:21 31.01.2020
3382 Clouds -6 994 72 10000 19 180 19:57 31.01.2020
3383 Clouds -6 994 72 10000 15.4 180 19:38 31.01.2020
3384 Clouds -6 994 72 10000 15.4 180 19:20 31.01.2020
3385 Clouds -6 995 72 10000 14.4 180 18:56 31.01.2020
3386 Clouds -5 995 67 10000 15.9 180 18:36 31.01.2020
3387 Clouds -5 995 67 10000 15.9 180 18:18 31.01.2020
3388 Clouds -6 994 67 10000 17 190 17:43 31.01.2020
3389 Clouds -6 994 72 10000 19.5 190 17:24 31.01.2020
3390 Clouds -5 994 67 10000 19.5 180 16:57 31.01.2020
3391 Clouds -5 995 67 10000 19 180 16:38 31.01.2020
3392 Clouds -5 995 67 10000 19 180 16:19 31.01.2020
3393 Clouds -5 996 67 10000 21.6 190 15:57 31.01.2020
3394 Clouds -5 996 67 10000 21.6 190 15:57 31.01.2020
3395 Clouds -5 995 67 10000 22.6 190 15:38 31.01.2020
3396 Clouds -5 995 67 10000 22.6 190 15:19 31.01.2020
3397 Clouds -5 995 67 10000 17.5 180 14:42 31.01.2020
3398 Clouds -7 996 67 10000 7.2 170 14:23 31.01.2020
3399 Clouds -7 997 67 10000 9.3 160 13:54 31.01.2020
3400 Clouds -7 997 67 10000 14.4 170 13:34 31.01.2020
3401 Clouds -6 997 67 10000 17 180 12:59 31.01.2020
3402 Clouds -6 997 67 10000 17 180 12:41 31.01.2020
3403 Clouds -6 997 67 10000 15.9 180 12:22 31.01.2020
3404 Clouds -6 997 67 10000 15.4 180 11:45 31.01.2020
3405 Clouds -6 997 67 10000 14.4 180 11:26 31.01.2020
3406 Clouds -6 998 67 10000 13.9 180 10:59 31.01.2020
3407 Clouds -5 998 67 10000 13.9 180 10:41 31.01.2020
3408 Clouds -5 999 73 10000 19.5 180 10:21 31.01.2020
3409 Clouds -4 998 67 10000 19 180 09:57 31.01.2020
3410 Clouds -5 998 73 10000 23.1 190 09:38 31.01.2020
3411 Clouds -5 998 73 10000 23.1 190 09:19 31.01.2020
3412 Clouds -4 998 67 10000 22.1 190 08:50 31.01.2020
3413 Clouds -4 998 73 10000 20.1 180 08:27 31.01.2020
3414 Clouds -5 998 73 10000 19.5 190 07:53 31.01.2020
3415 Clouds -6 998 73 10000 23.7 190 07:25 31.01.2020
3416 Clouds -6 997 73 10000 23.7 190 06:48 31.01.2020
3417 Clouds -6 997 73 10000 21.6 190 06:18 31.01.2020
3418 Clouds -5 998 73 10000 17.5 190 05:46 31.01.2020
3419 Clouds -5 998 67 10000 19.5 190 04:55 31.01.2020
3420 Clouds -5 998 67 10000 23.1 190 02:58 31.01.2020
3421 Clouds -5 998 67 10000 21.6 180 01:38 31.01.2020
3422 Clouds -5 999 67 10000 20.6 190 00:46 31.01.2020
3423 Clouds -5 999 67 10000 17 180 00:26 31.01.2020
3424 Clouds -5 1000 67 10000 17 180 23:57 30.01.2020
3425 Clouds -3 1000 73 10000 19 180 23:24 30.01.2020
3426 Clouds -3 999 73 10000 18 190 22:57 30.01.2020
3427 Clouds -3 999 73 10000 18 190 22:57 30.01.2020
3428 Clouds -3 1001 73 10000 16.5 180 22:36 30.01.2020
3429 Clouds -3 1001 73 10000 16.5 180 22:18 30.01.2020
3430 Clouds -3 1001 73 10000 15.9 180 21:55 30.01.2020
3431 Clouds -3 1000 67 10000 16.5 180 21:37 30.01.2020
3432 Clouds -3 1000 67 10000 16.5 180 21:18 30.01.2020
3433 Clouds -4 1000 67 10000 15.9 190 20:40 30.01.2020
3434 Clouds -4 1000 67 10000 15.9 190 20:22 30.01.2020
3435 Clouds -4 1000 67 10000 15.9 190 20:22 30.01.2020
3436 Clouds -3 1000 67 10000 20.1 190 19:57 30.01.2020
3437 Clouds -4 1001 73 10000 21.6 190 19:39 30.01.2020
3438 Clouds -3 1001 73 10000 21.6 190 19:18 30.01.2020
3439 Clouds -3 1001 73 10000 19 190 18:42 30.01.2020
3440 Clouds -3 1000 73 10000 19 190 18:22 30.01.2020
3441 Clouds -3 1001 67 10000 18 180 17:58 30.01.2020
3442 Clouds -3 1001 67 10000 19 190 17:39 30.01.2020
3443 Clouds -3 1001 67 10000 19 190 17:19 30.01.2020
3444 Clouds -3 1001 67 10000 19 190 17:19 30.01.2020
3445 Clouds -3 1000 67 10000 18 190 16:58 30.01.2020
3446 Clouds -4 1001 73 10000 20.1 190 16:38 30.01.2020
3447 Clouds -3 1001 73 10000 20.1 190 16:20 30.01.2020
3448 Clouds -4 1001 73 10000 16.5 190 15:44 30.01.2020
3449 Clouds -3 1001 73 10000 18.5 190 15:20 30.01.2020
3450 Clouds -3 1001 73 10000 16.5 190 14:50 30.01.2020
3451 Clouds -3 1002 73 10000 18 190 14:27 30.01.2020
3452 Clouds -6 1002 73 10000 17.5 190 13:58 30.01.2020
3453 Clouds -5 1002 67 10000 19 190 13:38 30.01.2020
3454 Clouds -4 1002 67 10000 19 190 13:20 30.01.2020
3455 Clouds -4 1001 73 10000 19 190 12:43 30.01.2020
3456 Clouds -3 1001 73 10000 19 190 12:25 30.01.2020
3457 Clouds -4 1002 67 10000 17.5 190 11:59 30.01.2020
3458 Clouds -4 1002 67 10000 17.5 190 11:40 30.01.2020
3459 Clouds -4 1002 73 10000 15.4 190 11:21 30.01.2020
3460 Clouds -5 1002 73 10000 16.5 180 10:57 30.01.2020
3461 Clouds -5 1003 73 10000 14.9 190 10:38 30.01.2020
3462 Clouds -5 1003 73 10000 14.9 190 10:19 30.01.2020
3463 Clouds -4 1003 73 10000 18 190 09:43 30.01.2020
3464 Clouds -4 1004 73 10000 19 190 09:22 30.01.2020
3465 Clouds -4 1004 73 10000 14.9 180 08:42 30.01.2020
3466 Clouds -5 1003 67 10000 14.9 180 08:22 30.01.2020
3467 Clouds -5 1004 72 10000 17.5 180 07:53 30.01.2020
3468 Clouds -8 1004 72 10000 19.5 190 07:35 30.01.2020
3469 Clouds -8 1004 72 10000 19.5 190 06:56 30.01.2020
3470 Clouds -8 1003 72 10000 19.5 190 06:33 30.01.2020
3471 Clouds -8 1004 72 10000 15.9 180 05:53 30.01.2020
3472 Clouds -8 1004 72 10000 15.9 180 05:28 30.01.2020
3473 Clouds -8 1004 72 10000 17 190 04:49 30.01.2020
3474 Clouds -8 1004 72 10000 13.9 180 03:47 30.01.2020
3475 Clouds -8 1004 72 10000 17 180 02:55 30.01.2020
3476 Snow -8 1004 72 10000 19 190 00:57 30.01.2020
3477 Snow -8 1004 72 10000 19.5 190 00:28 30.01.2020
3478 Snow -8 1003 72 10000 19.5 190 23:56 29.01.2020
3479 Snow -6 1003 72 10000 19.5 190 23:38 29.01.2020
3480 Clouds -6 1003 72 10000 19.5 190 23:20 29.01.2020
3481 Clouds -6 1004 72 10000 19 180 22:55 29.01.2020
3482 Clouds -6 1004 72 10000 18.5 180 22:37 29.01.2020
3483 Clouds -6 1004 72 10000 18.5 180 22:18 29.01.2020
3484 Clouds -6 1004 72 10000 18.5 180 21:54 29.01.2020
3485 Clouds -6 1004 67 10000 19.5 180 21:36 29.01.2020
3486 Clouds -6 1004 67 10000 19.5 180 21:18 29.01.2020
3487 Clouds -6 1004 67 10000 19.5 180 21:18 29.01.2020
3488 Clouds -6 1004 67 10000 18 180 20:40 29.01.2020
3489 Snow -8 1004 72 10000 17 180 20:21 29.01.2020
3490 Snow -9 1004 78 10000 17 180 19:58 29.01.2020
3491 Clouds -9 1004 72 10000 15.9 170 19:38 29.01.2020
3492 Clouds -9 1004 72 10000 15.9 170 19:38 29.01.2020
3493 Clouds -9 1004 72 10000 15.9 170 19:20 29.01.2020
3494 Clouds -9 1004 78 10000 15.4 180 18:58 29.01.2020
3495 Snow -9 1004 78 10000 16.5 170 18:38 29.01.2020
3496 Snow -9 1004 78 10000 16.5 170 18:18 29.01.2020
3497 Snow -7 1004 72 10000 18 170 17:41 29.01.2020
3498 Clouds -7 1004 72 10000 18 170 17:22 29.01.2020
3499 Clouds -7 1004 72 10000 18 180 16:54 29.01.2020
3500 Clouds -7 1004 72 10000 15.9 170 16:36 29.01.2020
3501 Clouds -7 1004 72 10000 15.9 170 16:18 29.01.2020
3502 Clouds -7 1004 72 10000 17 170 15:39 29.01.2020
3503 Clouds -6 1004 72 10000 19.5 160 15:21 29.01.2020
3504 Clouds -6 1004 72 10000 19.5 160 15:21 29.01.2020
3505 Clouds -7 1005 72 10000 20.6 160 14:46 29.01.2020
3506 Clouds -8 1005 72 10000 18.5 170 14:23 29.01.2020
3507 Clouds -7 1005 72 10000 18 170 13:57 29.01.2020
3508 Clouds -7 1005 72 10000 18 170 13:57 29.01.2020
3509 Clouds -7 1005 72 10000 18 170 13:39 29.01.2020
3510 Clouds -8 1005 78 10000 17 170 13:21 29.01.2020
3511 Clouds -7 1005 78 10000 21.1 170 12:56 29.01.2020
3512 Clouds -7 1005 78 10000 18 170 12:37 29.01.2020
3513 Clouds -7 1005 78 10000 18 170 12:19 29.01.2020
3514 Clouds -7 1004 78 5000 18.5 170 11:47 29.01.2020
3515 Clouds -7 1004 78 2200 18 170 11:24 29.01.2020
3516 Clouds -7 1004 72 8000 17 180 10:54 29.01.2020
3517 Clouds -7 1004 78 7000 15.4 170 10:36 29.01.2020
3518 Clouds -7 1004 78 7000 15.4 170 10:36 29.01.2020
3519 Clouds -7 1004 78 7000 15.4 170 10:18 29.01.2020
3520 Clouds -7 1004 78 6000 14.4 170 09:40 29.01.2020
3521 Clouds -7 1004 78 6000 14.4 170 09:21 29.01.2020
3522 Clouds -7 1005 78 10000 13.9 170 08:57 29.01.2020
3523 Clouds -7 1005 78 10000 13.9 170 08:38 29.01.2020
3524 Clouds -6 1005 72 10000 16.5 160 08:20 29.01.2020
3525 Clouds -6 1005 72 10000 18.5 160 07:44 29.01.2020
3526 Clouds -8 1005 72 10000 18.5 150 07:24 29.01.2020
3527 Clouds -9 1005 78 10000 19.5 160 06:54 29.01.2020
3528 Clouds -9 1005 78 10000 20.1 150 06:36 29.01.2020
3529 Clouds -9 1005 78 10000 20.1 150 06:18 29.01.2020
3530 Snow -9 1005 78 10000 20.6 150 05:43 29.01.2020
3531 Clouds -10 1006 78 10000 15.9 150 05:25 29.01.2020
3532 Clouds -10 1006 78 10000 13.9 140 04:37 29.01.2020
3533 Snow -11 1006 78 10000 17 140 02:43 29.01.2020
3534 Clouds -11 1006 72 10000 19 140 02:18 29.01.2020
3535 Snow -11 1007 66 10000 17 130 00:43 29.01.2020
3536 Clouds -11 1007 66 10000 17.5 130 00:24 29.01.2020
3537 Clouds -11 1007 61 10000 16.5 130 23:56 28.01.2020
3538 Clouds -11 1007 61 10000 19.5 130 23:37 28.01.2020
3539 Clouds -9 1007 61 10000 19.5 130 23:18 28.01.2020
3540 Clouds -8 1007 61 10000 20.1 130 22:40 28.01.2020
3541 Clouds -8 1007 72 9000 20.1 130 22:21 28.01.2020
3542 Clouds -8 1007 72 10000 17.5 130 21:42 28.01.2020
3543 Clouds -8 1007 72 10000 18.5 130 21:22 28.01.2020
3544 Clouds -9 1008 72 8000 18.5 130 20:58 28.01.2020
3545 Clouds -9 1008 72 8000 18.5 130 20:40 28.01.2020
3546 Clouds -8 1008 72 10000 19 130 20:21 28.01.2020
3547 Clouds -9 1008 72 10000 19 130 19:39 28.01.2020
3548 Clouds -9 1008 66 8000 21.1 130 19:20 28.01.2020
3549 Clouds -8 1007 61 9000 24.2 140 18:58 28.01.2020
3550 Clouds -8 1007 61 9000 24.2 140 18:58 28.01.2020
3551 Clouds -8 1007 61 9000 24.2 140 18:39 28.01.2020
3552 Clouds -10 1008 66 10000 22.1 140 18:21 28.01.2020
3553 Clouds -10 1008 66 10000 22.1 140 18:21 28.01.2020
3554 Clouds -9 1008 66 10000 22.1 140 17:57 28.01.2020
3555 Clouds -9 1007 61 10000 21.6 140 17:37 28.01.2020
3556 Clouds -9 1007 61 10000 21.6 140 17:19 28.01.2020
3557 Clouds -9 1008 66 10000 22.1 140 16:54 28.01.2020
3558 Clouds -9 1008 66 10000 21.6 140 16:36 28.01.2020
3559 Clouds -9 1008 66 10000 21.6 140 16:18 28.01.2020
3560 Clouds -9 1008 72 10000 22.1 140 15:41 28.01.2020
3561 Clouds -9 1008 72 10000 22.1 140 15:19 28.01.2020
3562 Clouds -9 1008 72 10000 22.1 140 15:19 28.01.2020
3563 Clouds -9 1008 72 10000 19.5 140 14:54 28.01.2020
3564 Clouds -10 1008 78 10000 19.5 150 14:36 28.01.2020
3565 Clouds -9 1008 78 10000 19.5 150 14:18 28.01.2020
3566 Clouds -10 1008 78 10000 20.6 140 13:39 28.01.2020
3567 Clouds -9 1008 78 10000 20.6 140 13:21 28.01.2020
3568 Clear -10 1009 72 10000 17 150 12:42 28.01.2020
3569 Clear -10 1009 72 10000 14.4 140 12:23 28.01.2020
3570 Clear -10 1009 72 10000 16.5 140 11:48 28.01.2020
3571 Clear -9 1009 72 10000 12.9 150 11:23 28.01.2020
3572 Clear -10 1009 78 10000 10.8 140 10:59 28.01.2020
3573 Clear -10 1009 78 10000 10.8 140 10:40 28.01.2020
3574 Clear -10 1009 78 10000 11.8 160 10:20 28.01.2020
3575 Clear -10 1009 71 10000 13.9 160 09:55 28.01.2020
3576 Clear -10 1009 78 10000 12.9 160 09:36 28.01.2020
3577 Clear -10 1009 78 10000 12.9 160 09:18 28.01.2020
3578 Clear -10 1009 78 10000 15.4 160 08:40 28.01.2020
3579 Clear -10 1009 78 10000 14.9 160 08:19 28.01.2020
3580 Clear -13 1009 78 9000 14.9 150 07:38 28.01.2020
3581 Clear -13 1009 71 10000 13.9 140 06:51 28.01.2020
3582 Clear -13 1010 71 10000 10.8 130 06:28 28.01.2020
3583 Clear -13 1010 71 10000 8.2 120 05:55 28.01.2020
3584 Clear -13 1010 71 10000 8.2 120 05:27 28.01.2020
3585 Clouds -13 1010 71 10000 7.7 160 04:30 28.01.2020
3586 Clouds -13 1011 71 10000 6.2 180 02:58 28.01.2020
3587 Clouds -13 1011 71 10000 6.2 180 02:25 28.01.2020
3588 Clouds -13 1011 71 10000 6.2 180 02:25 28.01.2020
3589 Clouds -13 1011 71 10000 8.7 160 01:57 28.01.2020
3590 Clouds -13 1011 71 10000 8.7 160 01:32 28.01.2020
3591 Clouds -12 1011 72 10000 10.8 160 00:51 28.01.2020
3592 Clouds -13 1011 71 10000 10.3 150 00:29 28.01.2020
3593 Clouds -12 1011 72 10000 12.9 150 23:51 27.01.2020
3594 Clouds -12 1011 66 10000 11.3 160 23:30 27.01.2020
3595 Clouds -10 1012 66 10000 10.8 170 22:59 27.01.2020
3596 Clouds -10 1012 66 10000 12.3 170 22:40 27.01.2020
3597 Clouds -10 1012 66 10000 12.3 170 22:19 27.01.2020
3598 Clouds -10 1012 71 10000 9.3 170 21:55 27.01.2020
3599 Clouds -10 1012 66 10000 11.3 160 21:37 27.01.2020
3600 Clouds -9 1012 66 10000 11.3 160 21:18 27.01.2020
3601 Clouds -10 1012 66 10000 8.2 170 20:43 27.01.2020
3602 Clouds -10 1012 66 10000 8.2 170 20:22 27.01.2020
3603 Clouds -9 1012 72 10000 9.8 160 19:59 27.01.2020
3604 Clouds -9 1012 72 10000 5.7 170 19:41 27.01.2020
3605 Clouds -9 1012 72 10000 5.7 170 19:22 27.01.2020
3606 Clouds -9 1012 72 10000 10.8 160 18:56 27.01.2020
3607 Clouds -9 1012 66 10000 12.3 150 18:38 27.01.2020
3608 Clouds -9 1012 66 10000 12.3 150 18:19 27.01.2020
3609 Clouds -9 1012 66 10000 11.8 150 17:39 27.01.2020
3610 Clouds -9 1012 66 10000 12.3 150 17:21 27.01.2020
3611 Clouds -9 1012 66 10000 12.3 150 16:59 27.01.2020
3612 Clouds -9 1012 66 10000 12.3 150 16:41 27.01.2020
3613 Clouds -9 1012 72 10000 12.9 150 16:23 27.01.2020
3614 Clouds -9 1012 72 10000 9.3 150 15:55 27.01.2020
3615 Clouds -9 1012 72 10000 7.2 160 15:37 27.01.2020
3616 Clouds -9 1012 72 10000 7.2 160 15:37 27.01.2020
3617 Clouds -9 1012 72 10000 7.2 160 15:18 27.01.2020
3618 Clouds -8 1012 66 10000 6.7 170 14:42 27.01.2020
3619 Clouds -8 1013 66 10000 8.2 160 14:22 27.01.2020
3620 Clouds -10 1013 66 10000 7.2 170 13:58 27.01.2020
3621 Clouds -10 1013 66 10000 7.2 170 13:39 27.01.2020
3622 Clouds -9 1013 66 10000 6.7 160 13:19 27.01.2020
3623 Clouds -8 1013 61 10000 5.7 170 12:54 27.01.2020
3624 Clouds -8 1013 61 10000 8.7 150 12:36 27.01.2020
3625 Clouds -8 1013 61 10000 8.7 150 12:18 27.01.2020
3626 Clouds -9 1013 66 10000 8.7 150 11:41 27.01.2020
3627 Clouds -8 1013 61 10000 9.8 150 11:20 27.01.2020
3628 Clouds -8 1013 56 10000 9.3 140 10:43 27.01.2020
3629 Clouds -8 1013 56 10000 9.8 150 10:24 27.01.2020
3630 Clouds -8 1013 56 10000 9.8 140 09:56 27.01.2020
3631 Clouds -11 1013 61 10000 7.7 140 09:38 27.01.2020
3632 Clouds -9 1013 61 10000 7.7 140 09:18 27.01.2020
3633 Clouds -9 1012 61 10000 6.7 130 08:42 27.01.2020
3634 Clouds -8 1012 61 10000 6.7 130 08:20 27.01.2020
3635 Clouds -8 1013 66 10000 7.2 150 07:54 27.01.2020
3636 Clouds -8 1013 66 10000 7.2 150 07:54 27.01.2020
3637 Clouds -10 1013 61 10000 5.1 130 07:33 27.01.2020
3638 Clouds -8 1012 67 10000 4.6 120 06:52 27.01.2020
3639 Clouds -7 1013 62 10000 3.1 130 06:24 27.01.2020
3640 Clouds -8 1012 72 10000 4.6 130 05:23 27.01.2020
3641 Clouds -8 1013 85 10000 3.6 190 03:47 27.01.2020
3642 Clouds -9 1013 78 10000 2.6 180 02:36 27.01.2020
3643 Clouds -12 1012 92 10000 3.1 130 01:29 27.01.2020
3644 Clouds -10 1013 92 10000 3.1 140 00:44 27.01.2020
3645 Snow -9 1013 85 1500 2.1 140 00:26 27.01.2020
3646 Snow -9 1012 92 10000 1.5 170 00:00 27.01.2020
3647 Snow -9 1012 92 10000 1.5 170 23:59 26.01.2020
3648 Snow -9 1012 92 10000 1.5 170 23:41 26.01.2020
3649 Snow -9 1012 92 10000 1.5 170 23:41 26.01.2020
3650 Snow -9 1012 92 10000 1.5 170 23:41 26.01.2020
3651 Clouds -9 1012 92 10000 3.6 140 23:18 26.01.2020
3652 Snow -9 1012 92 10000 2.1 120 22:54 26.01.2020
3653 Snow -8 1012 85 10000 2.1 150 22:36 26.01.2020
3654 Snow -8 1012 85 10000 2.1 150 22:18 26.01.2020
3655 Snow -8 1012 85 10000 1.5 0 21:55 26.01.2020
3656 Clouds -9 1012 85 10000 2.1 140 21:36 26.01.2020
3657 Clouds -9 1012 85 10000 2.1 140 21:18 26.01.2020
3658 Clouds -9 1012 92 10000 6.2 50 20:55 26.01.2020
3659 Snow -9 1011 92 10000 3.1 40 20:36 26.01.2020
3660 Snow -9 1011 92 10000 3.1 40 20:18 26.01.2020
3661 Rain -9 1011 92 10000 2.1 100 19:41 26.01.2020
3662 Snow -8 1011 85 10000 1.5 0 19:21 26.01.2020
3663 Snow -8 1011 92 3000 1.5 110 18:59 26.01.2020
3664 Snow -8 1011 92 3000 1.5 110 18:40 26.01.2020
3665 Snow -8 1011 85 10000 1.5 130 18:22 26.01.2020
3666 Snow -8 1011 85 10000 6.2 70 17:58 26.01.2020
3667 Snow -8 1011 85 10000 6.2 70 17:58 26.01.2020
3668 Snow -8 1010 78 4000 3.1 360 17:38 26.01.2020
3669 Snow -8 1010 78 4000 3.1 360 17:18 26.01.2020
3670 Rain -8 1010 78 10000 4.6 50 16:58 26.01.2020
3671 Rain -8 1010 78 10000 6.2 20 16:39 26.01.2020
3672 Rain -8 1010 78 10000 6.2 20 16:20 26.01.2020
3673 Snow -12 1011 96 0 1.58 149 15:55 26.01.2020
3674 Snow -12 1011 96 0 1.58 149 15:37 26.01.2020
3675 Snow -12 1011 96 0 1.58 149 15:18 26.01.2020
3676 Snow -12 1011 96 0 1.58 149 14:40 26.01.2020
3677 Snow -11 1011 92 0 1.25 106 14:19 26.01.2020
3678 Snow -11 1011 92 0 1.25 106 14:19 26.01.2020
3679 Snow -11 1011 92 0 1.25 106 13:42 26.01.2020
3680 Snow -12 1010 93 0 1.48 167 13:20 26.01.2020
3681 Snow -12 1010 93 0 1.48 167 12:58 26.01.2020
3682 Snow -12 1010 93 0 1.48 167 12:39 26.01.2020
3683 Snow -12 1010 93 0 1.48 167 12:21 26.01.2020
3684 Snow -12 1010 93 0 1.48 167 12:21 26.01.2020
3685 Snow -12 1010 93 0 1.48 167 11:57 26.01.2020
3686 Snow -12 1010 93 0 1.48 167 11:57 26.01.2020
3687 Snow -12 1010 93 0 1.48 167 11:38 26.01.2020
3688 Snow -7 1007 73 10000 9.8 30 11:18 26.01.2020
3689 Snow -7 1007 73 10000 9.8 30 10:58 26.01.2020
3690 Snow -7 1007 73 10000 9.8 30 10:38 26.01.2020
3691 Snow -7 1007 73 10000 9.8 30 10:38 26.01.2020
3692 Snow -7 1007 73 10000 9.8 30 10:38 26.01.2020
3693 Snow -7 1007 73 10000 9.8 30 10:20 26.01.2020
3694 Snow -7 1007 73 10000 9.8 30 10:20 26.01.2020
3695 Snow -7 1007 85 10000 6.7 50 09:56 26.01.2020
3696 Snow -6 1006 67 10000 10.8 30 09:38 26.01.2020
3697 Snow -6 1006 67 10000 10.8 30 09:20 26.01.2020
3698 Snow -7 1006 79 10000 8.2 50 08:42 26.01.2020
3699 Mist -7 1006 85 10000 9.3 50 08:22 26.01.2020
3700 Snow -7 1005 79 2200 10.8 20 07:56 26.01.2020
3701 Snow -7 1005 79 2900 9.8 40 07:38 26.01.2020
3702 Snow -7 1005 79 2900 9.8 40 07:19 26.01.2020
3703 Rain -6 1005 67 10000 9.8 10 06:29 26.01.2020
3704 Rain -7 1004 73 10000 11.3 30 05:30 26.01.2020
3705 Snow -7 1003 62 4500 11.8 20 04:44 26.01.2020
3706 Snow -7 1002 73 9000 14.4 20 02:38 26.01.2020
3707 Snow -7 1002 73 10000 12.9 20 01:46 26.01.2020
3708 Snow -7 1001 79 6000 14.9 20 01:23 26.01.2020
3709 Snow -6 1001 73 10000 12.3 30 00:44 26.01.2020
3710 Snow -6 1001 79 1500 14.9 20 00:26 26.01.2020
3711 Snow -8 1004 89 0 5.04 35 23:40 25.01.2020
3712 Snow -8 1003 96 0 5.32 50 23:21 25.01.2020
3713 Snow -8 1003 96 0 5.32 50 22:56 25.01.2020
3714 Snow -8 1003 96 0 5.32 50 22:37 25.01.2020
3715 Snow -8 1003 96 0 5.32 50 22:18 25.01.2020
3716 Snow -8 1003 96 0 5.32 50 21:55 25.01.2020
3717 Snow -8 1003 96 0 5.32 50 21:37 25.01.2020
3718 Snow -8 1003 96 0 5.32 50 21:19 25.01.2020
3719 Snow -8 1003 96 0 5.32 50 20:43 25.01.2020
3720 Snow -8 1003 96 0 5.32 50 20:24 25.01.2020
3721 Snow -9 1001 76 0 6.26 349 19:48 25.01.2020
3722 Snow -10 1001 89 0 5.49 317 19:20 25.01.2020
3723 Snow -10 1001 89 0 5.49 317 18:59 25.01.2020
3724 Snow -10 1001 89 0 5.49 317 18:41 25.01.2020
3725 Snow -10 1001 89 0 5.49 317 18:21 25.01.2020
3726 Snow -10 1001 89 0 5.49 317 17:56 25.01.2020
3727 Snow -10 1001 89 0 5.49 317 17:37 25.01.2020
3728 Snow -9 1000 89 0 7.08 11 17:18 25.01.2020
3729 Snow -10 1000 91 0 6.31 3 16:42 25.01.2020
3730 Snow -10 1000 91 0 6.31 3 16:42 25.01.2020
3731 Snow -10 1000 91 0 6.31 3 16:23 25.01.2020
3732 Snow -10 1000 91 0 6.31 3 15:56 25.01.2020
3733 Snow -10 1000 91 0 6.31 3 15:38 25.01.2020
3734 Snow -10 1000 91 0 6.31 3 15:19 25.01.2020
3735 Snow -10 1000 91 0 6.31 3 14:42 25.01.2020
3736 Snow -8 998 91 0 6.44 15 14:19 25.01.2020
3737 Snow -8 998 91 0 6.44 15 13:45 25.01.2020
3738 Snow -8 998 91 0 6.44 15 13:26 25.01.2020
3739 Snow -8 998 92 0 7.15 11 12:57 25.01.2020
3740 Rain -5 995 73 10000 11.8 20 12:38 25.01.2020
3741 Rain -5 995 73 10000 11.8 20 12:19 25.01.2020
3742 Rain -5 995 73 10000 11.8 20 12:19 25.01.2020
3743 Rain -5 995 73 10000 11.8 20 11:40 25.01.2020
3744 Rain -5 995 73 10000 11.8 20 11:40 25.01.2020
3745 Rain -5 994 79 10000 13.9 10 11:19 25.01.2020
3746 Rain -4 994 79 10000 14.9 20 10:55 25.01.2020
3747 Snow -5 993 92 2000 10.3 30 10:37 25.01.2020
3748 Snow -5 993 92 2000 10.3 30 10:18 25.01.2020
3749 Snow -5 993 85 2000 9.8 50 09:40 25.01.2020
3750 Snow -5 993 92 1800 9.3 40 09:19 25.01.2020
3751 Rain -3 992 68 10000 7.7 40 08:43 25.01.2020
3752 Snow -3 991 73 10000 8.2 70 07:58 25.01.2020
3753 Snow -4 990 85 10000 9.8 90 07:36 25.01.2020
3754 Rain -6 990 85 8000 7.2 90 06:33 25.01.2020
3755 Snow -5 989 79 3000 4.1 80 05:57 25.01.2020
3756 Clouds -7 989 79 10000 5.1 90 05:38 25.01.2020
3757 Snow -8 988 72 10000 6.7 90 04:19 25.01.2020
3758 Snow -8 987 78 10000 7.7 90 03:49 25.01.2020
3759 Snow -6 986 79 10000 10.8 100 02:37 25.01.2020
3760 Clouds -6 985 79 10000 11.8 90 01:57 25.01.2020
3761 Clouds -6 985 79 10000 12.3 100 01:23 25.01.2020
3762 Clouds -5 985 79 10000 10.8 90 00:41 25.01.2020
3763 Clouds -4 985 85 10000 8.7 90 00:22 25.01.2020
3764 Clouds -3 984 85 10000 8.7 100 23:42 24.01.2020
3765 Clouds -3 984 85 10000 8.7 100 23:42 24.01.2020
3766 Rain -3 983 85 10000 8.2 100 23:24 24.01.2020
3767 Snow -2 983 92 10000 10.3 90 22:47 24.01.2020
3768 Snow -2 983 100 4000 8.2 90 22:28 24.01.2020
3769 Snow -2 982 92 1000 7.2 80 21:59 24.01.2020
3770 Snow -2 982 92 1000 7.2 80 21:40 24.01.2020
3771 Snow -1 982 100 2000 9.3 80 21:19 24.01.2020
3772 Clouds 0 982 93 10000 6.7 290 20:44 24.01.2020
3773 Clouds 0 982 84 10000 6.2 290 20:22 24.01.2020
3774 Clouds 0 981 84 10000 7.7 280 19:58 24.01.2020
3775 Clouds 0 981 84 10000 7.7 280 19:58 24.01.2020
3776 Clouds 0 981 84 10000 7.7 280 19:40 24.01.2020
3777 Clouds 0 981 84 10000 7.2 270 19:22 24.01.2020
3778 Clouds 0 981 84 10000 7.2 280 18:56 24.01.2020
3779 Clouds 0 981 84 10000 7.7 270 18:37 24.01.2020
3780 Clouds 0 981 84 10000 7.7 270 18:19 24.01.2020
3781 Clouds 0 981 84 10000 6.7 290 17:42 24.01.2020
3782 Clouds 0 981 86 10000 6.7 290 17:21 24.01.2020
3783 Clouds 0 981 86 10000 6.7 290 17:21 24.01.2020
3784 Clouds 0 981 86 10000 7.2 280 16:55 24.01.2020
3785 Clouds 0 981 86 10000 6.7 270 16:36 24.01.2020
3786 Clouds 0 981 86 10000 7.7 280 16:18 24.01.2020
3787 Clouds 0 981 86 10000 6.7 270 16:18 24.01.2020
3788 Clouds 0 981 86 10000 7.7 280 15:40 24.01.2020
3789 Clouds 0 981 86 10000 7.7 270 15:20 24.01.2020
3790 Clouds 0 981 86 10000 7.7 280 14:42 24.01.2020
3791 Clouds 0 981 84 10000 7.7 270 14:23 24.01.2020
3792 Clouds 0 981 84 10000 7.2 280 13:57 24.01.2020
3793 Clouds 0 981 84 10000 7.2 280 13:39 24.01.2020
3794 Snow -1 981 92 10000 9.3 280 13:19 24.01.2020
3795 Snow -1 981 92 10000 9.3 280 13:19 24.01.2020
3796 Rain 0 982 83 10000 7.7 310 12:41 24.01.2020
3797 Clouds 1 982 83 10000 11.3 290 12:18 24.01.2020
3798 Snow 1 981 74 10000 10.3 280 11:43 24.01.2020
3799 Rain 1 981 74 10000 8.7 290 11:19 24.01.2020
3800 Clouds 1 981 74 10000 8.2 310 10:43 24.01.2020
3801 Clouds 1 981 74 10000 11.3 270 10:23 24.01.2020
3802 Clouds 1 981 74 10000 11.8 270 09:57 24.01.2020
3803 Clouds 1 981 74 10000 11.8 270 09:57 24.01.2020
3804 Clouds 1 981 74 10000 11.8 270 09:39 24.01.2020
3805 Clouds 1 981 80 10000 10.8 270 09:21 24.01.2020
3806 Clouds 1 981 83 10000 8.2 270 08:41 24.01.2020
3807 Rain 1 981 79 9000 7.7 290 08:20 24.01.2020
3808 Snow 1 981 78 2000 8.7 310 07:52 24.01.2020
3809 Rain 1 980 86 10000 11.8 250 07:34 24.01.2020
3810 Rain 0 980 78 10000 9.3 260 06:48 24.01.2020
3811 Snow 1 980 78 9000 8.7 270 06:29 24.01.2020
3812 Clouds 0 981 78 10000 7.7 250 05:58 24.01.2020
3813 Clouds 0 981 82 2800 11.8 280 04:57 24.01.2020
3814 Clouds -1 981 80 10000 6.7 220 02:53 24.01.2020
3815 Clouds -1 981 80 10000 6.7 220 02:26 24.01.2020
3816 Clouds -2 981 86 10000 7.7 220 01:46 24.01.2020
3817 Snow -2 981 86 9000 7.2 220 01:28 24.01.2020
3818 Clouds -2 981 86 10000 6.7 220 00:25 24.01.2020
3819 Clouds -1 982 86 10000 7.2 210 23:49 23.01.2020
3820 Clouds -1 982 86 10000 6.7 210 23:31 23.01.2020
3821 Clouds -1 982 86 10000 6.7 210 22:59 23.01.2020
3822 Snow -1 982 86 9000 6.7 210 22:38 23.01.2020
3823 Clouds -2 982 86 10000 2.6 180 22:19 23.01.2020
3824 Clouds -2 982 86 10000 2.6 180 21:57 23.01.2020
3825 Clouds -2 982 86 10000 2.6 180 21:39 23.01.2020
3826 Snow -2 982 92 7000 4.1 200 21:20 23.01.2020
3827 Snow -2 982 92 1800 6.2 210 20:59 23.01.2020
3828 Snow -2 982 86 3000 7.2 210 20:38 23.01.2020
3829 Snow -2 982 86 3000 7.2 210 20:19 23.01.2020
3830 Snow -2 983 86 8000 8.2 200 19:56 23.01.2020
3831 Snow -3 983 85 4000 9.8 200 19:38 23.01.2020
3832 Snow -3 983 85 4000 9.8 200 19:19 23.01.2020
3833 Snow -2 983 79 10000 11.3 190 18:43 23.01.2020
3834 Clouds -2 984 79 10000 9.8 190 18:21 23.01.2020
3835 Clouds -3 984 73 10000 12.9 190 17:58 23.01.2020
3836 Clouds -3 984 73 10000 12.9 190 17:40 23.01.2020
3837 Clouds -3 985 79 10000 14.9 190 17:20 23.01.2020
3838 Snow -3 985 79 10000 14.9 190 16:56 23.01.2020
3839 Clouds -2 986 73 10000 13.4 180 16:37 23.01.2020
3840 Clouds -2 986 73 10000 13.4 180 16:18 23.01.2020
3841 Clouds -2 986 73 10000 11.8 180 15:55 23.01.2020
3842 Clouds -3 988 79 10000 14.4 180 15:37 23.01.2020
3843 Clouds -3 988 79 10000 14.4 180 15:18 23.01.2020
3844 Clouds -2 989 79 10000 13.4 180 14:55 23.01.2020
3845 Clouds -2 989 79 10000 13.4 180 14:55 23.01.2020
3846 Clouds -2 990 73 10000 12.9 180 14:37 23.01.2020
3847 Clouds -2 990 73 10000 12.9 180 14:19 23.01.2020
3848 Clouds -3 991 73 10000 13.4 170 13:40 23.01.2020
3849 Clouds -2 992 73 10000 12.9 170 13:20 23.01.2020
3850 Clouds -4 993 79 10000 13.4 170 12:47 23.01.2020
3851 Clouds -3 994 73 10000 14.4 160 12:26 23.01.2020
3852 Clouds -2 995 68 10000 10.3 160 11:59 23.01.2020
3853 Clouds -2 995 68 10000 10.3 160 11:59 23.01.2020
3854 Clouds -3 997 67 10000 9.3 170 11:39 23.01.2020
3855 Clouds -3 997 67 10000 9.3 170 11:20 23.01.2020
3856 Clouds -3 997 67 10000 9.3 170 11:20 23.01.2020
3857 Clouds -4 998 73 10000 13.9 160 10:55 23.01.2020
3858 Clouds -5 998 73 10000 14.9 160 10:36 23.01.2020
3859 Clouds -5 998 73 10000 14.9 160 10:18 23.01.2020
3860 Clouds -5 1000 79 10000 9.8 140 09:39 23.01.2020
3861 Clouds -5 1000 79 10000 9.8 140 09:20 23.01.2020
3862 Clouds -4 1001 73 10000 8.2 150 08:43 23.01.2020
3863 Clouds -4 1001 73 10000 5.1 150 08:24 23.01.2020
3864 Clouds -6 1002 78 10000 3.6 150 07:49 23.01.2020
3865 Clouds -8 1003 72 10000 2.6 150 07:27 23.01.2020
3866 Clouds -6 1003 67 10000 1.5 170 06:54 23.01.2020
3867 Clouds -7 1004 73 10000 1.5 70 06:24 23.01.2020
3868 Rain -7 1004 73 10000 1.5 10 05:58 23.01.2020
3869 Rain -4 1006 68 10000 6.2 340 04:24 23.01.2020
3870 Snow -5 1007 73 10000 8.7 330 02:48 23.01.2020
3871 Snow -5 1008 79 10000 9.8 330 01:50 23.01.2020
3872 Rain -4 1008 62 10000 11.3 330 00:29 23.01.2020
3873 Snow -5 1008 85 9000 12.3 330 23:57 22.01.2020
3874 Snow -4 1008 73 8000 12.9 330 23:38 22.01.2020
3875 Snow -4 1008 73 8000 12.9 330 23:20 22.01.2020
3876 Snow -4 1008 79 7000 13.4 330 22:42 22.01.2020
3877 Snow -4 1008 79 9000 15.9 340 22:23 22.01.2020
3878 Rain -4 1008 62 10000 16.5 340 21:56 22.01.2020
3879 Rain -4 1008 68 10000 15.9 340 21:36 22.01.2020
3880 Rain -4 1008 68 10000 15.9 340 21:18 22.01.2020
3881 Rain -3 1008 73 10000 17 340 20:41 22.01.2020
3882 Snow -3 1008 68 6000 17.5 340 20:23 22.01.2020
3883 Rain -3 1008 62 10000 18 330 19:58 22.01.2020
3884 Rain -3 1008 62 10000 18 330 19:39 22.01.2020
3885 Rain -3 1008 73 10000 20.1 340 19:19 22.01.2020
3886 Snow -3 1007 73 2300 19.5 340 18:57 22.01.2020
3887 Rain -3 1007 68 10000 19.5 330 18:38 22.01.2020
3888 Rain -3 1007 68 10000 19.5 330 18:20 22.01.2020
3889 Snow -4 1007 79 10000 18.5 320 17:55 22.01.2020
3890 Rain -3 1007 62 10000 19.5 330 17:37 22.01.2020
3891 Rain -3 1007 62 10000 19.5 330 17:19 22.01.2020
3892 Rain -3 1006 68 10000 20.6 340 16:43 22.01.2020
3893 Rain -4 1006 73 9000 18 330 16:23 22.01.2020
3894 Snow -3 1006 73 10000 17.5 330 15:59 22.01.2020
3895 Snow -3 1006 73 10000 17.5 330 15:41 22.01.2020
3896 Snow -4 1006 73 5000 17 330 15:22 22.01.2020
3897 Snow -4 1006 79 8000 18.5 320 14:58 22.01.2020
3898 Snow -4 1006 79 9000 15.9 320 14:37 22.01.2020
3899 Snow -4 1006 79 9000 15.9 320 14:19 22.01.2020
3900 Snow -4 1006 85 1800 19 320 13:55 22.01.2020
3901 Rain -3 1005 73 10000 19.5 340 13:36 22.01.2020
3902 Rain -3 1005 73 10000 19.5 340 13:18 22.01.2020
3903 Snow -4 1005 79 8000 18.5 320 12:56 22.01.2020
3904 Snow -5 1005 73 1000 20.6 330 12:37 22.01.2020
3905 Snow -4 1005 73 1000 20.6 330 12:18 22.01.2020
3906 Rain -4 1004 73 10000 18.5 330 11:56 22.01.2020
3907 Rain -5 1004 92 7000 19.5 330 11:38 22.01.2020
3908 Rain -5 1004 92 7000 19.5 330 11:18 22.01.2020
3909 Snow -4 1004 73 800 20.1 330 10:44 22.01.2020
3910 Snow -4 1003 85 600 18.5 320 10:21 22.01.2020
3911 Snow -4 1003 79 800 19.5 330 09:45 22.01.2020
3912 Snow -4 1002 73 10000 22.6 340 09:26 22.01.2020
3913 Snow -4 1001 67 10000 21.6 340 08:59 22.01.2020
3914 Rain -4 1001 79 10000 19.5 320 08:40 22.01.2020
3915 Rain -4 1001 79 10000 19.5 320 08:21 22.01.2020
3916 Snow -5 1001 73 3200 18.5 320 07:59 22.01.2020
3917 Snow -5 1001 73 3200 18.5 320 07:40 22.01.2020
3918 Snow -5 1000 73 6000 19 340 07:21 22.01.2020
3919 Snow -4 999 73 6000 18.5 340 06:31 22.01.2020
3920 Snow -5 998 85 2500 15.4 340 05:42 22.01.2020
3921 Snow -3 996 68 9000 17 340 04:23 22.01.2020
3922 Clouds -2 996 68 6000 18 340 03:26 22.01.2020
3923 Rain -1 995 58 10000 15.9 340 02:32 22.01.2020
3924 Snow -2 992 79 8000 15.9 350 00:46 22.01.2020
3925 Snow -2 992 86 2500 12.9 360 00:27 22.01.2020
3926 Snow -2 991 74 10000 16.5 360 23:55 21.01.2020
3927 Snow -2 990 79 8000 11.8 20 23:36 21.01.2020
3928 Snow -2 990 79 8000 11.8 20 23:18 21.01.2020
3929 Snow -2 989 86 9000 9.8 20 22:39 21.01.2020
3930 Snow -1 988 74 10000 12.3 20 22:20 21.01.2020
3931 Snow -1 988 74 10000 12.3 20 22:20 21.01.2020
3932 Snow 0 987 74 10000 13.9 20 21:56 21.01.2020
3933 Snow 0 986 86 10000 14.4 20 21:38 21.01.2020
3934 Snow 0 986 86 10000 14.4 20 21:19 21.01.2020
3935 Rain 0 985 80 10000 11.8 20 20:56 21.01.2020
3936 Snow 0 984 92 6000 13.4 20 20:37 21.01.2020
3937 Snow 0 984 92 6000 13.4 20 20:18 21.01.2020
3938 Snow 0 983 92 3000 12.3 30 19:56 21.01.2020
3939 Snow 0 982 92 3000 11.8 30 19:37 21.01.2020
3940 Snow 0 982 92 3000 11.8 30 19:19 21.01.2020
3941 Snow 0 982 92 1800 6.7 360 18:55 21.01.2020
3942 Snow 0 982 92 500 10.3 360 18:36 21.01.2020
3943 Snow 1 982 92 500 10.3 360 18:18 21.01.2020
3944 Clouds 1 981 92 2000 18 310 17:43 21.01.2020
3945 Snow 2 981 80 10000 15.9 300 17:20 21.01.2020
3946 Snow 0 981 73 10000 18.5 290 16:58 21.01.2020
3947 Clouds 1 981 74 10000 16.5 300 16:37 21.01.2020
3948 Clouds 1 981 74 10000 16.5 300 16:18 21.01.2020
3949 Rain 1 981 73 10000 19.5 300 15:41 21.01.2020
3950 Rain 1 980 74 10000 19 290 15:21 21.01.2020
3951 Rain 2 980 74 10000 16.5 300 14:59 21.01.2020
3952 Rain 1 980 73 10000 17 290 14:37 21.01.2020
3953 Rain 1 980 71 10000 17 290 14:19 21.01.2020
3954 Clouds 1 980 71 10000 18 290 13:40 21.01.2020
3955 Clouds 1 980 70 10000 18 290 13:19 21.01.2020
3956 Rain 1 980 70 10000 17.5 290 12:43 21.01.2020
3957 Rain 1 980 70 10000 12.9 280 12:25 21.01.2020
3958 Snow 0 980 92 1000 13.4 290 11:57 21.01.2020
3959 Rain 1 980 70 10000 12.9 270 11:38 21.01.2020
3960 Rain 1 980 84 10000 12.9 270 11:20 21.01.2020
3961 Clouds 0 980 84 10000 11.8 280 10:44 21.01.2020
3962 Clouds 0 980 84 10000 11.8 280 10:24 21.01.2020
3963 Snow 0 980 84 3000 11.3 280 09:59 21.01.2020
3964 Snow 0 980 84 3000 11.3 280 09:41 21.01.2020
3965 Clouds 0 980 84 10000 12.3 290 09:22 21.01.2020
3966 Clouds 0 981 84 10000 17.5 290 08:48 21.01.2020
3967 Clouds 1 981 86 10000 17 290 08:29 21.01.2020
3968 Clouds 1 981 76 10000 12.3 290 07:59 21.01.2020
3969 Clouds 1 981 76 10000 12.3 290 07:39 21.01.2020
3970 Rain 0 981 76 10000 11.8 290 07:21 21.01.2020
3971 Rain 0 981 76 10000 10.3 290 06:48 21.01.2020
3972 Snow 0 980 76 9000 6.7 280 06:25 21.01.2020
3973 Snow 0 980 76 1700 5.7 320 05:42 21.01.2020
3974 Snow 0 981 78 600 7.7 260 04:39 21.01.2020
3975 Snow 1 982 80 3600 15.4 270 02:56 21.01.2020
3976 Snow 2 982 69 10000 15.9 290 01:51 21.01.2020
3977 Snow 2 982 69 10000 20.6 290 01:18 21.01.2020
3978 Clouds 3 982 59 10000 23.7 280 00:36 21.01.2020
3979 Clouds 3 982 64 10000 22.1 290 23:58 20.01.2020
3980 Rain 3 982 74 10000 23.1 290 23:37 20.01.2020
3981 Rain 3 982 74 10000 23.1 290 23:19 20.01.2020
3982 Rain 3 982 74 10000 23.1 290 23:19 20.01.2020
3983 Rain 1 982 100 10000 8.2 250 22:56 20.01.2020
3984 Rain 1 981 100 10000 7.7 240 22:37 20.01.2020
3985 Rain 1 981 100 10000 7.7 240 22:19 20.01.2020
3986 Clouds 2 982 98 9000 9.8 240 21:57 20.01.2020
3987 Drizzle 2 981 98 10000 13.9 260 21:37 20.01.2020
3988 Drizzle 2 981 98 10000 13.9 260 21:37 20.01.2020
3989 Drizzle 2 981 98 10000 13.9 260 21:18 20.01.2020
3990 Rain 3 981 86 10000 11.8 270 20:55 20.01.2020
3991 Rain 2 982 98 10000 10.8 270 20:36 20.01.2020
3992 Rain 2 982 98 10000 10.8 270 20:18 20.01.2020
3993 Rain 2 982 98 10000 10.8 270 20:18 20.01.2020
3994 Drizzle 3 982 86 10000 15.4 270 19:56 20.01.2020
3995 Rain 3 982 86 10000 13.4 270 19:37 20.01.2020
3996 Rain 3 982 86 10000 13.4 270 19:18 20.01.2020
3997 Rain 3 984 86 10000 12.3 250 18:42 20.01.2020
3998 Rain 3 984 86 10000 12.3 250 18:21 20.01.2020
3999 Rain 2 985 93 10000 11.3 250 17:40 20.01.2020
4000 Rain 2 985 93 10000 11.3 250 17:19 20.01.2020
4001 Rain 3 986 86 10000 13.4 270 16:58 20.01.2020
4002 Rain 4 986 80 10000 11.3 260 16:37 20.01.2020
4003 Rain 4 986 80 10000 11.3 260 16:18 20.01.2020
4004 Rain 3 986 93 10000 10.3 270 15:54 20.01.2020
4005 Rain 4 987 80 10000 14.4 270 15:36 20.01.2020
4006 Rain 4 987 80 10000 14.4 270 15:18 20.01.2020
4007 Clouds 4 987 80 10000 15.9 260 14:41 20.01.2020
4008 Rain 4 988 80 10000 12.9 270 14:22 20.01.2020
4009 Clouds 4 988 86 10000 15.4 270 13:57 20.01.2020
4010 Rain 3 988 93 10000 12.3 260 13:39 20.01.2020
4011 Rain 3 988 93 10000 12.3 260 13:20 20.01.2020
4012 Snow 2 989 96 6000 9.8 230 12:45 20.01.2020
4013 Snow 1 989 96 2200 9.3 220 12:26 20.01.2020
4014 Snow 2 990 96 4000 6.7 200 11:57 20.01.2020
4015 Snow 2 990 96 2200 7.7 200 11:38 20.01.2020
4016 Snow 2 990 93 2200 7.7 200 11:19 20.01.2020
4017 Rain 1 990 93 10000 9.8 210 10:47 20.01.2020
4018 Rain 0 991 93 10000 8.2 210 10:21 20.01.2020
4019 Rain 0 991 93 10000 8.2 210 10:21 20.01.2020
4020 Clouds 0 991 93 10000 8.2 220 09:54 20.01.2020
4021 Snow 1 992 93 10000 8.2 200 09:36 20.01.2020
4022 Snow 1 992 93 10000 8.2 200 09:18 20.01.2020
4023 Clouds 1 992 93 10000 9.3 190 08:42 20.01.2020
4024 Clouds 1 993 87 10000 7.2 180 08:24 20.01.2020
4025 Clouds 1 993 87 10000 7.7 150 07:42 20.01.2020
4026 Clouds 1 993 87 10000 7.7 150 07:42 20.01.2020
4027 Clouds 1 994 74 10000 5.7 180 07:22 20.01.2020
4028 Clouds 1 996 74 10000 7.7 190 06:45 20.01.2020
4029 Clouds 1 996 74 10000 7.7 190 06:25 20.01.2020
4030 Clouds 1 998 74 10000 5.7 200 05:41 20.01.2020
4031 Clouds 1 998 74 10000 5.7 200 05:21 20.01.2020
4032 Clouds 1 1000 80 10000 6.2 200 04:33 20.01.2020
4033 Clouds 1 1003 93 10000 8.7 250 02:55 20.01.2020
4034 Rain 1 1004 97 10000 11.3 270 01:42 20.01.2020
4035 Rain 1 1004 96 10000 11.3 270 01:23 20.01.2020
4036 Drizzle 1 1004 96 10000 11.8 250 00:43 20.01.2020
4037 Snow 2 1004 80 9000 10.3 240 00:22 20.01.2020
4038 Clouds 1 1004 74 10000 8.2 220 23:39 19.01.2020
4039 Clouds 1 1004 74 10000 8.2 220 23:19 19.01.2020
4040 Clouds 1 1004 74 10000 8.2 210 22:56 19.01.2020
4041 Clouds 1 1005 69 10000 8.2 210 22:38 19.01.2020
4042 Clouds 1 1005 69 10000 8.2 210 22:19 19.01.2020
4043 Clouds 1 1005 74 10000 10.3 220 21:56 19.01.2020
4044 Clouds 1 1005 74 10000 9.8 210 21:38 19.01.2020
4045 Clouds 1 1005 74 10000 9.8 210 21:19 19.01.2020
4046 Clouds 1 1006 88 10000 8.7 210 20:57 19.01.2020
4047 Clouds 0 1007 88 10000 9.3 200 20:38 19.01.2020
4048 Clouds 0 1007 86 10000 9.3 200 20:20 19.01.2020
4049 Clouds 0 1007 86 10000 8.7 210 19:56 19.01.2020
4050 Clouds 0 1007 86 10000 8.7 210 19:38 19.01.2020
4051 Clouds 0 1007 86 10000 8.7 210 19:20 19.01.2020
4052 Clouds 0 1008 86 10000 8.2 210 18:56 19.01.2020
4053 Snow 0 1008 86 10000 7.7 210 18:37 19.01.2020
4054 Snow 0 1008 86 10000 7.7 210 18:19 19.01.2020
4055 Clouds 0 1009 86 10000 9.8 220 17:58 19.01.2020
4056 Clouds 0 1009 86 10000 9.8 220 17:58 19.01.2020
4057 Clouds 0 1009 86 10000 9.8 220 17:39 19.01.2020
4058 Clouds -1 1008 68 10000 9.3 210 17:20 19.01.2020
4059 Clouds -1 1009 74 10000 9.8 210 16:57 19.01.2020
4060 Clouds -1 1009 68 10000 11.8 220 16:38 19.01.2020
4061 Clouds -1 1009 68 10000 11.8 220 16:20 19.01.2020
4062 Clouds -2 1008 74 10000 8.2 200 15:58 19.01.2020
4063 Clouds -2 1009 79 10000 9.3 210 15:37 19.01.2020
4064 Clouds -2 1009 79 10000 9.3 210 15:19 19.01.2020
4065 Clouds -2 1009 74 10000 7.7 200 14:57 19.01.2020
4066 Clouds -3 1009 73 10000 8.2 210 14:38 19.01.2020
4067 Clouds -3 1009 73 10000 8.2 210 14:38 19.01.2020
4068 Clouds -3 1010 73 10000 8.7 210 14:18 19.01.2020
4069 Clouds -3 1009 73 10000 8.2 210 14:18 19.01.2020
4070 Clouds -3 1010 73 10000 8.7 210 13:56 19.01.2020
4071 Clouds -3 1010 73 10000 8.2 210 13:37 19.01.2020
4072 Clouds -3 1010 73 10000 8.2 210 13:19 19.01.2020
4073 Clear -3 1009 73 10000 8.7 200 12:55 19.01.2020
4074 Clear -3 1009 73 10000 9.3 200 12:36 19.01.2020
4075 Clear -3 1009 73 10000 9.3 200 12:18 19.01.2020
4076 Clear -3 1009 73 10000 10.3 200 11:42 19.01.2020
4077 Clouds -3 1009 73 10000 10.8 200 11:20 19.01.2020
4078 Clouds -3 1008 73 10000 11.3 200 10:56 19.01.2020
4079 Clouds -3 1008 73 10000 12.3 200 10:38 19.01.2020
4080 Clouds -3 1008 73 10000 12.3 200 10:19 19.01.2020
4081 Clouds -4 1009 79 10000 14.9 200 09:55 19.01.2020
4082 Clouds -4 1009 73 10000 13.9 190 09:36 19.01.2020
4083 Clouds -4 1009 73 10000 13.9 190 09:18 19.01.2020
4084 Clouds -4 1008 79 10000 13.9 190 08:44 19.01.2020
4085 Clouds -4 1008 73 10000 15.4 190 08:26 19.01.2020
4086 Clouds -4 1008 79 10000 16.5 190 07:42 19.01.2020
4087 Clouds -4 1008 79 10000 14.9 190 07:22 19.01.2020
4088 Clouds -4 1008 79 10000 14.4 190 06:53 19.01.2020
4089 Clouds -4 1008 73 10000 13.9 190 06:21 19.01.2020
4090 Clouds -4 1008 68 10000 14.4 170 02:47 19.01.2020
4091 Clouds -4 1008 68 10000 12.3 180 02:24 19.01.2020
4092 Clouds -4 1007 68 10000 11.8 170 01:25 19.01.2020
4093 Clouds -4 1007 68 10000 10.3 180 00:54 19.01.2020
4094 Clouds -4 1007 73 10000 9.3 180 00:29 19.01.2020
4095 Clouds -4 1007 73 10000 9.3 180 23:59 18.01.2020
4096 Clouds -4 1007 73 10000 9.3 180 23:41 18.01.2020
4097 Clouds -4 1007 68 10000 9.8 160 23:23 18.01.2020
4098 Clouds -5 1007 73 10000 11.8 150 22:55 18.01.2020
4099 Clouds -4 1007 68 10000 10.8 170 22:37 18.01.2020
4100 Clouds -4 1007 68 10000 10.8 170 22:19 18.01.2020
4101 Clouds -4 1007 68 10000 14.4 160 21:57 18.01.2020
4102 Clouds -6 1008 67 10000 12.9 160 21:38 18.01.2020
4103 Clouds -6 1008 67 10000 12.9 160 21:19 18.01.2020
4104 Clouds -6 1008 73 10000 13.9 150 20:43 18.01.2020
4105 Clouds -5 1008 67 10000 12.9 150 20:21 18.01.2020
4106 Clouds -7 1008 73 10000 13.4 140 19:59 18.01.2020
4107 Clouds -7 1008 73 10000 13.4 140 19:41 18.01.2020
4108 Clouds -6 1008 67 10000 14.9 150 19:22 18.01.2020
4109 Clouds -7 1008 73 10000 15.9 160 18:42 18.01.2020
4110 Clouds -7 1008 67 10000 10.8 160 18:22 18.01.2020
4111 Clouds -7 1008 67 10000 3.6 120 17:56 18.01.2020
4112 Clouds -7 1008 67 10000 8.2 150 17:37 18.01.2020
4113 Clouds -7 1008 67 10000 8.2 150 17:19 18.01.2020
4114 Clouds -8 1008 72 10000 5.7 150 16:55 18.01.2020
4115 Clouds -8 1008 72 10000 5.7 150 16:55 18.01.2020
4116 Clouds -8 1008 67 10000 6.2 150 16:36 18.01.2020
4117 Clouds -8 1008 67 10000 6.2 150 16:18 18.01.2020
4118 Clouds -8 1008 67 10000 6.2 160 15:41 18.01.2020
4119 Clouds -8 1009 61 10000 8.7 170 15:23 18.01.2020
4120 Clouds -8 1009 61 10000 8.7 170 14:57 18.01.2020
4121 Clouds -8 1009 67 10000 9.3 170 14:39 18.01.2020
4122 Clouds -8 1009 67 10000 9.3 170 14:18 18.01.2020
4123 Clouds -8 1009 67 10000 7.7 160 13:43 18.01.2020
4124 Clouds -7 1009 62 10000 6.2 180 13:24 18.01.2020
4125 Clouds -7 1010 62 10000 10.8 130 12:57 18.01.2020
4126 Clouds -7 1010 62 10000 10.8 130 12:57 18.01.2020
4127 Clouds -8 1010 61 10000 11.3 140 12:38 18.01.2020
4128 Clouds -8 1010 61 10000 11.3 140 12:20 18.01.2020
4129 Clouds -7 1010 62 10000 10.8 130 11:44 18.01.2020
4130 Clouds -7 1010 62 10000 12.9 140 11:22 18.01.2020
4131 Clouds -7 1010 62 10000 12.9 140 10:57 18.01.2020
4132 Clouds -7 1010 62 10000 13.4 140 10:38 18.01.2020
4133 Clouds -7 1010 62 10000 13.4 140 10:20 18.01.2020
4134 Clouds -7 1010 62 10000 12.3 150 09:46 18.01.2020
4135 Clouds -7 1010 57 10000 11.3 160 09:28 18.01.2020
4136 Clouds -7 1010 57 10000 10.8 160 08:56 18.01.2020
4137 Clouds -6 1010 57 10000 8.7 170 08:38 18.01.2020
4138 Clear -6 1010 57 10000 8.7 170 08:19 18.01.2020
4139 Clear -6 1010 57 10000 10.3 160 07:47 18.01.2020
4140 Clear -6 1010 57 10000 9.8 160 07:29 18.01.2020
4141 Clear -6 1010 57 10000 6.7 170 06:47 18.01.2020
4142 Clear -6 1010 57 10000 6.2 180 05:59 18.01.2020
4143 Clear -6 1010 57 10000 6.2 180 05:21 18.01.2020
4144 Clear -6 1011 73 10000 5.1 180 02:55 18.01.2020
4145 Clear -6 1011 67 10000 7.7 190 01:54 18.01.2020
4146 Clear -6 1011 67 10000 7.7 190 01:30 18.01.2020
4147 Clear -6 1012 67 10000 9.8 190 00:37 18.01.2020
4148 Clear -6 1012 67 10000 9.8 190 00:37 18.01.2020
4149 Clear -6 1012 67 10000 9.8 190 00:37 18.01.2020
4150 Clear -6 1012 67 10000 9.8 190 00:18 18.01.2020
4151 Clear -6 1012 67 10000 8.2 190 23:41 17.01.2020
4152 Clear -5 1012 67 10000 8.7 190 23:20 17.01.2020
4153 Clear -6 1012 67 10000 8.7 190 22:46 17.01.2020
4154 Clear -6 1012 61 10000 6.2 190 22:22 17.01.2020
4155 Clear -6 1013 61 10000 4.1 180 21:59 17.01.2020
4156 Clear -6 1013 61 10000 4.1 180 21:41 17.01.2020
4157 Clear -5 1013 57 10000 3.6 180 21:22 17.01.2020
4158 Clear -5 1013 67 10000 3.1 180 20:58 17.01.2020
4159 Clouds -8 1013 78 10000 3.6 190 20:38 17.01.2020
4160 Clouds -7 1013 78 10000 3.6 190 20:20 17.01.2020
4161 Clouds -6 1013 67 10000 3.6 190 19:55 17.01.2020
4162 Clouds -6 1013 67 10000 3.6 190 19:55 17.01.2020
4163 Clouds -6 1013 72 10000 3.6 190 19:37 17.01.2020
4164 Clouds -6 1013 72 10000 3.6 190 19:19 17.01.2020
4165 Clouds -7 1013 72 10000 3.6 200 18:56 17.01.2020
4166 Clouds -6 1013 79 10000 3.1 190 18:36 17.01.2020
4167 Clouds -6 1013 79 10000 3.1 190 18:18 17.01.2020
4168 Clouds -7 1013 79 10000 1.5 180 17:39 17.01.2020
4169 Clouds -7 1013 79 10000 1.5 180 17:20 17.01.2020
4170 Clouds -7 1013 72 10000 1.5 160 16:43 17.01.2020
4171 Clouds -5 1012 73 10000 2.1 160 16:21 17.01.2020
4172 Clouds -6 1013 85 10000 2.1 150 15:58 17.01.2020
4173 Clouds -9 1012 72 10000 2.1 140 15:39 17.01.2020
4174 Clouds -9 1012 72 10000 2.1 140 15:20 17.01.2020
4175 Clouds -8 1012 79 10000 2.6 80 14:43 17.01.2020
4176 Clouds -7 1012 85 10000 3.1 80 14:24 17.01.2020
4177 Rain -7 1012 85 10000 3.6 90 13:43 17.01.2020
4178 Rain -6 1012 79 10000 3.6 90 13:23 17.01.2020
4179 Clouds -5 1011 73 10000 4.6 50 12:47 17.01.2020
4180 Clouds -4 1011 79 10000 6.2 20 12:23 17.01.2020
4181 Clouds -3 1011 49 10000 3.6 30 11:43 17.01.2020
4182 Clouds -3 1010 53 10000 2.6 20 11:20 17.01.2020
4183 Clouds -3 1010 58 10000 4.1 30 10:57 17.01.2020
4184 Clouds -3 1010 58 10000 4.1 30 10:57 17.01.2020
4185 Clouds -3 1010 58 10000 4.1 30 10:57 17.01.2020
4186 Clouds -3 1010 53 10000 3.6 360 10:39 17.01.2020
4187 Clouds -3 1010 53 10000 3.6 360 10:20 17.01.2020
4188 Clouds -3 1009 58 10000 5.1 30 09:56 17.01.2020
4189 Clouds -3 1009 58 10000 5.7 10 09:37 17.01.2020
4190 Clouds -3 1009 58 10000 5.7 10 09:18 17.01.2020
4191 Clouds -4 1009 58 10000 5.1 360 08:42 17.01.2020
4192 Clouds -4 1008 58 10000 8.2 360 08:23 17.01.2020
4193 Snow -4 1008 62 10000 8.7 10 07:49 17.01.2020
4194 Clouds -4 1007 62 10000 7.7 20 07:30 17.01.2020
4195 Clouds -5 1007 73 10000 8.7 20 06:56 17.01.2020
4196 Snow -5 1006 79 10000 8.2 30 06:36 17.01.2020
4197 Snow -4 1005 85 10000 9.3 40 05:22 17.01.2020
4198 Clouds -10 1005 94 0 1.83 69 03:38 17.01.2020
4199 Clouds -10 1005 94 0 1.83 69 02:42 17.01.2020
4200 Clouds -10 1004 90 0 1.42 120 01:45 17.01.2020
4201 Clouds -10 1004 90 0 1.42 120 01:27 17.01.2020
4202 Clouds -10 1003 90 0 1.66 128 00:43 17.01.2020
4203 Clouds -6 1001 79 10000 5.7 110 00:19 17.01.2020
4204 Clouds -6 1001 79 10000 5.7 110 23:41 16.01.2020
4205 Clouds -6 1001 79 10000 5.7 110 23:23 16.01.2020
4206 Clouds -5 1001 79 10000 5.7 120 22:43 16.01.2020
4207 -273 0 0 0 0 0 22:22 16.01.2020
4208 Clouds -5 1001 79 10000 5.1 130 21:57 16.01.2020
4209 Clouds -4 1001 79 10000 5.7 120 21:38 16.01.2020
4210 Clouds -4 1001 79 10000 5.7 120 21:19 16.01.2020
4211 Clouds -4 1001 73 10000 4.6 90 20:58 16.01.2020
4212 Clouds -4 1001 79 10000 6.2 130 20:39 16.01.2020
4213 Clouds -4 1001 79 10000 6.2 130 20:20 16.01.2020
4214 Clouds -4 1000 79 10000 5.1 110 19:56 16.01.2020
4215 Clouds -4 1000 79 10000 5.1 110 19:56 16.01.2020
4216 Clouds -5 1000 79 10000 6.2 100 19:38 16.01.2020
4217 Clouds -5 1000 79 10000 6.2 100 19:38 16.01.2020
4218 Clouds -5 1000 79 10000 6.2 100 19:20 16.01.2020
4219 Clouds -5 1000 85 10000 5.7 120 18:56 16.01.2020
4220 Clouds -4 1000 73 10000 6.2 120 18:37 16.01.2020
4221 Clouds -4 1000 73 10000 6.2 120 18:18 16.01.2020
4222 Clouds -4 1000 73 10000 6.2 120 18:18 16.01.2020
4223 Clouds -3 1000 73 10000 5.1 120 17:55 16.01.2020
4224 Clouds -3 1000 73 10000 6.7 120 17:37 16.01.2020
4225 Clouds -3 1000 73 10000 6.7 120 17:18 16.01.2020
4226 Clouds -3 1000 79 10000 9.8 140 16:40 16.01.2020
4227 Snow -3 1000 73 10000 7.2 130 16:21 16.01.2020
4228 Clouds -4 1000 79 10000 5.7 110 15:55 16.01.2020
4229 Snow -4 1000 79 10000 7.7 120 15:37 16.01.2020
4230 Snow -4 1000 79 10000 7.7 120 15:18 16.01.2020
4231 Clouds -4 1000 79 10000 6.7 120 14:41 16.01.2020
4232 Clouds -4 1000 79 10000 6.2 120 14:23 16.01.2020
4233 Rain -4 1000 79 10000 7.2 110 13:47 16.01.2020
4234 Rain -4 1000 79 10000 7.7 100 13:28 16.01.2020
4235 Snow -4 1000 79 10000 8.7 110 12:57 16.01.2020
4236 Snow -4 1000 79 10000 8.7 110 12:39 16.01.2020
4237 Rain -4 1000 85 10000 8.7 110 12:20 16.01.2020
4238 Snow -4 1000 79 10000 9.8 110 11:42 16.01.2020
4239 Snow -4 1000 79 10000 8.7 110 11:23 16.01.2020
4240 Snow -3 1000 79 10000 9.3 110 10:56 16.01.2020
4241 Snow -4 1000 85 10000 9.8 100 10:37 16.01.2020
4242 Snow -4 1000 85 10000 9.8 100 10:19 16.01.2020
4243 Snow -4 999 79 10000 9.8 100 09:43 16.01.2020
4244 Snow -4 999 79 10000 10.3 110 09:24 16.01.2020
4245 Clouds -4 999 79 10000 11.8 100 08:58 16.01.2020
4246 Clouds -4 999 79 10000 11.8 100 08:40 16.01.2020
4247 Snow -4 998 79 10000 11.3 100 08:20 16.01.2020
4248 Clouds -4 998 79 10000 11.3 100 07:42 16.01.2020
4249 Clouds -5 998 79 10000 12.3 100 07:24 16.01.2020
4250 Clouds -5 998 79 10000 12.9 100 06:54 16.01.2020
4251 Clouds -5 997 85 10000 12.9 100 06:34 16.01.2020
4252 Clouds -4 996 79 10000 12.3 90 05:49 16.01.2020
4253 Snow -8 998 91 0 2.44 99 04:51 16.01.2020
4254 Clouds -4 995 73 10000 7.7 60 03:57 16.01.2020
4255 Clouds -4 995 73 10000 7.7 60 03:27 16.01.2020
4256 Clouds -4 994 73 10000 6.7 70 02:21 16.01.2020
4257 Snow -4 993 79 10000 8.7 80 00:43 16.01.2020
4258 Snow -4 993 85 10000 9.8 80 00:23 16.01.2020
4259 Snow -4 993 85 10000 8.2 70 23:45 15.01.2020
4260 Snow -4 992 85 9000 9.3 80 23:22 15.01.2020
4261 Snow -3 992 92 9000 9.3 70 22:57 15.01.2020
4262 Snow -3 991 85 9000 7.7 80 22:38 15.01.2020
4263 Snow -3 991 85 9000 7.7 80 22:18 15.01.2020
4264 Snow -3 991 92 4000 9.3 80 21:56 15.01.2020
4265 Snow -3 991 92 4000 9.3 80 21:56 15.01.2020
4266 Snow -3 990 92 4000 9.8 80 21:37 15.01.2020
4267 Snow -3 990 92 4000 9.8 80 21:19 15.01.2020
4268 Snow -3 990 92 4300 9.8 80 20:56 15.01.2020
4269 Snow -3 989 92 9000 10.3 90 20:38 15.01.2020
4270 Snow -3 989 92 9000 10.3 90 20:19 15.01.2020
4271 Snow -3 989 92 3500 11.8 80 19:54 15.01.2020
4272 Snow -4 989 92 3000 12.9 80 19:36 15.01.2020
4273 Snow -3 989 92 3000 12.9 80 19:18 15.01.2020
4274 Snow -3 988 92 5000 13.4 80 18:56 15.01.2020
4275 Snow -2 988 86 3000 13.4 80 18:37 15.01.2020
4276 Snow -2 988 86 3000 13.4 80 18:37 15.01.2020
4277 Snow -2 988 86 3000 13.4 80 18:19 15.01.2020
4278 Snow -2 988 86 4000 12.9 80 17:55 15.01.2020
4279 Snow -2 987 86 3000 14.4 80 17:36 15.01.2020
4280 Snow -2 987 86 3000 14.4 80 17:18 15.01.2020
4281 Snow -2 986 92 3500 14.9 80 16:40 15.01.2020
4282 Snow -2 986 92 3500 14.9 80 16:21 15.01.2020
4283 Snow -2 986 92 4000 13.9 80 15:56 15.01.2020
4284 Snow -2 986 92 4000 13.9 80 15:38 15.01.2020
4285 Snow -2 986 92 4000 13.9 80 15:18 15.01.2020
4286 Snow -2 986 86 1100 14.9 80 14:42 15.01.2020
4287 Snow -2 985 86 2300 14.9 80 14:19 15.01.2020
4288 Snow -2 985 86 10000 14.9 80 13:46 15.01.2020
4289 Snow -1 985 92 10000 15.4 80 13:26 15.01.2020
4290 Snow -1 985 92 4500 15.4 80 12:59 15.01.2020
4291 Snow -1 985 92 4500 15.4 80 12:39 15.01.2020
4292 Snow -1 984 86 8000 15.4 80 12:19 15.01.2020
4293 Snow -1 984 86 8000 15.4 80 12:19 15.01.2020
4294 Snow -1 984 86 8000 13.4 80 11:56 15.01.2020
4295 Snow -1 984 86 8000 15.9 90 11:37 15.01.2020
4296 Snow -1 984 86 8000 15.9 90 11:19 15.01.2020
4297 Snow -1 983 86 9000 15.4 90 10:43 15.01.2020
4298 Snow -1 983 92 5000 14.9 90 10:25 15.01.2020
4299 Snow -1 983 86 5000 15.4 90 09:44 15.01.2020
4300 Snow -1 983 86 9000 15.9 90 09:23 15.01.2020
4301 Clouds -1 982 86 10000 18.5 90 08:58 15.01.2020
4302 Clouds -1 982 86 10000 18.5 90 08:39 15.01.2020
4303 Snow -1 982 86 8000 19 90 08:21 15.01.2020
4304 Snow -1 982 86 5000 19 90 07:51 15.01.2020
4305 Snow -2 981 86 10000 14.9 90 07:31 15.01.2020
4306 Snow -2 981 79 10000 14.4 100 06:46 15.01.2020
4307 Snow -2 981 79 10000 15.9 110 06:20 15.01.2020
4308 Snow -3 981 86 6000 18.5 100 04:44 15.01.2020
4309 Snow -4 982 85 5000 14.4 100 02:38 15.01.2020
4310 Snow -4 982 85 10000 15.9 100 01:28 15.01.2020
4311 Clouds -4 982 79 10000 14.4 110 00:47 15.01.2020
4312 Clouds -4 983 79 10000 13.4 100 00:27 15.01.2020
4313 Clouds -4 983 79 10000 12.3 90 23:57 14.01.2020
4314 Clouds -4 983 79 10000 11.8 100 23:38 14.01.2020
4315 Clouds -2 983 79 10000 11.8 100 23:19 14.01.2020
4316 Clouds -2 984 79 10000 10.3 90 22:41 14.01.2020
4317 Clouds -2 984 79 10000 10.3 90 22:19 14.01.2020
4318 Clouds -3 985 79 10000 10.8 100 21:58 14.01.2020
4319 Clouds -3 986 79 10000 11.8 110 21:40 14.01.2020
4320 Clouds -3 986 79 10000 11.8 110 21:21 14.01.2020
4321 Clouds -3 986 79 10000 11.3 110 20:59 14.01.2020
4322 Clouds -3 986 79 10000 11.3 110 20:40 14.01.2020
4323 Clouds -3 986 79 10000 11.3 110 20:40 14.01.2020
4324 Clouds -3 987 73 10000 10.8 100 20:20 14.01.2020
4325 Clouds -3 987 73 10000 10.8 100 20:20 14.01.2020
4326 Clouds -3 987 73 10000 10.8 100 19:56 14.01.2020
4327 Clouds -3 988 73 10000 10.3 110 19:38 14.01.2020
4328 Clouds -3 988 73 10000 10.3 110 19:19 14.01.2020
4329 Clouds -5 988 79 10000 9.3 100 18:56 14.01.2020
4330 Clouds -5 989 79 10000 9.3 110 18:37 14.01.2020
4331 Clouds -5 989 79 10000 9.3 110 18:19 14.01.2020
4332 Clouds -3 990 79 10000 10.3 120 17:39 14.01.2020
4333 Clouds -3 990 79 10000 10.3 120 17:19 14.01.2020
4334 Clouds -3 990 85 10000 8.7 130 16:55 14.01.2020
4335 Clouds -3 991 85 10000 8.7 130 16:37 14.01.2020
4336 Clouds -3 991 85 10000 8.7 130 16:19 14.01.2020
4337 Clouds -3 991 85 10000 5.1 90 15:43 14.01.2020
4338 Clouds -3 992 79 10000 5.7 80 15:19 14.01.2020
4339 Clouds -2 992 85 10000 5.7 70 14:57 14.01.2020
4340 Clouds -5 992 85 10000 6.7 80 14:39 14.01.2020
4341 Clouds -5 992 85 10000 6.7 80 14:18 14.01.2020
4342 Clouds -5 992 85 10000 5.7 70 13:42 14.01.2020
4343 Clouds -5 992 85 10000 5.7 70 13:19 14.01.2020
4344 Clouds -5 992 85 10000 6.2 70 12:43 14.01.2020
4345 Rain -5 993 85 10000 6.7 50 12:25 14.01.2020
4346 Rain -4 993 79 10000 6.2 80 11:59 14.01.2020
4347 Rain -4 993 79 10000 6.2 80 11:40 14.01.2020
4348 Rain -4 993 79 10000 6.2 80 11:40 14.01.2020
4349 Rain -4 993 79 10000 7.7 80 11:22 14.01.2020
4350 Rain -4 992 79 10000 7.2 70 10:56 14.01.2020
4351 Clouds -3 992 79 10000 7.2 60 10:37 14.01.2020
4352 Clouds -3 992 79 10000 7.2 60 10:19 14.01.2020
4353 Snow -3 992 85 10000 8.2 70 09:43 14.01.2020
4354 Snow -3 992 85 10000 8.2 70 09:43 14.01.2020
4355 Snow -3 992 85 10000 8.2 70 09:24 14.01.2020
4356 Snow -3 992 85 5000 9.3 70 08:59 14.01.2020
4357 Snow -3 992 85 5000 9.3 70 08:40 14.01.2020
4358 Snow -2 991 85 9000 9.3 70 08:21 14.01.2020
4359 Snow -2 991 92 8000 8.7 60 07:51 14.01.2020
4360 Snow -4 991 92 8000 9.8 60 07:24 14.01.2020
4361 Snow -4 990 92 9000 9.3 60 06:43 14.01.2020
4362 Snow -3 989 92 4000 12.9 80 05:58 14.01.2020
4363 Snow -2 987 92 3000 14.4 90 04:51 14.01.2020
4364 Snow -2 986 86 3000 9.8 90 03:47 14.01.2020
4365 Snow -2 985 86 5000 10.3 90 02:39 14.01.2020
4366 Snow -2 983 92 7000 5.1 70 01:31 14.01.2020
4367 Snow -1 983 92 10000 5.1 80 00:48 14.01.2020
4368 Snow -2 982 92 10000 4.6 70 00:22 14.01.2020
4369 Snow 0 982 100 4000 2.1 60 23:47 13.01.2020
4370 Snow 0 982 92 8000 1.5 80 23:19 13.01.2020
4371 Snow 0 982 92 10000 1 0 22:58 13.01.2020
4372 Snow 0 982 92 10000 1 0 22:39 13.01.2020
4373 Snow 0 981 80 10000 1 0 22:20 13.01.2020
4374 Rain 0 981 86 10000 1 0 21:56 13.01.2020
4375 Rain 1 981 93 10000 4.1 210 21:37 13.01.2020
4376 Rain 1 981 93 10000 4.1 210 21:18 13.01.2020
4377 Snow 1 981 93 9000 6.2 210 20:56 13.01.2020
4378 Clouds 0 980 74 10000 2.6 200 20:38 13.01.2020
4379 Clouds 0 980 74 10000 2.6 200 20:19 13.01.2020
4380 Clouds 0 980 71 10000 5.7 210 19:42 13.01.2020
4381 Clouds -2 980 74 10000 3.1 210 19:22 13.01.2020
4382 Clouds -1 980 74 10000 2.1 190 18:59 13.01.2020
4383 Clouds 0 980 71 10000 3.1 200 18:40 13.01.2020
4384 Clouds 0 980 71 10000 3.1 200 18:20 13.01.2020
4385 Clouds 0 980 71 10000 3.1 200 18:20 13.01.2020
4386 Clouds 0 980 71 10000 3.1 200 18:20 13.01.2020
4387 Clouds 0 980 71 10000 5.1 210 17:59 13.01.2020
4388 Clouds 1 980 71 10000 4.1 190 17:40 13.01.2020
4389 Clouds 1 980 79 10000 4.1 190 17:21 13.01.2020
4390 Clouds 1 980 79 10000 4.1 190 17:21 13.01.2020
4391 Clouds 0 980 74 10000 5.1 200 16:55 13.01.2020
4392 Snow -4 982 79 0 2.61 162 16:36 13.01.2020
4393 Snow -4 982 79 0 2.61 162 16:18 13.01.2020
4394 Snow -4 982 79 0 2.61 162 15:41 13.01.2020
4395 Snow -4 982 79 0 2.61 162 15:21 13.01.2020
4396 Snow -4 982 79 0 2.61 162 14:56 13.01.2020
4397 Snow -4 982 79 0 2.61 162 14:36 13.01.2020
4398 Clouds -5 983 66 0 4.51 187 14:18 13.01.2020
4399 Clouds -5 983 66 0 4.51 187 13:40 13.01.2020
4400 Clouds -4 983 72 0 5.42 189 13:22 13.01.2020
4401 Clouds -4 983 72 0 5.42 189 12:58 13.01.2020
4402 Clouds 0 981 72 10000 6.2 210 12:40 13.01.2020
4403 Clouds 0 981 72 10000 6.2 210 12:21 13.01.2020
4404 Clouds 0 981 72 10000 6.2 210 11:54 13.01.2020
4405 Clouds 0 981 72 10000 6.7 220 11:36 13.01.2020
4406 Clouds 2 981 76 10000 6.7 220 11:18 13.01.2020
4407 Clouds 1 981 76 10000 6.7 210 10:55 13.01.2020
4408 Clouds 1 981 76 10000 6.2 200 10:36 13.01.2020
4409 Clouds 1 981 76 10000 6.2 200 10:18 13.01.2020
4410 Clouds 2 981 76 10000 7.7 220 09:40 13.01.2020
4411 Clouds 1 981 76 10000 6.7 210 09:40 13.01.2020
4412 Clouds 2 981 76 10000 7.7 220 09:22 13.01.2020
4413 Clouds 2 980 76 10000 6.2 240 08:42 13.01.2020
4414 Clouds 2 980 80 10000 5.1 260 08:21 13.01.2020
4415 Clouds 2 980 80 10000 7.7 280 07:54 13.01.2020
4416 Clouds 1 980 74 10000 8.7 230 07:35 13.01.2020
4417 Clouds 0 980 84 10000 7.2 220 06:51 13.01.2020
4418 Clouds 1 980 80 10000 9.3 260 06:22 13.01.2020
4419 Snow 1 981 86 10000 13.4 260 05:36 13.01.2020
4420 Clouds 1 980 86 10000 8.7 250 04:25 13.01.2020
4421 Clouds 1 981 86 10000 14.4 270 03:26 13.01.2020
4422 Clouds 1 980 80 10000 7.2 230 02:47 13.01.2020
4423 Clouds 1 980 80 10000 7.2 230 02:29 13.01.2020
4424 Snow 2 980 80 10000 10.8 280 01:22 13.01.2020
4425 Snow 2 980 80 10000 10.8 280 01:22 13.01.2020
4426 Clouds 1 980 86 10000 10.3 270 00:42 13.01.2020
4427 Clouds 2 980 80 10000 11.3 270 00:24 13.01.2020
4428 Clouds 2 980 80 10000 11.8 260 23:55 12.01.2020
4429 Clouds 1 979 92 10000 11.3 260 23:36 12.01.2020
4430 Clouds 2 979 89 10000 11.3 260 23:18 12.01.2020
4431 Clouds 2 979 89 10000 11.3 260 23:18 12.01.2020
4432 Snow 2 979 89 10000 11.3 260 22:42 12.01.2020
4433 Clouds 1 979 89 10000 5.7 210 22:24 12.01.2020
4434 Clouds 1 979 89 10000 5.7 210 22:24 12.01.2020
4435 Snow 2 979 89 10000 4.1 230 21:57 12.01.2020
4436 Snow 1 979 100 10000 3.1 220 21:38 12.01.2020
4437 Snow 1 979 100 10000 3.1 220 21:19 12.01.2020
4438 Snow 1 979 100 4500 2.1 220 20:57 12.01.2020
4439 Snow -1 979 100 800 2.6 220 20:38 12.01.2020
4440 Snow -1 979 100 800 2.6 220 20:20 12.01.2020
4441 Snow -1 979 92 800 2.1 220 19:56 12.01.2020
4442 Snow -2 979 92 500 1 0 19:38 12.01.2020
4443 Snow -2 979 92 500 1 0 19:19 12.01.2020
4444 Snow -2 979 100 500 3.1 170 18:57 12.01.2020
4445 Snow 1 979 92 600 7.2 130 18:39 12.01.2020
4446 Snow 1 979 92 600 7.2 130 18:21 12.01.2020
4447 Snow 1 979 92 1800 8.2 100 17:55 12.01.2020
4448 Snow -1 979 92 1800 9.3 110 17:37 12.01.2020
4449 Snow -1 979 92 1800 9.3 110 17:18 12.01.2020
4450 Snow -1 979 92 1500 9.3 130 16:54 12.01.2020
4451 Snow -1 979 92 1800 8.7 150 16:36 12.01.2020
4452 Snow -1 979 92 1800 8.7 150 16:18 12.01.2020
4453 Snow -1 979 92 2700 8.7 150 15:42 12.01.2020
4454 Snow -1 979 92 2700 8.7 150 15:23 12.01.2020
4455 Snow -1 978 92 2700 10.3 140 14:55 12.01.2020
4456 Snow -1 978 92 3200 7.7 130 14:36 12.01.2020
4457 Snow -1 978 92 3200 7.7 130 14:18 12.01.2020
4458 Snow -2 978 92 3300 7.7 120 13:42 12.01.2020
4459 Snow -2 978 86 3200 7.7 130 13:23 12.01.2020
4460 Snow -2 977 92 2200 7.7 120 12:58 12.01.2020
4461 Snow -3 977 92 3500 9.3 120 12:38 12.01.2020
4462 Snow -3 977 92 3500 9.3 120 12:20 12.01.2020
4463 Snow -3 977 92 4400 8.7 120 11:57 12.01.2020
4464 Snow -3 977 92 4300 8.7 110 11:38 12.01.2020
4465 Snow -3 977 92 4300 8.7 110 11:19 12.01.2020
4466 Snow -3 977 92 3200 9.8 120 10:41 12.01.2020
4467 Snow -3 977 92 3700 10.3 120 10:21 12.01.2020
4468 Snow -3 976 92 4700 10.3 110 09:57 12.01.2020
4469 Snow -3 976 92 2700 10.8 120 09:38 12.01.2020
4470 Snow -3 976 92 2700 10.8 120 09:18 12.01.2020
4471 Snow -3 976 86 2100 10.8 120 08:44 12.01.2020
4472 Snow -3 976 86 4800 9.8 110 08:20 12.01.2020
4473 Snow -2 976 79 7000 9.8 110 07:40 12.01.2020
4474 Snow -3 976 86 9000 9.8 110 07:22 12.01.2020
4475 Snow -3 976 86 9000 9.8 110 06:48 12.01.2020
4476 Snow -4 975 92 6000 10.8 110 06:29 12.01.2020
4477 Snow -3 975 79 10000 8.7 110 05:24 12.01.2020
4478 Snow -3 976 86 10000 10.8 110 03:55 12.01.2020
4479 Snow -3 976 86 10000 9.8 110 03:23 12.01.2020
4480 Clouds -3 976 79 10000 13.4 120 02:33 12.01.2020
4481 Clouds -3 977 86 10000 12.3 130 01:44 12.01.2020
4482 Clouds -3 977 86 10000 12.3 130 01:22 12.01.2020
4483 Clouds -3 977 79 10000 10.3 120 00:41 12.01.2020
4484 Snow -3 978 86 10000 11.8 120 00:20 12.01.2020
4485 Snow -3 978 86 7000 12.3 120 23:42 11.01.2020
4486 Snow -3 978 86 7000 12.3 120 23:20 11.01.2020
4487 Snow -3 979 86 5000 12.9 140 22:58 11.01.2020
4488 Snow -3 979 86 5000 12.9 140 22:58 11.01.2020
4489 Snow -3 979 86 5000 12.9 140 22:40 11.01.2020
4490 Snow -3 979 86 10000 10.8 140 22:20 11.01.2020
4491 Clouds -3 980 86 10000 8.2 140 21:58 11.01.2020
4492 Clouds -3 980 79 10000 5.7 100 21:40 11.01.2020
4493 Clouds -3 980 79 10000 5.7 100 21:18 11.01.2020
4494 Clouds -2 980 79 10000 7.2 100 20:41 11.01.2020
4495 Clouds -2 981 79 10000 6.7 110 20:22 11.01.2020
4496 Clouds -2 981 74 10000 7.2 110 19:58 11.01.2020
4497 Clouds -2 982 74 10000 5.7 120 19:39 11.01.2020
4498 Clouds -2 982 74 10000 5.7 120 19:21 11.01.2020
4499 Clouds -2 983 79 10000 5.1 150 18:59 11.01.2020
4500 Clouds -2 984 79 10000 5.1 120 18:39 11.01.2020
4501 Clouds -2 984 79 10000 5.1 120 18:20 11.01.2020
4502 Clouds -2 985 74 10000 5.7 150 17:58 11.01.2020
4503 Clouds -2 985 74 10000 5.7 150 17:40 11.01.2020
4504 Clouds -2 985 74 10000 6.2 150 17:20 11.01.2020
4505 Clouds -1 985 74 10000 4.6 140 16:46 11.01.2020
4506 Clouds -2 986 79 10000 4.6 140 16:28 11.01.2020
4507 Clouds -1 987 68 10000 5.1 120 15:59 11.01.2020
4508 Clouds -1 987 68 10000 5.1 120 15:41 11.01.2020
4509 Clouds -2 988 74 10000 4.6 110 15:22 11.01.2020
4510 Clouds -1 989 68 10000 3.6 110 14:58 11.01.2020
4511 Clouds -1 989 68 10000 3.6 110 14:58 11.01.2020
4512 Clouds -1 989 68 10000 3.6 110 14:39 11.01.2020
4513 Clouds -1 989 68 10000 3.6 110 14:39 11.01.2020
4514 Clouds -1 990 74 10000 4.6 140 14:21 11.01.2020
4515 Clouds 0 991 80 10000 4.1 150 13:55 11.01.2020
4516 Clouds 0 991 77 10000 4.6 160 13:36 11.01.2020
4517 Clouds 0 991 77 10000 4.6 160 13:18 11.01.2020
4518 Clouds 0 992 77 10000 2.6 180 12:41 11.01.2020
4519 Clouds 0 993 77 10000 6.2 200 12:23 11.01.2020
4520 Clouds -1 993 80 10000 2.6 190 11:48 11.01.2020
4521 Clouds 0 994 83 10000 6.7 210 11:27 11.01.2020
4522 Clouds 0 994 83 10000 8.2 200 10:55 11.01.2020
4523 Clouds 0 994 83 10000 6.7 200 10:37 11.01.2020
4524 Clouds 0 994 83 10000 6.7 200 10:37 11.01.2020
4525 Clouds 0 994 83 10000 6.7 200 10:18 11.01.2020
4526 Rain 1 995 80 10000 5.1 210 09:39 11.01.2020
4527 Rain 1 995 80 10000 5.1 210 09:20 11.01.2020
4528 Rain 1 995 80 10000 5.1 210 09:20 11.01.2020
4529 Rain 0 995 83 10000 7.2 250 08:42 11.01.2020
4530 Snow 1 995 80 10000 10.8 260 08:22 11.01.2020
4531 Clouds 1 995 80 10000 11.3 260 07:44 11.01.2020
4532 Clouds 0 995 74 10000 12.3 270 07:26 11.01.2020
4533 Rain 1 995 74 10000 10.8 260 06:52 11.01.2020
4534 Rain 1 995 74 10000 10.8 260 06:52 11.01.2020
4535 Rain 1 995 74 10000 10.8 260 06:19 11.01.2020
4536 Snow 0 996 73 5000 9.3 250 04:48 11.01.2020
4537 Snow 0 996 73 5000 9.3 250 04:29 11.01.2020
4538 Snow 0 997 73 1000 13.4 270 03:28 11.01.2020
4539 Rain 1 996 74 10000 9.3 260 02:40 11.01.2020
4540 Snow 0 997 77 2000 20.1 280 01:44 11.01.2020
4541 Snow 1 996 80 8000 21.6 270 01:20 11.01.2020
4542 Clouds 0 996 75 10000 16.5 260 00:44 11.01.2020
4543 Snow 0 996 75 3500 18.5 270 00:20 11.01.2020
4544 Snow 1 996 75 5000 22.1 270 23:41 10.01.2020
4545 Clouds 1 996 75 7000 13.9 270 23:41 10.01.2020
4546 Clouds 1 996 75 7000 13.9 270 23:22 10.01.2020
4547 Rain 1 996 95 10000 7.2 210 22:59 10.01.2020
4548 Rain 1 996 95 10000 7.2 210 22:40 10.01.2020
4549 Snow 1 996 95 6000 9.8 240 22:21 10.01.2020
4550 Snow 2 996 95 10000 6.2 190 21:57 10.01.2020
4551 Snow 2 996 95 4000 6.7 190 21:38 10.01.2020
4552 Snow 2 996 95 4000 6.7 190 21:19 10.01.2020
4553 Clouds -1 996 100 10000 3.1 160 20:55 10.01.2020
4554 Clouds -1 996 100 10000 2.1 230 20:37 10.01.2020
4555 Clouds -1 996 100 10000 2.1 230 20:18 10.01.2020
4556 Snow 1 997 92 4200 1 0 19:39 10.01.2020
4557 Snow 1 997 92 4200 1 0 19:20 10.01.2020
4558 Snow 2 997 92 5000 4.1 0 18:44 10.01.2020
4559 Clouds 3 997 80 10000 3.6 240 18:20 10.01.2020
4560 Snow 3 997 69 10000 2.6 140 17:58 10.01.2020
4561 Snow 3 997 69 10000 1 0 17:40 10.01.2020
4562 Clouds 3 997 69 10000 1 0 17:21 10.01.2020
4563 Clouds 3 996 64 10000 3.1 40 16:59 10.01.2020
4564 Clouds 3 996 64 10000 3.1 40 16:41 10.01.2020
4565 Clouds 3 996 64 10000 3.1 40 16:21 10.01.2020
4566 Clouds 2 996 64 10000 3.1 80 15:56 10.01.2020
4567 Clouds 3 996 69 10000 7.2 250 15:37 10.01.2020
4568 Clouds 3 996 69 10000 7.2 250 15:19 10.01.2020
4569 Clouds 3 996 74 10000 6.7 240 14:56 10.01.2020
4570 Rain 3 995 80 10000 5.7 260 14:38 10.01.2020
4571 Rain 3 995 80 10000 5.7 260 14:19 10.01.2020
4572 Snow 3 995 73 10000 5.7 280 13:45 10.01.2020
4573 Rain 3 995 75 10000 6.7 280 13:26 10.01.2020
4574 Rain 3 995 75 10000 5.7 280 12:59 10.01.2020
4575 Rain 2 995 75 10000 6.7 270 12:40 10.01.2020
4576 Rain 2 995 75 10000 6.7 270 12:21 10.01.2020
4577 Rain 2 995 75 9000 6.7 270 11:57 10.01.2020
4578 Snow 2 994 75 1500 5.7 0 11:39 10.01.2020
4579 Snow 2 994 95 1500 5.7 0 11:19 10.01.2020
4580 Snow 2 994 95 10000 4.1 280 10:58 10.01.2020
4581 Snow 2 993 86 3000 5.1 270 10:38 10.01.2020
4582 Snow 2 993 86 3000 5.1 270 10:18 10.01.2020
4583 Rain 3 992 80 10000 2.1 0 09:45 10.01.2020
4584 Drizzle 3 992 95 10000 5.7 270 09:26 10.01.2020
4585 Rain 3 991 74 10000 4.1 0 08:56 10.01.2020
4586 Rain 3 991 95 10000 4.1 0 08:37 10.01.2020
4587 Rain 3 991 96 10000 4.1 0 08:18 10.01.2020
4588 Clouds 2 990 96 10000 5.1 0 07:41 10.01.2020
4589 Clouds 2 990 96 10000 5.1 0 07:19 10.01.2020
4590 Clouds 2 989 96 10000 7.7 270 06:41 10.01.2020
4591 Snow 2 989 96 3000 8.7 270 06:23 10.01.2020
4592 Snow 2 988 97 8000 9.8 270 05:19 10.01.2020
4593 Rain 2 986 80 9000 23.7 280 03:32 10.01.2020
4594 Snow 3 985 74 10000 26.7 280 02:53 10.01.2020
4595 Snow 3 985 74 10000 26.7 280 02:33 10.01.2020
4596 Clouds 2 985 93 10000 27.8 300 01:33 10.01.2020
4597 Clouds 1 984 97 8000 23.1 300 00:53 10.01.2020
4598 Rain 3 983 86 8000 21.1 300 00:35 10.01.2020
4599 Rain 2 983 93 10000 9.8 270 23:57 09.01.2020
4600 Clouds 3 983 97 10000 8.2 270 23:37 09.01.2020
4601 Clouds 3 983 94 10000 8.2 270 23:19 09.01.2020
4602 Clouds 3 982 94 10000 15.9 300 22:56 09.01.2020
4603 Clouds 3 982 74 10000 12.9 300 22:37 09.01.2020
4604 Clouds 3 982 74 10000 12.9 300 22:18 09.01.2020
4605 Rain 2 981 94 10000 14.4 310 21:55 09.01.2020
4606 Clouds 2 984 100 4000 12.9 290 21:37 09.01.2020
4607 Clouds 2 984 100 4000 12.9 290 21:18 09.01.2020
4608 Rain 3 979 86 10000 13.9 330 20:55 09.01.2020
4609 Rain 3 979 86 10000 13.9 330 20:37 09.01.2020
4610 Rain 4 978 94 10000 17 330 20:18 09.01.2020
4611 Rain 4 977 86 10000 19.5 340 19:39 09.01.2020
4612 Rain 4 975 86 10000 20.6 330 19:21 09.01.2020
4613 Rain 4 975 86 10000 20.6 330 18:59 09.01.2020
4614 Rain 4 974 93 10000 18 320 18:40 09.01.2020
4615 Rain 4 973 86 6000 18.5 310 18:21 09.01.2020
4616 Rain 4 971 86 10000 20.6 290 17:58 09.01.2020
4617 Rain 4 971 86 10000 20.6 290 17:40 09.01.2020
4618 Rain 3 971 93 10000 23.1 290 17:18 09.01.2020
4619 Snow 4 970 86 6000 22.1 280 16:46 09.01.2020
4620 Snow 3 970 93 7000 20.6 270 16:22 09.01.2020
4621 Clouds 3 969 97 5000 26.7 270 15:44 09.01.2020
4622 Rain 4 969 86 10000 29.3 270 15:25 09.01.2020
4623 Rain 4 969 86 10000 29.3 270 14:59 09.01.2020
4624 Snow 4 968 97 2000 19.5 240 14:41 09.01.2020
4625 Clouds 4 968 86 7000 14.9 240 14:19 09.01.2020
4626 Clouds 3 968 93 5000 20.6 260 13:57 09.01.2020
4627 Clouds 3 968 93 5000 20.6 260 13:38 09.01.2020
4628 Clouds 3 967 93 7000 13.9 240 13:19 09.01.2020
4629 Clouds 2 967 100 8000 15.9 240 12:57 09.01.2020
4630 Clouds 2 967 100 8000 15.9 240 12:38 09.01.2020
4631 Clouds 3 967 95 3000 18 250 12:18 09.01.2020
4632 Clouds 3 967 95 5000 10.3 230 11:43 09.01.2020
4633 Snow 1 967 95 4000 8.7 210 11:25 09.01.2020
4634 Snow 1 967 98 4000 8.7 210 10:59 09.01.2020
4635 Snow 1 967 98 1000 9.3 210 10:41 09.01.2020
4636 Snow 2 966 86 7000 8.7 200 10:21 09.01.2020
4637 Clouds 1 966 69 10000 10.8 200 09:49 09.01.2020
4638 Clouds 2 965 69 10000 9.8 190 09:25 09.01.2020
4639 Clouds 2 965 69 10000 9.8 190 08:59 09.01.2020
4640 Clouds 3 965 64 10000 9.3 190 08:40 09.01.2020
4641 Clouds 2 965 69 10000 6.2 180 08:22 09.01.2020
4642 Clouds 3 965 64 10000 6.2 160 07:55 09.01.2020
4643 Clouds 3 965 64 10000 6.2 160 07:35 09.01.2020
4644 Snow 1 966 64 10000 7.2 200 06:54 09.01.2020
4645 Snow 1 966 64 10000 7.2 200 06:32 09.01.2020
4646 Clouds 1 965 55 10000 8.2 200 05:52 09.01.2020
4647 Clouds 1 965 55 10000 8.2 200 05:28 09.01.2020
4648 Clouds 0 965 75 10000 5.1 180 04:41 09.01.2020
4649 Clouds 0 966 75 10000 4.6 170 03:28 09.01.2020
4650 Clouds 0 966 75 10000 3.6 170 02:47 09.01.2020
4651 Clouds 1 966 55 10000 2.6 180 01:53 09.01.2020
4652 Clouds 1 966 55 10000 2.6 180 01:33 09.01.2020
4653 Clouds 2 966 59 10000 6.2 190 00:40 09.01.2020
4654 Clouds 2 966 64 10000 6.7 190 00:19 09.01.2020
4655 Clouds 3 966 69 10000 7.7 190 23:41 08.01.2020
4656 Clouds 3 966 69 10000 3.6 180 23:23 08.01.2020
4657 Clouds 3 967 74 10000 6.7 200 22:56 08.01.2020
4658 Clouds 3 967 74 10000 6.7 200 22:38 08.01.2020
4659 Clouds 3 967 74 10000 6.2 200 22:19 08.01.2020
4660 Clouds 1 967 80 10000 4.6 190 21:55 08.01.2020
4661 Clouds 3 967 80 10000 4.6 190 21:37 08.01.2020
4662 Clouds 3 967 80 10000 4.6 190 21:18 08.01.2020
4663 Clouds 3 967 81 10000 5.7 210 20:56 08.01.2020
4664 Clouds 3 967 81 10000 5.7 210 20:37 08.01.2020
4665 Clouds 3 968 74 10000 8.2 230 20:19 08.01.2020
4666 Clouds 4 968 78 10000 6.2 240 19:39 08.01.2020
4667 Clouds 5 968 69 10000 6.7 270 19:20 08.01.2020
4668 Clouds 5 968 69 10000 6.7 270 18:59 08.01.2020
4669 Clouds 5 968 69 10000 8.2 260 18:40 08.01.2020
4670 Clouds 4 968 78 10000 7.2 270 18:19 08.01.2020
4671 Clouds 4 968 78 10000 7.2 270 18:19 08.01.2020
4672 Clouds 4 968 78 10000 7.2 270 18:19 08.01.2020
4673 Clouds 4 968 78 10000 7.2 270 17:59 08.01.2020
4674 Clouds 4 968 78 10000 9.8 280 17:40 08.01.2020
4675 Clouds 5 968 83 10000 9.8 280 17:22 08.01.2020
4676 Clouds 5 968 83 10000 11.8 270 16:57 08.01.2020
4677 Clouds 5 968 83 10000 11.8 270 16:38 08.01.2020
4678 Clouds 4 968 93 10000 10.3 260 16:19 08.01.2020
4679 Rain 4 967 93 10000 8.2 250 15:55 08.01.2020
4680 Rain 4 967 93 10000 8.2 250 15:37 08.01.2020
4681 Rain 4 968 93 10000 6.2 230 15:18 08.01.2020
4682 Rain 4 967 93 8000 11.8 270 14:40 08.01.2020
4683 Rain 3 967 90 10000 7.7 260 14:21 08.01.2020
4684 Clouds 3 967 90 10000 3.6 230 13:42 08.01.2020
4685 Clouds 3 967 92 10000 7.2 210 13:24 08.01.2020
4686 Clouds 3 967 92 10000 7.2 210 12:59 08.01.2020
4687 Rain 4 967 74 10000 6.7 220 12:40 08.01.2020
4688 Rain 3 966 74 10000 5.1 200 12:18 08.01.2020
4689 Clouds 4 966 74 10000 4.6 190 11:48 08.01.2020
4690 Clouds 4 966 69 10000 4.1 170 11:20 08.01.2020
4691 Clouds 4 966 69 10000 4.6 170 10:59 08.01.2020
4692 Clouds 4 966 69 10000 4.6 170 10:41 08.01.2020
4693 Clouds 4 966 74 10000 4.6 160 10:22 08.01.2020
4694 Clouds 3 967 74 10000 4.6 160 09:58 08.01.2020
4695 Clouds 3 967 74 10000 4.6 160 09:38 08.01.2020
4696 Clouds 3 967 80 10000 6.2 170 09:18 08.01.2020
4697 Clouds 4 967 74 10000 6.7 180 08:42 08.01.2020
4698 Clouds 4 968 74 10000 11.3 200 08:23 08.01.2020
4699 Clouds 4 968 74 10000 11.3 200 07:59 08.01.2020
4700 Clouds 4 968 74 10000 15.9 200 07:41 08.01.2020
4701 Clouds 3 968 74 10000 18 190 07:20 08.01.2020
4702 Clouds 3 969 74 10000 21.1 190 06:42 08.01.2020
4703 Clouds 2 970 80 10000 20.6 190 05:57 08.01.2020
4704 Clouds 2 972 74 10000 22.6 190 05:27 08.01.2020
4705 Clouds 2 973 74 10000 22.1 190 04:37 08.01.2020
4706 Clouds 1 976 74 10000 19 190 02:48 08.01.2020
4707 Clouds 1 976 74 10000 19 190 02:30 08.01.2020
4708 Clouds 3 978 59 10000 15.9 180 01:58 08.01.2020
4709 Clouds 3 980 59 10000 11.3 180 01:39 08.01.2020
4710 Clouds 2 980 69 10000 11.3 160 00:52 08.01.2020
4711 Clouds 3 981 69 10000 5.7 170 00:24 08.01.2020
4712 Clouds 3 982 74 10000 6.2 170 23:46 07.01.2020
4713 Clouds 3 983 80 10000 6.2 180 23:21 07.01.2020
4714 Clouds 3 984 81 10000 6.7 180 22:57 07.01.2020
4715 Clouds 3 984 81 10000 6.7 180 22:38 07.01.2020
4716 Clouds 3 985 81 10000 7.7 190 22:19 07.01.2020
4717 Clouds 3 985 81 10000 7.7 190 22:19 07.01.2020
4718 Clouds 3 985 81 10000 4.6 170 21:42 07.01.2020
4719 Clouds 3 985 93 10000 4.6 180 21:23 07.01.2020
4720 Clouds 3 985 93 10000 4.6 180 20:59 07.01.2020
4721 Clouds 2 986 81 10000 2.6 180 20:41 07.01.2020
4722 Clouds 2 986 83 10000 4.6 200 20:22 07.01.2020
4723 Clouds 3 987 93 10000 5.1 210 19:58 07.01.2020
4724 Clouds 3 987 93 10000 5.1 210 19:38 07.01.2020
4725 Clouds 3 987 93 10000 5.1 210 19:19 07.01.2020
4726 Clouds 3 987 93 10000 4.1 220 18:57 07.01.2020
4727 Clouds 3 987 93 10000 4.1 220 18:38 07.01.2020
4728 Clouds 3 988 89 10000 5.1 230 18:18 07.01.2020
4729 Clouds 3 988 93 10000 4.1 240 17:57 07.01.2020
4730 Clouds 3 988 93 10000 4.1 240 17:37 07.01.2020
4731 Clouds 3 988 93 10000 4.1 230 17:19 07.01.2020
4732 Drizzle 3 988 93 10000 4.6 220 16:55 07.01.2020
4733 Drizzle 3 988 93 10000 4.6 220 16:37 07.01.2020
4734 Rain 3 988 93 10000 5.1 210 16:18 07.01.2020
4735 Rain 3 988 93 9000 5.1 210 15:43 07.01.2020
4736 Drizzle 3 988 93 10000 5.7 220 15:24 07.01.2020
4737 Drizzle 3 988 93 10000 5.7 220 15:24 07.01.2020
4738 Drizzle 3 988 93 10000 5.7 220 15:24 07.01.2020
4739 Drizzle 3 988 93 10000 5.7 220 14:59 07.01.2020
4740 Drizzle 3 988 93 10000 7.7 220 14:41 07.01.2020
4741 -273 0 0 0 0 0 14:22 07.01.2020
4742 Drizzle 3 988 96 10000 7.7 210 13:55 07.01.2020
4743 Drizzle 4 988 96 10000 7.7 210 13:37 07.01.2020
4744 Drizzle 4 988 98 10000 8.2 210 13:18 07.01.2020
4745 Drizzle 4 988 98 10000 11.8 200 12:40 07.01.2020
4746 Drizzle 4 988 98 10000 9.8 200 12:19 07.01.2020
4747 Drizzle 4 988 98 10000 8.2 190 11:42 07.01.2020
4748 Drizzle 4 988 98 10000 7.7 180 11:23 07.01.2020
4749 Clouds 4 989 87 10000 7.2 180 10:58 07.01.2020
4750 Clouds 4 989 87 10000 7.2 180 10:39 07.01.2020
4751 Rain 3 989 87 10000 9.3 190 10:21 07.01.2020
4752 Clouds 5 989 75 10000 7.7 170 09:55 07.01.2020
4753 Clouds 5 989 75 10000 7.7 170 09:37 07.01.2020
4754 Clouds 4 990 75 10000 6.2 180 09:19 07.01.2020
4755 Drizzle 4 990 75 10000 8.7 190 08:41 07.01.2020
4756 Clouds 4 990 85 10000 4.1 180 08:20 07.01.2020
4757 Rain 4 991 85 10000 7.2 190 07:49 07.01.2020
4758 Clouds 2 991 80 10000 4.6 160 07:23 07.01.2020
4759 Clouds 2 991 80 10000 6.7 190 06:52 07.01.2020
4760 Clouds 2 991 80 10000 6.7 190 06:32 07.01.2020
4761 Clouds 2 992 80 10000 7.7 210 05:42 07.01.2020
4762 Clouds 2 992 74 10000 12.9 190 03:52 07.01.2020
4763 Clouds 2 992 74 10000 12.9 190 03:52 07.01.2020
4764 Clouds 2 992 74 10000 12.9 190 03:25 07.01.2020
4765 Clouds 3 993 64 10000 10.3 190 02:20 07.01.2020
4766 Clouds 3 993 64 10000 9.3 170 01:40 07.01.2020
4767 Clouds 3 993 64 10000 9.3 170 01:40 07.01.2020
4768 Clouds 3 993 64 10000 9.3 170 01:18 07.01.2020
4769 Clouds 2 995 69 10000 8.7 150 00:21 07.01.2020
4770 Clouds 2 995 80 10000 5.7 160 23:58 06.01.2020
4771 Clouds 2 995 80 10000 5.7 160 23:38 06.01.2020
4772 Clouds 3 995 80 10000 4.6 170 23:20 06.01.2020
4773 Clouds 2 995 80 10000 4.1 170 22:55 06.01.2020
4774 Clouds 2 995 80 10000 4.1 170 22:37 06.01.2020
4775 Clouds 1 996 86 10000 4.6 180 22:18 06.01.2020
4776 Clouds 2 996 74 10000 5.1 190 21:54 06.01.2020
4777 Clouds 2 996 74 10000 5.1 190 21:36 06.01.2020
4778 Clouds 3 996 80 10000 6.2 200 21:18 06.01.2020
4779 Clouds 2 996 80 10000 6.2 200 20:54 06.01.2020
4780 Clouds 2 996 80 10000 6.2 200 20:36 06.01.2020
4781 Clouds 2 996 80 10000 6.2 200 20:18 06.01.2020
4782 Clouds 2 996 80 10000 6.2 200 20:18 06.01.2020
4783 Clouds 2 996 89 10000 6.7 210 19:54 06.01.2020
4784 Clouds 2 996 89 10000 6.7 210 19:36 06.01.2020
4785 Clouds 2 996 86 10000 6.2 210 19:18 06.01.2020
4786 Clouds 2 996 86 10000 6.2 210 18:41 06.01.2020
4787 Clouds 2 996 86 10000 6.7 210 18:19 06.01.2020
4788 Clouds 2 996 86 10000 5.1 210 17:39 06.01.2020
4789 Snow 2 996 86 10000 5.1 210 17:19 06.01.2020
4790 Clouds 2 996 86 10000 5.1 210 16:55 06.01.2020
4791 Clouds 2 996 86 10000 5.1 210 16:37 06.01.2020
4792 Rain 2 996 80 10000 6.2 250 16:18 06.01.2020
4793 Clouds 1 995 95 10000 5.7 230 15:42 06.01.2020
4794 Rain 0 995 95 10000 5.1 220 15:21 06.01.2020
4795 Rain 0 995 95 10000 5.1 220 14:59 06.01.2020
4796 Snow 0 995 95 10000 5.7 220 14:41 06.01.2020
4797 Snow 0 995 95 10000 6.7 220 14:22 06.01.2020
4798 Clouds 1 994 86 10000 5.7 220 13:58 06.01.2020
4799 Clouds 1 994 86 10000 5.7 220 13:38 06.01.2020
4800 Rain 0 994 86 10000 5.7 220 13:20 06.01.2020
4801 Clouds 0 994 86 10000 5.7 230 12:44 06.01.2020
4802 Clouds 0 994 86 10000 5.7 210 12:21 06.01.2020
4803 Clouds 0 994 86 10000 5.7 210 11:59 06.01.2020
4804 Rain 0 994 86 10000 6.2 210 11:41 06.01.2020
4805 Snow -1 994 86 10000 5.1 200 11:23 06.01.2020
4806 Snow -1 993 79 10000 3.1 190 10:58 06.01.2020
4807 Snow -1 993 79 10000 3.1 190 10:40 06.01.2020
4808 Snow -1 994 79 10000 3.6 190 10:20 06.01.2020
4809 Rain -1 993 73 10000 5.1 200 09:39 06.01.2020
4810 Snow -1 993 73 10000 3.6 200 09:20 06.01.2020
4811 Clouds -2 993 79 10000 3.1 200 08:51 06.01.2020
4812 Clouds -2 993 79 10000 3.1 200 08:33 06.01.2020
4813 Clouds -2 992 79 10000 3.1 200 07:56 06.01.2020
4814 Clouds -2 992 79 10000 3.1 200 07:33 06.01.2020
4815 Clouds -3 992 68 10000 3.6 220 06:46 06.01.2020
4816 Clouds -3 992 68 10000 3.6 200 06:23 06.01.2020
4817 Clouds -4 992 68 10000 3.6 210 05:45 06.01.2020
4818 Clouds -4 992 68 10000 4.6 210 04:52 06.01.2020
4819 Clouds -4 992 68 10000 4.6 210 04:19 06.01.2020
4820 Clouds -4 992 68 10000 10.8 200 02:56 06.01.2020
4821 Clouds -4 992 68 10000 10.8 200 02:24 06.01.2020
4822 Clouds -4 991 68 10000 10.3 200 01:45 06.01.2020
4823 Clouds -4 991 68 10000 7.2 180 01:26 06.01.2020
4824 Clouds -4 992 68 10000 7.2 180 00:42 06.01.2020
4825 Clouds -4 992 68 10000 10.8 180 00:23 06.01.2020
4826 Clouds -1 992 62 10000 8.2 180 23:43 05.01.2020
4827 Clouds -1 992 62 10000 8.2 180 23:23 05.01.2020
4828 Clouds -2 993 62 10000 8.2 170 22:58 05.01.2020
4829 Clouds -2 993 62 10000 8.2 170 22:39 05.01.2020
4830 Clouds -2 994 62 10000 8.7 170 22:20 05.01.2020
4831 Clouds -1 994 63 10000 8.7 140 21:55 05.01.2020
4832 Clouds -1 994 63 10000 8.7 140 21:37 05.01.2020
4833 Clouds -1 994 63 10000 8.7 140 21:37 05.01.2020
4834 Clouds -1 995 73 10000 9.8 140 21:19 05.01.2020
4835 Clouds -1 995 73 10000 8.2 150 20:55 05.01.2020
4836 Clouds -1 995 73 10000 8.2 150 20:37 05.01.2020
4837 Clouds -4 996 79 10000 6.7 170 20:19 05.01.2020
4838 Clouds -3 997 86 10000 4.6 180 19:56 05.01.2020
4839 Clouds -3 997 86 10000 4.6 180 19:37 05.01.2020
4840 Rain -3 997 86 10000 5.1 180 19:19 05.01.2020
4841 Rain -3 997 92 10000 3.6 170 18:55 05.01.2020
4842 Rain -3 997 92 10000 3.6 170 18:36 05.01.2020
4843 Snow -3 998 92 5000 3.1 180 18:18 05.01.2020
4844 Snow -4 998 92 10000 2.6 210 17:57 05.01.2020
4845 Snow -2 998 92 10000 2.6 210 17:37 05.01.2020
4846 Snow -2 998 92 8000 1.5 200 17:19 05.01.2020
4847 Snow -2 999 92 4000 2.1 280 16:55 05.01.2020
4848 Snow -2 999 92 4000 2.1 280 16:37 05.01.2020
4849 Rain -3 999 92 10000 3.6 300 16:19 05.01.2020
4850 Rain -3 999 92 10000 3.6 300 16:19 05.01.2020
4851 Snow -2 999 92 9000 4.6 300 15:37 05.01.2020
4852 Snow -2 999 92 1000 3.6 290 15:18 05.01.2020
4853 Rain -1 1000 86 10000 5.7 300 14:55 05.01.2020
4854 Rain -1 1000 86 10000 5.7 300 14:37 05.01.2020
4855 Snow -2 1000 86 2000 7.7 320 14:18 05.01.2020
4856 Rain -2 1000 86 10000 11.3 330 13:40 05.01.2020
4857 Rain -3 1000 92 10000 7.7 300 13:21 05.01.2020
4858 Snow -3 1000 92 8000 8.7 310 12:58 05.01.2020
4859 Snow -3 1000 92 8000 8.7 310 12:39 05.01.2020
4860 Snow -3 1000 92 8000 8.7 310 12:39 05.01.2020
4861 Snow -2 1000 86 1500 8.7 330 12:21 05.01.2020
4862 Rain -3 1000 92 10000 11.3 310 11:58 05.01.2020
4863 Rain -3 1000 92 10000 11.3 310 11:39 05.01.2020
4864 Rain -3 1000 92 10000 11.3 310 11:39 05.01.2020
4865 Snow -3 1001 92 2300 12.9 310 11:19 05.01.2020
4866 Snow -3 1001 92 2300 12.9 310 11:19 05.01.2020
4867 Snow -3 1000 86 10000 11.8 310 10:56 05.01.2020
4868 Snow -3 1000 86 10000 11.8 310 10:36 05.01.2020
4869 Snow -3 1000 86 10000 11.8 310 10:36 05.01.2020
4870 Snow -3 1000 86 10000 11.8 310 10:36 05.01.2020
4871 Snow -3 1001 86 500 13.4 310 10:18 05.01.2020
4872 Snow -3 1001 86 7000 13.4 310 09:41 05.01.2020
4873 Snow -3 1001 92 500 15.9 310 09:21 05.01.2020
4874 Snow -2 1000 74 10000 14.9 320 08:48 05.01.2020
4875 Snow -2 1000 74 10000 14.9 320 08:29 05.01.2020
4876 Snow -4 1001 85 9000 17.5 310 07:55 05.01.2020
4877 Snow -4 1001 85 9000 17.5 310 07:36 05.01.2020
4878 Mist -4 1000 79 9000 16.5 310 06:59 05.01.2020
4879 Snow -3 1000 79 8000 18.5 310 05:58 05.01.2020
4880 Snow -3 1000 79 8000 18.5 310 05:30 05.01.2020
4881 Mist -3 1000 73 10000 19 320 04:43 05.01.2020
4882 Snow -4 999 92 5000 17.5 300 03:52 05.01.2020
4883 Snow -3 998 79 4800 21.1 310 02:46 05.01.2020
4884 Snow -4 998 85 1900 21.6 310 02:22 05.01.2020
4885 Snow -4 998 85 2800 18.5 320 01:46 05.01.2020
4886 Snow -4 997 92 1100 20.1 320 01:18 05.01.2020
4887 Snow -3 997 86 4000 16.5 320 00:41 05.01.2020
4888 Snow -3 997 86 4000 16.5 320 00:41 05.01.2020
4889 Snow -3 997 79 5000 16.5 320 00:22 05.01.2020
4890 Snow -3 997 79 5000 16.5 320 23:59 04.01.2020
4891 Snow -3 996 86 5000 15.4 330 23:39 04.01.2020
4892 Snow -3 997 73 10000 15.4 320 23:19 04.01.2020
4893 Snow -4 997 92 250 17.5 320 22:39 04.01.2020
4894 Snow -4 996 85 450 15.9 310 22:21 04.01.2020
4895 Snow -3 995 68 10000 12.3 320 21:57 04.01.2020
4896 Snow -3 995 68 10000 12.3 320 21:38 04.01.2020
4897 Snow -4 995 85 10000 9.8 320 21:20 04.01.2020
4898 Snow -4 994 85 10000 9.8 310 20:58 04.01.2020
4899 Snow -4 994 85 10000 9.8 310 20:39 04.01.2020
4900 Snow -4 994 85 2600 14.9 300 20:21 04.01.2020
4901 Snow -4 993 73 5000 14.4 320 19:56 04.01.2020
4902 Snow -4 993 73 5000 14.4 320 19:37 04.01.2020
4903 Snow -4 993 68 10000 15.9 320 19:18 04.01.2020
4904 Snow -4 993 62 10000 15.9 320 18:54 04.01.2020
4905 Snow -4 993 62 10000 15.9 320 18:36 04.01.2020
4906 Snow -5 993 62 10000 16.5 320 18:18 04.01.2020
4907 Snow -5 992 73 10000 19.5 330 17:40 04.01.2020
4908 Mist -5 992 67 8000 17 320 17:22 04.01.2020
4909 Snow -6 991 85 1100 19 330 16:55 04.01.2020
4910 Snow -6 991 85 1100 19 330 16:36 04.01.2020
4911 Snow -6 990 85 5000 15.9 330 16:18 04.01.2020
4912 Rain -5 989 73 7000 16.5 330 15:42 04.01.2020
4913 Snow -6 988 85 3000 16.5 330 15:20 04.01.2020
4914 Snow -5 987 73 2500 19 340 14:59 04.01.2020
4915 Snow -6 988 85 3000 16.5 330 14:59 04.01.2020
4916 Snow -6 988 85 3000 16.5 330 14:59 04.01.2020
4917 Snow -5 987 73 2500 19 340 14:40 04.01.2020
4918 Rain -5 987 79 6000 17 340 14:20 04.01.2020
4919 Snow -6 986 92 4000 18 360 13:58 04.01.2020
4920 Snow -6 986 92 4000 18 360 13:37 04.01.2020
4921 Snow -6 986 92 4000 18 360 13:37 04.01.2020
4922 Snow -4 984 79 4600 19 350 13:19 04.01.2020
4923 Snow -5 983 92 2000 22.6 360 12:56 04.01.2020
4924 Snow -5 983 92 2000 22.6 360 12:38 04.01.2020
4925 Rain -4 982 79 8000 20.1 360 12:18 04.01.2020
4926 Rain -3 980 79 6000 22.1 360 11:55 04.01.2020
4927 Rain -3 980 79 6000 22.1 360 11:36 04.01.2020
4928 Snow -3 979 86 5000 20.1 10 11:18 04.01.2020
4929 Snow -3 978 92 1400 19.5 360 10:40 04.01.2020
4930 Snow -2 976 92 900 22.6 10 10:21 04.01.2020
4931 Snow -2 975 92 1000 22.1 10 09:44 04.01.2020
4932 Snow -2 972 100 250 25.7 20 09:25 04.01.2020
4933 Snow -1 969 100 300 24.2 30 08:49 04.01.2020
4934 Clouds 0 967 94 800 7.2 20 08:29 04.01.2020
4935 Clouds -1 966 86 10000 4.1 320 07:55 04.01.2020
4936 Clouds -1 966 86 10000 4.1 320 07:55 04.01.2020
4937 Clouds -1 966 86 10000 4.1 320 07:37 04.01.2020
4938 Clouds 0 965 98 10000 1 0 06:43 04.01.2020
4939 Clouds 1 964 98 10000 6.2 250 05:57 04.01.2020
4940 Clouds 0 963 89 10000 7.2 270 04:51 04.01.2020
4941 Clouds 0 963 89 10000 7.2 270 04:30 04.01.2020
4942 Rain 0 962 89 10000 8.7 270 03:28 04.01.2020
4943 Snow 0 962 89 10000 11.3 270 02:49 04.01.2020
4944 Clouds 0 962 93 10000 9.3 280 02:18 04.01.2020
4945 Rain 0 962 93 10000 9.8 290 01:42 04.01.2020
4946 Snow 1 961 80 10000 12.3 280 01:23 04.01.2020
4947 Rain 0 961 93 10000 12.3 270 00:29 04.01.2020
4948 Snow 0 960 93 10000 12.3 270 23:57 03.01.2020
4949 Snow 0 960 93 10000 12.3 270 23:37 03.01.2020
4950 Snow 0 960 91 3700 11.3 280 23:18 03.01.2020
4951 Snow 1 960 91 1800 9.8 280 22:40 03.01.2020
4952 Snow 1 960 91 1000 11.3 280 22:19 03.01.2020
4953 Snow 1 960 91 6000 11.3 270 21:57 03.01.2020
4954 Snow 1 960 91 6000 11.3 270 21:38 03.01.2020
4955 Snow 1 960 91 3000 12.3 270 21:19 03.01.2020
4956 Snow 1 960 91 4000 11.3 270 20:55 03.01.2020
4957 Snow 1 960 91 4000 11.3 270 20:37 03.01.2020
4958 Snow 0 960 87 3500 8.2 260 20:18 03.01.2020
4959 Snow 0 960 96 10000 8.7 260 19:55 03.01.2020
4960 Snow 0 960 96 10000 8.7 260 19:37 03.01.2020
4961 Rain 0 960 96 10000 6.7 230 19:18 03.01.2020
4962 Clouds 1 960 80 10000 6.2 250 18:40 03.01.2020
4963 Clouds 1 960 74 10000 5.7 230 18:21 03.01.2020
4964 Snow 0 960 96 10000 6.7 230 17:54 03.01.2020
4965 Snow 1 960 96 10000 6.7 230 17:36 03.01.2020
4966 Clouds 1 960 81 10000 4.6 220 17:18 03.01.2020
4967 Clouds 0 960 80 10000 5.7 210 16:42 03.01.2020
4968 Clouds 0 960 74 10000 5.1 200 16:22 03.01.2020
4969 Clouds 2 960 81 10000 3.6 180 15:43 03.01.2020
4970 Clouds 1 960 74 10000 1.5 0 15:19 03.01.2020
4971 Clouds 1 960 74 10000 1.5 0 15:19 03.01.2020
4972 Clouds 2 961 81 10000 2.6 190 14:56 03.01.2020
4973 Clouds 2 961 81 10000 2.6 190 14:37 03.01.2020
4974 Clouds 2 961 84 10000 4.6 200 14:19 03.01.2020
4975 Clouds 1 961 84 10000 4.6 190 13:41 03.01.2020
4976 Clouds 2 962 80 10000 6.7 190 13:23 03.01.2020
4977 Clouds 2 962 80 10000 5.7 190 12:56 03.01.2020
4978 Clouds 2 962 80 10000 5.7 190 12:38 03.01.2020
4979 Clouds 2 962 80 10000 6.2 190 12:19 03.01.2020
4980 Clouds 1 962 80 10000 7.2 240 11:42 03.01.2020
4981 Clouds 3 962 69 10000 8.2 260 11:18 03.01.2020
4982 Clouds 3 963 74 10000 5.1 260 10:43 03.01.2020
4983 Clouds 3 963 80 10000 5.1 230 10:24 03.01.2020
4984 Clouds 3 963 74 10000 7.7 260 09:57 03.01.2020
4985 Clouds 3 963 74 10000 7.7 260 09:38 03.01.2020
4986 Clouds 3 963 80 10000 4.1 240 09:20 03.01.2020
4987 Snow 2 964 77 7000 5.1 250 08:54 03.01.2020
4988 Snow 2 964 77 7000 5.1 250 08:36 03.01.2020
4989 Clouds 2 963 97 10000 8.2 270 08:18 03.01.2020
4990 Clouds 2 963 96 10000 5.1 210 07:39 03.01.2020
4991 Clouds 1 963 86 10000 4.6 220 07:18 03.01.2020
4992 Clouds 2 962 80 10000 4.1 200 06:42 03.01.2020
4993 Snow 1 963 86 10000 2.6 180 06:23 03.01.2020
4994 Clouds 3 963 69 10000 5.1 210 05:20 03.01.2020
4995 Clouds 4 963 64 10000 6.7 190 03:45 03.01.2020
4996 Clouds 4 964 69 10000 5.1 200 02:55 03.01.2020
4997 Clouds 4 965 69 10000 8.7 260 01:57 03.01.2020
4998 Clouds 4 965 69 10000 8.7 260 01:36 03.01.2020
4999 Clouds 5 965 60 10000 11.8 260 00:46 03.01.2020
5000 Clouds 5 965 56 10000 14.9 260 00:26 03.01.2020
5001 Clouds 5 965 60 10000 13.4 270 23:55 02.01.2020
5002 Clouds 5 965 60 10000 13.4 270 23:37 02.01.2020
5003 Clouds 6 965 56 10000 16.5 260 23:18 02.01.2020
5004 Clouds 6 965 60 10000 17 270 22:42 02.01.2020
5005 Clouds 6 965 79 10000 14.4 260 22:20 02.01.2020
5006 Clouds 5 965 80 10000 16.5 260 21:57 02.01.2020
5007 Clouds 5 965 80 10000 16.5 260 21:38 02.01.2020
5008 Clouds 4 965 93 10000 5.7 220 21:20 02.01.2020
5009 Clouds 4 965 79 10000 10.3 200 20:56 02.01.2020
5010 Clouds 4 965 79 10000 10.3 200 20:38 02.01.2020
5011 Snow 4 964 94 6000 9.8 190 20:20 02.01.2020
5012 Snow 4 964 86 2500 6.2 180 19:55 02.01.2020
5013 Snow 4 964 86 2500 6.2 180 19:36 02.01.2020
5014 Clouds 2 964 86 10000 8.2 170 19:18 02.01.2020
5015 Snow 0 965 92 8000 10.3 160 18:54 02.01.2020
5016 Snow 0 965 92 8000 10.3 160 18:36 02.01.2020
5017 Snow 0 966 86 2300 17 130 18:18 02.01.2020
5018 Snow -1 967 92 2000 17 130 17:55 02.01.2020
5019 Snow -1 967 92 2000 17 130 17:36 02.01.2020
5020 Snow -1 967 92 1700 14.9 140 17:18 02.01.2020
5021 Snow 0 968 86 3000 10.8 150 16:42 02.01.2020
5022 Snow 0 969 86 9000 9.8 160 16:21 02.01.2020
5023 Snow 0 969 86 9000 9.8 160 15:59 02.01.2020
5024 Snow 0 970 86 10000 10.3 160 15:41 02.01.2020
5025 Clouds 0 971 86 10000 7.2 170 15:23 02.01.2020
5026 Clouds 0 972 86 10000 10.3 170 14:57 02.01.2020
5027 Clouds 0 972 86 10000 10.3 170 14:37 02.01.2020
5028 Clouds 0 973 80 10000 5.7 170 14:18 02.01.2020
5029 Clouds -1 974 79 10000 7.7 150 13:55 02.01.2020
5030 Clouds -1 974 79 10000 7.7 150 13:36 02.01.2020
5031 Clouds -2 975 79 10000 5.7 150 12:58 02.01.2020
5032 Clouds -2 975 79 10000 5.7 150 12:39 02.01.2020
5033 Snow -2 977 79 10000 4.6 160 12:20 02.01.2020
5034 Snow -2 977 79 10000 4.6 160 11:41 02.01.2020
5035 Snow -3 978 79 10000 6.2 160 11:20 02.01.2020
5036 Snow -2 978 79 10000 5.1 150 10:45 02.01.2020
5037 Clouds -3 979 85 10000 2.6 160 10:27 02.01.2020
5038 Clouds -4 979 85 10000 3.1 120 09:56 02.01.2020
5039 Clouds -4 979 85 10000 3.1 120 09:35 02.01.2020
5040 Snow -3 979 85 10000 2.1 100 08:53 02.01.2020
5041 Snow -3 979 85 10000 2.1 100 08:32 02.01.2020
5042 Clouds -3 979 85 10000 1.5 0 07:58 02.01.2020
5043 Snow -5 979 92 9000 3.1 80 07:31 02.01.2020
5044 Snow -5 979 92 9000 3.1 80 06:58 02.01.2020
5045 Snow -5 979 92 4000 2.6 110 06:39 02.01.2020
5046 Snow -5 979 92 1000 2.1 110 05:38 02.01.2020
5047 Snow -4 978 92 1800 2.1 110 04:34 02.01.2020
5048 Snow -5 977 92 1300 2.1 70 03:29 02.01.2020
5049 Rain -5 976 85 10000 3.6 150 02:21 02.01.2020
5050 Snow -4 976 79 10000 7.2 170 01:49 02.01.2020
5051 Clouds -5 976 85 7000 3.1 90 01:25 02.01.2020
5052 Clouds -5 976 85 8000 6.7 170 00:38 02.01.2020
5053 Rain -5 976 85 10000 7.2 150 00:20 02.01.2020
5054 Clouds -3 976 85 10000 8.7 150 23:42 01.01.2020
5055 Clouds -3 977 85 10000 9.8 160 23:21 01.01.2020
5056 Clouds -3 977 85 10000 9.8 160 23:21 01.01.2020
5057 Clouds -3 977 79 10000 9.8 160 22:39 01.01.2020
5058 Clouds -3 977 79 10000 9.8 160 22:39 01.01.2020
5059 Clouds -2 977 79 10000 9.3 150 22:20 01.01.2020
5060 Clouds -2 977 79 10000 9.3 150 22:20 01.01.2020
5061 Clouds -2 977 79 10000 9.3 150 21:58 01.01.2020
5062 Clouds -2 977 73 10000 10.3 140 21:39 01.01.2020
5063 Clouds -2 977 73 10000 10.3 140 21:39 01.01.2020
5064 Clouds -2 978 79 10000 12.9 140 21:20 01.01.2020
5065 Clouds -2 979 85 10000 15.4 150 20:57 01.01.2020
5066 Clouds -2 979 85 10000 15.4 150 20:38 01.01.2020
5067 Clouds -4 979 79 10000 17 150 20:20 01.01.2020
5068 Clouds -4 980 85 10000 13.4 150 19:56 01.01.2020
5069 Clouds -4 980 85 10000 13.4 150 19:37 01.01.2020
5070 Clouds -4 980 79 10000 11.8 170 19:19 01.01.2020
5071 Clouds -4 981 79 10000 11.3 180 18:56 01.01.2020
5072 Clouds -4 981 79 10000 11.3 180 18:37 01.01.2020
5073 Clouds -5 982 85 10000 9.3 180 18:19 01.01.2020
5074 Clouds -5 982 79 10000 9.8 170 17:57 01.01.2020
5075 Clouds -3 982 79 10000 9.8 170 17:39 01.01.2020
5076 Clouds -3 983 79 10000 8.7 160 17:19 01.01.2020
5077 Clouds -3 984 73 10000 8.2 160 16:56 01.01.2020
5078 Clouds -3 984 73 10000 8.2 160 16:37 01.01.2020
5079 Clouds -3 985 79 10000 7.2 150 16:19 01.01.2020
5080 Clouds -3 985 79 10000 7.2 150 16:19 01.01.2020
5081 Clouds -3 985 68 10000 6.7 150 15:54 01.01.2020
5082 Clouds -3 985 68 10000 6.7 150 15:36 01.01.2020
5083 Clouds -3 986 79 10000 5.1 170 15:18 01.01.2020
5084 Clouds -3 987 73 10000 5.7 160 14:41 01.01.2020
5085 Clouds -6 987 73 10000 4.6 150 14:23 01.01.2020
5086 Clouds -6 988 73 10000 3.6 150 13:57 01.01.2020
5087 Clouds -6 988 73 10000 3.6 150 13:38 01.01.2020
5088 Clouds -5 988 73 10000 4.1 180 13:19 01.01.2020
5089 Clouds -5 989 73 10000 5.1 150 12:57 01.01.2020
5090 Clouds -5 989 73 10000 5.1 150 12:39 01.01.2020
5091 Clouds -4 989 73 10000 3.1 160 12:19 01.01.2020
5092 Clouds -4 990 73 10000 5.1 180 11:56 01.01.2020
5093 Clouds -4 990 73 10000 5.1 180 11:37 01.01.2020
5094 Clouds -4 990 85 10000 5.7 190 11:18 01.01.2020
5095 Clouds -4 990 85 10000 4.6 190 10:54 01.01.2020
5096 Clouds -4 990 85 10000 4.6 190 10:36 01.01.2020
5097 Clouds -3 990 86 10000 5.1 190 10:18 01.01.2020
5098 Clouds -3 990 86 10000 4.6 190 09:38 01.01.2020
5099 Clouds -2 990 79 10000 4.1 230 09:19 01.01.2020
5100 Clouds -3 990 86 10000 3.6 230 08:56 01.01.2020
5101 Clouds -3 990 86 10000 3.6 230 08:37 01.01.2020
5102 Clouds -3 990 86 10000 3.6 230 08:37 01.01.2020
5103 Snow -3 990 86 10000 4.1 260 08:19 01.01.2020
5104 Snow -2 990 86 10000 4.6 240 07:55 01.01.2020
5105 Snow -2 990 86 10000 4.6 240 07:37 01.01.2020
5106 Snow -2 990 86 10000 4.6 240 07:37 01.01.2020
5107 Snow -2 991 86 10000 4.6 250 06:45 01.01.2020
5108 Snow -3 991 86 10000 5.1 240 06:22 01.01.2020
5109 Snow -2 991 86 10000 5.7 270 05:45 01.01.2020
5110 Snow -3 992 92 1200 3.1 230 03:47 01.01.2020
5111 Snow -3 992 92 10000 4.1 220 03:24 01.01.2020
5112 Snow -3 992 92 10000 4.1 220 02:59 01.01.2020
5113 Snow -4 992 92 1200 2.6 230 02:40 01.01.2020
5114 Snow -5 992 92 8000 2.6 230 02:21 01.01.2020
5115 Snow -4 992 100 5000 2.6 240 01:39 01.01.2020
5116 Mist -5 992 92 2700 3.1 240 01:21 01.01.2020
5117 Snow -5 992 92 10000 2.6 260 00:44 01.01.2020
5118 Snow -3 992 92 1600 3.1 290 00:26 01.01.2020
5119 Snow -3 992 92 350 5.1 290 23:42 31.12.2019
5120 Snow -2 992 86 9000 7.2 330 23:22 31.12.2019
5121 Snow -2 992 86 9000 7.2 330 22:59 31.12.2019
5122 Snow -2 992 86 10000 4.1 240 22:39 31.12.2019
5123 Snow -2 992 86 10000 6.2 280 22:20 31.12.2019
5124 Snow -1 992 58 10000 6.2 340 21:59 31.12.2019
5125 Snow -1 992 58 10000 6.2 340 21:40 31.12.2019
5126 Snow -2 991 68 10000 6.7 360 21:22 31.12.2019
5127 Snow -2 991 63 10000 7.2 350 20:57 31.12.2019
5128 Snow -2 991 63 10000 7.2 350 20:37 31.12.2019
5129 Snow -2 991 63 10000 7.2 350 20:19 31.12.2019
5130 Snow -2 990 63 10000 7.2 350 19:55 31.12.2019
5131 Snow -2 990 63 10000 7.2 350 19:36 31.12.2019
5132 Snow -2 990 68 10000 8.7 360 19:18 31.12.2019
5133 Snow -2 990 79 10000 8.7 10 18:54 31.12.2019
5134 Snow -2 990 79 10000 8.7 10 18:36 31.12.2019
5135 Snow -3 989 92 10000 6.2 360 18:18 31.12.2019
5136 Snow -3 989 92 1600 9.3 10 17:54 31.12.2019
5137 Snow -1 989 92 1600 9.3 10 17:36 31.12.2019
5138 Snow -1 989 92 450 9.8 360 17:18 31.12.2019
5139 Snow -1 988 86 2000 9.8 10 16:55 31.12.2019
5140 Snow -1 988 86 2000 9.8 10 16:36 31.12.2019
5141 Rain 0 987 80 10000 12.3 310 16:18 31.12.2019
5142 Rain -1 987 74 10000 14.4 300 15:55 31.12.2019
5143 Rain -1 987 74 10000 14.4 300 15:37 31.12.2019
5144 Snow -1 987 86 7000 17.5 300 15:18 31.12.2019
5145 Rain -1 986 74 10000 14.4 310 14:55 31.12.2019
5146 Rain -1 986 74 10000 14.4 310 14:36 31.12.2019
5147 Snow -2 986 86 10000 17.5 320 14:18 31.12.2019
5148 Snow -1 985 74 10000 18.5 300 13:54 31.12.2019
5149 Snow -1 985 74 10000 18.5 300 13:36 31.12.2019
5150 Rain -1 985 74 2400 19.5 290 13:18 31.12.2019
5151 Snow -2 985 86 1200 18 290 12:54 31.12.2019
5152 Snow -2 985 86 1200 18 290 12:36 31.12.2019
5153 Snow -1 985 86 9000 21.1 290 12:18 31.12.2019
5154 Snow -2 985 100 3000 18 300 11:54 31.12.2019
5155 Snow -2 985 100 3000 18 300 11:36 31.12.2019
5156 Snow -2 985 92 7000 20.6 290 11:18 31.12.2019
5157 Snow -2 985 100 2000 15.4 270 10:54 31.12.2019
5158 Snow -2 985 100 2000 15.4 270 10:36 31.12.2019
5159 Snow -2 985 100 3000 14.4 260 10:18 31.12.2019
5160 Snow -2 985 92 500 14.4 230 09:54 31.12.2019
5161 Snow -2 985 92 500 14.4 230 09:36 31.12.2019
5162 Snow -2 985 74 1500 8.7 210 09:18 31.12.2019
5163 Clouds -2 986 86 10000 12.3 230 08:41 31.12.2019
5164 Clouds -2 986 86 10000 13.4 240 08:21 31.12.2019
5165 Clouds -1 987 58 10000 12.9 260 07:44 31.12.2019
5166 Clouds -1 987 63 10000 12.9 250 07:22 31.12.2019
5167 Clouds -1 987 58 10000 11.8 250 06:51 31.12.2019
5168 Clouds -1 988 58 10000 9.8 250 06:23 31.12.2019
5169 Clouds -1 988 58 10000 9.8 250 06:23 31.12.2019
5170 Snow -2 989 58 10000 7.2 260 04:54 31.12.2019
5171 Clouds -2 989 63 10000 6.2 280 04:21 31.12.2019
5172 Snow -2 989 58 10000 9.3 320 02:57 31.12.2019
5173 Clouds -2 989 58 10000 9.3 320 02:20 31.12.2019
5174 Snow -2 989 54 10000 10.3 330 01:49 31.12.2019
5175 Snow -2 989 54 10000 10.3 330 01:31 31.12.2019
5176 Clouds -3 989 53 10000 13.9 340 00:48 31.12.2019
5177 Clouds -3 989 58 10000 12.9 330 00:24 31.12.2019
5178 Clouds -2 989 54 10000 12.3 340 23:58 30.12.2019
5179 Clouds -2 989 54 10000 12.3 340 23:39 30.12.2019
5180 Clouds -2 989 54 10000 12.3 340 23:21 30.12.2019
5181 Clouds -2 988 54 10000 12.9 340 22:59 30.12.2019
5182 Clouds -2 988 54 10000 12.9 340 22:41 30.12.2019
5183 Clouds -2 988 58 10000 11.3 340 22:21 30.12.2019
5184 Clouds -3 988 63 10000 11.8 350 21:57 30.12.2019
5185 Clouds -3 988 63 10000 11.8 350 21:39 30.12.2019
5186 Clouds -3 987 73 10000 12.3 350 21:20 30.12.2019
5187 Clouds -3 987 73 10000 12.3 350 20:58 30.12.2019
5188 Clouds -3 987 73 10000 10.8 360 20:40 30.12.2019
5189 Clouds -3 986 68 10000 11.8 10 20:20 30.12.2019
5190 Clouds -3 986 68 10000 11.8 10 19:58 30.12.2019
5191 Clouds -3 986 73 10000 11.3 10 19:39 30.12.2019
5192 Clouds -3 986 73 10000 11.3 10 19:39 30.12.2019
5193 Clouds -2 986 63 10000 11.3 10 19:19 30.12.2019
5194 Clouds -2 985 63 10000 10.8 360 18:59 30.12.2019
5195 Clouds -2 985 63 10000 10.8 360 18:40 30.12.2019
5196 Snow -2 985 74 8000 9.3 360 18:20 30.12.2019
5197 Snow -3 985 86 8000 11.3 350 17:57 30.12.2019
5198 Snow -3 985 86 8000 11.3 350 17:39 30.12.2019
5199 Clouds 0 984 68 10000 10.8 360 17:19 30.12.2019
5200 Snow -1 984 74 10000 11.8 360 16:58 30.12.2019
5201 Snow -1 984 74 10000 11.8 360 16:37 30.12.2019
5202 Clouds 0 983 68 10000 13.4 360 16:19 30.12.2019
5203 Clouds -1 983 79 10000 9.8 10 15:56 30.12.2019
5204 Clouds -1 983 79 10000 9.8 10 15:37 30.12.2019
5205 Snow 0 983 63 4000 10.3 360 15:18 30.12.2019
5206 Rain 0 983 63 10000 10.3 360 14:43 30.12.2019
5207 Snow -1 983 74 10000 8.7 10 14:20 30.12.2019
5208 Snow -1 983 74 10000 8.7 10 13:58 30.12.2019
5209 Snow -1 983 68 10000 9.8 360 13:40 30.12.2019
5210 Rain 0 983 63 10000 7.7 360 13:21 30.12.2019
5211 Rain 0 982 68 10000 7.2 30 12:56 30.12.2019
5212 Rain 0 982 68 10000 7.2 30 12:37 30.12.2019
5213 Clouds 0 982 68 10000 7.2 20 12:18 30.12.2019
5214 Clouds -1 982 68 10000 6.2 10 11:45 30.12.2019
5215 Clouds -1 982 63 10000 8.7 20 11:20 30.12.2019
5216 Clouds -1 982 74 10000 4.1 30 10:58 30.12.2019
5217 Clouds -1 982 74 10000 4.1 30 10:40 30.12.2019
5218 Clouds -1 981 68 10000 5.1 60 10:19 30.12.2019
5219 Clouds -1 981 68 10000 6.2 20 09:42 30.12.2019
5220 Clouds -1 981 74 10000 6.7 20 09:20 30.12.2019
5221 Clouds -1 981 74 10000 7.2 40 08:56 30.12.2019
5222 Clouds -1 981 74 10000 7.2 40 08:38 30.12.2019
5223 Clouds 0 981 68 10000 5.7 50 08:18 30.12.2019
5224 Clouds 0 981 63 10000 6.2 40 07:42 30.12.2019
5225 Clouds -1 981 63 10000 6.2 40 06:59 30.12.2019
5226 Clouds -1 981 68 10000 6.7 30 06:24 30.12.2019
5227 Clouds -1 982 74 10000 8.2 20 04:23 30.12.2019
5228 Clouds 0 982 96 10000 6.7 40 03:42 30.12.2019
5229 Clouds 0 982 96 10000 6.2 50 02:41 30.12.2019
5230 Clouds 0 982 97 10000 6.2 50 02:20 30.12.2019
5231 Clouds 0 983 97 10000 7.7 20 01:26 30.12.2019
5232 Clouds 0 984 95 10000 8.2 10 00:47 30.12.2019
5233 Clouds 0 984 95 10000 7.7 10 00:26 30.12.2019
5234 Clouds 0 984 95 10000 6.7 360 23:40 29.12.2019
5235 Rain 1 984 98 10000 6.7 360 23:22 29.12.2019
5236 Snow 1 985 98 10000 6.7 350 22:57 29.12.2019
5237 Snow 1 985 98 10000 6.7 350 22:38 29.12.2019
5238 Snow 1 985 98 10000 6.7 350 22:38 29.12.2019
5239 Snow 1 985 98 5000 5.7 340 22:20 29.12.2019
5240 Snow 1 986 74 10000 5.1 340 21:55 29.12.2019
5241 Snow 1 986 74 10000 5.1 340 21:36 29.12.2019
5242 Snow 1 986 74 10000 6.2 310 21:18 29.12.2019
5243 Clouds 2 986 69 10000 6.2 330 20:55 29.12.2019
5244 Clouds 2 986 69 10000 6.2 330 20:55 29.12.2019
5245 Clouds 2 986 69 10000 6.2 330 20:37 29.12.2019
5246 Clouds 2 986 74 10000 8.2 310 20:18 29.12.2019
5247 Clouds 1 986 94 10000 8.2 310 19:55 29.12.2019
5248 Clouds 1 986 94 10000 8.2 310 19:37 29.12.2019
5249 Clouds 1 986 94 10000 8.2 310 19:37 29.12.2019
5250 Clouds 2 987 80 10000 8.2 310 19:18 29.12.2019
5251 Rain 2 987 94 10000 3.6 260 18:54 29.12.2019
5252 Rain 2 987 94 10000 3.6 260 18:36 29.12.2019
5253 Snow 2 987 94 10000 3.6 0 18:18 29.12.2019
5254 Drizzle 2 987 93 10000 5.7 270 17:54 29.12.2019
5255 Drizzle 2 987 93 10000 5.7 270 17:36 29.12.2019
5256 Snow 2 988 93 10000 14.9 300 17:18 29.12.2019
5257 Snow 2 988 93 10000 13.4 290 16:54 29.12.2019
5258 Snow 2 988 93 10000 13.4 290 16:36 29.12.2019
5259 Snow 2 988 93 10000 12.9 300 16:18 29.12.2019
5260 Snow 2 988 93 8000 15.4 290 15:54 29.12.2019
5261 Snow 2 988 93 8000 15.4 290 15:36 29.12.2019
5262 Rain 3 988 93 10000 15.4 290 15:18 29.12.2019
5263 Rain 3 988 86 10000 16.5 290 14:46 29.12.2019
5264 Rain 3 988 93 10000 15.4 290 14:19 29.12.2019
5265 Rain 3 988 93 10000 15.4 290 13:59 29.12.2019
5266 Rain 4 988 86 10000 19.5 290 13:40 29.12.2019
5267 Rain 4 988 86 10000 20.6 300 13:22 29.12.2019
5268 Rain 4 988 86 10000 20.6 300 13:22 29.12.2019
5269 Rain 4 987 86 10000 22.1 290 12:58 29.12.2019
5270 Rain 4 987 86 10000 22.1 290 12:39 29.12.2019
5271 Rain 3 987 93 10000 20.1 290 12:21 29.12.2019
5272 Rain 4 986 86 10000 19.5 290 11:43 29.12.2019
5273 Snow 4 986 86 10000 22.6 290 11:22 29.12.2019
5274 Snow 4 986 86 10000 18 270 10:59 29.12.2019
5275 Snow 4 986 86 10000 18 270 10:40 29.12.2019
5276 Snow 4 985 86 10000 20.1 270 10:18 29.12.2019
5277 Drizzle 4 985 86 10000 21.1 270 09:46 29.12.2019
5278 Drizzle 4 985 86 10000 22.1 270 09:28 29.12.2019
5279 Drizzle 4 985 86 10000 22.1 270 08:59 29.12.2019
5280 Drizzle 4 985 86 10000 20.1 270 08:40 29.12.2019
5281 Snow 4 985 80 10000 20.6 270 08:21 29.12.2019
5282 Snow 4 985 80 10000 11.8 250 07:45 29.12.2019
5283 Snow 3 985 74 10000 12.3 240 07:26 29.12.2019
5284 Snow 3 985 69 10000 11.3 220 06:42 29.12.2019
5285 Snow 2 986 74 10000 12.3 200 06:19 29.12.2019
5286 Snow 3 986 69 10000 12.3 200 05:44 29.12.2019
5287 Clouds 3 988 69 10000 12.3 200 04:33 29.12.2019
5288 Clouds 3 989 69 10000 15.9 200 03:36 29.12.2019
5289 Clouds 3 991 69 10000 14.9 190 02:30 29.12.2019
5290 Clouds 3 991 69 10000 14.9 190 02:30 29.12.2019
5291 Snow 2 993 74 10000 14.9 190 01:52 29.12.2019
5292 Snow 2 993 74 10000 14.9 190 01:29 29.12.2019
5293 Clouds 1 995 74 10000 14.4 200 00:47 29.12.2019
5294 Clouds 3 996 69 10000 10.3 210 00:25 29.12.2019
5295 Clouds 3 997 69 10000 10.8 220 23:56 28.12.2019
5296 Clouds 3 997 69 10000 10.8 220 23:37 28.12.2019
5297 Clouds 3 997 74 10000 10.8 220 23:18 28.12.2019
5298 Clouds 3 997 74 10000 10.8 220 23:18 28.12.2019
5299 Clouds 3 997 74 10000 10.8 220 23:18 28.12.2019
5300 Clouds 3 997 74 10000 10.8 220 23:18 28.12.2019
5301 Clouds 3 997 74 10000 10.8 220 23:18 28.12.2019
5302 Clouds 3 998 69 10000 11.3 220 22:38 28.12.2019
5303 Clouds 3 999 69 10000 10.3 210 22:19 28.12.2019
5304 Clouds 3 999 69 10000 11.3 220 21:57 28.12.2019
5305 Clouds 3 999 69 10000 11.3 220 21:38 28.12.2019
5306 Clouds 3 999 74 10000 11.3 220 21:19 28.12.2019
5307 Clouds 4 1000 69 10000 11.3 230 20:55 28.12.2019
5308 Clouds 4 1000 69 10000 11.3 230 20:36 28.12.2019
5309 Snow 3 1000 93 10000 13.4 250 20:18 28.12.2019
5310 Snow 3 1000 74 10000 14.9 230 19:54 28.12.2019
5311 Snow 3 1000 74 10000 14.9 230 19:36 28.12.2019
5312 Snow 4 1001 93 10000 14.9 240 19:18 28.12.2019
5313 Snow 4 1001 93 10000 15.4 250 18:42 28.12.2019
5314 Snow 3 1001 93 10000 12.9 230 18:20 28.12.2019
5315 Snow 3 1001 93 10000 12.9 230 17:59 28.12.2019
5316 Drizzle 2 1002 93 10000 12.3 230 17:40 28.12.2019
5317 Rain 2 1002 83 10000 11.3 220 17:21 28.12.2019
5318 Rain 0 1002 83 10000 12.3 210 16:51 28.12.2019
5319 Clouds 1 1003 80 10000 10.8 210 16:27 28.12.2019
5320 Clouds -1 1003 86 10000 12.3 210 15:58 28.12.2019
5321 Clouds -1 1003 86 10000 12.3 210 15:39 28.12.2019
5322 Clouds -1 1004 80 10000 13.4 200 15:21 28.12.2019
5323 Clouds -1 1004 80 10000 13.4 200 15:21 28.12.2019
5324 Clouds -1 1004 80 10000 13.4 200 15:21 28.12.2019
5325 Clouds -2 1004 79 10000 15.4 200 14:47 28.12.2019
5326 Snow -3 1005 86 6000 13.4 200 14:26 28.12.2019
5327 Snow -3 1005 86 6000 13.4 200 13:58 28.12.2019
5328 Snow -4 1006 79 5000 12.9 190 13:39 28.12.2019
5329 Snow -3 1006 68 8000 13.9 190 13:20 28.12.2019
5330 Snow -3 1006 68 8000 13.9 190 13:20 28.12.2019
5331 Snow -3 1007 63 10000 13.4 200 12:56 28.12.2019
5332 Snow -3 1007 63 10000 13.4 200 12:37 28.12.2019
5333 Clouds -2 1008 54 10000 8.2 190 12:19 28.12.2019
5334 Clouds -3 1009 58 10000 10.3 190 11:40 28.12.2019
5335 Clouds -3 1009 58 10000 10.3 210 11:21 28.12.2019
5336 Clouds -3 1009 58 10000 8.7 210 10:56 28.12.2019
5337 Clouds -3 1009 58 10000 8.7 210 10:37 28.12.2019
5338 Clouds -3 1010 58 10000 10.8 210 10:18 28.12.2019
5339 Clouds -3 1010 58 10000 10.8 210 10:18 28.12.2019
5340 Clouds -4 1010 62 10000 10.8 200 09:45 28.12.2019
5341 Clouds -4 1011 68 10000 10.3 210 09:23 28.12.2019
5342 Clouds -4 1011 68 10000 10.3 210 08:58 28.12.2019
5343 Clouds -3 1012 63 10000 9.8 210 08:39 28.12.2019
5344 Clouds -3 1013 63 10000 11.3 210 08:20 28.12.2019
5345 Clouds -3 1013 68 10000 9.8 210 07:43 28.12.2019
5346 Clouds -2 1015 63 10000 11.3 200 06:59 28.12.2019
5347 Clouds -1 1018 68 10000 9.3 190 05:43 28.12.2019
5348 Clouds -1 1020 74 10000 8.2 200 03:48 28.12.2019
5349 Clouds -1 1023 68 10000 9.3 210 02:50 28.12.2019
5350 Clouds -1 1023 68 10000 9.3 210 02:20 28.12.2019
5351 Clouds -1 1023 68 10000 9.8 210 01:54 28.12.2019
5352 Clouds -1 1023 68 10000 10.3 210 01:22 28.12.2019
5353 Clouds -1 1024 68 10000 10.8 200 00:44 28.12.2019
5354 Clouds 0 1024 65 10000 8.2 200 00:26 28.12.2019
5355 Clouds 0 1024 65 10000 7.7 200 23:57 27.12.2019
5356 Clouds 0 1024 65 10000 7.7 200 23:37 27.12.2019
5357 Clouds -1 1025 68 10000 6.7 200 23:18 27.12.2019
5358 Clouds -1 1025 68 10000 7.7 200 22:55 27.12.2019
5359 Clouds -1 1025 68 10000 7.7 200 22:37 27.12.2019
5360 Clouds 0 1026 68 10000 5.7 200 22:19 27.12.2019
5361 Clouds 0 1026 68 10000 6.7 200 21:41 27.12.2019
5362 Clouds 0 1026 68 10000 7.2 200 21:23 27.12.2019
5363 Clouds 0 1027 68 10000 7.2 200 20:44 27.12.2019
5364 Clouds 0 1027 68 10000 7.7 210 20:26 27.12.2019
5365 Clouds -2 1027 74 10000 7.2 210 19:58 27.12.2019
5366 Clouds -2 1027 74 10000 7.2 210 19:40 27.12.2019
5367 Clouds -1 1027 68 10000 7.7 210 19:19 27.12.2019
5368 Clouds -1 1027 68 10000 7.2 200 18:55 27.12.2019
5369 Clouds -1 1027 68 10000 7.2 200 18:36 27.12.2019
5370 Clouds -2 1028 74 10000 6.2 200 18:18 27.12.2019
5371 Clouds -1 1028 68 10000 5.7 200 17:55 27.12.2019
5372 Clouds 0 1028 68 10000 5.7 200 17:37 27.12.2019
5373 Clouds 0 1028 68 10000 6.2 210 17:18 27.12.2019
5374 Clouds -1 1028 74 10000 6.2 210 16:41 27.12.2019
5375 Clouds -1 1028 74 10000 6.2 210 16:23 27.12.2019
5376 Clouds 0 1028 63 10000 6.2 210 15:57 27.12.2019
5377 Clouds 0 1028 63 10000 6.2 210 15:37 27.12.2019
5378 Clouds 0 1028 63 10000 6.2 210 15:37 27.12.2019
5379 Clouds 0 1028 63 10000 6.2 210 15:19 27.12.2019
5380 Clouds -1 1028 68 10000 6.2 200 14:56 27.12.2019
5381 Clouds -1 1028 68 10000 6.2 200 14:37 27.12.2019
5382 Clouds -2 1028 63 10000 3.1 240 14:19 27.12.2019
5383 Clouds -2 1028 63 10000 3.1 240 14:19 27.12.2019
5384 Clouds -3 1028 63 10000 6.7 200 13:46 27.12.2019
5385 Clouds -4 1028 68 10000 7.2 200 13:23 27.12.2019
5386 Clouds -4 1028 68 10000 6.2 200 12:49 27.12.2019
5387 Clouds -4 1028 68 10000 6.2 200 12:29 27.12.2019
5388 Clouds -4 1029 68 10000 5.7 200 11:59 27.12.2019
5389 Clouds -4 1029 73 10000 7.2 220 11:41 27.12.2019
5390 Clouds -4 1029 73 10000 6.7 220 11:20 27.12.2019
5391 Clouds -3 1029 68 10000 6.7 200 10:47 27.12.2019
5392 Clouds -3 1028 68 10000 8.2 210 10:24 27.12.2019
5393 Clouds -3 1028 68 10000 8.2 210 09:58 27.12.2019
5394 Clouds -3 1028 68 10000 8.2 210 09:39 27.12.2019
5395 Clouds -3 1028 68 10000 8.2 200 09:21 27.12.2019
5396 Clouds -3 1028 68 10000 8.2 200 08:49 27.12.2019
5397 Clouds -3 1028 68 10000 8.2 200 08:30 27.12.2019
5398 Clouds -3 1028 73 10000 5.1 180 07:48 27.12.2019
5399 Clouds -4 1028 79 10000 4.1 180 07:26 27.12.2019
5400 Clouds -4 1028 73 10000 4.6 180 06:33 27.12.2019
5401 Clouds -3 1028 73 10000 4.6 190 04:51 27.12.2019
5402 Clouds -3 1028 79 10000 4.1 190 02:49 27.12.2019
5403 Clouds -4 1028 85 10000 3.6 200 01:56 27.12.2019
5404 Clouds -4 1028 85 10000 3.6 200 01:23 27.12.2019
5405 Clouds -4 1028 85 10000 4.1 200 00:53 27.12.2019
5406 Clouds -4 1028 85 10000 4.1 200 00:34 27.12.2019
5407 Clouds -4 1027 79 10000 4.6 210 23:59 26.12.2019
5408 Clouds -5 1027 85 10000 2.6 200 23:40 26.12.2019
5409 Clouds -4 1027 85 10000 1.5 170 23:21 26.12.2019
5410 Clouds -3 1027 79 10000 1.5 160 22:43 26.12.2019
5411 Rain -2 1027 86 10000 1.5 140 22:21 26.12.2019
5412 Rain -2 1027 86 10000 1.5 140 21:58 26.12.2019
5413 Clouds -2 1027 86 10000 2.6 140 21:38 26.12.2019
5414 Snow -2 1027 92 9000 2.6 130 21:20 26.12.2019
5415 Clouds -3 1026 73 10000 3.6 40 20:45 26.12.2019
5416 Clouds -2 1026 79 10000 3.6 40 20:23 26.12.2019
5417 Clouds -2 1026 79 10000 3.6 40 19:59 26.12.2019
5418 Clouds -1 1026 80 10000 2.1 60 19:39 26.12.2019
5419 Rain -1 1026 80 10000 2.1 70 19:21 26.12.2019
5420 Rain -1 1026 74 10000 4.1 50 18:57 26.12.2019
5421 Rain -1 1026 74 10000 4.1 50 18:38 26.12.2019
5422 Clouds -1 1026 68 10000 4.6 50 18:19 26.12.2019
5423 Clouds -1 1025 68 10000 6.2 40 17:43 26.12.2019
5424 Rain -3 1025 68 10000 7.7 20 17:22 26.12.2019
5425 Rain -3 1025 68 10000 7.7 20 16:59 26.12.2019
5426 Snow -3 1025 68 10000 5.7 40 16:41 26.12.2019
5427 Rain -3 1025 68 10000 5.7 30 16:21 26.12.2019
5428 Rain -2 1025 68 10000 5.7 30 15:55 26.12.2019
5429 Rain -2 1025 68 10000 5.7 30 15:37 26.12.2019
5430 Snow -2 1025 79 10000 6.2 40 15:18 26.12.2019
5431 Snow -4 1024 86 10000 7.2 20 14:39 26.12.2019
5432 Snow -1 1024 80 7000 7.7 20 14:21 26.12.2019
5433 Snow -1 1024 80 10000 7.2 20 13:43 26.12.2019
5434 Clouds -2 1024 79 10000 5.1 30 13:21 26.12.2019
5435 Clouds -2 1024 79 10000 5.1 30 12:58 26.12.2019
5436 Rain -2 1024 92 10000 7.2 30 12:39 26.12.2019
5437 Rain -1 1023 74 10000 5.1 360 12:20 26.12.2019
5438 Rain -2 1024 86 10000 5.7 350 11:57 26.12.2019
5439 Rain -2 1024 86 10000 5.7 350 11:38 26.12.2019
5440 Clouds -1 1023 86 10000 6.7 20 11:20 26.12.2019
5441 Clouds -1 1023 68 10000 6.7 350 10:42 26.12.2019
5442 Clouds 0 1023 87 10000 7.2 350 10:19 26.12.2019
5443 Clouds 0 1023 87 10000 5.1 330 09:50 26.12.2019
5444 Clouds 0 1023 87 10000 5.1 330 09:31 26.12.2019
5445 Snow -1 1023 68 10000 6.2 350 08:43 26.12.2019
5446 Snow -1 1023 63 10000 3.6 10 08:25 26.12.2019
5447 Snow -1 1023 63 10000 3.1 10 07:53 26.12.2019
5448 Snow -1 1023 63 10000 3.1 10 07:28 26.12.2019
5449 Snow -1 1022 68 10000 7.2 10 06:54 26.12.2019
5450 Snow -1 1022 68 10000 7.2 10 06:32 26.12.2019
5451 Snow -1 1022 63 10000 4.1 10 05:46 26.12.2019
5452 Snow -1 1022 68 10000 7.7 360 04:59 26.12.2019
5453 Snow -1 1022 68 10000 7.7 360 04:30 26.12.2019
5454 Snow -1 1022 68 10000 7.2 350 02:58 26.12.2019
5455 Snow -1 1022 68 10000 5.1 10 02:34 26.12.2019
5456 Clouds -1 1021 63 10000 6.7 360 01:51 26.12.2019
5457 Clouds -1 1021 63 10000 6.7 360 01:33 26.12.2019
5458 Clouds -1 1021 68 10000 5.1 30 00:50 26.12.2019
5459 Clouds -1 1021 68 10000 7.7 20 00:27 26.12.2019
5460 Clouds -1 1021 68 10000 7.7 20 00:27 26.12.2019
5461 Clouds -1 1021 68 10000 7.7 20 23:59 25.12.2019
5462 Clouds -1 1021 68 10000 7.2 20 23:40 25.12.2019
5463 Clouds -1 1021 63 10000 8.2 20 23:21 25.12.2019
5464 Clouds -1 1021 63 10000 8.2 20 22:59 25.12.2019
5465 Clouds -1 1021 68 10000 9.8 360 22:40 25.12.2019
5466 Clouds -1 1020 68 10000 7.7 10 22:22 25.12.2019
5467 Clouds -1 1020 68 10000 7.7 10 21:59 25.12.2019
5468 Clouds -1 1020 68 10000 8.2 20 21:39 25.12.2019
5469 Clouds -1 1020 68 10000 8.7 20 21:20 25.12.2019
5470 Clouds -1 1020 68 10000 8.2 20 20:56 25.12.2019
5471 Clouds -1 1020 68 10000 8.2 20 20:38 25.12.2019
5472 Clouds -1 1020 68 10000 8.7 20 20:18 25.12.2019
5473 Clouds -1 1019 68 10000 9.3 10 19:43 25.12.2019
5474 Clouds 0 1019 78 10000 8.7 10 19:25 25.12.2019
5475 Clouds 0 1019 78 10000 8.7 10 18:58 25.12.2019
5476 Clouds -1 1019 68 10000 10.3 20 18:37 25.12.2019
5477 Clouds 0 1018 78 10000 10.8 20 18:19 25.12.2019
5478 Clouds 0 1018 78 10000 10.8 20 17:42 25.12.2019
5479 Snow 0 1018 79 10000 10.3 20 17:20 25.12.2019
5480 Snow 0 1018 79 10000 10.8 10 16:58 25.12.2019
5481 Snow 0 1018 79 10000 10.8 10 16:37 25.12.2019
5482 Snow 0 1018 79 10000 11.8 20 16:18 25.12.2019
5483 Snow 0 1017 79 10000 10.3 10 15:57 25.12.2019
5484 Snow 0 1017 79 10000 10.3 10 15:39 25.12.2019
5485 Snow 0 1017 79 10000 10.3 20 15:20 25.12.2019
5486 Clouds 1 1016 69 10000 11.3 20 14:57 25.12.2019
5487 Clouds 1 1016 69 10000 11.3 20 14:39 25.12.2019
5488 Clouds 1 1016 74 10000 10.8 10 14:20 25.12.2019
5489 Clouds 1 1016 74 10000 15.4 10 13:45 25.12.2019
5490 Snow 1 1015 74 10000 12.9 10 13:21 25.12.2019
5491 Snow 1 1015 74 10000 12.9 10 12:57 25.12.2019
5492 Snow 1 1015 74 10000 12.9 10 12:38 25.12.2019
5493 Snow 1 1015 69 10000 13.9 360 12:20 25.12.2019
5494 Snow 1 1015 74 10000 16.5 360 11:43 25.12.2019
5495 Snow 1 1015 80 10000 15.9 360 11:23 25.12.2019
5496 Snow 1 1015 80 10000 15.9 360 10:59 25.12.2019
5497 Snow 1 1014 86 10000 14.9 360 10:37 25.12.2019
5498 Snow 1 1014 80 10000 15.4 360 10:19 25.12.2019
5499 Clouds 1 1013 97 10000 15.4 350 09:49 25.12.2019
5500 Clouds 1 1013 97 10000 15.4 350 09:30 25.12.2019
5501 Rain 1 1013 86 10000 9.8 360 08:47 25.12.2019
5502 Rain 1 1013 86 10000 9.8 360 08:29 25.12.2019
5503 Snow 2 1011 80 10000 7.2 20 07:49 25.12.2019
5504 Snow 2 1011 80 10000 7.2 20 07:31 25.12.2019
5505 Snow 2 1011 98 10000 6.7 350 06:50 25.12.2019
5506 Rain 2 1010 98 10000 17.5 360 06:22 25.12.2019
5507 Snow 2 1009 93 6000 10.8 20 05:18 25.12.2019
5508 Rain 2 1009 93 9000 13.4 360 04:39 25.12.2019
5509 Rain 2 1009 93 5000 12.3 360 04:18 25.12.2019
5510 Rain 2 1008 100 6000 12.9 360 03:40 25.12.2019
5511 Drizzle 3 1008 93 4900 8.7 360 02:51 25.12.2019
5512 Rain 2 1007 100 10000 6.7 360 02:20 25.12.2019
5513 Drizzle 2 1007 100 4300 5.1 280 01:25 25.12.2019
5514 Mist 3 1006 93 9000 5.7 270 00:52 25.12.2019
5515 Mist 3 1006 93 9000 5.7 270 00:29 25.12.2019
5516 Drizzle 3 1006 93 7000 7.2 260 23:56 24.12.2019
5517 Drizzle 3 1006 93 7000 7.2 260 23:38 24.12.2019
5518 Clouds 3 1006 93 10000 8.2 260 23:20 24.12.2019
5519 Clouds 3 1005 86 10000 8.2 270 22:40 24.12.2019
5520 Drizzle 3 1005 86 10000 7.7 270 22:21 24.12.2019
5521 Clouds 3 1005 86 10000 7.2 260 21:43 24.12.2019
5522 Clouds 3 1005 86 10000 8.2 260 21:23 24.12.2019
5523 Clouds 3 1005 86 10000 8.2 260 21:23 24.12.2019
5524 Clouds 2 1004 93 10000 7.2 260 20:55 24.12.2019
5525 Clouds 2 1004 93 10000 7.2 260 20:36 24.12.2019
5526 Clouds 2 1004 93 10000 7.2 250 20:18 24.12.2019
5527 Clouds 2 1004 93 10000 7.2 240 19:43 24.12.2019
5528 Clouds 2 1003 93 10000 7.2 230 19:19 24.12.2019
5529 Clouds 1 1003 100 10000 7.2 220 18:43 24.12.2019
5530 Clouds 1 1003 91 10000 6.7 220 18:24 24.12.2019
5531 Clouds 1 1003 91 10000 6.7 220 17:58 24.12.2019
5532 Rain 1 1003 91 10000 8.2 220 17:38 24.12.2019
5533 Drizzle 0 1003 92 10000 7.2 220 17:20 24.12.2019
5534 Rain 1 1003 92 10000 6.7 220 16:55 24.12.2019
5535 Rain 1 1003 92 10000 6.7 220 16:37 24.12.2019
5536 Snow 0 1003 92 7000 6.7 220 16:19 24.12.2019
5537 Snow 0 1003 92 7000 6.7 220 16:19 24.12.2019
5538 Snow 0 1002 92 4400 5.7 220 15:55 24.12.2019
5539 Snow 0 1002 92 4400 5.7 220 15:36 24.12.2019
5540 Snow 0 1002 92 3000 6.2 210 15:18 24.12.2019
5541 Snow 0 1002 92 4100 2.6 230 14:55 24.12.2019
5542 Snow 0 1002 92 4100 2.6 230 14:36 24.12.2019
5543 Snow 0 1002 95 4400 5.1 210 14:18 24.12.2019
5544 Snow 0 1002 95 4700 6.2 220 13:55 24.12.2019
5545 Snow 0 1002 95 4700 6.2 220 13:37 24.12.2019
5546 Snow 1 1002 80 7000 6.2 220 13:18 24.12.2019
5547 Snow 1 1002 80 10000 6.2 220 12:55 24.12.2019
5548 Snow 1 1002 80 10000 6.2 220 12:36 24.12.2019
5549 Snow 1 1002 80 10000 6.2 210 12:18 24.12.2019
5550 Snow 1 1001 74 10000 7.2 210 11:54 24.12.2019
5551 Snow 1 1001 74 10000 7.2 210 11:36 24.12.2019
5552 Snow 1 1001 74 10000 7.2 210 11:36 24.12.2019
5553 Snow 1 1001 74 10000 6.7 220 11:18 24.12.2019
5554 Clouds 0 1001 96 10000 6.7 210 10:55 24.12.2019
5555 Clouds 0 1001 96 10000 6.7 210 10:36 24.12.2019
5556 Clouds 0 1001 96 10000 6.2 210 10:18 24.12.2019
5557 Snow 0 1001 96 10000 6.2 210 09:54 24.12.2019
5558 Snow 0 1001 96 10000 6.2 210 09:36 24.12.2019
5559 Clouds 0 1000 96 10000 6.2 210 09:18 24.12.2019
5560 Clouds 0 1000 96 10000 6.7 210 08:42 24.12.2019
5561 Clouds 0 1000 94 10000 7.2 210 08:20 24.12.2019
5562 Clouds 0 1000 94 10000 6.7 210 07:45 24.12.2019
5563 Clouds 0 1000 94 10000 6.2 200 07:24 24.12.2019
5564 Snow 0 1000 94 10000 6.7 210 06:44 24.12.2019
5565 Snow 0 1000 94 10000 6.7 210 06:22 24.12.2019
5566 Snow 0 1000 94 10000 5.1 200 05:57 24.12.2019
5567 Snow 0 1000 95 10000 6.7 200 05:20 24.12.2019
5568 Clouds -1 1000 80 10000 6.2 210 04:36 24.12.2019
5569 Clouds 0 999 95 10000 5.7 200 03:50 24.12.2019
5570 Clouds 0 999 95 10000 6.7 200 02:59 24.12.2019
5571 Clouds 0 999 91 10000 5.1 190 02:19 24.12.2019
5572 Clouds 0 999 91 10000 5.7 190 01:42 24.12.2019
5573 Clouds 0 999 91 10000 6.7 190 01:20 24.12.2019
5574 Clouds 0 999 91 10000 6.7 200 00:43 24.12.2019
5575 Clouds -1 999 80 10000 4.1 200 00:23 24.12.2019
5576 Clouds -2 999 79 10000 4.6 190 23:55 23.12.2019
5577 Clouds -2 999 79 10000 4.6 190 23:37 23.12.2019
5578 Clouds -1 999 74 10000 5.7 200 23:19 23.12.2019
5579 Clouds -1 999 74 10000 5.1 200 22:55 23.12.2019
5580 Clouds -1 999 74 10000 5.1 200 22:55 23.12.2019
5581 Clouds -1 999 74 10000 5.1 200 22:36 23.12.2019
5582 Clouds -1 999 74 10000 5.1 200 22:36 23.12.2019
5583 Clouds -1 999 74 10000 4.1 190 22:18 23.12.2019
5584 Clouds -1 998 74 10000 3.6 180 21:55 23.12.2019
5585 Clouds -1 998 74 10000 3.6 180 21:36 23.12.2019
5586 Clouds -1 998 74 10000 3.6 180 21:36 23.12.2019
5587 Clouds -1 998 74 10000 6.7 200 21:18 23.12.2019
5588 Clouds -1 998 80 10000 7.2 200 20:56 23.12.2019
5589 Clouds -1 998 80 10000 7.2 200 20:56 23.12.2019
5590 Clouds -1 998 80 10000 7.2 200 20:38 23.12.2019
5591 Clouds 0 998 88 10000 8.2 200 20:18 23.12.2019
5592 Clouds -1 998 80 10000 8.7 200 19:55 23.12.2019
5593 Clouds -1 998 80 10000 8.7 200 19:36 23.12.2019
5594 Clouds -1 998 80 10000 8.2 190 19:18 23.12.2019
5595 Clouds -1 998 74 10000 8.2 180 18:55 23.12.2019
5596 Clouds -1 998 74 10000 8.2 180 18:36 23.12.2019
5597 Clouds -1 998 74 10000 8.7 190 18:18 23.12.2019
5598 Clouds -1 998 74 10000 9.8 180 17:55 23.12.2019
5599 Clouds 1 998 74 10000 9.8 180 17:37 23.12.2019
5600 Clouds 1 998 74 10000 9.8 180 17:18 23.12.2019
5601 Clouds 1 998 74 10000 11.8 180 16:42 23.12.2019
5602 Clouds 1 998 74 10000 6.7 170 16:19 23.12.2019
5603 Clouds 1 998 74 10000 6.7 170 15:59 23.12.2019
5604 Clouds 1 998 74 10000 9.8 170 15:38 23.12.2019
5605 Clouds 1 998 80 10000 11.3 180 15:20 23.12.2019
5606 Clouds 1 998 80 10000 11.3 180 14:59 23.12.2019
5607 Clouds 1 998 80 10000 10.3 180 14:41 23.12.2019
5608 Clouds 1 998 80 10000 12.9 190 14:22 23.12.2019
5609 Clouds 1 998 80 10000 12.9 190 13:58 23.12.2019
5610 Rain 1 998 74 10000 13.9 190 13:40 23.12.2019
5611 Rain 1 998 74 10000 15.9 190 13:22 23.12.2019
5612 Snow 1 998 74 10000 17.5 200 12:56 23.12.2019
5613 Snow 1 998 74 10000 17.5 200 12:37 23.12.2019
5614 Snow 1 998 74 10000 15.9 190 12:19 23.12.2019
5615 Snow 1 998 80 10000 11.8 180 11:44 23.12.2019
5616 Snow 1 998 80 4500 9.3 170 11:26 23.12.2019
5617 Snow 1 998 80 4500 9.3 170 10:59 23.12.2019
5618 Snow 0 998 86 4000 12.9 180 10:40 23.12.2019
5619 Rain 1 998 74 10000 16.5 190 10:21 23.12.2019
5620 Rain 1 998 74 10000 16.5 190 09:59 23.12.2019
5621 Snow 1 998 74 10000 16.5 190 09:40 23.12.2019
5622 Snow 1 997 80 8000 13.9 180 09:21 23.12.2019
5623 Snow 1 997 80 8000 12.3 180 08:56 23.12.2019
5624 Snow 1 997 80 8000 12.3 180 08:38 23.12.2019
5625 Snow 1 997 80 7000 14.4 180 08:20 23.12.2019
5626 Snow 1 997 80 10000 13.9 180 07:43 23.12.2019
5627 Clouds -1 998 74 10000 14.4 180 07:20 23.12.2019
5628 Snow -1 998 74 10000 14.9 180 06:53 23.12.2019
5629 Snow -1 998 74 10000 12.3 170 06:25 23.12.2019
5630 Clouds -1 998 74 10000 13.4 170 05:50 23.12.2019
5631 Clouds -1 998 74 10000 13.4 170 05:28 23.12.2019
5632 Clouds -1 998 74 10000 11.8 160 04:31 23.12.2019
5633 Clouds -1 998 74 10000 14.9 160 03:18 23.12.2019
5634 Clouds -1 998 74 10000 14.4 160 02:40 23.12.2019
5635 Clouds -1 998 74 10000 14.4 160 02:19 23.12.2019
5636 Clouds -1 999 74 10000 15.4 150 01:42 23.12.2019
5637 Clouds -2 999 74 10000 15.9 150 01:20 23.12.2019
5638 Clouds -2 999 74 10000 15.4 150 00:43 23.12.2019
5639 Clouds -2 999 74 10000 15.4 150 00:22 23.12.2019
5640 Clouds 0 999 74 10000 14.9 150 23:39 22.12.2019
5641 Clouds 0 1000 68 10000 15.4 150 23:21 22.12.2019
5642 Clouds 0 1000 74 10000 15.9 150 22:58 22.12.2019
5643 Clouds 0 1000 74 10000 15.9 150 22:58 22.12.2019
5644 Clouds 0 1000 74 10000 15.9 150 22:40 22.12.2019
5645 Clouds 0 1000 68 10000 17 150 22:20 22.12.2019
5646 Clouds 0 1000 68 10000 17 150 21:58 22.12.2019
5647 Clouds 0 1000 74 10000 13.9 150 21:40 22.12.2019
5648 Clouds 0 1000 74 10000 16.5 140 21:21 22.12.2019
5649 Clouds 0 1000 74 10000 16.5 140 20:58 22.12.2019
5650 Clouds 0 1000 74 10000 16.5 150 20:39 22.12.2019
5651 Clouds -2 1000 74 10000 20.1 150 20:18 22.12.2019
5652 Clouds -2 1000 68 10000 21.6 150 19:56 22.12.2019
5653 Clouds -2 1000 68 10000 21.6 150 19:37 22.12.2019
5654 Clouds -2 1000 68 10000 19 140 19:19 22.12.2019
5655 Clouds -2 999 68 10000 13.9 130 18:41 22.12.2019
5656 Clouds -2 1000 74 10000 13.9 130 18:23 22.12.2019
5657 Clouds 0 1000 74 10000 15.4 130 17:56 22.12.2019
5658 Clouds -1 1000 74 10000 15.4 130 17:37 22.12.2019
5659 Clouds -1 1000 74 10000 15.4 130 17:19 22.12.2019
5660 Clouds -1 1000 79 10000 13.9 130 16:57 22.12.2019
5661 Clouds -1 1000 79 10000 13.9 130 16:38 22.12.2019
5662 Clouds -1 1000 74 10000 13.4 130 16:20 22.12.2019
5663 Clouds -1 1000 74 10000 12.3 130 15:56 22.12.2019
5664 Clouds -1 1000 74 10000 12.3 130 15:37 22.12.2019
5665 Clouds 0 1000 68 10000 13.4 150 15:19 22.12.2019
5666 Clouds 0 1000 74 10000 8.2 110 14:55 22.12.2019
5667 Clouds 0 1000 74 10000 8.2 110 14:36 22.12.2019
5668 Clouds -1 1000 74 10000 8.2 100 14:18 22.12.2019
5669 Clouds -2 1000 74 10000 7.7 110 13:55 22.12.2019
5670 Clouds -2 1000 74 10000 7.7 110 13:36 22.12.2019
5671 Clouds -1 1000 74 10000 9.3 110 13:18 22.12.2019
5672 Clouds -1 1000 74 10000 9.3 110 13:18 22.12.2019
5673 Clouds -2 1000 79 10000 8.2 110 12:55 22.12.2019
5674 Clouds -2 1000 79 10000 8.2 110 12:37 22.12.2019
5675 Clouds -2 1000 79 10000 8.2 110 12:37 22.12.2019
5676 Clouds -3 1000 79 10000 7.7 120 12:18 22.12.2019
5677 Clouds -3 1000 79 10000 7.7 110 11:54 22.12.2019
5678 Clouds -3 1000 79 10000 7.7 110 11:36 22.12.2019
5679 Clouds -3 1000 79 10000 8.7 110 11:18 22.12.2019
5680 Clouds -2 1000 74 10000 8.2 120 10:54 22.12.2019
5681 Clouds -2 1000 74 10000 8.2 120 10:36 22.12.2019
5682 Clouds -2 1000 79 10000 10.3 110 10:18 22.12.2019
5683 Clouds -2 1000 79 10000 10.8 110 09:40 22.12.2019
5684 Clouds -4 1000 79 10000 9.8 110 09:22 22.12.2019
5685 Clouds -4 1000 79 10000 9.8 110 08:59 22.12.2019
5686 Clouds -2 1000 74 10000 10.3 110 08:38 22.12.2019
5687 Clouds -4 999 79 10000 9.8 120 08:20 22.12.2019
5688 Clouds -4 999 79 10000 8.7 110 07:38 22.12.2019
5689 Clouds -4 999 79 10000 7.2 100 07:20 22.12.2019
5690 Clouds -5 999 85 10000 7.7 100 06:40 22.12.2019
5691 Clouds -3 999 73 10000 8.7 100 05:54 22.12.2019
5692 Clouds -6 999 73 10000 9.3 110 05:21 22.12.2019
5693 Clouds -6 999 73 10000 8.7 120 04:29 22.12.2019
5694 Clouds -6 999 73 10000 8.7 110 03:53 22.12.2019
5695 Clouds -8 999 72 10000 7.7 120 02:42 22.12.2019
5696 Clouds -8 999 72 10000 8.7 110 01:51 22.12.2019
5697 Clouds -8 999 72 10000 8.7 110 01:30 22.12.2019
5698 Clouds -7 999 73 10000 5.1 100 00:47 22.12.2019
5699 Clouds -7 999 79 10000 5.7 100 00:24 22.12.2019
5700 Clouds -8 999 72 10000 5.7 110 23:57 21.12.2019
5701 Clouds -8 999 72 10000 5.7 110 23:38 21.12.2019
5702 Clear -7 998 73 10000 6.7 110 23:19 21.12.2019
5703 Clear -6 999 79 10000 6.7 100 22:41 21.12.2019
5704 Clear -6 998 85 10000 6.7 100 22:19 21.12.2019
5705 Clear -6 998 79 10000 5.1 100 21:57 21.12.2019
5706 Clear -6 998 79 10000 5.1 100 21:38 21.12.2019
5707 Clear -9 999 92 10000 4.6 100 21:20 21.12.2019
5708 Clear -9 999 92 10000 4.6 100 20:59 21.12.2019
5709 Clear -8 998 85 10000 5.1 100 20:39 21.12.2019
5710 Clear -7 998 85 10000 4.1 100 20:21 21.12.2019
5711 Clear -7 998 85 10000 4.1 100 19:58 21.12.2019
5712 Clear -7 998 85 10000 4.1 100 19:40 21.12.2019
5713 Clear -6 998 85 10000 3.6 100 19:19 21.12.2019
5714 Clear -7 998 79 10000 3.6 100 18:45 21.12.2019
5715 Clear -7 998 85 10000 3.1 80 18:24 21.12.2019
5716 Clear -6 998 85 10000 1.5 100 17:58 21.12.2019
5717 Clear -6 998 85 10000 1.5 100 17:39 21.12.2019
5718 Clear -5 998 85 10000 1 110 17:21 21.12.2019
5719 Clear -5 998 85 10000 1 110 16:59 21.12.2019
5720 Clear -5 998 85 10000 2.33 136 16:41 21.12.2019
5721 Clear -5 998 85 10000 2.33 136 16:41 21.12.2019
5722 Clear -6 998 92 10000 2.1 190 16:19 21.12.2019
5723 Clear -6 998 92 10000 2.1 190 16:19 21.12.2019
5724 Clear -7 998 85 10000 0.5 0 15:57 21.12.2019
5725 Clear -7 998 85 10000 0.5 0 15:38 21.12.2019
5726 Clear -7 998 85 10000 0.5 0 15:38 21.12.2019
5727 Clear -7 998 85 10000 2.1 240 15:19 21.12.2019
5728 Clear -8 998 85 10000 1 0 14:57 21.12.2019
5729 Clear -8 998 85 10000 1 0 14:38 21.12.2019
5730 Clear -7 998 92 10000 1.7 133 14:18 21.12.2019
5731 Clear -8 999 85 10000 1 20 13:55 21.12.2019
5732 Clear -8 999 85 10000 1 20 13:37 21.12.2019
5733 Clear -7 999 92 10000 1.67 135 13:18 21.12.2019
5734 Clear -7 999 85 10000 1.67 135 12:54 21.12.2019
5735 Clear -7 999 85 10000 1.67 135 12:36 21.12.2019
5736 Clear -8 999 85 10000 0.5 160 12:18 21.12.2019
5737 Clear -7 999 92 10000 1.5 90 11:42 21.12.2019
5738 Clear -8 999 85 10000 3.1 70 11:24 21.12.2019
5739 Clear -9 999 72 10000 1.5 90 10:56 21.12.2019
5740 Clear -9 999 72 10000 1.5 90 10:38 21.12.2019
5741 Clear -8 999 78 10000 1.5 90 10:19 21.12.2019
5742 Clear -7 999 79 10000 2.1 90 09:43 21.12.2019
5743 Clear -8 999 85 10000 3.1 70 09:21 21.12.2019
5744 Clear -8 999 85 10000 3.1 70 08:59 21.12.2019
5745 Clear -8 999 85 10000 2.6 80 08:39 21.12.2019
5746 Clear -9 999 85 10000 3.1 70 08:21 21.12.2019
5747 Clear -8 999 85 10000 3.6 60 07:44 21.12.2019
5748 Clear -8 999 78 10000 2.6 80 07:22 21.12.2019
5749 Clear -9 999 78 10000 4.1 60 06:45 21.12.2019
5750 Clear -9 999 78 10000 4.1 60 06:26 21.12.2019
5751 Clear -6 999 79 10000 3.1 60 05:51 21.12.2019
5752 Clear -7 999 79 10000 2.1 90 04:58 21.12.2019
5753 Clear -9 1001 75 0 3.37 170 03:57 21.12.2019
5754 Clouds -5 999 73 10000 2.6 90 03:18 21.12.2019
5755 Clouds -7 999 79 10000 1.5 0 01:59 21.12.2019
5756 Clouds -7 999 79 10000 1.5 0 01:38 21.12.2019
5757 Clouds -7 999 73 10000 1.5 0 01:20 21.12.2019
5758 Clouds -6 999 73 10000 1.5 100 00:37 21.12.2019
5759 Clouds -8 1000 85 10000 1.5 180 00:18 21.12.2019
5760 Clouds -7 1000 79 10000 1.5 190 23:38 20.12.2019
5761 Clouds -2 1000 73 10000 1.5 150 23:19 20.12.2019
5762 Clouds -3 1000 85 10000 1 0 22:43 20.12.2019
5763 Clouds -4 1000 78 10000 4.61 176 22:21 20.12.2019
5764 Clouds -4 1000 78 10000 4.61 176 21:59 20.12.2019
5765 Clouds -4 1000 73 10000 2.1 140 21:40 20.12.2019
5766 Clouds -4 1000 67 10000 2.1 160 21:20 20.12.2019
5767 Clouds -4 1000 67 10000 2.6 180 20:55 20.12.2019
5768 Clouds -4 1000 67 10000 2.6 180 20:36 20.12.2019
5769 Clear -4 1000 73 10000 2.6 200 20:18 20.12.2019
5770 Clear -3 1001 73 10000 3.1 200 19:41 20.12.2019
5771 Clear -4 1001 72 10000 2.6 200 19:20 20.12.2019
5772 Clear -3 1001 73 10000 3.1 190 18:56 20.12.2019
5773 Clear -3 1001 73 10000 3.1 190 18:56 20.12.2019
5774 Clear -3 1001 73 10000 3.1 190 18:56 20.12.2019
5775 Clear -3 1001 73 10000 3.1 190 18:38 20.12.2019
5776 Clear -4 1001 73 10000 4.1 200 18:20 20.12.2019
5777 Clear -4 1001 73 10000 5.1 210 17:54 20.12.2019
5778 Clear -4 1001 73 10000 5.1 210 17:36 20.12.2019
5779 Clear -4 1001 73 10000 5.1 210 17:18 20.12.2019
5780 Clear -5 1002 78 10000 5.7 210 16:40 20.12.2019
5781 Clear -5 1002 78 10000 5.7 210 16:20 20.12.2019
5782 Clear -5 1002 78 10000 5.7 210 16:20 20.12.2019
5783 Clear -5 1002 72 10000 5.1 200 15:57 20.12.2019
5784 Clear -5 1002 67 10000 4.1 200 15:39 20.12.2019
5785 Clear -5 1002 67 10000 4.1 200 15:20 20.12.2019
5786 Clear -4 1002 79 10000 4.6 200 14:59 20.12.2019
5787 Clear -4 1002 79 10000 4.6 200 14:40 20.12.2019
5788 Clear -5 1003 85 10000 5.1 220 14:22 20.12.2019
5789 Clear -4 1003 79 10000 5.1 220 13:55 20.12.2019
5790 Clear -5 1003 79 10000 4.6 210 13:36 20.12.2019
5791 Clear -5 1003 79 10000 4.6 210 13:18 20.12.2019
5792 Clear -5 1003 78 10000 4.1 220 12:41 20.12.2019
5793 Clear -5 1003 78 10000 4.1 220 12:19 20.12.2019
5794 Clear -5 1003 78 10000 5.1 210 11:59 20.12.2019
5795 Clear -5 1003 85 10000 4.1 210 11:40 20.12.2019
5796 Clear -6 1003 85 10000 4.1 210 11:21 20.12.2019
5797 Clear -5 1004 78 10000 3.6 210 10:59 20.12.2019
5798 Clear -5 1004 78 10000 3.6 210 10:41 20.12.2019
5799 Clear -5 1004 78 10000 4.1 210 10:21 20.12.2019
5800 Clear -5 1004 79 10000 5.1 200 09:58 20.12.2019
5801 Clear -4 1004 79 10000 4.6 200 09:40 20.12.2019
5802 Clear -4 1004 79 10000 4.6 200 09:20 20.12.2019
5803 Clear -5 1004 72 10000 3.6 200 08:44 20.12.2019
5804 Clear -4 1004 67 10000 5.1 190 08:26 20.12.2019
5805 Clear -4 1004 73 10000 6.7 200 07:59 20.12.2019
5806 Clear -7 1004 67 10000 5.7 190 07:41 20.12.2019
5807 Clear -7 1004 67 10000 5.7 190 07:20 20.12.2019
5808 Clear -6 1004 62 10000 5.7 200 06:52 20.12.2019
5809 Clear -4 1004 62 10000 3.6 190 06:33 20.12.2019
5810 Clear -6 1005 73 10000 4.6 180 05:56 20.12.2019
5811 Clear -5 1005 67 10000 5.7 190 05:37 20.12.2019
5812 Clear -5 1005 67 10000 5.7 190 05:37 20.12.2019
5813 Clear -6 1005 73 10000 3.6 190 04:33 20.12.2019
5814 Clear -5 1005 73 10000 5.1 200 03:31 20.12.2019
5815 Clouds -4 1005 73 10000 5.1 200 02:44 20.12.2019
5816 Clouds -4 1005 79 10000 5.7 210 01:54 20.12.2019
5817 Clouds -3 1006 79 10000 6.2 210 01:34 20.12.2019
5818 Clouds -4 1006 79 10000 5.7 210 00:49 20.12.2019
5819 Clouds -3 1006 79 10000 5.7 210 00:30 20.12.2019
5820 Clouds -3 1006 79 10000 4.6 220 23:56 19.12.2019
5821 Clouds -4 1006 85 10000 4.6 220 23:38 19.12.2019
5822 Clouds -2 1006 85 10000 4.6 220 23:18 19.12.2019
5823 Clouds -2 1006 92 10000 4.1 220 22:38 19.12.2019
5824 Clouds -2 1006 92 10000 4.1 220 22:20 19.12.2019
5825 Snow -1 1006 92 7000 4.1 230 21:56 19.12.2019
5826 Snow -1 1006 92 1800 4.6 260 21:38 19.12.2019
5827 Snow -1 1006 92 1800 4.6 260 21:19 19.12.2019
5828 Clouds -1 1006 86 10000 4.1 230 20:56 19.12.2019
5829 Clouds -2 1006 86 10000 4.1 230 20:37 19.12.2019
5830 Clouds -2 1006 86 10000 4.1 230 20:37 19.12.2019
5831 Clouds -2 1006 86 10000 4.1 230 20:18 19.12.2019
5832 Clouds -2 1006 86 10000 4.1 230 20:18 19.12.2019
5833 Clouds -2 1005 92 10000 3.6 240 19:57 19.12.2019
5834 Clouds -2 1005 92 10000 3.6 240 19:57 19.12.2019
5835 Clouds -3 1005 100 10000 2.6 240 19:39 19.12.2019
5836 Clouds -3 1005 100 10000 2.6 240 19:19 19.12.2019
5837 Rain -2 1005 92 10000 2.6 260 18:55 19.12.2019
5838 Rain -2 1005 92 10000 2.6 270 18:37 19.12.2019
5839 Rain -2 1005 92 10000 2.6 270 18:18 19.12.2019
5840 Rain -2 1005 92 10000 4.6 280 17:54 19.12.2019
5841 Snow -2 1005 86 10000 6.2 300 17:36 19.12.2019
5842 Snow -2 1005 86 10000 6.2 300 17:18 19.12.2019
5843 Snow -2 1005 79 10000 6.7 290 16:54 19.12.2019
5844 Rain -2 1005 74 10000 6.7 290 16:36 19.12.2019
5845 Rain -2 1005 74 10000 6.7 290 16:18 19.12.2019
5846 Clouds -1 1005 74 10000 8.7 290 15:54 19.12.2019
5847 Rain -2 1005 68 10000 8.7 290 15:36 19.12.2019
5848 Rain -2 1005 68 10000 8.7 290 15:18 19.12.2019
5849 Rain -2 1004 74 10000 8.2 300 14:42 19.12.2019
5850 Snow -1 1004 68 10000 8.7 310 14:20 19.12.2019
5851 Rain -1 1004 74 10000 8.7 300 13:58 19.12.2019
5852 Rain -1 1004 63 10000 9.3 310 13:38 19.12.2019
5853 Rain -2 1004 63 10000 9.3 310 13:19 19.12.2019
5854 Clouds -2 1003 68 10000 10.3 300 12:57 19.12.2019
5855 Rain -2 1003 68 10000 10.3 310 12:38 19.12.2019
5856 Rain -2 1003 68 10000 10.3 310 12:19 19.12.2019
5857 Snow -1 1003 68 10000 10.8 290 11:57 19.12.2019
5858 Rain -1 1003 68 10000 10.8 290 11:39 19.12.2019
5859 Rain -1 1003 68 10000 10.8 290 11:18 19.12.2019
5860 Rain -1 1003 68 10000 10.8 290 11:18 19.12.2019
5861 Clouds -2 1002 68 10000 9.3 310 10:55 19.12.2019
5862 Clouds -1 1002 68 10000 11.8 310 10:37 19.12.2019
5863 Clouds -1 1002 68 10000 11.8 310 10:18 19.12.2019
5864 Snow -2 1001 79 10000 12.3 310 09:40 19.12.2019
5865 Snow -2 1001 79 10000 12.3 310 09:40 19.12.2019
5866 Snow -2 1001 79 10000 12.3 310 09:21 19.12.2019
5867 Snow -2 1001 79 10000 13.4 310 08:58 19.12.2019
5868 Snow -1 1000 68 10000 12.3 300 08:40 19.12.2019
5869 Snow -1 1000 68 10000 12.3 300 08:19 19.12.2019
5870 Snow -1 1000 74 10000 11.3 310 07:57 19.12.2019
5871 Snow -1 1000 74 10000 12.9 310 07:38 19.12.2019
5872 Snow -1 1000 74 10000 12.9 310 07:19 19.12.2019
5873 Snow -1 999 74 10000 14.4 310 06:50 19.12.2019
5874 Clouds -1 999 74 10000 13.4 310 06:29 19.12.2019
5875 Snow -1 998 80 9000 14.4 310 05:55 19.12.2019
5876 Snow -1 998 80 9000 14.4 310 05:36 19.12.2019
5877 Snow -2 998 98 0 6.07 308 04:52 19.12.2019
5878 Snow 0 996 98 7000 16.5 330 03:21 19.12.2019
5879 Snow 1 995 86 9000 15.9 340 02:22 19.12.2019
5880 Snow 0 994 98 1500 11.3 340 01:22 19.12.2019
5881 Rain 0 994 98 10000 9.3 350 00:43 19.12.2019
5882 Snow 0 994 98 8000 8.7 330 00:24 19.12.2019
5883 Clouds 1 994 86 3000 11.3 320 23:57 18.12.2019
5884 Rain 1 993 86 10000 6.7 360 23:38 18.12.2019
5885 Rain 1 993 86 10000 6.7 360 23:18 18.12.2019
5886 Rain 1 993 86 10000 6.2 360 22:55 18.12.2019
5887 Rain 1 993 98 10000 7.2 350 22:37 18.12.2019
5888 Rain 1 993 98 10000 7.2 350 22:19 18.12.2019
5889 Rain 1 993 86 10000 7.2 360 21:56 18.12.2019
5890 Rain 1 993 86 10000 7.2 360 21:56 18.12.2019
5891 Snow 1 993 98 10000 9.3 10 21:37 18.12.2019
5892 Snow 1 993 98 10000 9.3 10 21:19 18.12.2019
5893 Clouds 1 992 98 10000 9.3 360 20:55 18.12.2019
5894 Clouds 1 992 98 10000 9.3 360 20:55 18.12.2019
5895 Rain 1 992 86 10000 7.2 360 20:37 18.12.2019
5896 Rain 1 992 86 10000 7.2 360 20:19 18.12.2019
5897 Snow 1 992 86 10000 6.7 360 19:55 18.12.2019
5898 Snow 1 991 86 10000 5.7 360 19:37 18.12.2019
5899 Snow 1 991 86 10000 5.7 360 19:18 18.12.2019
5900 Snow 1 991 86 10000 5.7 360 19:18 18.12.2019
5901 Rain 1 991 86 10000 6.2 10 18:44 18.12.2019
5902 Snow 1 991 86 10000 7.2 360 18:25 18.12.2019
5903 Snow 1 991 86 10000 7.2 360 18:25 18.12.2019
5904 Snow 1 991 86 10000 7.7 320 17:57 18.12.2019
5905 Snow 0 991 92 10000 4.1 330 17:39 18.12.2019
5906 Snow 0 991 92 10000 4.1 330 17:19 18.12.2019
5907 Snow 1 991 96 5000 7.2 310 16:56 18.12.2019
5908 Snow 1 991 96 5000 7.2 310 16:38 18.12.2019
5909 Snow 0 991 92 10000 5.7 320 16:20 18.12.2019
5910 Snow 0 991 92 2000 7.2 350 15:55 18.12.2019
5911 Snow 0 991 92 2000 7.2 350 15:37 18.12.2019
5912 Clouds 0 991 96 10000 5.1 360 15:18 18.12.2019
5913 Rain 0 991 96 10000 6.7 10 14:42 18.12.2019
5914 Rain 0 991 92 10000 5.7 360 14:22 18.12.2019
5915 Rain 0 991 92 10000 6.7 360 13:57 18.12.2019
5916 Rain 0 991 92 10000 6.7 360 13:38 18.12.2019
5917 Snow 0 991 100 10000 5.1 10 13:20 18.12.2019
5918 Snow 1 990 92 800 4.1 360 12:57 18.12.2019
5919 Snow 1 990 92 800 4.1 360 12:38 18.12.2019
5920 Snow 1 990 92 10000 3.6 360 12:19 18.12.2019
5921 Rain 0 990 92 10000 4.6 360 11:56 18.12.2019
5922 Rain 0 990 92 10000 4.6 360 11:37 18.12.2019
5923 Rain 1 990 92 6000 5.1 360 11:19 18.12.2019
5924 Rain 1 990 92 10000 6.2 360 10:55 18.12.2019
5925 Rain 1 990 92 10000 6.2 360 10:37 18.12.2019
5926 Snow 1 990 92 4000 8.2 300 10:19 18.12.2019
5927 Clouds 0 990 92 10000 6.7 310 09:50 18.12.2019
5928 Clouds 0 990 92 10000 6.7 310 09:50 18.12.2019
5929 Snow 0 990 92 7000 7.7 290 09:18 18.12.2019
5930 Snow 0 990 92 2700 6.7 290 08:41 18.12.2019
5931 Snow 0 990 94 1700 7.2 280 08:22 18.12.2019
5932 Snow 0 990 94 4500 7.2 280 07:43 18.12.2019
5933 Snow 0 990 94 10000 6.2 270 07:23 18.12.2019
5934 Rain -2 991 92 10000 5.1 270 06:56 18.12.2019
5935 Clouds -2 991 92 10000 4.6 270 06:27 18.12.2019
5936 Rain -2 991 86 10000 4.1 260 05:54 18.12.2019
5937 Clouds -3 991 92 10000 3.1 260 04:59 18.12.2019
5938 Clouds -3 991 86 10000 1.5 20 02:55 18.12.2019
5939 Clouds -3 991 86 10000 1.5 20 02:37 18.12.2019
5940 Clouds -2 991 86 10000 1.5 20 02:18 18.12.2019
5941 Clouds -4 991 92 10000 1 0 01:41 18.12.2019
5942 Clouds -3 992 86 10000 1 0 01:22 18.12.2019
5943 Clouds -3 992 86 10000 1 0 00:41 18.12.2019
5944 Clouds -3 992 86 10000 1.5 70 00:23 18.12.2019
5945 Clouds -3 992 86 10000 1 0 23:57 17.12.2019
5946 Clouds -1 992 86 10000 1 0 23:39 17.12.2019
5947 Clouds -1 991 79 10000 1.5 0 23:19 17.12.2019
5948 Clouds -1 991 86 10000 1 0 22:56 17.12.2019
5949 Clouds -1 991 86 10000 1 0 22:38 17.12.2019
5950 Clouds -1 992 86 10000 1.5 230 22:19 17.12.2019
5951 Clouds -1 991 86 10000 1.5 200 21:55 17.12.2019
5952 Clouds -1 991 86 10000 1.5 200 21:37 17.12.2019
5953 Clouds -1 991 79 10000 1.5 130 21:19 17.12.2019
5954 Clouds -1 991 79 10000 2.6 130 20:57 17.12.2019
5955 Clouds -1 991 79 10000 2.6 130 20:38 17.12.2019
5956 Clouds -1 991 86 10000 2.1 130 20:18 17.12.2019
5957 Clouds -2 991 92 10000 1.5 130 19:56 17.12.2019
5958 Clouds -2 991 92 10000 1.5 130 19:38 17.12.2019
5959 Clouds -1 991 86 10000 1.5 0 19:18 17.12.2019
5960 Clouds -1 991 92 10000 2.1 170 18:54 17.12.2019
5961 Clouds -1 991 92 10000 2.1 170 18:36 17.12.2019
5962 Clouds 0 991 86 10000 2.6 150 18:18 17.12.2019
5963 Clouds -1 991 92 10000 2.6 140 17:42 17.12.2019
5964 Clouds -1 991 92 10000 2.6 140 17:42 17.12.2019
5965 Clouds -1 991 92 10000 2.6 140 17:42 17.12.2019
5966 Clouds -1 991 86 10000 1 0 17:21 17.12.2019
5967 Clouds -1 991 86 10000 1 0 17:21 17.12.2019
5968 Clouds -1 991 92 10000 1 180 16:57 17.12.2019
5969 Clouds -1 991 92 10000 1 180 16:57 17.12.2019
5970 Clouds -1 991 92 10000 1 180 16:38 17.12.2019
5971 Clouds 0 991 92 10000 2.1 200 16:19 17.12.2019
5972 Clouds 0 991 92 10000 2.1 200 15:59 17.12.2019
5973 Clouds 0 991 92 10000 2.6 210 15:38 17.12.2019
5974 Clouds 0 991 92 10000 2.1 190 15:19 17.12.2019
5975 Clouds 0 991 92 10000 2.1 210 14:56 17.12.2019
5976 Clouds 0 991 92 10000 2.1 210 14:38 17.12.2019
5977 Clouds 0 991 92 10000 1.5 220 14:19 17.12.2019
5978 Clouds -1 991 100 10000 1 0 13:56 17.12.2019
5979 Clouds -1 991 100 10000 1 0 13:38 17.12.2019
5980 Rain -1 991 100 10000 2.76 186 13:19 17.12.2019
5981 Snow -1 991 100 10000 1.83 223 12:56 17.12.2019
5982 Snow -1 991 100 10000 1.83 223 12:37 17.12.2019
5983 Snow -1 991 100 10000 1.83 223 12:18 17.12.2019
5984 Snow -1 991 100 5000 1 140 11:56 17.12.2019
5985 Snow -1 991 100 5000 1 140 11:36 17.12.2019
5986 Snow -1 992 100 4600 2.6 120 11:18 17.12.2019
5987 Snow -1 992 100 4600 2.6 120 11:18 17.12.2019
5988 Snow -1 992 100 4600 2.6 120 11:18 17.12.2019
5989 Snow -1 992 92 4500 3.1 110 10:55 17.12.2019
5990 Snow -1 992 92 4500 3.1 110 10:37 17.12.2019
5991 Snow -1 992 92 4500 2.6 110 10:18 17.12.2019
5992 Snow -1 992 92 3600 2.1 110 09:42 17.12.2019
5993 Snow -1 992 92 10000 1.5 140 09:21 17.12.2019
5994 Snow 0 992 92 7000 1 120 08:58 17.12.2019
5995 Snow 0 992 92 7000 1 120 08:40 17.12.2019
5996 Snow 0 992 86 8000 1 110 08:21 17.12.2019
5997 Snow 0 992 86 10000 3.1 130 07:58 17.12.2019
5998 Snow 0 992 86 10000 3.1 130 07:39 17.12.2019
5999 Snow -1 992 86 10000 3.1 110 07:20 17.12.2019
6000 Clouds -1 992 80 10000 3.6 120 06:42 17.12.2019
6001 Clouds -1 992 86 10000 5.1 140 06:24 17.12.2019
6002 Clouds -1 992 80 10000 5.1 130 05:41 17.12.2019
6003 Clouds -1 992 80 10000 4.6 130 04:51 17.12.2019
6004 Clouds 0 993 86 10000 6.7 140 03:50 17.12.2019
6005 Clouds 0 993 86 10000 11.3 150 02:25 17.12.2019
6006 Clouds -1 993 80 10000 10.3 140 01:21 17.12.2019
6007 Clouds 0 993 90 10000 6.7 130 00:47 17.12.2019
6008 Clouds 0 993 90 10000 8.2 120 00:21 17.12.2019
6009 Clouds 0 993 90 10000 8.2 120 00:21 17.12.2019
6010 Clouds 0 993 90 10000 8.2 120 00:21 17.12.2019
6011 Clouds 0 993 90 10000 10.8 130 23:57 16.12.2019
6012 Clouds 0 993 90 10000 10.8 130 23:38 16.12.2019
6013 Clouds 2 994 90 10000 11.3 130 23:18 16.12.2019
6014 Clouds 1 994 90 10000 9.8 140 22:54 16.12.2019
6015 Clouds 1 994 90 10000 9.8 140 22:36 16.12.2019
6016 Clouds 1 994 90 10000 8.2 140 22:18 16.12.2019
6017 Snow 1 994 90 10000 6.7 120 21:54 16.12.2019
6018 Snow 1 994 90 10000 6.7 120 21:36 16.12.2019
6019 Snow 1 994 90 10000 7.2 120 21:18 16.12.2019
6020 Snow 1 994 90 10000 7.7 120 20:54 16.12.2019
6021 Snow 1 994 90 10000 7.7 120 20:36 16.12.2019
6022 Snow 0 994 90 10000 7.2 120 20:18 16.12.2019
6023 Snow 0 995 90 10000 7.7 120 19:54 16.12.2019
6024 Snow 0 995 90 10000 7.7 120 19:36 16.12.2019
6025 Snow 0 995 90 10000 7.7 120 19:18 16.12.2019
6026 Snow 0 995 90 10000 7.7 120 19:18 16.12.2019
6027 Snow 0 995 90 10000 8.2 120 18:42 16.12.2019
6028 Snow 1 995 80 10000 7.2 120 18:20 16.12.2019
6029 Snow 1 995 80 10000 7.2 120 18:20 16.12.2019
6030 Snow 0 995 90 10000 8.2 120 17:59 16.12.2019
6031 Snow 1 995 90 10000 8.2 120 17:40 16.12.2019
6032 Clouds 1 995 91 10000 7.2 140 17:21 16.12.2019
6033 Clouds 1 995 91 10000 7.2 120 16:58 16.12.2019
6034 Clouds 1 995 91 10000 7.2 120 16:39 16.12.2019
6035 Clouds 2 995 80 10000 6.2 120 16:20 16.12.2019
6036 Clouds 2 995 91 10000 7.2 110 15:59 16.12.2019
6037 Clouds 2 995 91 10000 7.2 110 15:39 16.12.2019
6038 Clouds 2 995 91 10000 7.2 110 15:39 16.12.2019
6039 Clouds 2 996 91 10000 8.7 110 15:21 16.12.2019
6040 Clouds 1 995 91 10000 6.2 100 14:58 16.12.2019
6041 Clouds 1 995 91 10000 6.2 100 14:38 16.12.2019
6042 Clouds 1 995 87 10000 3.1 110 14:20 16.12.2019
6043 Clouds 2 995 69 10000 3.1 140 13:58 16.12.2019
6044 Clouds 2 995 69 10000 3.1 140 13:38 16.12.2019
6045 Clouds 2 996 74 10000 5.7 180 13:20 16.12.2019
6046 Clouds 1 996 87 10000 5.1 160 12:58 16.12.2019
6047 Clouds 1 996 85 10000 5.1 160 12:40 16.12.2019
6048 Clouds 1 996 87 10000 3.6 160 12:20 16.12.2019
6049 Clouds 2 996 87 10000 6.7 140 11:59 16.12.2019
6050 Clouds 2 996 87 10000 6.7 140 11:41 16.12.2019
6051 Clouds 2 996 87 10000 7.2 130 11:21 16.12.2019
6052 Clouds 0 996 87 10000 7.2 140 10:58 16.12.2019
6053 Clouds 2 996 87 10000 7.2 140 10:40 16.12.2019
6054 Clouds 2 996 74 10000 6.2 130 10:20 16.12.2019
6055 Clouds 2 996 74 10000 7.7 160 09:46 16.12.2019
6056 Clouds 2 996 74 10000 12.3 140 09:28 16.12.2019
6057 Clouds 2 996 74 10000 7.7 170 08:58 16.12.2019
6058 Clouds 2 996 74 10000 7.7 170 08:58 16.12.2019
6059 Clouds 2 996 74 10000 7.7 170 08:38 16.12.2019
6060 Clouds 2 996 74 10000 8.7 160 08:19 16.12.2019
6061 Clouds 2 996 74 10000 7.2 180 07:49 16.12.2019
6062 Clouds 2 996 74 10000 7.2 180 07:30 16.12.2019
6063 Clouds 0 996 88 10000 9.3 180 06:46 16.12.2019
6064 Clouds 0 996 88 10000 9.3 170 06:26 16.12.2019
6065 Clouds 0 996 88 10000 10.3 160 05:56 16.12.2019
6066 Clouds 0 996 88 10000 10.3 160 05:35 16.12.2019
6067 Clouds 0 996 88 10000 9.8 170 04:33 16.12.2019
6068 Clouds 0 996 88 10000 11.8 180 02:49 16.12.2019
6069 Clouds 1 996 69 10000 9.3 170 01:45 16.12.2019
6070 Clouds 1 997 69 10000 10.8 170 00:55 16.12.2019
6071 Clouds 1 997 69 10000 10.8 170 00:36 16.12.2019
6072 Clouds 1 997 74 10000 9.3 150 00:18 16.12.2019
6073 Clouds 2 997 74 10000 13.9 180 23:40 15.12.2019
6074 Clouds 2 997 85 10000 9.8 150 23:21 15.12.2019
6075 Clouds 2 997 85 10000 13.4 160 22:56 15.12.2019
6076 Clouds 2 997 85 10000 13.4 160 22:38 15.12.2019
6077 Clouds 2 997 85 10000 10.8 170 22:19 15.12.2019
6078 Clouds 2 997 85 10000 14.4 160 21:57 15.12.2019
6079 Clouds 2 997 85 10000 14.4 160 21:38 15.12.2019
6080 Clouds 2 997 74 10000 12.9 150 21:19 15.12.2019
6081 Clouds 2 997 85 10000 12.9 160 20:57 15.12.2019
6082 Clouds 2 997 85 10000 12.9 160 20:38 15.12.2019
6083 Clouds 1 997 74 10000 13.9 170 20:19 15.12.2019
6084 Clouds 1 997 74 10000 13.4 170 19:57 15.12.2019
6085 Clouds 1 997 74 10000 13.4 170 19:39 15.12.2019
6086 Clouds 1 997 74 10000 14.9 180 19:19 15.12.2019
6087 Clouds 1 997 74 10000 12.3 170 18:57 15.12.2019
6088 Clouds 1 997 74 10000 12.3 170 18:38 15.12.2019
6089 Clouds 1 997 74 10000 12.3 170 18:38 15.12.2019
6090 Clouds 1 998 74 10000 14.9 180 18:18 15.12.2019
6091 Clouds 1 998 74 10000 10.3 180 17:56 15.12.2019
6092 Clouds 2 998 74 10000 10.3 180 17:37 15.12.2019
6093 Clouds 2 998 74 10000 10.8 180 17:19 15.12.2019
6094 Clouds 2 998 74 10000 11.8 170 16:57 15.12.2019
6095 Clouds 2 998 74 10000 11.8 170 16:39 15.12.2019
6096 Clouds 2 998 74 10000 11.3 170 16:20 15.12.2019
6097 Clouds 2 998 74 10000 11.8 170 15:55 15.12.2019
6098 Clouds 2 998 74 10000 11.8 170 15:37 15.12.2019
6099 Clouds 2 998 69 10000 12.9 170 15:18 15.12.2019
6100 Clouds 2 998 69 10000 16.5 160 14:55 15.12.2019
6101 Clouds 2 998 69 10000 16.5 160 14:55 15.12.2019
6102 Clouds 2 998 69 10000 16.5 160 14:36 15.12.2019
6103 Clouds 1 998 69 10000 12.3 170 14:18 15.12.2019
6104 Clouds 1 998 74 10000 12.3 180 13:55 15.12.2019
6105 Clouds 1 998 74 10000 12.3 180 13:36 15.12.2019
6106 Clouds 1 998 74 10000 14.9 190 13:18 15.12.2019
6107 Clouds 1 998 74 10000 14.9 190 13:18 15.12.2019
6108 Clouds 1 998 74 10000 13.4 180 12:56 15.12.2019
6109 Clouds 1 998 74 10000 13.4 180 12:37 15.12.2019
6110 Clouds 1 998 74 10000 13.4 180 12:19 15.12.2019
6111 Clouds 1 998 74 10000 17 190 11:38 15.12.2019
6112 Clouds 1 998 80 10000 14.4 180 11:20 15.12.2019
6113 Clouds 1 998 80 10000 12.3 180 10:58 15.12.2019
6114 Clouds 1 998 80 10000 12.3 180 10:40 15.12.2019
6115 Clouds 1 999 80 10000 13.4 190 10:20 15.12.2019
6116 Clouds 1 999 80 10000 13.9 180 09:59 15.12.2019
6117 Clouds 1 999 80 10000 13.9 180 09:38 15.12.2019
6118 Clouds 1 999 74 10000 13.4 180 09:20 15.12.2019
6119 Clouds 1 999 74 10000 13.4 180 08:55 15.12.2019
6120 Clouds 1 999 74 10000 13.4 180 08:37 15.12.2019
6121 Clouds 1 999 74 10000 12.3 180 08:19 15.12.2019
6122 Clouds 1 999 74 10000 13.4 170 07:53 15.12.2019
6123 Clouds 1 999 74 10000 13.4 170 07:32 15.12.2019
6124 Clouds 1 999 80 10000 8.7 180 06:30 15.12.2019
6125 Clouds 1 999 74 10000 10.3 180 05:50 15.12.2019
6126 Clouds 0 999 86 10000 9.8 180 05:23 15.12.2019
6127 Clouds 0 999 89 10000 9.3 180 04:24 15.12.2019
6128 Clouds 0 1000 89 10000 10.8 190 02:59 15.12.2019
6129 Clouds 0 1000 89 10000 10.8 190 02:32 15.12.2019
6130 Clouds 1 1000 74 10000 9.8 190 01:42 15.12.2019
6131 Clouds 1 1000 74 10000 8.2 190 01:20 15.12.2019
6132 Clouds 1 1000 74 10000 8.2 200 00:51 15.12.2019
6133 Clouds 1 1000 74 10000 8.2 200 00:33 15.12.2019
6134 Clouds 1 1000 74 10000 9.8 200 23:56 14.12.2019
6135 Clouds 1 1000 74 10000 9.8 200 23:38 14.12.2019
6136 Clouds 1 999 69 10000 9.8 200 23:18 14.12.2019
6137 Clouds 0 999 88 10000 7.7 190 22:56 14.12.2019
6138 Clouds 0 999 88 10000 7.7 190 22:37 14.12.2019
6139 Clouds 0 999 88 10000 8.7 200 22:19 14.12.2019
6140 Clouds 0 999 88 10000 6.7 200 21:55 14.12.2019
6141 Clouds 0 999 88 10000 6.7 200 21:37 14.12.2019
6142 Clouds 0 999 88 10000 6.7 200 21:18 14.12.2019
6143 Clouds 0 999 88 10000 7.2 200 20:42 14.12.2019
6144 Clouds 0 999 84 10000 9.8 200 20:20 14.12.2019
6145 Clouds -1 999 74 10000 9.3 190 19:59 14.12.2019
6146 Clouds -1 999 74 10000 9.3 190 19:39 14.12.2019
6147 Clouds -1 999 68 10000 7.2 190 19:21 14.12.2019
6148 Clouds -1 999 63 10000 7.2 190 18:57 14.12.2019
6149 Clouds -1 999 63 10000 7.2 190 18:38 14.12.2019
6150 Clouds -1 999 63 10000 7.2 190 18:38 14.12.2019
6151 Clouds -4 999 73 10000 6.7 200 18:20 14.12.2019
6152 Clouds -6 998 67 10000 3.1 170 17:57 14.12.2019
6153 Clouds -6 998 67 10000 3.1 170 17:38 14.12.2019
6154 Clouds -3 998 68 10000 3.6 180 17:20 14.12.2019
6155 Clouds -6 998 73 10000 3.6 190 16:41 14.12.2019
6156 Clouds -4 998 68 10000 4.1 200 16:19 14.12.2019
6157 Clouds -3 998 68 10000 3.6 190 15:55 14.12.2019
6158 Clouds -3 998 68 10000 3.6 190 15:37 14.12.2019
6159 Clouds -4 998 73 10000 4.6 200 15:19 14.12.2019
6160 Clouds -4 998 79 10000 3.1 200 14:54 14.12.2019
6161 Clouds -4 998 79 10000 3.1 200 14:36 14.12.2019
6162 Clouds -5 997 79 10000 3.1 190 14:18 14.12.2019
6163 Clouds -4 997 73 10000 4.6 200 13:42 14.12.2019
6164 Clouds -5 997 79 10000 6.2 210 13:19 14.12.2019
6165 Clouds -5 997 79 10000 6.2 210 13:19 14.12.2019
6166 Clouds -4 997 85 10000 5.1 210 12:57 14.12.2019
6167 Clouds -4 997 85 10000 5.1 210 12:38 14.12.2019
6168 Clouds -4 997 85 10000 5.1 210 12:38 14.12.2019
6169 Clouds -4 997 79 10000 4.1 200 12:20 14.12.2019
6170 Clouds -4 997 73 10000 3.1 170 11:56 14.12.2019
6171 Clouds -4 997 73 10000 3.1 170 11:38 14.12.2019
6172 Clouds -3 996 79 10000 2.6 190 11:19 14.12.2019
6173 Clouds -2 996 79 10000 6.2 190 10:56 14.12.2019
6174 Clouds -2 996 79 10000 6.2 190 10:38 14.12.2019
6175 Clouds -3 996 73 10000 6.2 190 10:20 14.12.2019
6176 Clouds -4 996 73 10000 6.7 200 09:43 14.12.2019
6177 Clouds -4 996 79 10000 5.7 200 09:23 14.12.2019
6178 Clouds -3 996 79 10000 5.7 200 08:59 14.12.2019
6179 Clouds -3 996 79 10000 5.7 200 08:59 14.12.2019
6180 Clouds -3 996 79 10000 5.7 200 08:40 14.12.2019
6181 Clear -3 995 79 10000 5.7 200 08:19 14.12.2019
6182 Clear -4 995 79 10000 5.7 200 07:41 14.12.2019
6183 Clear -3 995 73 10000 4.6 200 07:22 14.12.2019
6184 Clear -2 995 79 10000 5.1 200 06:55 14.12.2019
6185 Clear -2 995 79 10000 5.1 200 06:36 14.12.2019
6186 Clear -1 994 74 10000 5.1 210 05:56 14.12.2019
6187 Clear -2 994 74 10000 5.7 200 04:35 14.12.2019
6188 Clear -2 993 68 10000 5.1 200 02:25 14.12.2019
6189 Clear 0 993 88 10000 5.1 200 01:46 14.12.2019
6190 Clear 0 993 88 10000 5.7 210 01:28 14.12.2019
6191 Clear -1 993 74 10000 5.7 200 00:44 14.12.2019
6192 Clear -1 992 74 10000 5.1 190 00:26 14.12.2019
6193 Clear 2 992 68 10000 7.7 200 23:43 13.12.2019
6194 Clear 2 992 86 10000 6.2 200 23:22 13.12.2019
6195 Clear 2 992 86 10000 6.7 210 22:59 13.12.2019
6196 Clear 2 992 86 10000 6.7 210 22:40 13.12.2019
6197 Clear 1 991 86 10000 6.2 200 22:19 13.12.2019
6198 Clear 0 991 74 10000 6.7 200 21:55 13.12.2019
6199 Clear 0 991 74 10000 6.7 200 21:36 13.12.2019
6200 Clear 1 991 74 10000 5.7 210 21:18 13.12.2019
6201 Clear 0 991 73 10000 5.1 200 20:40 13.12.2019
6202 Clear 0 990 73 10000 4.6 200 20:21 13.12.2019
6203 Clear 0 990 73 10000 4.6 200 19:58 13.12.2019
6204 Clear 0 990 74 10000 1.5 140 19:40 13.12.2019
6205 Clear 0 990 74 10000 1.5 140 19:21 13.12.2019
6206 Clear 0 990 74 10000 2.1 180 18:58 13.12.2019
6207 Clear -2 990 74 10000 3.1 200 18:40 13.12.2019
6208 Clear -2 990 74 10000 3.1 200 18:19 13.12.2019
6209 Clear -1 989 74 10000 3.6 210 17:43 13.12.2019
6210 Clouds -1 989 74 10000 4.1 220 17:20 13.12.2019
6211 Clouds -1 989 74 10000 4.1 220 17:20 13.12.2019
6212 Clouds 0 989 74 10000 3.1 210 16:59 13.12.2019
6213 Clouds 1 989 82 10000 3.1 200 16:39 13.12.2019
6214 Clouds 1 989 82 10000 3.1 200 16:20 13.12.2019
6215 Clouds 0 988 74 10000 3.6 210 15:58 13.12.2019
6216 Clouds -1 988 74 10000 4.1 210 15:37 13.12.2019
6217 Clouds -1 988 74 10000 4.1 210 15:18 13.12.2019
6218 Clouds -1 988 79 10000 5.1 210 14:41 13.12.2019
6219 Clear -3 988 79 10000 4.1 220 14:20 13.12.2019
6220 Clear 0 987 83 10000 5.1 210 13:57 13.12.2019
6221 Clear 0 987 83 10000 5.1 210 13:38 13.12.2019
6222 Clear 0 987 83 10000 5.1 210 13:19 13.12.2019
6223 Clear 0 987 83 10000 5.7 190 12:42 13.12.2019
6224 Clear 0 987 69 10000 6.2 200 12:20 13.12.2019
6225 Clear 1 987 69 10000 7.2 200 11:57 13.12.2019
6226 Clear 1 986 64 10000 7.7 200 11:39 13.12.2019
6227 Clear 1 986 64 10000 7.7 200 11:21 13.12.2019
6228 Clear 1 986 69 10000 6.7 200 10:42 13.12.2019
6229 Clear 0 986 82 10000 5.7 200 10:23 13.12.2019
6230 Clear 0 986 82 10000 4.6 190 09:59 13.12.2019
6231 Clear 1 986 82 10000 3.1 180 09:39 13.12.2019
6232 Clear 1 986 82 10000 3.1 180 09:18 13.12.2019
6233 Clear 1 985 82 10000 5.7 180 08:41 13.12.2019
6234 Clouds 1 985 82 10000 5.7 180 08:23 13.12.2019
6235 Clear 1 985 74 10000 7.2 190 07:46 13.12.2019
6236 Clear 1 985 81 10000 6.7 190 07:21 13.12.2019
6237 Clear 0 985 81 10000 6.7 190 06:55 13.12.2019
6238 Clear 0 985 81 10000 6.2 190 06:29 13.12.2019
6239 Clear 1 985 74 10000 6.2 190 05:46 13.12.2019
6240 Clear 1 985 74 10000 7.7 190 05:27 13.12.2019
6241 Clear 1 985 69 10000 5.1 190 04:35 13.12.2019
6242 Clear 1 985 69 10000 5.7 190 03:46 13.12.2019
6243 Clear 1 985 69 10000 11.3 190 02:34 13.12.2019
6244 Clear 1 985 69 10000 13.9 190 01:47 13.12.2019
6245 Clear 1 985 69 10000 13.4 190 00:57 13.12.2019
6246 Clear 1 986 69 10000 15.9 190 00:37 13.12.2019
6247 Clear 1 986 64 10000 14.9 190 23:59 12.12.2019
6248 Clear 1 985 64 10000 12.9 190 23:40 12.12.2019
6249 Clouds 2 985 64 10000 12.9 190 23:22 12.12.2019
6250 Clouds 2 985 64 10000 11.3 190 22:56 12.12.2019
6251 Clouds 1 986 81 10000 12.9 190 22:37 12.12.2019
6252 Clouds 1 986 81 10000 12.9 190 22:19 12.12.2019
6253 Clouds 1 987 81 10000 11.3 180 21:55 12.12.2019
6254 Clouds 1 987 81 10000 11.8 190 21:37 12.12.2019
6255 Clouds 1 987 81 10000 11.8 190 21:18 12.12.2019
6256 Clouds 0 986 81 10000 10.8 190 20:56 12.12.2019
6257 Clouds 0 987 81 10000 10.3 190 20:38 12.12.2019
6258 Clear 0 987 83 10000 10.3 190 20:20 12.12.2019
6259 Clear -1 987 74 10000 9.3 180 19:43 12.12.2019
6260 Clear 0 987 83 10000 11.8 190 19:23 12.12.2019
6261 Clear 0 987 83 10000 13.9 190 18:58 12.12.2019
6262 Clear 0 987 83 10000 11.3 190 18:40 12.12.2019
6263 Clear 0 987 83 10000 11.3 190 18:21 12.12.2019
6264 Clear -1 987 74 10000 10.8 180 17:59 12.12.2019
6265 Clear 1 987 74 10000 12.3 190 17:40 12.12.2019
6266 Clear 1 987 74 10000 12.3 190 17:21 12.12.2019
6267 Clear 1 987 74 10000 10.8 180 16:59 12.12.2019
6268 Clear 1 987 74 10000 13.4 180 16:41 12.12.2019
6269 Clear 1 987 74 10000 13.4 180 16:21 12.12.2019
6270 Clear 1 988 74 10000 10.8 190 15:58 12.12.2019
6271 Clear 1 988 74 10000 15.9 190 15:40 12.12.2019
6272 Clear 1 988 74 10000 15.9 190 15:19 12.12.2019
6273 Clear 1 987 68 10000 10.8 170 14:56 12.12.2019
6274 Clear 1 987 68 10000 10.8 170 14:56 12.12.2019
6275 Clear -1 987 63 10000 10.3 160 14:36 12.12.2019
6276 Clear -1 987 63 10000 10.3 160 14:18 12.12.2019
6277 Clear -1 987 68 10000 10.3 170 13:54 12.12.2019
6278 Clear -1 988 63 10000 9.8 180 13:36 12.12.2019
6279 Clouds -1 988 63 10000 9.8 180 13:18 12.12.2019
6280 Clouds -1 988 63 10000 8.2 190 12:41 12.12.2019
6281 Clouds 1 988 63 10000 8.2 190 12:22 12.12.2019
6282 Clouds 1 988 83 10000 4.1 170 11:59 12.12.2019
6283 Clouds 1 988 83 10000 4.1 170 11:40 12.12.2019
6284 Clear 1 988 73 10000 4.1 170 11:21 12.12.2019
6285 Clear 1 988 64 10000 3.6 130 10:58 12.12.2019
6286 Clear 2 988 64 10000 7.2 200 10:40 12.12.2019
6287 Clear 2 988 64 10000 7.2 200 10:21 12.12.2019
6288 Clear 3 987 59 10000 3.1 170 09:56 12.12.2019
6289 Clear 4 987 59 10000 4.1 190 09:38 12.12.2019
6290 Clear 4 987 59 10000 4.1 190 09:19 12.12.2019
6291 Clear 4 987 55 10000 5.7 200 08:47 12.12.2019
6292 Clouds 4 987 55 10000 5.7 200 08:28 12.12.2019
6293 Clouds 4 987 64 10000 6.7 200 07:55 12.12.2019
6294 Clouds 3 987 64 10000 6.7 190 07:36 12.12.2019
6295 Clouds 3 987 64 10000 6.7 190 07:18 12.12.2019
6296 Clouds 4 986 60 10000 5.7 200 06:41 12.12.2019
6297 Clouds 4 986 60 10000 5.7 200 06:21 12.12.2019
6298 Clouds 3 986 69 10000 7.2 200 05:28 12.12.2019
6299 Clouds 3 986 64 10000 7.7 200 04:46 12.12.2019
6300 Clouds 2 984 69 10000 7.7 200 02:42 12.12.2019
6301 Clouds 3 984 69 10000 8.7 200 02:24 12.12.2019
6302 Clouds 2 983 80 10000 8.7 210 01:59 12.12.2019
6303 Clouds 2 983 80 10000 8.7 210 01:36 12.12.2019
6304 Clouds 1 983 80 10000 9.3 220 00:49 12.12.2019
6305 Clouds 1 982 80 10000 8.7 210 00:22 12.12.2019
6306 Clouds 0 982 81 10000 7.2 210 23:58 11.12.2019
6307 Rain -1 982 92 10000 6.7 210 23:37 11.12.2019
6308 Rain 0 982 92 10000 6.7 210 23:18 11.12.2019
6309 Rain 0 982 86 10000 7.7 210 22:56 11.12.2019
6310 Clouds 0 981 86 10000 7.2 200 22:38 11.12.2019
6311 Clouds 0 981 86 10000 7.2 200 22:18 11.12.2019
6312 Clouds 0 981 86 10000 7.2 200 22:18 11.12.2019
6313 Snow -1 981 92 10000 6.2 190 21:54 11.12.2019
6314 Snow -1 981 92 10000 6.2 190 21:36 11.12.2019
6315 Snow -1 981 92 10000 6.2 190 21:18 11.12.2019
6316 Snow -1 980 86 7000 7.7 190 20:55 11.12.2019
6317 Snow -2 980 86 10000 7.7 190 20:36 11.12.2019
6318 Snow -2 980 86 10000 7.7 190 20:18 11.12.2019
6319 Snow -2 980 86 8000 9.8 190 19:42 11.12.2019
6320 Snow -3 980 86 6000 11.8 190 19:23 11.12.2019
6321 Snow -3 980 86 6000 13.4 190 18:59 11.12.2019
6322 Snow -4 980 85 5000 13.4 180 18:40 11.12.2019
6323 Snow -4 980 85 5000 13.4 180 18:20 11.12.2019
6324 Snow -4 981 85 5000 12.9 180 17:56 11.12.2019
6325 Snow -2 981 79 4000 15.4 170 17:38 11.12.2019
6326 Snow -2 981 79 4000 15.4 170 17:18 11.12.2019
6327 Snow -2 982 79 9000 22.1 160 16:56 11.12.2019
6328 Snow -2 982 79 9000 21.1 160 16:37 11.12.2019
6329 Snow -2 982 79 9000 21.1 160 16:19 11.12.2019
6330 Snow -2 983 79 7000 19.5 160 15:57 11.12.2019
6331 Snow -3 984 85 5000 21.1 160 15:37 11.12.2019
6332 Snow -3 984 85 5000 21.1 160 15:19 11.12.2019
6333 Snow -3 985 79 5000 19 170 14:55 11.12.2019
6334 Snow -3 985 79 10000 19 170 14:37 11.12.2019
6335 Snow -3 985 79 10000 19 170 14:18 11.12.2019
6336 Snow -3 986 79 10000 18.5 170 13:44 11.12.2019
6337 Snow -3 986 79 10000 15.9 170 13:23 11.12.2019
6338 Clouds -2 987 73 10000 17 170 12:58 11.12.2019
6339 Clouds -2 988 73 10000 17.5 170 12:39 11.12.2019
6340 Clouds -2 988 73 10000 17.5 170 12:21 11.12.2019
6341 Rain -2 989 73 10000 17.5 170 11:58 11.12.2019
6342 Rain -2 989 73 10000 14.9 170 11:39 11.12.2019
6343 Rain -2 989 73 10000 14.9 170 11:19 11.12.2019
6344 Rain -3 990 79 10000 15.9 170 10:59 11.12.2019
6345 Clouds -3 990 79 10000 19.5 160 10:39 11.12.2019
6346 Clouds -3 990 79 10000 19.5 160 10:21 11.12.2019
6347 Clouds -4 991 85 10000 17.5 160 09:56 11.12.2019
6348 Clouds -4 992 73 10000 17.5 160 09:38 11.12.2019
6349 Clouds -4 992 73 10000 17.5 160 09:19 11.12.2019
6350 Clouds -4 993 67 10000 20.6 170 08:55 11.12.2019
6351 Clouds -5 993 72 10000 18.5 160 08:36 11.12.2019
6352 Clouds -5 993 72 10000 18.5 160 08:18 11.12.2019
6353 Clouds -5 994 67 10000 18 160 07:43 11.12.2019
6354 Clouds -7 994 67 10000 13.9 170 07:23 11.12.2019
6355 Clouds -7 995 67 10000 15.4 160 06:46 11.12.2019
6356 Clouds -6 995 67 10000 13.9 160 06:24 11.12.2019
6357 Clouds -6 996 62 10000 10.8 150 05:54 11.12.2019
6358 Clouds -7 997 67 10000 12.3 150 05:35 11.12.2019
6359 Clouds -11 999 77 0 5.11 145 04:51 11.12.2019
6360 Clouds -6 999 67 10000 4.1 160 03:26 11.12.2019
6361 Clouds -5 1000 79 10000 6.7 180 02:35 11.12.2019
6362 Clouds -5 1000 73 10000 5.7 190 01:22 11.12.2019
6363 Clouds -4 1001 73 10000 7.2 200 00:38 11.12.2019
6364 Clouds -4 1001 73 10000 7.2 200 00:19 11.12.2019
6365 Clouds -5 1001 85 10000 5.7 200 23:45 10.12.2019
6366 Snow -4 1001 92 10000 4.1 220 23:26 10.12.2019
6367 Snow -3 1001 79 10000 4.6 200 22:57 10.12.2019
6368 Snow -3 1001 85 9000 4.1 210 22:39 10.12.2019
6369 Snow -3 1001 85 9000 4.1 210 22:20 10.12.2019
6370 Clouds -5 1001 85 10000 5.7 200 21:54 10.12.2019
6371 Clouds -3 1001 79 10000 5.1 200 21:36 10.12.2019
6372 Clouds -3 1001 79 10000 5.1 200 21:18 10.12.2019
6373 Clouds -4 1001 79 10000 4.1 240 20:55 10.12.2019
6374 Clouds -3 1001 73 10000 7.2 260 20:36 10.12.2019
6375 Clouds -3 1001 73 10000 7.2 260 20:18 10.12.2019
6376 Clouds -3 1000 68 10000 4.6 300 19:44 10.12.2019
6377 Clouds -3 1000 68 10000 4.6 300 19:44 10.12.2019
6378 Clouds -3 1000 53 10000 5.7 320 19:26 10.12.2019
6379 Clouds -3 1000 53 10000 5.7 320 19:26 10.12.2019
6380 Clouds -3 1000 53 10000 5.1 310 18:59 10.12.2019
6381 Clouds -3 1000 53 10000 7.2 340 18:39 10.12.2019
6382 Clouds -3 1000 53 10000 7.2 340 18:20 10.12.2019
6383 Clouds -4 1000 53 10000 8.7 320 17:55 10.12.2019
6384 Clouds -4 1000 53 10000 7.7 330 17:37 10.12.2019
6385 Clouds -4 1000 53 10000 7.7 330 17:19 10.12.2019
6386 Clouds -4 1000 58 10000 10.3 340 16:42 10.12.2019
6387 Clouds -4 999 58 10000 10.8 340 16:20 10.12.2019
6388 Clouds -4 999 58 10000 10.8 340 16:20 10.12.2019
6389 Clouds -4 999 58 10000 11.3 340 15:55 10.12.2019
6390 Snow -4 999 63 10000 8.7 330 15:37 10.12.2019
6391 Snow -4 999 63 10000 8.7 330 15:18 10.12.2019
6392 Snow -4 999 63 10000 8.7 330 15:18 10.12.2019
6393 Snow -4 999 92 10000 8.7 320 14:55 10.12.2019
6394 Snow -4 999 85 1800 5.7 310 14:36 10.12.2019
6395 Snow -4 999 85 1800 5.7 310 14:18 10.12.2019
6396 Rain -3 998 73 10000 7.7 310 13:56 10.12.2019
6397 Rain -3 998 85 10000 9.8 320 13:37 10.12.2019
6398 Rain -3 998 85 10000 9.8 320 13:18 10.12.2019
6399 Snow -4 998 92 10000 10.8 320 12:40 10.12.2019
6400 Snow -4 998 92 10000 10.8 320 12:22 10.12.2019
6401 Rain -3 997 49 10000 11.8 330 11:42 10.12.2019
6402 Rain -3 997 49 10000 11.8 330 11:24 10.12.2019
6403 Clouds -4 997 49 10000 13.9 320 10:57 10.12.2019
6404 Clouds -3 997 49 10000 16.5 330 10:38 10.12.2019
6405 Clouds -3 997 49 10000 16.5 330 10:20 10.12.2019
6406 Snow -3 996 58 10000 17.5 320 09:56 10.12.2019
6407 Snow -3 996 58 10000 17.5 330 09:38 10.12.2019
6408 Snow -3 996 58 10000 17.5 330 09:19 10.12.2019
6409 Snow -3 996 68 10000 18.5 320 08:54 10.12.2019
6410 Snow -3 995 68 10000 19 330 08:36 10.12.2019
6411 Snow -3 995 68 10000 19 330 08:36 10.12.2019
6412 Snow -3 995 68 10000 19 330 08:18 10.12.2019
6413 Snow -3 995 68 10000 18.5 330 07:43 10.12.2019
6414 Snow -3 995 68 10000 18.5 330 07:43 10.12.2019
6415 Snow -4 995 62 10000 17 330 07:25 10.12.2019
6416 Clouds -4 994 62 6000 18 330 06:47 10.12.2019
6417 Snow -4 994 62 7000 19 330 06:21 10.12.2019
6418 Snow -4 993 73 7000 18 330 05:55 10.12.2019
6419 Snow -4 992 79 3800 18.5 330 04:55 10.12.2019
6420 Snow -4 991 85 4700 21.6 310 03:39 10.12.2019
6421 Snow -3 989 73 5000 19 320 02:46 10.12.2019
6422 Snow -3 989 79 10000 21.6 320 01:45 10.12.2019
6423 Snow -3 988 86 10000 18.5 330 01:24 10.12.2019
6424 Snow -3 987 79 10000 19.5 320 00:42 10.12.2019
6425 Snow -3 987 79 10000 18.5 320 00:22 10.12.2019
6426 Snow -4 986 92 10000 20.1 330 23:42 09.12.2019
6427 Snow -3 987 86 10000 22.1 340 23:42 09.12.2019
6428 Snow -4 986 92 10000 20.1 330 23:24 09.12.2019
6429 Snow -2 985 68 10000 18 330 22:58 09.12.2019
6430 Snow -2 985 86 6000 17.5 310 22:40 09.12.2019
6431 Snow -2 985 86 6000 17.5 310 22:20 09.12.2019
6432 Snow -3 984 68 10000 18 330 21:57 09.12.2019
6433 Snow -2 984 68 7000 19.5 320 21:39 09.12.2019
6434 Snow -2 984 68 7000 19.5 320 21:39 09.12.2019
6435 Snow -2 984 68 7000 19.5 320 21:19 09.12.2019
6436 Snow -2 984 74 10000 19 320 20:57 09.12.2019
6437 Snow -1 983 79 10000 19 330 20:39 09.12.2019
6438 Snow -1 983 79 10000 19 330 20:20 09.12.2019
6439 Rain -1 983 68 10000 20.1 330 19:56 09.12.2019
6440 Rain -1 982 74 10000 19.5 340 19:38 09.12.2019
6441 Rain -1 982 74 10000 19.5 340 19:19 09.12.2019
6442 Rain -1 982 68 8000 20.6 340 18:58 09.12.2019
6443 Snow -1 982 74 10000 20.6 350 18:39 09.12.2019
6444 Snow -1 982 74 10000 20.6 350 18:20 09.12.2019
6445 Rain -1 981 74 10000 21.1 340 17:58 09.12.2019
6446 Snow -1 980 74 10000 20.6 350 17:40 09.12.2019
6447 Snow -1 980 74 10000 20.6 350 17:21 09.12.2019
6448 Snow -1 979 86 10000 20.6 340 16:56 09.12.2019
6449 Snow -1 979 86 10000 20.6 340 16:56 09.12.2019
6450 Snow -1 978 92 1500 7.7 290 16:38 09.12.2019
6451 Snow -1 978 92 1500 7.7 290 16:20 09.12.2019
6452 Snow -2 978 100 900 12.9 250 15:56 09.12.2019
6453 Snow -3 979 86 1500 12.9 250 15:37 09.12.2019
6454 Snow -3 979 86 1500 12.9 250 15:19 09.12.2019
6455 Snow -3 978 74 10000 12.3 250 14:57 09.12.2019
6456 Rain -1 979 68 10000 11.3 240 14:39 09.12.2019
6457 Rain -1 979 68 10000 11.3 240 14:18 09.12.2019
6458 Rain -2 979 73 10000 10.8 240 13:40 09.12.2019
6459 Rain -2 979 73 10000 10.8 240 13:20 09.12.2019
6460 Rain -3 979 73 10000 8.7 220 12:58 09.12.2019
6461 Rain -3 979 73 10000 8.7 220 12:40 09.12.2019
6462 Rain -3 979 79 10000 7.2 210 12:21 09.12.2019
6463 Clouds -5 979 79 10000 7.2 210 11:59 09.12.2019
6464 Clouds -6 979 85 10000 5.7 200 11:40 09.12.2019
6465 Clouds -4 979 85 10000 5.7 200 11:21 09.12.2019
6466 Clouds -4 979 73 10000 6.2 200 10:57 09.12.2019
6467 Clouds -4 979 73 10000 5.7 200 10:38 09.12.2019
6468 Clouds -4 979 73 10000 5.7 200 10:19 09.12.2019
6469 Clouds -4 979 79 10000 5.7 200 09:43 09.12.2019
6470 Clouds -4 979 79 10000 5.7 200 09:23 09.12.2019
6471 Clouds -4 979 73 10000 5.7 190 08:57 09.12.2019
6472 Clouds -4 979 79 10000 5.1 190 08:38 09.12.2019
6473 Clouds -4 979 79 10000 5.1 190 08:20 09.12.2019
6474 Snow -4 978 79 10000 4.6 200 07:48 09.12.2019
6475 Snow -6 978 85 10000 3.6 200 07:30 09.12.2019
6476 Clouds -6 978 85 10000 3.6 210 06:55 09.12.2019
6477 Clouds -5 978 79 10000 3.1 210 06:29 09.12.2019
6478 Rain -7 978 85 10000 1 0 05:31 09.12.2019
6479 Clouds -5 978 79 10000 2.1 340 04:58 09.12.2019
6480 Clouds -5 978 79 10000 2.1 340 04:27 09.12.2019
6481 Clouds -5 978 79 10000 2.1 340 04:27 09.12.2019
6482 Snow -3 978 79 10000 3.6 320 02:28 09.12.2019
6483 Clouds -3 978 73 10000 5.1 310 01:46 09.12.2019
6484 Clouds -5 978 73 10000 5.1 280 00:57 09.12.2019
6485 Clouds -5 978 73 10000 4.6 280 00:33 09.12.2019
6486 Clouds -4 978 68 10000 5.7 290 23:55 08.12.2019
6487 Clouds -4 978 68 10000 5.7 290 23:55 08.12.2019
6488 Clouds -3 978 63 10000 6.2 290 23:37 08.12.2019
6489 Clouds -3 978 63 10000 6.2 290 23:18 08.12.2019
6490 Clouds -3 979 63 10000 6.7 310 22:56 08.12.2019
6491 Clouds -3 979 58 10000 7.2 300 22:38 08.12.2019
6492 Clouds -3 979 58 10000 7.2 300 22:38 08.12.2019
6493 Clouds -3 979 58 10000 7.2 300 22:18 08.12.2019
6494 Clouds -4 979 63 10000 8.2 300 21:55 08.12.2019
6495 Clouds -3 979 54 10000 8.2 320 21:37 08.12.2019
6496 Clouds -3 979 54 10000 8.2 320 21:19 08.12.2019
6497 Clouds -2 979 63 10000 9.3 310 20:55 08.12.2019
6498 Clouds -2 979 58 10000 8.7 310 20:37 08.12.2019
6499 Clouds -2 979 58 10000 8.7 310 20:18 08.12.2019
6500 Clouds -2 979 58 10000 7.2 310 19:55 08.12.2019
6501 Clouds -3 979 63 10000 6.7 320 19:36 08.12.2019
6502 Clouds -3 979 63 10000 6.7 320 19:18 08.12.2019
6503 Clouds -2 979 58 10000 8.2 320 18:54 08.12.2019
6504 Clouds -2 979 63 10000 8.2 320 18:36 08.12.2019
6505 Clouds -2 979 63 10000 8.2 320 18:18 08.12.2019
6506 Clouds -2 979 58 10000 8.2 340 17:54 08.12.2019
6507 Clouds -1 979 58 10000 8.7 350 17:36 08.12.2019
6508 Clouds -1 979 58 10000 8.7 350 17:18 08.12.2019
6509 Clouds -1 979 63 10000 8.2 350 16:42 08.12.2019
6510 Clouds -1 979 63 10000 9.3 360 16:24 08.12.2019
6511 Clouds -1 979 63 10000 9.3 350 15:59 08.12.2019
6512 Clouds -1 979 63 10000 11.8 350 15:37 08.12.2019
6513 Clouds -1 979 63 10000 11.8 350 15:18 08.12.2019
6514 Clouds -1 979 58 10000 10.8 360 14:57 08.12.2019
6515 Clouds -1 979 58 10000 10.8 360 14:57 08.12.2019
6516 Clouds -2 979 63 10000 11.8 360 14:37 08.12.2019
6517 Clouds -2 979 63 10000 11.8 360 14:19 08.12.2019
6518 Clouds -2 979 63 10000 11.8 360 14:19 08.12.2019
6519 Clouds -1 979 58 10000 14.9 350 13:41 08.12.2019
6520 Clouds -1 979 58 10000 14.9 350 13:41 08.12.2019
6521 Clouds -1 979 54 10000 13.9 360 13:22 08.12.2019
6522 Clouds -1 979 58 10000 13.4 360 12:59 08.12.2019
6523 Clouds -1 979 58 10000 13.4 360 12:41 08.12.2019
6524 Clouds -1 979 63 10000 14.4 360 12:22 08.12.2019
6525 Clouds -1 979 63 10000 10.3 10 11:59 08.12.2019
6526 Snow -1 979 58 10000 12.3 360 11:38 08.12.2019
6527 Snow -1 979 58 10000 12.3 360 11:19 08.12.2019
6528 Snow -1 979 68 10000 12.3 360 10:57 08.12.2019
6529 Snow -1 979 63 10000 11.8 360 10:38 08.12.2019
6530 Snow -1 979 63 10000 11.8 360 10:19 08.12.2019
6531 Snow -1 979 63 10000 12.9 360 09:55 08.12.2019
6532 Snow -1 979 68 10000 12.9 360 09:37 08.12.2019
6533 Snow -1 979 68 10000 12.9 360 09:18 08.12.2019
6534 Snow -1 979 74 10000 7.2 10 08:43 08.12.2019
6535 Snow -2 979 63 10000 10.3 20 08:43 08.12.2019
6536 Snow -2 979 63 10000 10.3 20 08:23 08.12.2019
6537 Snow -1 979 58 10000 10.3 10 07:58 08.12.2019
6538 Snow -1 979 63 10000 9.3 20 07:40 08.12.2019
6539 Snow -1 979 63 10000 9.3 20 07:19 08.12.2019
6540 Snow -2 979 86 10000 9.8 20 06:41 08.12.2019
6541 Snow -2 979 86 10000 9.8 20 06:21 08.12.2019
6542 Snow -1 979 86 1800 3.6 360 05:27 08.12.2019
6543 Snow -1 979 86 10000 7.7 50 04:54 08.12.2019
6544 Snow -2 979 92 5000 11.3 30 03:41 08.12.2019
6545 Snow -4 980 92 10000 4.6 340 02:52 08.12.2019
6546 Snow -4 980 85 5000 4.1 10 02:27 08.12.2019
6547 Clouds -4 980 85 10000 2.6 30 01:48 08.12.2019
6548 Clouds -3 980 79 10000 2.6 90 00:56 08.12.2019
6549 Clouds -3 980 86 10000 4.6 100 00:37 08.12.2019
6550 Clouds -3 980 86 10000 4.6 100 00:18 08.12.2019
6551 Clouds -3 980 86 10000 6.7 90 23:39 07.12.2019
6552 Snow -3 980 86 10000 6.7 90 23:20 07.12.2019
6553 Snow -3 980 79 10000 7.2 90 22:56 07.12.2019
6554 Snow -3 980 79 10000 8.2 100 22:37 07.12.2019
6555 Snow -3 980 79 10000 8.2 100 22:19 07.12.2019
6556 Snow -3 980 79 10000 8.2 100 21:56 07.12.2019
6557 Snow -3 980 79 10000 8.7 100 21:37 07.12.2019
6558 Snow -3 980 79 10000 8.7 100 21:19 07.12.2019
6559 Snow -3 980 79 10000 8.7 100 20:54 07.12.2019
6560 Clouds -3 980 79 10000 10.3 100 20:36 07.12.2019
6561 Clouds -3 980 79 10000 10.3 100 20:18 07.12.2019
6562 Clouds -3 980 79 10000 9.3 100 19:54 07.12.2019
6563 Clouds -3 980 79 10000 9.3 100 19:36 07.12.2019
6564 Clouds -3 980 79 10000 9.3 100 19:18 07.12.2019
6565 Snow -3 980 79 10000 9.3 110 18:42 07.12.2019
6566 Clouds -4 980 85 10000 7.2 110 18:18 07.12.2019
6567 Clouds -4 980 85 10000 7.2 110 17:56 07.12.2019
6568 Snow -4 980 85 10000 8.2 110 17:37 07.12.2019
6569 Snow -4 980 85 10000 8.2 110 17:19 07.12.2019
6570 Clouds -4 980 85 10000 6.2 110 16:56 07.12.2019
6571 Clouds -4 980 85 10000 5.7 120 16:37 07.12.2019
6572 Clouds -4 980 85 10000 5.7 120 16:18 07.12.2019
6573 Clouds -4 980 85 10000 4.6 110 15:41 07.12.2019
6574 Clouds -4 980 85 10000 5.7 120 15:23 07.12.2019
6575 Snow -4 980 85 10000 6.7 120 14:57 07.12.2019
6576 Snow -4 980 85 10000 8.2 110 14:38 07.12.2019
6577 Snow -4 980 85 10000 8.2 110 14:18 07.12.2019
6578 Clouds -4 980 85 10000 9.8 110 13:41 07.12.2019
6579 Clouds -4 980 85 10000 9.8 110 13:21 07.12.2019
6580 Clouds -4 980 79 10000 9.8 110 12:56 07.12.2019
6581 Clouds -4 981 79 10000 10.3 110 12:38 07.12.2019
6582 Clouds -4 981 79 10000 10.3 110 12:20 07.12.2019
6583 Clouds -5 981 79 10000 8.2 110 11:56 07.12.2019
6584 Clouds -5 981 79 10000 7.2 110 11:37 07.12.2019
6585 Clouds -5 981 79 10000 7.2 110 11:19 07.12.2019
6586 Clouds -4 981 73 10000 8.7 130 10:37 07.12.2019
6587 Clouds -4 981 73 10000 8.7 130 10:19 07.12.2019
6588 Clouds -4 981 73 10000 10.3 140 09:41 07.12.2019
6589 Clouds -4 981 79 10000 9.8 130 09:22 07.12.2019
6590 Clouds -4 981 79 10000 10.8 140 08:47 07.12.2019
6591 Clouds -4 981 79 10000 12.3 140 08:26 07.12.2019
6592 Clouds -4 980 79 10000 8.7 120 07:58 07.12.2019
6593 Clouds -4 980 79 10000 10.3 100 07:39 07.12.2019
6594 Clouds -4 980 79 10000 10.3 100 07:21 07.12.2019
6595 Clouds -4 980 79 10000 10.3 100 07:21 07.12.2019
6596 Clouds -3 980 79 10000 11.8 100 06:45 07.12.2019
6597 Clouds -3 980 79 10000 11.8 100 06:24 07.12.2019
6598 Clouds -2 980 74 10000 12.3 100 04:52 07.12.2019
6599 Clouds -2 980 74 10000 14.9 110 03:54 07.12.2019
6600 Clouds -2 980 74 10000 14.9 110 02:56 07.12.2019
6601 Clouds -2 980 74 10000 14.9 110 02:21 07.12.2019
6602 Clouds -2 980 74 10000 15.4 110 01:34 07.12.2019
6603 Clouds -2 980 74 10000 15.9 110 00:52 07.12.2019
6604 Clouds -2 980 74 10000 14.4 110 00:19 07.12.2019
6605 Clouds 1 980 68 10000 13.9 110 23:49 06.12.2019
6606 Clouds 0 980 74 10000 14.4 110 23:25 06.12.2019
6607 Clouds 0 980 74 10000 14.4 110 22:59 06.12.2019
6608 Clouds 0 980 74 10000 14.9 110 22:37 06.12.2019
6609 Clouds 0 980 74 10000 14.9 110 22:19 06.12.2019
6610 Clouds 0 980 74 10000 14.4 110 21:57 06.12.2019
6611 Clouds 0 980 74 10000 12.3 110 21:38 06.12.2019
6612 Clouds 0 980 74 10000 12.3 110 21:19 06.12.2019
6613 Clouds 0 979 74 10000 12.9 120 20:42 06.12.2019
6614 Clouds 0 979 74 10000 12.9 120 20:42 06.12.2019
6615 Clouds 0 979 80 10000 12.9 110 20:23 06.12.2019
6616 Clouds 0 979 74 10000 12.3 110 19:59 06.12.2019
6617 Snow -1 979 80 10000 14.4 110 19:40 06.12.2019
6618 Snow 1 979 80 10000 14.4 110 19:21 06.12.2019
6619 Clouds 1 979 80 10000 15.9 110 18:55 06.12.2019
6620 Clouds 1 978 80 10000 13.9 110 18:37 06.12.2019
6621 Clouds 1 978 80 10000 13.9 110 18:19 06.12.2019
6622 Clouds 1 978 86 10000 14.4 100 17:55 06.12.2019
6623 Clouds 1 978 86 10000 13.9 100 17:37 06.12.2019
6624 Clouds 1 978 86 10000 13.9 100 17:19 06.12.2019
6625 Clouds 1 977 86 10000 13.9 100 16:42 06.12.2019
6626 Snow 1 977 92 10000 13.4 100 16:24 06.12.2019
6627 Snow 1 977 92 10000 13.4 100 15:57 06.12.2019
6628 Snow 0 977 92 10000 12.3 100 15:39 06.12.2019
6629 Snow 0 977 92 10000 12.3 100 15:18 06.12.2019
6630 Snow 0 977 95 10000 11.8 100 14:56 06.12.2019
6631 Snow 0 977 95 10000 10.8 100 14:37 06.12.2019
6632 Snow 0 977 95 10000 10.8 100 14:18 06.12.2019
6633 Snow 0 976 95 10000 9.8 100 13:42 06.12.2019
6634 Clouds 0 976 97 10000 9.8 100 13:24 06.12.2019
6635 Rain 0 976 97 10000 7.2 110 12:42 06.12.2019
6636 Rain 0 976 97 10000 7.2 110 12:22 06.12.2019
6637 Clouds 0 975 97 10000 7.7 110 11:57 06.12.2019
6638 Clouds 1 975 97 10000 7.7 100 11:39 06.12.2019
6639 Clouds 1 975 97 10000 7.7 100 11:19 06.12.2019
6640 Rain 1 975 97 10000 7.2 110 10:43 06.12.2019
6641 Rain 0 974 97 10000 8.7 90 10:21 06.12.2019
6642 Snow 0 974 97 6000 7.2 90 09:57 06.12.2019
6643 Snow 0 974 97 3000 4.6 90 09:37 06.12.2019
6644 Snow 0 974 97 3000 4.6 90 09:37 06.12.2019
6645 Snow 0 974 97 3000 4.6 90 09:37 06.12.2019
6646 Snow 0 974 97 3000 4.6 90 09:19 06.12.2019
6647 Snow 0 973 97 5000 2.1 260 08:45 06.12.2019
6648 Snow 1 973 97 4000 2.6 290 08:26 06.12.2019
6649 Clouds 0 973 92 10000 2.6 260 07:44 06.12.2019
6650 Clouds -2 972 86 10000 2.6 250 07:24 06.12.2019
6651 Clouds -3 972 86 10000 1.5 90 06:59 06.12.2019
6652 Snow -2 972 79 10000 1 0 06:28 06.12.2019
6653 Snow -3 971 79 10000 1 40 05:53 06.12.2019
6654 Clouds -3 971 79 10000 1 40 05:21 06.12.2019
6655 Clouds 0 970 83 10000 3.1 100 02:19 06.12.2019
6656 Clouds -1 970 86 10000 2.6 100 01:29 06.12.2019
6657 Clouds 0 970 81 10000 4.1 110 00:40 06.12.2019
6658 Clouds 1 970 86 10000 3.6 100 00:20 06.12.2019
6659 Clouds -1 969 86 10000 5.1 90 23:41 05.12.2019
6660 Clear 2 969 79 10000 4.6 90 23:18 05.12.2019
6661 Clear 2 970 80 10000 5.1 90 22:56 05.12.2019
6662 Clear 2 969 80 10000 5.7 90 22:37 05.12.2019
6663 Clear 2 969 80 10000 5.7 90 22:18 05.12.2019
6664 Clear 2 969 80 10000 5.7 90 22:18 05.12.2019
6665 Clear 2 969 79 10000 5.7 90 21:43 05.12.2019
6666 Clear 2 969 86 10000 4.6 90 21:25 05.12.2019
6667 Clear 2 969 86 10000 4.6 100 20:59 05.12.2019
6668 Clear 2 969 86 10000 4.6 100 20:40 05.12.2019
6669 Clouds 2 969 85 10000 4.6 100 20:20 05.12.2019
6670 Clouds 2 969 80 10000 4.6 100 20:20 05.12.2019
6671 Clouds 2 969 85 10000 4.6 100 20:20 05.12.2019
6672 Clouds 2 969 85 10000 4.6 100 20:20 05.12.2019
6673 Clouds 0 969 85 10000 4.6 90 19:57 05.12.2019
6674 Clouds 0 969 85 10000 4.6 90 19:57 05.12.2019
6675 Clouds 0 969 85 10000 4.6 90 19:39 05.12.2019
6676 Clouds -1 969 92 10000 4.1 80 19:20 05.12.2019
6677 Clouds 1 969 85 10000 4.6 70 18:57 05.12.2019
6678 Clouds 1 969 85 10000 4.6 70 18:37 05.12.2019
6679 Clouds 3 969 86 10000 3.6 70 18:19 05.12.2019
6680 Clouds 3 969 86 10000 3.6 70 18:19 05.12.2019
6681 Clouds 2 970 86 10000 2.1 80 17:39 05.12.2019
6682 Clouds 2 970 86 10000 1.5 0 17:20 05.12.2019
6683 Clouds 1 970 92 10000 1.5 180 16:57 05.12.2019
6684 Clouds 2 970 92 10000 1.5 180 16:39 05.12.2019
6685 Clouds 2 970 86 10000 1.5 190 16:21 05.12.2019
6686 Clouds 2 970 86 10000 1 0 15:57 05.12.2019
6687 Clouds 2 970 86 10000 1 0 15:38 05.12.2019
6688 Clouds 3 970 92 10000 1 220 15:20 05.12.2019
6689 Clouds 3 970 86 10000 3.7 175 14:55 05.12.2019
6690 Clouds 3 970 86 10000 3.7 175 14:37 05.12.2019
6691 Clouds 3 971 86 10000 0.5 0 14:19 05.12.2019
6692 Clouds 2 971 91 10000 2.6 270 13:56 05.12.2019
6693 Clouds 3 971 91 10000 2.6 270 13:38 05.12.2019
6694 Clouds 3 971 86 10000 4.6 270 13:19 05.12.2019
6695 Clouds 3 971 93 10000 4.1 260 12:56 05.12.2019
6696 -273 0 0 0 0 0 12:38 05.12.2019
6697 Clouds 4 971 86 10000 4.6 260 12:19 05.12.2019
6698 Clouds 4 971 94 10000 5.1 260 11:39 05.12.2019
6699 Rain 4 971 96 10000 6.2 280 11:20 05.12.2019
6700 Rain 4 971 93 10000 8.2 260 10:58 05.12.2019
6701 Rain 4 971 93 10000 8.2 260 10:40 05.12.2019
6702 Rain 5 972 86 10000 11.8 280 10:19 05.12.2019
6703 Rain 5 971 80 10000 5.7 210 09:55 05.12.2019
6704 Rain 5 971 80 10000 5.7 210 09:36 05.12.2019
6705 Clouds 5 971 80 10000 5.7 200 09:18 05.12.2019
6706 Clouds 4 972 86 10000 4.1 170 08:39 05.12.2019
6707 Clouds 4 972 80 10000 5.7 170 08:20 05.12.2019
6708 Rain 5 972 80 10000 6.7 180 07:57 05.12.2019
6709 Rain 5 972 80 10000 6.7 180 07:38 05.12.2019
6710 Drizzle 3 972 86 10000 11.8 150 07:20 05.12.2019
6711 Rain 3 973 86 10000 14.9 150 06:45 05.12.2019
6712 Rain 4 973 80 10000 12.9 140 06:23 05.12.2019
6713 Rain 4 974 80 10000 11.3 150 05:48 05.12.2019
6714 Clouds 4 974 80 10000 8.7 120 05:24 05.12.2019
6715 Clouds 4 975 80 10000 7.2 130 04:27 05.12.2019
6716 Clouds 4 975 80 10000 7.2 130 04:27 05.12.2019
6717 Clouds 2 976 83 10000 1.5 170 03:31 05.12.2019
6718 Clouds 3 977 86 10000 4.6 250 02:40 05.12.2019